<?xml version="1.0" encoding="UTF-8" standalone="no" ?>
<gpx xmlns="http://www.topografix.com/GPX/1/1" xmlns:xsi="http://www.w3.org/2001/XMLSchema-instance" xsi:schemaLocation="http://www.topografix.com/GPX/1/1 http://www.topografix.com/GPX/1/1/gpx.xsd" version="1.1" creator="VisuGPX - https://www.visugpx.com">
  <metadata>
    <name>Cette fois ci, je l'ai vraiment trouvé, ce chemin ....</name>
    <desc><![CDATA[Randonnée matinale, au dessus de Roquemengarde]]></desc>
  </metadata>
  <trk>
    <name><![CDATA[20190110115854-W9tkY]]></name>
    <trkseg>
      <trkpt lat="43.53375" lon="3.50202">
        <ele>43.7</ele>
        <time>2019-01-10T07:39:44Z</time>
      </trkpt>
      <trkpt lat="43.5338" lon="3.502">
        <ele>43.7</ele>
        <time>2019-01-10T07:39:45Z</time>
      </trkpt>
      <trkpt lat="43.53384" lon="3.502">
        <ele>43.7</ele>
        <time>2019-01-10T07:39:46Z</time>
      </trkpt>
      <trkpt lat="43.53379" lon="3.50201">
        <ele>43.7</ele>
        <time>2019-01-10T07:39:47Z</time>
      </trkpt>
      <trkpt lat="43.53383" lon="3.502">
        <ele>43.8</ele>
        <time>2019-01-10T07:39:49Z</time>
      </trkpt>
      <trkpt lat="43.53387" lon="3.502">
        <ele>44</ele>
        <time>2019-01-10T07:39:51Z</time>
      </trkpt>
      <trkpt lat="43.53389" lon="3.50204">
        <ele>44.1</ele>
        <time>2019-01-10T07:39:56Z</time>
      </trkpt>
      <trkpt lat="43.5339" lon="3.50209">
        <ele>44.2</ele>
        <time>2019-01-10T07:40:00Z</time>
      </trkpt>
      <trkpt lat="43.53392" lon="3.50212">
        <ele>44.3</ele>
        <time>2019-01-10T07:40:03Z</time>
      </trkpt>
      <trkpt lat="43.53394" lon="3.50214">
        <ele>44.4</ele>
        <time>2019-01-10T07:40:12Z</time>
      </trkpt>
      <trkpt lat="43.53397" lon="3.50217">
        <ele>44.5</ele>
        <time>2019-01-10T07:40:14Z</time>
      </trkpt>
      <trkpt lat="43.53398" lon="3.5022">
        <ele>44.6</ele>
        <time>2019-01-10T07:40:16Z</time>
      </trkpt>
      <trkpt lat="43.53398" lon="3.50225">
        <ele>44.8</ele>
        <time>2019-01-10T07:40:19Z</time>
      </trkpt>
      <trkpt lat="43.53399" lon="3.50229">
        <ele>44.8</ele>
        <time>2019-01-10T07:40:21Z</time>
      </trkpt>
      <trkpt lat="43.53401" lon="3.50233">
        <ele>44.9</ele>
        <time>2019-01-10T07:40:24Z</time>
      </trkpt>
      <trkpt lat="43.53403" lon="3.50236">
        <ele>45</ele>
        <time>2019-01-10T07:40:26Z</time>
      </trkpt>
      <trkpt lat="43.53405" lon="3.50241">
        <ele>45.2</ele>
        <time>2019-01-10T07:40:28Z</time>
      </trkpt>
      <trkpt lat="43.53406" lon="3.50245">
        <ele>45.3</ele>
        <time>2019-01-10T07:40:30Z</time>
      </trkpt>
      <trkpt lat="43.53407" lon="3.50249">
        <ele>45.4</ele>
        <time>2019-01-10T07:40:33Z</time>
      </trkpt>
      <trkpt lat="43.53409" lon="3.50253">
        <ele>45.5</ele>
        <time>2019-01-10T07:40:35Z</time>
      </trkpt>
      <trkpt lat="43.5341" lon="3.50257">
        <ele>45.6</ele>
        <time>2019-01-10T07:40:37Z</time>
      </trkpt>
      <trkpt lat="43.53411" lon="3.50261">
        <ele>45.7</ele>
        <time>2019-01-10T07:40:40Z</time>
      </trkpt>
      <trkpt lat="43.53412" lon="3.50266">
        <ele>45.9</ele>
        <time>2019-01-10T07:40:43Z</time>
      </trkpt>
      <trkpt lat="43.53414" lon="3.50269">
        <ele>46.1</ele>
        <time>2019-01-10T07:40:45Z</time>
      </trkpt>
      <trkpt lat="43.53415" lon="3.50273">
        <ele>46.3</ele>
        <time>2019-01-10T07:40:47Z</time>
      </trkpt>
      <trkpt lat="43.53416" lon="3.50277">
        <ele>46.4</ele>
        <time>2019-01-10T07:40:49Z</time>
      </trkpt>
      <trkpt lat="43.53417" lon="3.50281">
        <ele>46.5</ele>
        <time>2019-01-10T07:40:53Z</time>
      </trkpt>
      <trkpt lat="43.53416" lon="3.50286">
        <ele>47</ele>
        <time>2019-01-10T07:40:56Z</time>
      </trkpt>
      <trkpt lat="43.53413" lon="3.50289">
        <ele>47.1</ele>
        <time>2019-01-10T07:40:59Z</time>
      </trkpt>
      <trkpt lat="43.53411" lon="3.50292">
        <ele>47.1</ele>
        <time>2019-01-10T07:41:02Z</time>
      </trkpt>
      <trkpt lat="43.53408" lon="3.50296">
        <ele>47.1</ele>
        <time>2019-01-10T07:41:05Z</time>
      </trkpt>
      <trkpt lat="43.53405" lon="3.503">
        <ele>47.1</ele>
        <time>2019-01-10T07:41:07Z</time>
      </trkpt>
      <trkpt lat="43.53403" lon="3.50303">
        <ele>47.1</ele>
        <time>2019-01-10T07:41:10Z</time>
      </trkpt>
      <trkpt lat="43.534" lon="3.50304">
        <ele>47.1</ele>
        <time>2019-01-10T07:41:13Z</time>
      </trkpt>
      <trkpt lat="43.53397" lon="3.50306">
        <ele>47.1</ele>
        <time>2019-01-10T07:41:15Z</time>
      </trkpt>
      <trkpt lat="43.53394" lon="3.50308">
        <ele>47.1</ele>
        <time>2019-01-10T07:41:18Z</time>
      </trkpt>
      <trkpt lat="43.53393" lon="3.50302">
        <ele>47.1</ele>
        <time>2019-01-10T07:41:22Z</time>
      </trkpt>
      <trkpt lat="43.53392" lon="3.50298">
        <ele>47.1</ele>
        <time>2019-01-10T07:41:24Z</time>
      </trkpt>
      <trkpt lat="43.53391" lon="3.50295">
        <ele>46.9</ele>
        <time>2019-01-10T07:41:26Z</time>
      </trkpt>
      <trkpt lat="43.53389" lon="3.5029">
        <ele>46.7</ele>
        <time>2019-01-10T07:41:29Z</time>
      </trkpt>
      <trkpt lat="43.53387" lon="3.50286">
        <ele>46.5</ele>
        <time>2019-01-10T07:41:32Z</time>
      </trkpt>
      <trkpt lat="43.53386" lon="3.50283">
        <ele>46.3</ele>
        <time>2019-01-10T07:41:35Z</time>
      </trkpt>
      <trkpt lat="43.53383" lon="3.5028">
        <ele>46</ele>
        <time>2019-01-10T07:41:37Z</time>
      </trkpt>
      <trkpt lat="43.53381" lon="3.50275">
        <ele>45.9</ele>
        <time>2019-01-10T07:41:40Z</time>
      </trkpt>
      <trkpt lat="43.5338" lon="3.50272">
        <ele>45.8</ele>
        <time>2019-01-10T07:41:42Z</time>
      </trkpt>
      <trkpt lat="43.53377" lon="3.50269">
        <ele>45.6</ele>
        <time>2019-01-10T07:41:44Z</time>
      </trkpt>
      <trkpt lat="43.53376" lon="3.50263">
        <ele>45.4</ele>
        <time>2019-01-10T07:41:47Z</time>
      </trkpt>
      <trkpt lat="43.53375" lon="3.5026">
        <ele>45.2</ele>
        <time>2019-01-10T07:41:49Z</time>
      </trkpt>
      <trkpt lat="43.53373" lon="3.50255">
        <ele>45</ele>
        <time>2019-01-10T07:41:52Z</time>
      </trkpt>
      <trkpt lat="43.5337" lon="3.50252">
        <ele>44.9</ele>
        <time>2019-01-10T07:41:54Z</time>
      </trkpt>
      <trkpt lat="43.53368" lon="3.50247">
        <ele>44.7</ele>
        <time>2019-01-10T07:41:57Z</time>
      </trkpt>
      <trkpt lat="43.53367" lon="3.50243">
        <ele>44.5</ele>
        <time>2019-01-10T07:42:00Z</time>
      </trkpt>
      <trkpt lat="43.53366" lon="3.50238">
        <ele>44.3</ele>
        <time>2019-01-10T07:42:03Z</time>
      </trkpt>
      <trkpt lat="43.53366" lon="3.50235">
        <ele>44.2</ele>
        <time>2019-01-10T07:42:05Z</time>
      </trkpt>
      <trkpt lat="43.53365" lon="3.50231">
        <ele>44</ele>
        <time>2019-01-10T07:42:07Z</time>
      </trkpt>
      <trkpt lat="43.53362" lon="3.50227">
        <ele>43.9</ele>
        <time>2019-01-10T07:42:10Z</time>
      </trkpt>
      <trkpt lat="43.53359" lon="3.50225">
        <ele>43.7</ele>
        <time>2019-01-10T07:42:12Z</time>
      </trkpt>
      <trkpt lat="43.53357" lon="3.50221">
        <ele>43.6</ele>
        <time>2019-01-10T07:42:15Z</time>
      </trkpt>
      <trkpt lat="43.53355" lon="3.50218">
        <ele>43.4</ele>
        <time>2019-01-10T07:42:17Z</time>
      </trkpt>
      <trkpt lat="43.53354" lon="3.50215">
        <ele>43.3</ele>
        <time>2019-01-10T07:42:19Z</time>
      </trkpt>
      <trkpt lat="43.53352" lon="3.50211">
        <ele>43.2</ele>
        <time>2019-01-10T07:42:21Z</time>
      </trkpt>
      <trkpt lat="43.5335" lon="3.50207">
        <ele>43</ele>
        <time>2019-01-10T07:42:23Z</time>
      </trkpt>
      <trkpt lat="43.53348" lon="3.50204">
        <ele>42.9</ele>
        <time>2019-01-10T07:42:25Z</time>
      </trkpt>
      <trkpt lat="43.53347" lon="3.502">
        <ele>42.8</ele>
        <time>2019-01-10T07:42:27Z</time>
      </trkpt>
      <trkpt lat="43.53346" lon="3.50196">
        <ele>42.6</ele>
        <time>2019-01-10T07:42:29Z</time>
      </trkpt>
      <trkpt lat="43.53345" lon="3.50191">
        <ele>42.5</ele>
        <time>2019-01-10T07:42:31Z</time>
      </trkpt>
      <trkpt lat="43.53343" lon="3.50187">
        <ele>42.4</ele>
        <time>2019-01-10T07:42:33Z</time>
      </trkpt>
      <trkpt lat="43.53343" lon="3.50181">
        <ele>42.2</ele>
        <time>2019-01-10T07:42:36Z</time>
      </trkpt>
      <trkpt lat="43.53342" lon="3.50176">
        <ele>42</ele>
        <time>2019-01-10T07:42:39Z</time>
      </trkpt>
      <trkpt lat="43.53341" lon="3.50172">
        <ele>41.9</ele>
        <time>2019-01-10T07:42:41Z</time>
      </trkpt>
      <trkpt lat="43.53339" lon="3.50168">
        <ele>41.8</ele>
        <time>2019-01-10T07:42:44Z</time>
      </trkpt>
      <trkpt lat="43.53337" lon="3.50163">
        <ele>41.7</ele>
        <time>2019-01-10T07:42:47Z</time>
      </trkpt>
      <trkpt lat="43.53337" lon="3.50159">
        <ele>41.6</ele>
        <time>2019-01-10T07:42:49Z</time>
      </trkpt>
      <trkpt lat="43.53337" lon="3.50155">
        <ele>41.5</ele>
        <time>2019-01-10T07:42:51Z</time>
      </trkpt>
      <trkpt lat="43.53337" lon="3.50151">
        <ele>41.3</ele>
        <time>2019-01-10T07:42:53Z</time>
      </trkpt>
      <trkpt lat="43.53338" lon="3.50147">
        <ele>41.3</ele>
        <time>2019-01-10T07:42:55Z</time>
      </trkpt>
      <trkpt lat="43.5334" lon="3.50143">
        <ele>41.3</ele>
        <time>2019-01-10T07:42:57Z</time>
      </trkpt>
      <trkpt lat="43.53342" lon="3.5014">
        <ele>41.3</ele>
        <time>2019-01-10T07:42:59Z</time>
      </trkpt>
      <trkpt lat="43.53344" lon="3.50137">
        <ele>41.3</ele>
        <time>2019-01-10T07:43:01Z</time>
      </trkpt>
      <trkpt lat="43.53346" lon="3.50135">
        <ele>41.2</ele>
        <time>2019-01-10T07:43:03Z</time>
      </trkpt>
      <trkpt lat="43.53348" lon="3.50131">
        <ele>41.2</ele>
        <time>2019-01-10T07:43:06Z</time>
      </trkpt>
      <trkpt lat="43.53351" lon="3.50127">
        <ele>41.1</ele>
        <time>2019-01-10T07:43:09Z</time>
      </trkpt>
      <trkpt lat="43.53354" lon="3.50123">
        <ele>41.1</ele>
        <time>2019-01-10T07:43:11Z</time>
      </trkpt>
      <trkpt lat="43.53355" lon="3.5012">
        <ele>41</ele>
        <time>2019-01-10T07:43:13Z</time>
      </trkpt>
      <trkpt lat="43.53357" lon="3.50117">
        <ele>41</ele>
        <time>2019-01-10T07:43:15Z</time>
      </trkpt>
      <trkpt lat="43.53359" lon="3.50114">
        <ele>40.9</ele>
        <time>2019-01-10T07:43:17Z</time>
      </trkpt>
      <trkpt lat="43.53362" lon="3.50112">
        <ele>40.8</ele>
        <time>2019-01-10T07:43:19Z</time>
      </trkpt>
      <trkpt lat="43.53364" lon="3.5011">
        <ele>40.7</ele>
        <time>2019-01-10T07:43:21Z</time>
      </trkpt>
      <trkpt lat="43.53367" lon="3.50106">
        <ele>40.6</ele>
        <time>2019-01-10T07:43:23Z</time>
      </trkpt>
      <trkpt lat="43.53369" lon="3.50103">
        <ele>40.5</ele>
        <time>2019-01-10T07:43:25Z</time>
      </trkpt>
      <trkpt lat="43.53371" lon="3.50099">
        <ele>40.3</ele>
        <time>2019-01-10T07:43:27Z</time>
      </trkpt>
      <trkpt lat="43.53372" lon="3.50096">
        <ele>40.2</ele>
        <time>2019-01-10T07:43:29Z</time>
      </trkpt>
      <trkpt lat="43.53374" lon="3.50093">
        <ele>40.1</ele>
        <time>2019-01-10T07:43:31Z</time>
      </trkpt>
      <trkpt lat="43.53376" lon="3.5009">
        <ele>40</ele>
        <time>2019-01-10T07:43:33Z</time>
      </trkpt>
      <trkpt lat="43.53379" lon="3.50086">
        <ele>39.9</ele>
        <time>2019-01-10T07:43:36Z</time>
      </trkpt>
      <trkpt lat="43.53381" lon="3.50083">
        <ele>39.8</ele>
        <time>2019-01-10T07:43:39Z</time>
      </trkpt>
      <trkpt lat="43.53384" lon="3.5008">
        <ele>39.7</ele>
        <time>2019-01-10T07:43:42Z</time>
      </trkpt>
      <trkpt lat="43.53387" lon="3.50076">
        <ele>39.6</ele>
        <time>2019-01-10T07:43:45Z</time>
      </trkpt>
      <trkpt lat="43.5339" lon="3.50073">
        <ele>39.5</ele>
        <time>2019-01-10T07:43:47Z</time>
      </trkpt>
      <trkpt lat="43.53392" lon="3.50071">
        <ele>39.5</ele>
        <time>2019-01-10T07:43:49Z</time>
      </trkpt>
      <trkpt lat="43.53394" lon="3.50067">
        <ele>39.4</ele>
        <time>2019-01-10T07:43:52Z</time>
      </trkpt>
      <trkpt lat="43.53398" lon="3.50064">
        <ele>39.4</ele>
        <time>2019-01-10T07:43:55Z</time>
      </trkpt>
      <trkpt lat="43.534" lon="3.50062">
        <ele>39.4</ele>
        <time>2019-01-10T07:43:57Z</time>
      </trkpt>
      <trkpt lat="43.53402" lon="3.5006">
        <ele>39.3</ele>
        <time>2019-01-10T07:43:59Z</time>
      </trkpt>
      <trkpt lat="43.53405" lon="3.50056">
        <ele>39.3</ele>
        <time>2019-01-10T07:44:01Z</time>
      </trkpt>
      <trkpt lat="43.53407" lon="3.50053">
        <ele>39.3</ele>
        <time>2019-01-10T07:44:03Z</time>
      </trkpt>
      <trkpt lat="43.5341" lon="3.50049">
        <ele>39.3</ele>
        <time>2019-01-10T07:44:06Z</time>
      </trkpt>
      <trkpt lat="43.53412" lon="3.50046">
        <ele>39.3</ele>
        <time>2019-01-10T07:44:08Z</time>
      </trkpt>
      <trkpt lat="43.53414" lon="3.50043">
        <ele>39.3</ele>
        <time>2019-01-10T07:44:11Z</time>
      </trkpt>
      <trkpt lat="43.53416" lon="3.5004">
        <ele>39.3</ele>
        <time>2019-01-10T07:44:14Z</time>
      </trkpt>
      <trkpt lat="43.53419" lon="3.50037">
        <ele>39.3</ele>
        <time>2019-01-10T07:44:17Z</time>
      </trkpt>
      <trkpt lat="43.53421" lon="3.50033">
        <ele>39.3</ele>
        <time>2019-01-10T07:44:21Z</time>
      </trkpt>
      <trkpt lat="43.53423" lon="3.50031">
        <ele>39.3</ele>
        <time>2019-01-10T07:44:23Z</time>
      </trkpt>
      <trkpt lat="43.53425" lon="3.50028">
        <ele>39.3</ele>
        <time>2019-01-10T07:44:25Z</time>
      </trkpt>
      <trkpt lat="43.53427" lon="3.50024">
        <ele>39.3</ele>
        <time>2019-01-10T07:44:27Z</time>
      </trkpt>
      <trkpt lat="43.53429" lon="3.50021">
        <ele>39.3</ele>
        <time>2019-01-10T07:44:29Z</time>
      </trkpt>
      <trkpt lat="43.53431" lon="3.50018">
        <ele>39.3</ele>
        <time>2019-01-10T07:44:31Z</time>
      </trkpt>
      <trkpt lat="43.53433" lon="3.50015">
        <ele>39.3</ele>
        <time>2019-01-10T07:44:33Z</time>
      </trkpt>
      <trkpt lat="43.53435" lon="3.50011">
        <ele>39.3</ele>
        <time>2019-01-10T07:44:35Z</time>
      </trkpt>
      <trkpt lat="43.53438" lon="3.50008">
        <ele>39.3</ele>
        <time>2019-01-10T07:44:37Z</time>
      </trkpt>
      <trkpt lat="43.5344" lon="3.50004">
        <ele>39.3</ele>
        <time>2019-01-10T07:44:39Z</time>
      </trkpt>
      <trkpt lat="43.53444" lon="3.5">
        <ele>39.3</ele>
        <time>2019-01-10T07:44:41Z</time>
      </trkpt>
      <trkpt lat="43.53446" lon="3.49997">
        <ele>39.3</ele>
        <time>2019-01-10T07:44:43Z</time>
      </trkpt>
      <trkpt lat="43.53448" lon="3.49994">
        <ele>39.3</ele>
        <time>2019-01-10T07:44:45Z</time>
      </trkpt>
      <trkpt lat="43.53451" lon="3.4999">
        <ele>39.3</ele>
        <time>2019-01-10T07:44:47Z</time>
      </trkpt>
      <trkpt lat="43.53453" lon="3.49987">
        <ele>39.3</ele>
        <time>2019-01-10T07:44:49Z</time>
      </trkpt>
      <trkpt lat="43.53454" lon="3.49983">
        <ele>39.3</ele>
        <time>2019-01-10T07:44:51Z</time>
      </trkpt>
      <trkpt lat="43.53456" lon="3.4998">
        <ele>39.4</ele>
        <time>2019-01-10T07:44:53Z</time>
      </trkpt>
      <trkpt lat="43.53459" lon="3.49977">
        <ele>39.4</ele>
        <time>2019-01-10T07:44:56Z</time>
      </trkpt>
      <trkpt lat="43.53462" lon="3.49973">
        <ele>39.5</ele>
        <time>2019-01-10T07:44:59Z</time>
      </trkpt>
      <trkpt lat="43.53464" lon="3.4997">
        <ele>39.5</ele>
        <time>2019-01-10T07:45:01Z</time>
      </trkpt>
      <trkpt lat="43.53467" lon="3.49967">
        <ele>39.6</ele>
        <time>2019-01-10T07:45:04Z</time>
      </trkpt>
      <trkpt lat="43.53469" lon="3.49965">
        <ele>39.6</ele>
        <time>2019-01-10T07:45:06Z</time>
      </trkpt>
      <trkpt lat="43.53472" lon="3.49963">
        <ele>39.7</ele>
        <time>2019-01-10T07:45:08Z</time>
      </trkpt>
      <trkpt lat="43.53475" lon="3.4996">
        <ele>39.8</ele>
        <time>2019-01-10T07:45:11Z</time>
      </trkpt>
      <trkpt lat="43.53477" lon="3.49957">
        <ele>39.8</ele>
        <time>2019-01-10T07:45:13Z</time>
      </trkpt>
      <trkpt lat="43.53479" lon="3.49952">
        <ele>39.8</ele>
        <time>2019-01-10T07:45:16Z</time>
      </trkpt>
      <trkpt lat="43.53481" lon="3.49949">
        <ele>39.9</ele>
        <time>2019-01-10T07:45:19Z</time>
      </trkpt>
      <trkpt lat="43.53484" lon="3.49947">
        <ele>39.9</ele>
        <time>2019-01-10T07:45:23Z</time>
      </trkpt>
      <trkpt lat="43.53486" lon="3.49943">
        <ele>39.9</ele>
        <time>2019-01-10T07:45:26Z</time>
      </trkpt>
      <trkpt lat="43.5349" lon="3.4994">
        <ele>40</ele>
        <time>2019-01-10T07:45:29Z</time>
      </trkpt>
      <trkpt lat="43.53492" lon="3.49936">
        <ele>40</ele>
        <time>2019-01-10T07:45:32Z</time>
      </trkpt>
      <trkpt lat="43.53494" lon="3.49932">
        <ele>40.1</ele>
        <time>2019-01-10T07:45:35Z</time>
      </trkpt>
      <trkpt lat="43.53495" lon="3.49927">
        <ele>40.1</ele>
        <time>2019-01-10T07:45:37Z</time>
      </trkpt>
      <trkpt lat="43.53495" lon="3.49923">
        <ele>40.3</ele>
        <time>2019-01-10T07:45:39Z</time>
      </trkpt>
      <trkpt lat="43.53494" lon="3.49918">
        <ele>40.2</ele>
        <time>2019-01-10T07:45:42Z</time>
      </trkpt>
      <trkpt lat="43.53493" lon="3.49914">
        <ele>40</ele>
        <time>2019-01-10T07:45:45Z</time>
      </trkpt>
      <trkpt lat="43.53491" lon="3.4991">
        <ele>39.9</ele>
        <time>2019-01-10T07:45:47Z</time>
      </trkpt>
      <trkpt lat="43.53491" lon="3.49906">
        <ele>39.8</ele>
        <time>2019-01-10T07:45:49Z</time>
      </trkpt>
      <trkpt lat="43.5349" lon="3.49902">
        <ele>39.7</ele>
        <time>2019-01-10T07:45:51Z</time>
      </trkpt>
      <trkpt lat="43.53489" lon="3.49898">
        <ele>39.5</ele>
        <time>2019-01-10T07:45:53Z</time>
      </trkpt>
      <trkpt lat="43.53487" lon="3.49894">
        <ele>39.3</ele>
        <time>2019-01-10T07:45:56Z</time>
      </trkpt>
      <trkpt lat="43.53484" lon="3.4989">
        <ele>39.1</ele>
        <time>2019-01-10T07:45:59Z</time>
      </trkpt>
      <trkpt lat="43.53481" lon="3.49886">
        <ele>38.9</ele>
        <time>2019-01-10T07:46:02Z</time>
      </trkpt>
      <trkpt lat="43.5348" lon="3.49883">
        <ele>38.7</ele>
        <time>2019-01-10T07:46:04Z</time>
      </trkpt>
      <trkpt lat="43.53478" lon="3.49878">
        <ele>38.5</ele>
        <time>2019-01-10T07:46:07Z</time>
      </trkpt>
      <trkpt lat="43.53477" lon="3.49874">
        <ele>38.3</ele>
        <time>2019-01-10T07:46:09Z</time>
      </trkpt>
      <trkpt lat="43.53475" lon="3.49871">
        <ele>38.1</ele>
        <time>2019-01-10T07:46:11Z</time>
      </trkpt>
      <trkpt lat="43.53472" lon="3.49869">
        <ele>37.8</ele>
        <time>2019-01-10T07:46:14Z</time>
      </trkpt>
      <trkpt lat="43.53469" lon="3.4987">
        <ele>37.2</ele>
        <time>2019-01-10T07:46:16Z</time>
      </trkpt>
      <trkpt lat="43.53466" lon="3.49871">
        <ele>37.3</ele>
        <time>2019-01-10T07:46:18Z</time>
      </trkpt>
      <trkpt lat="43.53463" lon="3.49874">
        <ele>37.3</ele>
        <time>2019-01-10T07:46:20Z</time>
      </trkpt>
      <trkpt lat="43.53459" lon="3.49875">
        <ele>37.3</ele>
        <time>2019-01-10T07:46:23Z</time>
      </trkpt>
      <trkpt lat="43.53456" lon="3.49877">
        <ele>37.4</ele>
        <time>2019-01-10T07:46:26Z</time>
      </trkpt>
      <trkpt lat="43.53453" lon="3.49879">
        <ele>37.4</ele>
        <time>2019-01-10T07:46:31Z</time>
      </trkpt>
      <trkpt lat="43.5345" lon="3.49882">
        <ele>37.4</ele>
        <time>2019-01-10T07:46:34Z</time>
      </trkpt>
      <trkpt lat="43.53448" lon="3.49886">
        <ele>37.5</ele>
        <time>2019-01-10T07:46:40Z</time>
      </trkpt>
      <trkpt lat="43.53447" lon="3.49889">
        <ele>37.5</ele>
        <time>2019-01-10T07:46:42Z</time>
      </trkpt>
      <trkpt lat="43.53445" lon="3.49892">
        <ele>37.5</ele>
        <time>2019-01-10T07:46:44Z</time>
      </trkpt>
      <trkpt lat="43.53442" lon="3.49896">
        <ele>37.5</ele>
        <time>2019-01-10T07:46:47Z</time>
      </trkpt>
      <trkpt lat="43.53439" lon="3.49898">
        <ele>37.5</ele>
        <time>2019-01-10T07:46:49Z</time>
      </trkpt>
      <trkpt lat="43.53437" lon="3.499">
        <ele>37.5</ele>
        <time>2019-01-10T07:46:51Z</time>
      </trkpt>
      <trkpt lat="43.53434" lon="3.49901">
        <ele>37.5</ele>
        <time>2019-01-10T07:46:53Z</time>
      </trkpt>
      <trkpt lat="43.53431" lon="3.49904">
        <ele>37.6</ele>
        <time>2019-01-10T07:46:56Z</time>
      </trkpt>
      <trkpt lat="43.53428" lon="3.49906">
        <ele>37.6</ele>
        <time>2019-01-10T07:46:58Z</time>
      </trkpt>
      <trkpt lat="43.53424" lon="3.49909">
        <ele>37.6</ele>
        <time>2019-01-10T07:47:01Z</time>
      </trkpt>
      <trkpt lat="43.53421" lon="3.49912">
        <ele>37.6</ele>
        <time>2019-01-10T07:47:03Z</time>
      </trkpt>
      <trkpt lat="43.53418" lon="3.49915">
        <ele>37.6</ele>
        <time>2019-01-10T07:47:06Z</time>
      </trkpt>
      <trkpt lat="43.53415" lon="3.49916">
        <ele>37.6</ele>
        <time>2019-01-10T07:47:08Z</time>
      </trkpt>
      <trkpt lat="43.53413" lon="3.49919">
        <ele>37.6</ele>
        <time>2019-01-10T07:47:10Z</time>
      </trkpt>
      <trkpt lat="43.5341" lon="3.49921">
        <ele>37.7</ele>
        <time>2019-01-10T07:47:13Z</time>
      </trkpt>
      <trkpt lat="43.53407" lon="3.49924">
        <ele>37.7</ele>
        <time>2019-01-10T07:47:16Z</time>
      </trkpt>
      <trkpt lat="43.53405" lon="3.49928">
        <ele>37.7</ele>
        <time>2019-01-10T07:47:18Z</time>
      </trkpt>
      <trkpt lat="43.53402" lon="3.4993">
        <ele>37.7</ele>
        <time>2019-01-10T07:47:20Z</time>
      </trkpt>
      <trkpt lat="43.534" lon="3.49933">
        <ele>37.8</ele>
        <time>2019-01-10T07:47:22Z</time>
      </trkpt>
      <trkpt lat="43.53398" lon="3.49937">
        <ele>37.8</ele>
        <time>2019-01-10T07:47:24Z</time>
      </trkpt>
      <trkpt lat="43.53397" lon="3.49941">
        <ele>37.8</ele>
        <time>2019-01-10T07:47:26Z</time>
      </trkpt>
      <trkpt lat="43.53395" lon="3.49944">
        <ele>37.8</ele>
        <time>2019-01-10T07:47:28Z</time>
      </trkpt>
      <trkpt lat="43.53392" lon="3.49947">
        <ele>37.8</ele>
        <time>2019-01-10T07:47:30Z</time>
      </trkpt>
      <trkpt lat="43.5339" lon="3.4995">
        <ele>37.9</ele>
        <time>2019-01-10T07:47:32Z</time>
      </trkpt>
      <trkpt lat="43.53389" lon="3.49955">
        <ele>37.9</ele>
        <time>2019-01-10T07:47:34Z</time>
      </trkpt>
      <trkpt lat="43.53386" lon="3.49958">
        <ele>37.9</ele>
        <time>2019-01-10T07:47:36Z</time>
      </trkpt>
      <trkpt lat="43.53384" lon="3.4996">
        <ele>37.9</ele>
        <time>2019-01-10T07:47:38Z</time>
      </trkpt>
      <trkpt lat="43.5338" lon="3.49961">
        <ele>38</ele>
        <time>2019-01-10T07:47:41Z</time>
      </trkpt>
      <trkpt lat="43.53376" lon="3.49962">
        <ele>38</ele>
        <time>2019-01-10T07:47:44Z</time>
      </trkpt>
      <trkpt lat="43.53374" lon="3.49962">
        <ele>38</ele>
        <time>2019-01-10T07:47:46Z</time>
      </trkpt>
      <trkpt lat="43.53371" lon="3.49962">
        <ele>38</ele>
        <time>2019-01-10T07:47:48Z</time>
      </trkpt>
      <trkpt lat="43.53368" lon="3.49962">
        <ele>38.1</ele>
        <time>2019-01-10T07:47:50Z</time>
      </trkpt>
      <trkpt lat="43.53364" lon="3.49962">
        <ele>38.1</ele>
        <time>2019-01-10T07:47:53Z</time>
      </trkpt>
      <trkpt lat="43.53361" lon="3.49962">
        <ele>38.1</ele>
        <time>2019-01-10T07:47:55Z</time>
      </trkpt>
      <trkpt lat="43.53357" lon="3.49962">
        <ele>38.1</ele>
        <time>2019-01-10T07:47:58Z</time>
      </trkpt>
      <trkpt lat="43.53355" lon="3.49962">
        <ele>38.1</ele>
        <time>2019-01-10T07:48:00Z</time>
      </trkpt>
      <trkpt lat="43.53351" lon="3.49963">
        <ele>38.1</ele>
        <time>2019-01-10T07:48:03Z</time>
      </trkpt>
      <trkpt lat="43.53347" lon="3.49963">
        <ele>38.1</ele>
        <time>2019-01-10T07:48:06Z</time>
      </trkpt>
      <trkpt lat="43.53344" lon="3.49963">
        <ele>38.1</ele>
        <time>2019-01-10T07:48:08Z</time>
      </trkpt>
      <trkpt lat="43.53341" lon="3.49963">
        <ele>38.1</ele>
        <time>2019-01-10T07:48:10Z</time>
      </trkpt>
      <trkpt lat="43.53338" lon="3.49964">
        <ele>38</ele>
        <time>2019-01-10T07:48:12Z</time>
      </trkpt>
      <trkpt lat="43.53335" lon="3.49964">
        <ele>38</ele>
        <time>2019-01-10T07:48:14Z</time>
      </trkpt>
      <trkpt lat="43.53332" lon="3.49963">
        <ele>38</ele>
        <time>2019-01-10T07:48:16Z</time>
      </trkpt>
      <trkpt lat="43.53329" lon="3.49963">
        <ele>38</ele>
        <time>2019-01-10T07:48:19Z</time>
      </trkpt>
      <trkpt lat="43.53326" lon="3.49963">
        <ele>38</ele>
        <time>2019-01-10T07:48:21Z</time>
      </trkpt>
      <trkpt lat="43.53323" lon="3.49963">
        <ele>38</ele>
        <time>2019-01-10T07:48:23Z</time>
      </trkpt>
      <trkpt lat="43.53319" lon="3.49963">
        <ele>38</ele>
        <time>2019-01-10T07:48:25Z</time>
      </trkpt>
      <trkpt lat="43.53316" lon="3.49964">
        <ele>38</ele>
        <time>2019-01-10T07:48:27Z</time>
      </trkpt>
      <trkpt lat="43.53312" lon="3.49964">
        <ele>38</ele>
        <time>2019-01-10T07:48:30Z</time>
      </trkpt>
      <trkpt lat="43.53309" lon="3.49966">
        <ele>38</ele>
        <time>2019-01-10T07:48:32Z</time>
      </trkpt>
      <trkpt lat="43.53307" lon="3.49968">
        <ele>38</ele>
        <time>2019-01-10T07:48:34Z</time>
      </trkpt>
      <trkpt lat="43.53304" lon="3.49969">
        <ele>38</ele>
        <time>2019-01-10T07:48:36Z</time>
      </trkpt>
      <trkpt lat="43.533" lon="3.49971">
        <ele>38</ele>
        <time>2019-01-10T07:48:38Z</time>
      </trkpt>
      <trkpt lat="43.53298" lon="3.49972">
        <ele>38</ele>
        <time>2019-01-10T07:48:40Z</time>
      </trkpt>
      <trkpt lat="43.53294" lon="3.49973">
        <ele>38</ele>
        <time>2019-01-10T07:48:43Z</time>
      </trkpt>
      <trkpt lat="43.53291" lon="3.49974">
        <ele>38</ele>
        <time>2019-01-10T07:48:45Z</time>
      </trkpt>
      <trkpt lat="43.53287" lon="3.49975">
        <ele>38</ele>
        <time>2019-01-10T07:48:48Z</time>
      </trkpt>
      <trkpt lat="43.53284" lon="3.49977">
        <ele>38.1</ele>
        <time>2019-01-10T07:48:50Z</time>
      </trkpt>
      <trkpt lat="43.53282" lon="3.49978">
        <ele>38.1</ele>
        <time>2019-01-10T07:48:52Z</time>
      </trkpt>
      <trkpt lat="43.53279" lon="3.4998">
        <ele>38.1</ele>
        <time>2019-01-10T07:48:54Z</time>
      </trkpt>
      <trkpt lat="43.53276" lon="3.49982">
        <ele>38.1</ele>
        <time>2019-01-10T07:48:57Z</time>
      </trkpt>
      <trkpt lat="43.53272" lon="3.49985">
        <ele>38.1</ele>
        <time>2019-01-10T07:49:00Z</time>
      </trkpt>
      <trkpt lat="43.53269" lon="3.49987">
        <ele>38.1</ele>
        <time>2019-01-10T07:49:02Z</time>
      </trkpt>
      <trkpt lat="43.53267" lon="3.49988">
        <ele>38.2</ele>
        <time>2019-01-10T07:49:04Z</time>
      </trkpt>
      <trkpt lat="43.53264" lon="3.4999">
        <ele>38.2</ele>
        <time>2019-01-10T07:49:06Z</time>
      </trkpt>
      <trkpt lat="43.53262" lon="3.49992">
        <ele>38.2</ele>
        <time>2019-01-10T07:49:08Z</time>
      </trkpt>
      <trkpt lat="43.53259" lon="3.49994">
        <ele>38.2</ele>
        <time>2019-01-10T07:49:10Z</time>
      </trkpt>
      <trkpt lat="43.53257" lon="3.49996">
        <ele>38.2</ele>
        <time>2019-01-10T07:49:12Z</time>
      </trkpt>
      <trkpt lat="43.53254" lon="3.49998">
        <ele>38.3</ele>
        <time>2019-01-10T07:49:14Z</time>
      </trkpt>
      <trkpt lat="43.53252" lon="3.5">
        <ele>38.3</ele>
        <time>2019-01-10T07:49:16Z</time>
      </trkpt>
      <trkpt lat="43.5325" lon="3.50002">
        <ele>38.3</ele>
        <time>2019-01-10T07:49:18Z</time>
      </trkpt>
      <trkpt lat="43.53247" lon="3.50005">
        <ele>38.3</ele>
        <time>2019-01-10T07:49:20Z</time>
      </trkpt>
      <trkpt lat="43.53245" lon="3.50009">
        <ele>38.4</ele>
        <time>2019-01-10T07:49:22Z</time>
      </trkpt>
      <trkpt lat="43.53244" lon="3.50014">
        <ele>38.4</ele>
        <time>2019-01-10T07:49:24Z</time>
      </trkpt>
      <trkpt lat="43.53243" lon="3.50018">
        <ele>38.5</ele>
        <time>2019-01-10T07:49:26Z</time>
      </trkpt>
      <trkpt lat="43.53242" lon="3.50022">
        <ele>38.5</ele>
        <time>2019-01-10T07:49:28Z</time>
      </trkpt>
      <trkpt lat="43.53242" lon="3.50026">
        <ele>38.5</ele>
        <time>2019-01-10T07:49:30Z</time>
      </trkpt>
      <trkpt lat="43.53241" lon="3.5003">
        <ele>38.5</ele>
        <time>2019-01-10T07:49:32Z</time>
      </trkpt>
      <trkpt lat="43.53241" lon="3.50034">
        <ele>38.6</ele>
        <time>2019-01-10T07:49:34Z</time>
      </trkpt>
      <trkpt lat="43.53239" lon="3.50039">
        <ele>38.6</ele>
        <time>2019-01-10T07:49:36Z</time>
      </trkpt>
      <trkpt lat="43.53237" lon="3.50042">
        <ele>38.6</ele>
        <time>2019-01-10T07:49:38Z</time>
      </trkpt>
      <trkpt lat="43.53236" lon="3.50045">
        <ele>38.6</ele>
        <time>2019-01-10T07:49:40Z</time>
      </trkpt>
      <trkpt lat="43.53233" lon="3.50048">
        <ele>38.7</ele>
        <time>2019-01-10T07:49:42Z</time>
      </trkpt>
      <trkpt lat="43.5323" lon="3.50052">
        <ele>38.7</ele>
        <time>2019-01-10T07:49:45Z</time>
      </trkpt>
      <trkpt lat="43.53227" lon="3.50053">
        <ele>38.8</ele>
        <time>2019-01-10T07:49:47Z</time>
      </trkpt>
      <trkpt lat="43.53225" lon="3.50056">
        <ele>38.8</ele>
        <time>2019-01-10T07:49:49Z</time>
      </trkpt>
      <trkpt lat="43.53223" lon="3.50059">
        <ele>38.8</ele>
        <time>2019-01-10T07:49:51Z</time>
      </trkpt>
      <trkpt lat="43.53221" lon="3.50061">
        <ele>38.8</ele>
        <time>2019-01-10T07:49:53Z</time>
      </trkpt>
      <trkpt lat="43.53219" lon="3.50064">
        <ele>38.8</ele>
        <time>2019-01-10T07:49:55Z</time>
      </trkpt>
      <trkpt lat="43.53216" lon="3.50066">
        <ele>38.9</ele>
        <time>2019-01-10T07:49:57Z</time>
      </trkpt>
      <trkpt lat="43.53213" lon="3.50069">
        <ele>38.9</ele>
        <time>2019-01-10T07:49:59Z</time>
      </trkpt>
      <trkpt lat="43.53211" lon="3.50072">
        <ele>38.9</ele>
        <time>2019-01-10T07:50:01Z</time>
      </trkpt>
      <trkpt lat="43.53209" lon="3.50075">
        <ele>38.9</ele>
        <time>2019-01-10T07:50:03Z</time>
      </trkpt>
      <trkpt lat="43.53207" lon="3.50078">
        <ele>38.9</ele>
        <time>2019-01-10T07:50:05Z</time>
      </trkpt>
      <trkpt lat="43.53203" lon="3.5008">
        <ele>39</ele>
        <time>2019-01-10T07:50:08Z</time>
      </trkpt>
      <trkpt lat="43.532" lon="3.50082">
        <ele>39</ele>
        <time>2019-01-10T07:50:11Z</time>
      </trkpt>
      <trkpt lat="43.53196" lon="3.50083">
        <ele>39</ele>
        <time>2019-01-10T07:50:14Z</time>
      </trkpt>
      <trkpt lat="43.53193" lon="3.50086">
        <ele>39</ele>
        <time>2019-01-10T07:50:17Z</time>
      </trkpt>
      <trkpt lat="43.53191" lon="3.50088">
        <ele>39</ele>
        <time>2019-01-10T07:50:19Z</time>
      </trkpt>
      <trkpt lat="43.53189" lon="3.5009">
        <ele>39</ele>
        <time>2019-01-10T07:50:21Z</time>
      </trkpt>
      <trkpt lat="43.53186" lon="3.50093">
        <ele>39</ele>
        <time>2019-01-10T07:50:23Z</time>
      </trkpt>
      <trkpt lat="43.53184" lon="3.50095">
        <ele>39.1</ele>
        <time>2019-01-10T07:50:25Z</time>
      </trkpt>
      <trkpt lat="43.53181" lon="3.50098">
        <ele>39.1</ele>
        <time>2019-01-10T07:50:28Z</time>
      </trkpt>
      <trkpt lat="43.53178" lon="3.50101">
        <ele>39.1</ele>
        <time>2019-01-10T07:50:30Z</time>
      </trkpt>
      <trkpt lat="43.53176" lon="3.50103">
        <ele>39.1</ele>
        <time>2019-01-10T07:50:32Z</time>
      </trkpt>
      <trkpt lat="43.53174" lon="3.50106">
        <ele>39.1</ele>
        <time>2019-01-10T07:50:34Z</time>
      </trkpt>
      <trkpt lat="43.53171" lon="3.50109">
        <ele>39.1</ele>
        <time>2019-01-10T07:50:37Z</time>
      </trkpt>
      <trkpt lat="43.53168" lon="3.50111">
        <ele>39.2</ele>
        <time>2019-01-10T07:50:39Z</time>
      </trkpt>
      <trkpt lat="43.53166" lon="3.50113">
        <ele>39.2</ele>
        <time>2019-01-10T07:50:41Z</time>
      </trkpt>
      <trkpt lat="43.53163" lon="3.50116">
        <ele>39.2</ele>
        <time>2019-01-10T07:50:43Z</time>
      </trkpt>
      <trkpt lat="43.5316" lon="3.50119">
        <ele>39.2</ele>
        <time>2019-01-10T07:50:46Z</time>
      </trkpt>
      <trkpt lat="43.53157" lon="3.50122">
        <ele>39.2</ele>
        <time>2019-01-10T07:50:49Z</time>
      </trkpt>
      <trkpt lat="43.53155" lon="3.50125">
        <ele>39.2</ele>
        <time>2019-01-10T07:50:51Z</time>
      </trkpt>
      <trkpt lat="43.53153" lon="3.50127">
        <ele>39.3</ele>
        <time>2019-01-10T07:50:53Z</time>
      </trkpt>
      <trkpt lat="43.53149" lon="3.5013">
        <ele>39.3</ele>
        <time>2019-01-10T07:50:56Z</time>
      </trkpt>
      <trkpt lat="43.53147" lon="3.50133">
        <ele>39.3</ele>
        <time>2019-01-10T07:50:58Z</time>
      </trkpt>
      <trkpt lat="43.53144" lon="3.50135">
        <ele>39.3</ele>
        <time>2019-01-10T07:51:00Z</time>
      </trkpt>
      <trkpt lat="43.53142" lon="3.50138">
        <ele>39.3</ele>
        <time>2019-01-10T07:51:02Z</time>
      </trkpt>
      <trkpt lat="43.53139" lon="3.5014">
        <ele>39.4</ele>
        <time>2019-01-10T07:51:04Z</time>
      </trkpt>
      <trkpt lat="43.53136" lon="3.50143">
        <ele>39.4</ele>
        <time>2019-01-10T07:51:07Z</time>
      </trkpt>
      <trkpt lat="43.53133" lon="3.50145">
        <ele>39.4</ele>
        <time>2019-01-10T07:51:09Z</time>
      </trkpt>
      <trkpt lat="43.5313" lon="3.50147">
        <ele>39.4</ele>
        <time>2019-01-10T07:51:11Z</time>
      </trkpt>
      <trkpt lat="43.53127" lon="3.50148">
        <ele>39.4</ele>
        <time>2019-01-10T07:51:13Z</time>
      </trkpt>
      <trkpt lat="43.53124" lon="3.50149">
        <ele>39.5</ele>
        <time>2019-01-10T07:51:16Z</time>
      </trkpt>
      <trkpt lat="43.53121" lon="3.50149">
        <ele>39.5</ele>
        <time>2019-01-10T07:51:18Z</time>
      </trkpt>
      <trkpt lat="43.53118" lon="3.50149">
        <ele>39.5</ele>
        <time>2019-01-10T07:51:20Z</time>
      </trkpt>
      <trkpt lat="43.53115" lon="3.50147">
        <ele>39.5</ele>
        <time>2019-01-10T07:51:23Z</time>
      </trkpt>
      <trkpt lat="43.53113" lon="3.50145">
        <ele>39.5</ele>
        <time>2019-01-10T07:51:25Z</time>
      </trkpt>
      <trkpt lat="43.5311" lon="3.50142">
        <ele>39.5</ele>
        <time>2019-01-10T07:51:28Z</time>
      </trkpt>
      <trkpt lat="43.53108" lon="3.5014">
        <ele>39.5</ele>
        <time>2019-01-10T07:51:30Z</time>
      </trkpt>
      <trkpt lat="43.53106" lon="3.50137">
        <ele>39.5</ele>
        <time>2019-01-10T07:51:32Z</time>
      </trkpt>
      <trkpt lat="43.53104" lon="3.50134">
        <ele>39.5</ele>
        <time>2019-01-10T07:51:34Z</time>
      </trkpt>
      <trkpt lat="43.53102" lon="3.50131">
        <ele>39.5</ele>
        <time>2019-01-10T07:51:36Z</time>
      </trkpt>
      <trkpt lat="43.531" lon="3.50128">
        <ele>39.5</ele>
        <time>2019-01-10T07:51:38Z</time>
      </trkpt>
      <trkpt lat="43.53097" lon="3.50124">
        <ele>39.5</ele>
        <time>2019-01-10T07:51:41Z</time>
      </trkpt>
      <trkpt lat="43.53095" lon="3.50121">
        <ele>39.5</ele>
        <time>2019-01-10T07:51:43Z</time>
      </trkpt>
      <trkpt lat="43.53092" lon="3.50118">
        <ele>39.5</ele>
        <time>2019-01-10T07:51:45Z</time>
      </trkpt>
      <trkpt lat="43.5309" lon="3.50115">
        <ele>39.4</ele>
        <time>2019-01-10T07:51:47Z</time>
      </trkpt>
      <trkpt lat="43.53088" lon="3.50112">
        <ele>39.4</ele>
        <time>2019-01-10T07:51:49Z</time>
      </trkpt>
      <trkpt lat="43.53085" lon="3.5011">
        <ele>39.4</ele>
        <time>2019-01-10T07:51:51Z</time>
      </trkpt>
      <trkpt lat="43.53082" lon="3.50107">
        <ele>39.4</ele>
        <time>2019-01-10T07:51:53Z</time>
      </trkpt>
      <trkpt lat="43.5308" lon="3.50103">
        <ele>39.3</ele>
        <time>2019-01-10T07:51:55Z</time>
      </trkpt>
      <trkpt lat="43.53078" lon="3.501">
        <ele>39.3</ele>
        <time>2019-01-10T07:51:57Z</time>
      </trkpt>
      <trkpt lat="43.53076" lon="3.50097">
        <ele>39.2</ele>
        <time>2019-01-10T07:51:59Z</time>
      </trkpt>
      <trkpt lat="43.53074" lon="3.50093">
        <ele>39.2</ele>
        <time>2019-01-10T07:52:01Z</time>
      </trkpt>
      <trkpt lat="43.53072" lon="3.5009">
        <ele>39.2</ele>
        <time>2019-01-10T07:52:03Z</time>
      </trkpt>
      <trkpt lat="43.5307" lon="3.50086">
        <ele>39.1</ele>
        <time>2019-01-10T07:52:06Z</time>
      </trkpt>
      <trkpt lat="43.53067" lon="3.50083">
        <ele>39.1</ele>
        <time>2019-01-10T07:52:08Z</time>
      </trkpt>
      <trkpt lat="43.53064" lon="3.50081">
        <ele>39.1</ele>
        <time>2019-01-10T07:52:10Z</time>
      </trkpt>
      <trkpt lat="43.53061" lon="3.5008">
        <ele>39</ele>
        <time>2019-01-10T07:52:12Z</time>
      </trkpt>
      <trkpt lat="43.53058" lon="3.50079">
        <ele>39</ele>
        <time>2019-01-10T07:52:14Z</time>
      </trkpt>
      <trkpt lat="43.53055" lon="3.50078">
        <ele>39</ele>
        <time>2019-01-10T07:52:16Z</time>
      </trkpt>
      <trkpt lat="43.53053" lon="3.50077">
        <ele>38.9</ele>
        <time>2019-01-10T07:52:18Z</time>
      </trkpt>
      <trkpt lat="43.53049" lon="3.50076">
        <ele>38.9</ele>
        <time>2019-01-10T07:52:21Z</time>
      </trkpt>
      <trkpt lat="43.53046" lon="3.50074">
        <ele>38.9</ele>
        <time>2019-01-10T07:52:23Z</time>
      </trkpt>
      <trkpt lat="43.53044" lon="3.50072">
        <ele>38.9</ele>
        <time>2019-01-10T07:52:25Z</time>
      </trkpt>
      <trkpt lat="43.5304" lon="3.5007">
        <ele>38.8</ele>
        <time>2019-01-10T07:52:28Z</time>
      </trkpt>
      <trkpt lat="43.53037" lon="3.50069">
        <ele>38.8</ele>
        <time>2019-01-10T07:52:31Z</time>
      </trkpt>
      <trkpt lat="43.53034" lon="3.50069">
        <ele>38.8</ele>
        <time>2019-01-10T07:52:33Z</time>
      </trkpt>
      <trkpt lat="43.53031" lon="3.50068">
        <ele>38.8</ele>
        <time>2019-01-10T07:52:35Z</time>
      </trkpt>
      <trkpt lat="43.53028" lon="3.50067">
        <ele>38.8</ele>
        <time>2019-01-10T07:52:37Z</time>
      </trkpt>
      <trkpt lat="43.53025" lon="3.50066">
        <ele>38.8</ele>
        <time>2019-01-10T07:52:39Z</time>
      </trkpt>
      <trkpt lat="43.53021" lon="3.50064">
        <ele>38.9</ele>
        <time>2019-01-10T07:52:42Z</time>
      </trkpt>
      <trkpt lat="43.53018" lon="3.50063">
        <ele>38.9</ele>
        <time>2019-01-10T07:52:44Z</time>
      </trkpt>
      <trkpt lat="43.53015" lon="3.50061">
        <ele>38.9</ele>
        <time>2019-01-10T07:52:46Z</time>
      </trkpt>
      <trkpt lat="43.53012" lon="3.50061">
        <ele>38.9</ele>
        <time>2019-01-10T07:52:48Z</time>
      </trkpt>
      <trkpt lat="43.53008" lon="3.50059">
        <ele>38.9</ele>
        <time>2019-01-10T07:52:51Z</time>
      </trkpt>
      <trkpt lat="43.53005" lon="3.50058">
        <ele>39</ele>
        <time>2019-01-10T07:52:53Z</time>
      </trkpt>
      <trkpt lat="43.53002" lon="3.50057">
        <ele>39</ele>
        <time>2019-01-10T07:52:55Z</time>
      </trkpt>
      <trkpt lat="43.52999" lon="3.50057">
        <ele>39.1</ele>
        <time>2019-01-10T07:52:57Z</time>
      </trkpt>
      <trkpt lat="43.52996" lon="3.50055">
        <ele>39.1</ele>
        <time>2019-01-10T07:52:59Z</time>
      </trkpt>
      <trkpt lat="43.52993" lon="3.50054">
        <ele>39.2</ele>
        <time>2019-01-10T07:53:01Z</time>
      </trkpt>
      <trkpt lat="43.52989" lon="3.50054">
        <ele>39.2</ele>
        <time>2019-01-10T07:53:03Z</time>
      </trkpt>
      <trkpt lat="43.52986" lon="3.50053">
        <ele>39.3</ele>
        <time>2019-01-10T07:53:05Z</time>
      </trkpt>
      <trkpt lat="43.52984" lon="3.50053">
        <ele>39.3</ele>
        <time>2019-01-10T07:53:07Z</time>
      </trkpt>
      <trkpt lat="43.5298" lon="3.50051">
        <ele>39.5</ele>
        <time>2019-01-10T07:53:10Z</time>
      </trkpt>
      <trkpt lat="43.52977" lon="3.5005">
        <ele>39.5</ele>
        <time>2019-01-10T07:53:12Z</time>
      </trkpt>
      <trkpt lat="43.52974" lon="3.50049">
        <ele>39.6</ele>
        <time>2019-01-10T07:53:14Z</time>
      </trkpt>
      <trkpt lat="43.52971" lon="3.50047">
        <ele>39.7</ele>
        <time>2019-01-10T07:53:16Z</time>
      </trkpt>
      <trkpt lat="43.52967" lon="3.50046">
        <ele>39.7</ele>
        <time>2019-01-10T07:53:18Z</time>
      </trkpt>
      <trkpt lat="43.52964" lon="3.50045">
        <ele>39.8</ele>
        <time>2019-01-10T07:53:20Z</time>
      </trkpt>
      <trkpt lat="43.5296" lon="3.50046">
        <ele>39.9</ele>
        <time>2019-01-10T07:53:22Z</time>
      </trkpt>
      <trkpt lat="43.52957" lon="3.50046">
        <ele>39.9</ele>
        <time>2019-01-10T07:53:24Z</time>
      </trkpt>
      <trkpt lat="43.52953" lon="3.50046">
        <ele>40</ele>
        <time>2019-01-10T07:53:27Z</time>
      </trkpt>
      <trkpt lat="43.52949" lon="3.50047">
        <ele>40.1</ele>
        <time>2019-01-10T07:53:30Z</time>
      </trkpt>
      <trkpt lat="43.52946" lon="3.50048">
        <ele>40.2</ele>
        <time>2019-01-10T07:53:32Z</time>
      </trkpt>
      <trkpt lat="43.52943" lon="3.50048">
        <ele>40.2</ele>
        <time>2019-01-10T07:53:34Z</time>
      </trkpt>
      <trkpt lat="43.52939" lon="3.50049">
        <ele>40.2</ele>
        <time>2019-01-10T07:53:36Z</time>
      </trkpt>
      <trkpt lat="43.52936" lon="3.5005">
        <ele>40.3</ele>
        <time>2019-01-10T07:53:38Z</time>
      </trkpt>
      <trkpt lat="43.52932" lon="3.5005">
        <ele>40.3</ele>
        <time>2019-01-10T07:53:41Z</time>
      </trkpt>
      <trkpt lat="43.52929" lon="3.50051">
        <ele>40.3</ele>
        <time>2019-01-10T07:53:43Z</time>
      </trkpt>
      <trkpt lat="43.52926" lon="3.50053">
        <ele>40.4</ele>
        <time>2019-01-10T07:53:46Z</time>
      </trkpt>
      <trkpt lat="43.52923" lon="3.50054">
        <ele>40.4</ele>
        <time>2019-01-10T07:53:48Z</time>
      </trkpt>
      <trkpt lat="43.52919" lon="3.50055">
        <ele>40.4</ele>
        <time>2019-01-10T07:53:51Z</time>
      </trkpt>
      <trkpt lat="43.52915" lon="3.50055">
        <ele>40.5</ele>
        <time>2019-01-10T07:53:54Z</time>
      </trkpt>
      <trkpt lat="43.52912" lon="3.50057">
        <ele>40.5</ele>
        <time>2019-01-10T07:53:56Z</time>
      </trkpt>
      <trkpt lat="43.52909" lon="3.50058">
        <ele>40.5</ele>
        <time>2019-01-10T07:53:58Z</time>
      </trkpt>
      <trkpt lat="43.52907" lon="3.50059">
        <ele>40.5</ele>
        <time>2019-01-10T07:54:00Z</time>
      </trkpt>
      <trkpt lat="43.52903" lon="3.50059">
        <ele>40.6</ele>
        <time>2019-01-10T07:54:03Z</time>
      </trkpt>
      <trkpt lat="43.52899" lon="3.5006">
        <ele>40.6</ele>
        <time>2019-01-10T07:54:06Z</time>
      </trkpt>
      <trkpt lat="43.52896" lon="3.5006">
        <ele>40.6</ele>
        <time>2019-01-10T07:54:08Z</time>
      </trkpt>
      <trkpt lat="43.52893" lon="3.50061">
        <ele>40.7</ele>
        <time>2019-01-10T07:54:10Z</time>
      </trkpt>
      <trkpt lat="43.5289" lon="3.50061">
        <ele>40.7</ele>
        <time>2019-01-10T07:54:12Z</time>
      </trkpt>
      <trkpt lat="43.52887" lon="3.50061">
        <ele>40.7</ele>
        <time>2019-01-10T07:54:14Z</time>
      </trkpt>
      <trkpt lat="43.52883" lon="3.5006">
        <ele>40.7</ele>
        <time>2019-01-10T07:54:17Z</time>
      </trkpt>
      <trkpt lat="43.5288" lon="3.5006">
        <ele>40.8</ele>
        <time>2019-01-10T07:54:19Z</time>
      </trkpt>
      <trkpt lat="43.52877" lon="3.50059">
        <ele>40.8</ele>
        <time>2019-01-10T07:54:21Z</time>
      </trkpt>
      <trkpt lat="43.52874" lon="3.50058">
        <ele>40.8</ele>
        <time>2019-01-10T07:54:23Z</time>
      </trkpt>
      <trkpt lat="43.52872" lon="3.50055">
        <ele>40.9</ele>
        <time>2019-01-10T07:54:25Z</time>
      </trkpt>
      <trkpt lat="43.52869" lon="3.50053">
        <ele>40.9</ele>
        <time>2019-01-10T07:54:27Z</time>
      </trkpt>
      <trkpt lat="43.52867" lon="3.50051">
        <ele>40.7</ele>
        <time>2019-01-10T07:54:29Z</time>
      </trkpt>
      <trkpt lat="43.52864" lon="3.50048">
        <ele>40.5</ele>
        <time>2019-01-10T07:54:31Z</time>
      </trkpt>
      <trkpt lat="43.52862" lon="3.50046">
        <ele>40.4</ele>
        <time>2019-01-10T07:54:33Z</time>
      </trkpt>
      <trkpt lat="43.52859" lon="3.50045">
        <ele>40.2</ele>
        <time>2019-01-10T07:54:35Z</time>
      </trkpt>
      <trkpt lat="43.52856" lon="3.50043">
        <ele>40</ele>
        <time>2019-01-10T07:54:37Z</time>
      </trkpt>
      <trkpt lat="43.52853" lon="3.50042">
        <ele>39.8</ele>
        <time>2019-01-10T07:54:39Z</time>
      </trkpt>
      <trkpt lat="43.5285" lon="3.50041">
        <ele>39.7</ele>
        <time>2019-01-10T07:54:41Z</time>
      </trkpt>
      <trkpt lat="43.52847" lon="3.50039">
        <ele>39.5</ele>
        <time>2019-01-10T07:54:44Z</time>
      </trkpt>
      <trkpt lat="43.52844" lon="3.50039">
        <ele>39.4</ele>
        <time>2019-01-10T07:54:47Z</time>
      </trkpt>
      <trkpt lat="43.5284" lon="3.50037">
        <ele>39.2</ele>
        <time>2019-01-10T07:54:50Z</time>
      </trkpt>
      <trkpt lat="43.52837" lon="3.50036">
        <ele>39</ele>
        <time>2019-01-10T07:54:52Z</time>
      </trkpt>
      <trkpt lat="43.52833" lon="3.50036">
        <ele>38.8</ele>
        <time>2019-01-10T07:54:54Z</time>
      </trkpt>
      <trkpt lat="43.5283" lon="3.50036">
        <ele>38.7</ele>
        <time>2019-01-10T07:54:56Z</time>
      </trkpt>
      <trkpt lat="43.52826" lon="3.50036">
        <ele>38.6</ele>
        <time>2019-01-10T07:54:59Z</time>
      </trkpt>
      <trkpt lat="43.52823" lon="3.50036">
        <ele>38.6</ele>
        <time>2019-01-10T07:55:01Z</time>
      </trkpt>
      <trkpt lat="43.5282" lon="3.50036">
        <ele>38.5</ele>
        <time>2019-01-10T07:55:04Z</time>
      </trkpt>
      <trkpt lat="43.52816" lon="3.50036">
        <ele>38.5</ele>
        <time>2019-01-10T07:55:07Z</time>
      </trkpt>
      <trkpt lat="43.52813" lon="3.50037">
        <ele>38.4</ele>
        <time>2019-01-10T07:55:09Z</time>
      </trkpt>
      <trkpt lat="43.5281" lon="3.50038">
        <ele>38.4</ele>
        <time>2019-01-10T07:55:11Z</time>
      </trkpt>
      <trkpt lat="43.52806" lon="3.50039">
        <ele>38.4</ele>
        <time>2019-01-10T07:55:14Z</time>
      </trkpt>
      <trkpt lat="43.52803" lon="3.5004">
        <ele>38.4</ele>
        <time>2019-01-10T07:55:16Z</time>
      </trkpt>
      <trkpt lat="43.528" lon="3.50041">
        <ele>38.4</ele>
        <time>2019-01-10T07:55:18Z</time>
      </trkpt>
      <trkpt lat="43.52796" lon="3.50042">
        <ele>38.5</ele>
        <time>2019-01-10T07:55:20Z</time>
      </trkpt>
      <trkpt lat="43.52794" lon="3.50043">
        <ele>38.6</ele>
        <time>2019-01-10T07:55:22Z</time>
      </trkpt>
      <trkpt lat="43.52791" lon="3.50045">
        <ele>38.7</ele>
        <time>2019-01-10T07:55:24Z</time>
      </trkpt>
      <trkpt lat="43.52788" lon="3.50046">
        <ele>38.7</ele>
        <time>2019-01-10T07:55:26Z</time>
      </trkpt>
      <trkpt lat="43.52784" lon="3.50046">
        <ele>38.7</ele>
        <time>2019-01-10T07:55:29Z</time>
      </trkpt>
      <trkpt lat="43.5278" lon="3.50047">
        <ele>38.7</ele>
        <time>2019-01-10T07:55:32Z</time>
      </trkpt>
      <trkpt lat="43.52777" lon="3.50047">
        <ele>38.8</ele>
        <time>2019-01-10T07:55:34Z</time>
      </trkpt>
      <trkpt lat="43.52774" lon="3.50048">
        <ele>38.8</ele>
        <time>2019-01-10T07:55:36Z</time>
      </trkpt>
      <trkpt lat="43.52771" lon="3.50049">
        <ele>38.8</ele>
        <time>2019-01-10T07:55:38Z</time>
      </trkpt>
      <trkpt lat="43.52769" lon="3.5005">
        <ele>38.8</ele>
        <time>2019-01-10T07:55:40Z</time>
      </trkpt>
      <trkpt lat="43.52766" lon="3.50049">
        <ele>38.8</ele>
        <time>2019-01-10T07:55:42Z</time>
      </trkpt>
      <trkpt lat="43.52763" lon="3.50048">
        <ele>38.8</ele>
        <time>2019-01-10T07:55:44Z</time>
      </trkpt>
      <trkpt lat="43.5276" lon="3.50049">
        <ele>38.7</ele>
        <time>2019-01-10T07:55:46Z</time>
      </trkpt>
      <trkpt lat="43.52758" lon="3.50049">
        <ele>38.7</ele>
        <time>2019-01-10T07:55:48Z</time>
      </trkpt>
      <trkpt lat="43.52754" lon="3.5005">
        <ele>38.7</ele>
        <time>2019-01-10T07:55:50Z</time>
      </trkpt>
      <trkpt lat="43.52751" lon="3.50051">
        <ele>38.8</ele>
        <time>2019-01-10T07:55:52Z</time>
      </trkpt>
      <trkpt lat="43.52748" lon="3.50053">
        <ele>38.9</ele>
        <time>2019-01-10T07:55:55Z</time>
      </trkpt>
      <trkpt lat="43.52745" lon="3.50055">
        <ele>38.9</ele>
        <time>2019-01-10T07:55:58Z</time>
      </trkpt>
      <trkpt lat="43.52742" lon="3.50057">
        <ele>39</ele>
        <time>2019-01-10T07:56:00Z</time>
      </trkpt>
      <trkpt lat="43.52739" lon="3.50057">
        <ele>39</ele>
        <time>2019-01-10T07:56:03Z</time>
      </trkpt>
      <trkpt lat="43.52736" lon="3.50059">
        <ele>39.1</ele>
        <time>2019-01-10T07:56:05Z</time>
      </trkpt>
      <trkpt lat="43.52732" lon="3.50061">
        <ele>39.1</ele>
        <time>2019-01-10T07:56:07Z</time>
      </trkpt>
      <trkpt lat="43.5273" lon="3.50063">
        <ele>39.2</ele>
        <time>2019-01-10T07:56:09Z</time>
      </trkpt>
      <trkpt lat="43.52727" lon="3.50064">
        <ele>39.2</ele>
        <time>2019-01-10T07:56:11Z</time>
      </trkpt>
      <trkpt lat="43.52724" lon="3.50063">
        <ele>39.3</ele>
        <time>2019-01-10T07:56:14Z</time>
      </trkpt>
      <trkpt lat="43.5272" lon="3.50063">
        <ele>39.3</ele>
        <time>2019-01-10T07:56:16Z</time>
      </trkpt>
      <trkpt lat="43.52717" lon="3.50063">
        <ele>39.3</ele>
        <time>2019-01-10T07:56:18Z</time>
      </trkpt>
      <trkpt lat="43.52714" lon="3.50062">
        <ele>39.3</ele>
        <time>2019-01-10T07:56:20Z</time>
      </trkpt>
      <trkpt lat="43.52711" lon="3.50061">
        <ele>39.2</ele>
        <time>2019-01-10T07:56:22Z</time>
      </trkpt>
      <trkpt lat="43.52708" lon="3.5006">
        <ele>39.2</ele>
        <time>2019-01-10T07:56:24Z</time>
      </trkpt>
      <trkpt lat="43.52705" lon="3.50058">
        <ele>39.2</ele>
        <time>2019-01-10T07:56:26Z</time>
      </trkpt>
      <trkpt lat="43.52702" lon="3.50057">
        <ele>39.1</ele>
        <time>2019-01-10T07:56:28Z</time>
      </trkpt>
      <trkpt lat="43.52698" lon="3.50056">
        <ele>39.1</ele>
        <time>2019-01-10T07:56:30Z</time>
      </trkpt>
      <trkpt lat="43.52695" lon="3.50054">
        <ele>39.1</ele>
        <time>2019-01-10T07:56:32Z</time>
      </trkpt>
      <trkpt lat="43.52692" lon="3.50052">
        <ele>39</ele>
        <time>2019-01-10T07:56:34Z</time>
      </trkpt>
      <trkpt lat="43.5269" lon="3.50051">
        <ele>39</ele>
        <time>2019-01-10T07:56:36Z</time>
      </trkpt>
      <trkpt lat="43.52686" lon="3.5005">
        <ele>39.1</ele>
        <time>2019-01-10T07:56:39Z</time>
      </trkpt>
      <trkpt lat="43.52683" lon="3.50049">
        <ele>39.1</ele>
        <time>2019-01-10T07:56:41Z</time>
      </trkpt>
      <trkpt lat="43.5268" lon="3.50049">
        <ele>39.1</ele>
        <time>2019-01-10T07:56:44Z</time>
      </trkpt>
      <trkpt lat="43.52677" lon="3.50048">
        <ele>39.1</ele>
        <time>2019-01-10T07:56:47Z</time>
      </trkpt>
      <trkpt lat="43.52673" lon="3.50048">
        <ele>39.1</ele>
        <time>2019-01-10T07:56:50Z</time>
      </trkpt>
      <trkpt lat="43.5267" lon="3.50048">
        <ele>39.1</ele>
        <time>2019-01-10T07:56:54Z</time>
      </trkpt>
      <trkpt lat="43.52667" lon="3.50046">
        <ele>39.1</ele>
        <time>2019-01-10T07:56:57Z</time>
      </trkpt>
      <trkpt lat="43.52665" lon="3.50043">
        <ele>39.1</ele>
        <time>2019-01-10T07:57:00Z</time>
      </trkpt>
      <trkpt lat="43.52663" lon="3.50039">
        <ele>39.1</ele>
        <time>2019-01-10T07:57:03Z</time>
      </trkpt>
      <trkpt lat="43.52663" lon="3.50035">
        <ele>39.1</ele>
        <time>2019-01-10T07:57:06Z</time>
      </trkpt>
      <trkpt lat="43.52664" lon="3.50031">
        <ele>39.1</ele>
        <time>2019-01-10T07:57:09Z</time>
      </trkpt>
      <trkpt lat="43.52666" lon="3.50028">
        <ele>39.1</ele>
        <time>2019-01-10T07:57:12Z</time>
      </trkpt>
      <trkpt lat="43.52668" lon="3.50023">
        <ele>39</ele>
        <time>2019-01-10T07:57:16Z</time>
      </trkpt>
      <trkpt lat="43.5267" lon="3.50021">
        <ele>39</ele>
        <time>2019-01-10T07:57:19Z</time>
      </trkpt>
      <trkpt lat="43.52672" lon="3.50017">
        <ele>39</ele>
        <time>2019-01-10T07:57:22Z</time>
      </trkpt>
      <trkpt lat="43.52675" lon="3.50013">
        <ele>38.9</ele>
        <time>2019-01-10T07:57:25Z</time>
      </trkpt>
      <trkpt lat="43.52677" lon="3.50009">
        <ele>38.9</ele>
        <time>2019-01-10T07:57:28Z</time>
      </trkpt>
      <trkpt lat="43.52678" lon="3.50006">
        <ele>38.8</ele>
        <time>2019-01-10T07:57:30Z</time>
      </trkpt>
      <trkpt lat="43.52679" lon="3.50003">
        <ele>38.8</ele>
        <time>2019-01-10T07:57:33Z</time>
      </trkpt>
      <trkpt lat="43.5268" lon="3.49998">
        <ele>38.7</ele>
        <time>2019-01-10T07:57:36Z</time>
      </trkpt>
      <trkpt lat="43.52682" lon="3.49993">
        <ele>38.6</ele>
        <time>2019-01-10T07:57:39Z</time>
      </trkpt>
      <trkpt lat="43.52682" lon="3.49989">
        <ele>38.6</ele>
        <time>2019-01-10T07:57:41Z</time>
      </trkpt>
      <trkpt lat="43.52683" lon="3.49985">
        <ele>38.5</ele>
        <time>2019-01-10T07:57:44Z</time>
      </trkpt>
      <trkpt lat="43.52683" lon="3.49981">
        <ele>38.5</ele>
        <time>2019-01-10T07:57:47Z</time>
      </trkpt>
      <trkpt lat="43.52682" lon="3.49977">
        <ele>38.4</ele>
        <time>2019-01-10T07:57:49Z</time>
      </trkpt>
      <trkpt lat="43.52681" lon="3.49973">
        <ele>38.3</ele>
        <time>2019-01-10T07:57:51Z</time>
      </trkpt>
      <trkpt lat="43.52679" lon="3.4997">
        <ele>38.3</ele>
        <time>2019-01-10T07:57:53Z</time>
      </trkpt>
      <trkpt lat="43.52676" lon="3.49966">
        <ele>38.3</ele>
        <time>2019-01-10T07:57:56Z</time>
      </trkpt>
      <trkpt lat="43.52673" lon="3.49963">
        <ele>38.4</ele>
        <time>2019-01-10T07:57:59Z</time>
      </trkpt>
      <trkpt lat="43.52671" lon="3.49961">
        <ele>38.3</ele>
        <time>2019-01-10T07:58:01Z</time>
      </trkpt>
      <trkpt lat="43.52668" lon="3.49958">
        <ele>38.3</ele>
        <time>2019-01-10T07:58:03Z</time>
      </trkpt>
      <trkpt lat="43.52666" lon="3.49956">
        <ele>38.3</ele>
        <time>2019-01-10T07:58:05Z</time>
      </trkpt>
      <trkpt lat="43.52664" lon="3.49953">
        <ele>38.3</ele>
        <time>2019-01-10T07:58:07Z</time>
      </trkpt>
      <trkpt lat="43.52662" lon="3.49951">
        <ele>38.3</ele>
        <time>2019-01-10T07:58:09Z</time>
      </trkpt>
      <trkpt lat="43.52659" lon="3.49947">
        <ele>38.3</ele>
        <time>2019-01-10T07:58:12Z</time>
      </trkpt>
      <trkpt lat="43.52656" lon="3.49945">
        <ele>38.3</ele>
        <time>2019-01-10T07:58:15Z</time>
      </trkpt>
      <trkpt lat="43.52653" lon="3.49941">
        <ele>38.3</ele>
        <time>2019-01-10T07:58:18Z</time>
      </trkpt>
      <trkpt lat="43.52649" lon="3.49938">
        <ele>38.3</ele>
        <time>2019-01-10T07:58:21Z</time>
      </trkpt>
      <trkpt lat="43.52647" lon="3.49935">
        <ele>38.3</ele>
        <time>2019-01-10T07:58:23Z</time>
      </trkpt>
      <trkpt lat="43.52645" lon="3.49932">
        <ele>38.4</ele>
        <time>2019-01-10T07:58:25Z</time>
      </trkpt>
      <trkpt lat="43.52642" lon="3.4993">
        <ele>38.5</ele>
        <time>2019-01-10T07:58:27Z</time>
      </trkpt>
      <trkpt lat="43.52639" lon="3.49929">
        <ele>38.5</ele>
        <time>2019-01-10T07:58:29Z</time>
      </trkpt>
      <trkpt lat="43.52636" lon="3.49926">
        <ele>38.7</ele>
        <time>2019-01-10T07:58:31Z</time>
      </trkpt>
      <trkpt lat="43.52634" lon="3.49924">
        <ele>38.6</ele>
        <time>2019-01-10T07:58:33Z</time>
      </trkpt>
      <trkpt lat="43.52631" lon="3.49923">
        <ele>38.8</ele>
        <time>2019-01-10T07:58:35Z</time>
      </trkpt>
      <trkpt lat="43.52629" lon="3.4992">
        <ele>38.9</ele>
        <time>2019-01-10T07:58:37Z</time>
      </trkpt>
      <trkpt lat="43.52627" lon="3.49918">
        <ele>39</ele>
        <time>2019-01-10T07:58:39Z</time>
      </trkpt>
      <trkpt lat="43.52624" lon="3.49916">
        <ele>39</ele>
        <time>2019-01-10T07:58:41Z</time>
      </trkpt>
      <trkpt lat="43.52622" lon="3.49913">
        <ele>39.2</ele>
        <time>2019-01-10T07:58:43Z</time>
      </trkpt>
      <trkpt lat="43.52619" lon="3.4991">
        <ele>39.3</ele>
        <time>2019-01-10T07:58:45Z</time>
      </trkpt>
      <trkpt lat="43.52616" lon="3.49908">
        <ele>39.5</ele>
        <time>2019-01-10T07:58:47Z</time>
      </trkpt>
      <trkpt lat="43.52614" lon="3.49906">
        <ele>39.7</ele>
        <time>2019-01-10T07:58:49Z</time>
      </trkpt>
      <trkpt lat="43.52611" lon="3.49904">
        <ele>39.8</ele>
        <time>2019-01-10T07:58:51Z</time>
      </trkpt>
      <trkpt lat="43.52609" lon="3.49901">
        <ele>39.8</ele>
        <time>2019-01-10T07:58:53Z</time>
      </trkpt>
      <trkpt lat="43.52606" lon="3.49898">
        <ele>39.9</ele>
        <time>2019-01-10T07:58:55Z</time>
      </trkpt>
      <trkpt lat="43.52604" lon="3.49896">
        <ele>40</ele>
        <time>2019-01-10T07:58:57Z</time>
      </trkpt>
      <trkpt lat="43.52602" lon="3.49893">
        <ele>40.1</ele>
        <time>2019-01-10T07:58:59Z</time>
      </trkpt>
      <trkpt lat="43.52599" lon="3.4989">
        <ele>40.1</ele>
        <time>2019-01-10T07:59:02Z</time>
      </trkpt>
      <trkpt lat="43.52596" lon="3.49888">
        <ele>40.1</ele>
        <time>2019-01-10T07:59:04Z</time>
      </trkpt>
      <trkpt lat="43.52594" lon="3.49886">
        <ele>40.2</ele>
        <time>2019-01-10T07:59:06Z</time>
      </trkpt>
      <trkpt lat="43.52591" lon="3.49884">
        <ele>40.3</ele>
        <time>2019-01-10T07:59:08Z</time>
      </trkpt>
      <trkpt lat="43.52588" lon="3.49883">
        <ele>40.4</ele>
        <time>2019-01-10T07:59:10Z</time>
      </trkpt>
      <trkpt lat="43.52585" lon="3.49884">
        <ele>40.5</ele>
        <time>2019-01-10T07:59:12Z</time>
      </trkpt>
      <trkpt lat="43.52582" lon="3.49886">
        <ele>40.6</ele>
        <time>2019-01-10T07:59:14Z</time>
      </trkpt>
      <trkpt lat="43.5258" lon="3.49888">
        <ele>40.8</ele>
        <time>2019-01-10T07:59:16Z</time>
      </trkpt>
      <trkpt lat="43.52577" lon="3.49892">
        <ele>41</ele>
        <time>2019-01-10T07:59:19Z</time>
      </trkpt>
      <trkpt lat="43.52574" lon="3.49895">
        <ele>41.2</ele>
        <time>2019-01-10T07:59:22Z</time>
      </trkpt>
      <trkpt lat="43.52572" lon="3.49898">
        <ele>41.1</ele>
        <time>2019-01-10T07:59:24Z</time>
      </trkpt>
      <trkpt lat="43.5257" lon="3.499">
        <ele>41.4</ele>
        <time>2019-01-10T07:59:26Z</time>
      </trkpt>
      <trkpt lat="43.52567" lon="3.49902">
        <ele>41.6</ele>
        <time>2019-01-10T07:59:28Z</time>
      </trkpt>
      <trkpt lat="43.52565" lon="3.49903">
        <ele>41.8</ele>
        <time>2019-01-10T07:59:30Z</time>
      </trkpt>
      <trkpt lat="43.52562" lon="3.49905">
        <ele>42.1</ele>
        <time>2019-01-10T07:59:32Z</time>
      </trkpt>
      <trkpt lat="43.52559" lon="3.49906">
        <ele>42</ele>
        <time>2019-01-10T07:59:34Z</time>
      </trkpt>
      <trkpt lat="43.52556" lon="3.49908">
        <ele>42.3</ele>
        <time>2019-01-10T07:59:37Z</time>
      </trkpt>
      <trkpt lat="43.52553" lon="3.49909">
        <ele>42.6</ele>
        <time>2019-01-10T07:59:39Z</time>
      </trkpt>
      <trkpt lat="43.5255" lon="3.49912">
        <ele>42.7</ele>
        <time>2019-01-10T07:59:42Z</time>
      </trkpt>
      <trkpt lat="43.52548" lon="3.49914">
        <ele>43</ele>
        <time>2019-01-10T07:59:44Z</time>
      </trkpt>
      <trkpt lat="43.52546" lon="3.49917">
        <ele>43</ele>
        <time>2019-01-10T07:59:46Z</time>
      </trkpt>
      <trkpt lat="43.52543" lon="3.4992">
        <ele>43</ele>
        <time>2019-01-10T07:59:48Z</time>
      </trkpt>
      <trkpt lat="43.5254" lon="3.49922">
        <ele>43</ele>
        <time>2019-01-10T07:59:51Z</time>
      </trkpt>
      <trkpt lat="43.52538" lon="3.49926">
        <ele>42.9</ele>
        <time>2019-01-10T07:59:54Z</time>
      </trkpt>
      <trkpt lat="43.52536" lon="3.49928">
        <ele>42.8</ele>
        <time>2019-01-10T07:59:56Z</time>
      </trkpt>
      <trkpt lat="43.52534" lon="3.49932">
        <ele>43</ele>
        <time>2019-01-10T07:59:58Z</time>
      </trkpt>
      <trkpt lat="43.52532" lon="3.49935">
        <ele>42.8</ele>
        <time>2019-01-10T08:00:00Z</time>
      </trkpt>
      <trkpt lat="43.52529" lon="3.49937">
        <ele>42.8</ele>
        <time>2019-01-10T08:00:02Z</time>
      </trkpt>
      <trkpt lat="43.52527" lon="3.49939">
        <ele>42.9</ele>
        <time>2019-01-10T08:00:04Z</time>
      </trkpt>
      <trkpt lat="43.52524" lon="3.49941">
        <ele>42.8</ele>
        <time>2019-01-10T08:00:06Z</time>
      </trkpt>
      <trkpt lat="43.52522" lon="3.49944">
        <ele>42.9</ele>
        <time>2019-01-10T08:00:08Z</time>
      </trkpt>
      <trkpt lat="43.52519" lon="3.49947">
        <ele>42.7</ele>
        <time>2019-01-10T08:00:10Z</time>
      </trkpt>
      <trkpt lat="43.52516" lon="3.4995">
        <ele>42.6</ele>
        <time>2019-01-10T08:00:12Z</time>
      </trkpt>
      <trkpt lat="43.52514" lon="3.49953">
        <ele>42.7</ele>
        <time>2019-01-10T08:00:14Z</time>
      </trkpt>
      <trkpt lat="43.52511" lon="3.49954">
        <ele>42.6</ele>
        <time>2019-01-10T08:00:16Z</time>
      </trkpt>
      <trkpt lat="43.52508" lon="3.49956">
        <ele>42.7</ele>
        <time>2019-01-10T08:00:18Z</time>
      </trkpt>
      <trkpt lat="43.52506" lon="3.49958">
        <ele>42.5</ele>
        <time>2019-01-10T08:00:20Z</time>
      </trkpt>
      <trkpt lat="43.52504" lon="3.49961">
        <ele>42.6</ele>
        <time>2019-01-10T08:00:22Z</time>
      </trkpt>
      <trkpt lat="43.52501" lon="3.49964">
        <ele>42.7</ele>
        <time>2019-01-10T08:00:25Z</time>
      </trkpt>
      <trkpt lat="43.52499" lon="3.49967">
        <ele>42.8</ele>
        <time>2019-01-10T08:00:27Z</time>
      </trkpt>
      <trkpt lat="43.52496" lon="3.49971">
        <ele>42.9</ele>
        <time>2019-01-10T08:00:30Z</time>
      </trkpt>
      <trkpt lat="43.52495" lon="3.49974">
        <ele>42.9</ele>
        <time>2019-01-10T08:00:32Z</time>
      </trkpt>
      <trkpt lat="43.52493" lon="3.49977">
        <ele>43</ele>
        <time>2019-01-10T08:00:34Z</time>
      </trkpt>
      <trkpt lat="43.52491" lon="3.4998">
        <ele>42.9</ele>
        <time>2019-01-10T08:00:36Z</time>
      </trkpt>
      <trkpt lat="43.52489" lon="3.49983">
        <ele>43.1</ele>
        <time>2019-01-10T08:00:38Z</time>
      </trkpt>
      <trkpt lat="43.52486" lon="3.49985">
        <ele>43.2</ele>
        <time>2019-01-10T08:00:40Z</time>
      </trkpt>
      <trkpt lat="43.52482" lon="3.49983">
        <ele>43.5</ele>
        <time>2019-01-10T08:00:43Z</time>
      </trkpt>
      <trkpt lat="43.52479" lon="3.49982">
        <ele>43.8</ele>
        <time>2019-01-10T08:00:45Z</time>
      </trkpt>
      <trkpt lat="43.52475" lon="3.49981">
        <ele>44</ele>
        <time>2019-01-10T08:00:48Z</time>
      </trkpt>
      <trkpt lat="43.52472" lon="3.49982">
        <ele>44.2</ele>
        <time>2019-01-10T08:00:50Z</time>
      </trkpt>
      <trkpt lat="43.5247" lon="3.49984">
        <ele>44.3</ele>
        <time>2019-01-10T08:00:52Z</time>
      </trkpt>
      <trkpt lat="43.52468" lon="3.49988">
        <ele>44.4</ele>
        <time>2019-01-10T08:00:54Z</time>
      </trkpt>
      <trkpt lat="43.52466" lon="3.49993">
        <ele>44.2</ele>
        <time>2019-01-10T08:00:56Z</time>
      </trkpt>
      <trkpt lat="43.52465" lon="3.49998">
        <ele>44.4</ele>
        <time>2019-01-10T08:00:58Z</time>
      </trkpt>
      <trkpt lat="43.52465" lon="3.50002">
        <ele>44.2</ele>
        <time>2019-01-10T08:01:00Z</time>
      </trkpt>
      <trkpt lat="43.52464" lon="3.50006">
        <ele>44</ele>
        <time>2019-01-10T08:01:02Z</time>
      </trkpt>
      <trkpt lat="43.52463" lon="3.50011">
        <ele>43.9</ele>
        <time>2019-01-10T08:01:05Z</time>
      </trkpt>
      <trkpt lat="43.5246" lon="3.50015">
        <ele>43.9</ele>
        <time>2019-01-10T08:01:08Z</time>
      </trkpt>
      <trkpt lat="43.52458" lon="3.50019">
        <ele>43.9</ele>
        <time>2019-01-10T08:01:11Z</time>
      </trkpt>
      <trkpt lat="43.52457" lon="3.50023">
        <ele>44</ele>
        <time>2019-01-10T08:01:13Z</time>
      </trkpt>
      <trkpt lat="43.52455" lon="3.50028">
        <ele>44.2</ele>
        <time>2019-01-10T08:01:16Z</time>
      </trkpt>
      <trkpt lat="43.52452" lon="3.50033">
        <ele>44.3</ele>
        <time>2019-01-10T08:01:19Z</time>
      </trkpt>
      <trkpt lat="43.52449" lon="3.50035">
        <ele>44.4</ele>
        <time>2019-01-10T08:01:22Z</time>
      </trkpt>
      <trkpt lat="43.52447" lon="3.50038">
        <ele>44.6</ele>
        <time>2019-01-10T08:01:24Z</time>
      </trkpt>
      <trkpt lat="43.52445" lon="3.50041">
        <ele>44.8</ele>
        <time>2019-01-10T08:01:26Z</time>
      </trkpt>
      <trkpt lat="43.52443" lon="3.50043">
        <ele>44.9</ele>
        <time>2019-01-10T08:01:28Z</time>
      </trkpt>
      <trkpt lat="43.5244" lon="3.50047">
        <ele>45.1</ele>
        <time>2019-01-10T08:01:31Z</time>
      </trkpt>
      <trkpt lat="43.52438" lon="3.50051">
        <ele>45.3</ele>
        <time>2019-01-10T08:01:34Z</time>
      </trkpt>
      <trkpt lat="43.52435" lon="3.50053">
        <ele>45.5</ele>
        <time>2019-01-10T08:01:37Z</time>
      </trkpt>
      <trkpt lat="43.52432" lon="3.50052">
        <ele>45.8</ele>
        <time>2019-01-10T08:01:40Z</time>
      </trkpt>
      <trkpt lat="43.52429" lon="3.50052">
        <ele>46.1</ele>
        <time>2019-01-10T08:01:43Z</time>
      </trkpt>
      <trkpt lat="43.52425" lon="3.50052">
        <ele>46.3</ele>
        <time>2019-01-10T08:01:46Z</time>
      </trkpt>
      <trkpt lat="43.52422" lon="3.50052">
        <ele>46.5</ele>
        <time>2019-01-10T08:01:48Z</time>
      </trkpt>
      <trkpt lat="43.5242" lon="3.50052">
        <ele>46.7</ele>
        <time>2019-01-10T08:01:50Z</time>
      </trkpt>
      <trkpt lat="43.52417" lon="3.50052">
        <ele>47</ele>
        <time>2019-01-10T08:01:52Z</time>
      </trkpt>
      <trkpt lat="43.52413" lon="3.50053">
        <ele>47.3</ele>
        <time>2019-01-10T08:01:55Z</time>
      </trkpt>
      <trkpt lat="43.52409" lon="3.50052">
        <ele>47.5</ele>
        <time>2019-01-10T08:01:59Z</time>
      </trkpt>
      <trkpt lat="43.52406" lon="3.50052">
        <ele>47.8</ele>
        <time>2019-01-10T08:02:02Z</time>
      </trkpt>
      <trkpt lat="43.52402" lon="3.50051">
        <ele>48</ele>
        <time>2019-01-10T08:02:05Z</time>
      </trkpt>
      <trkpt lat="43.52399" lon="3.50051">
        <ele>48.2</ele>
        <time>2019-01-10T08:02:07Z</time>
      </trkpt>
      <trkpt lat="43.52396" lon="3.5005">
        <ele>48.3</ele>
        <time>2019-01-10T08:02:09Z</time>
      </trkpt>
      <trkpt lat="43.52393" lon="3.5005">
        <ele>48.5</ele>
        <time>2019-01-10T08:02:12Z</time>
      </trkpt>
      <trkpt lat="43.5239" lon="3.50049">
        <ele>48.6</ele>
        <time>2019-01-10T08:02:14Z</time>
      </trkpt>
      <trkpt lat="43.52387" lon="3.50048">
        <ele>48.8</ele>
        <time>2019-01-10T08:02:16Z</time>
      </trkpt>
      <trkpt lat="43.52384" lon="3.50047">
        <ele>49</ele>
        <time>2019-01-10T08:02:19Z</time>
      </trkpt>
      <trkpt lat="43.5238" lon="3.50046">
        <ele>49.2</ele>
        <time>2019-01-10T08:02:22Z</time>
      </trkpt>
      <trkpt lat="43.52376" lon="3.50044">
        <ele>49.4</ele>
        <time>2019-01-10T08:02:25Z</time>
      </trkpt>
      <trkpt lat="43.52373" lon="3.50043">
        <ele>49.5</ele>
        <time>2019-01-10T08:02:27Z</time>
      </trkpt>
      <trkpt lat="43.5237" lon="3.50042">
        <ele>49.6</ele>
        <time>2019-01-10T08:02:29Z</time>
      </trkpt>
      <trkpt lat="43.52367" lon="3.50042">
        <ele>49.8</ele>
        <time>2019-01-10T08:02:31Z</time>
      </trkpt>
      <trkpt lat="43.52363" lon="3.50043">
        <ele>50</ele>
        <time>2019-01-10T08:02:34Z</time>
      </trkpt>
      <trkpt lat="43.5236" lon="3.50044">
        <ele>50.1</ele>
        <time>2019-01-10T08:02:36Z</time>
      </trkpt>
      <trkpt lat="43.52357" lon="3.50044">
        <ele>50.2</ele>
        <time>2019-01-10T08:02:38Z</time>
      </trkpt>
      <trkpt lat="43.52354" lon="3.50041">
        <ele>50.4</ele>
        <time>2019-01-10T08:02:42Z</time>
      </trkpt>
      <trkpt lat="43.52351" lon="3.5004">
        <ele>50.6</ele>
        <time>2019-01-10T08:02:45Z</time>
      </trkpt>
      <trkpt lat="43.52347" lon="3.5004">
        <ele>50.7</ele>
        <time>2019-01-10T08:02:48Z</time>
      </trkpt>
      <trkpt lat="43.52344" lon="3.5004">
        <ele>50.8</ele>
        <time>2019-01-10T08:02:50Z</time>
      </trkpt>
      <trkpt lat="43.52341" lon="3.5004">
        <ele>50.9</ele>
        <time>2019-01-10T08:02:52Z</time>
      </trkpt>
      <trkpt lat="43.52337" lon="3.50041">
        <ele>51</ele>
        <time>2019-01-10T08:02:55Z</time>
      </trkpt>
      <trkpt lat="43.52334" lon="3.5004">
        <ele>51.2</ele>
        <time>2019-01-10T08:02:58Z</time>
      </trkpt>
      <trkpt lat="43.5233" lon="3.5004">
        <ele>51.5</ele>
        <time>2019-01-10T08:03:01Z</time>
      </trkpt>
      <trkpt lat="43.52326" lon="3.50039">
        <ele>51.8</ele>
        <time>2019-01-10T08:03:04Z</time>
      </trkpt>
      <trkpt lat="43.52324" lon="3.50039">
        <ele>52</ele>
        <time>2019-01-10T08:03:06Z</time>
      </trkpt>
      <trkpt lat="43.52321" lon="3.50039">
        <ele>52.2</ele>
        <time>2019-01-10T08:03:08Z</time>
      </trkpt>
      <trkpt lat="43.52317" lon="3.50039">
        <ele>52.4</ele>
        <time>2019-01-10T08:03:11Z</time>
      </trkpt>
      <trkpt lat="43.52314" lon="3.50038">
        <ele>52.6</ele>
        <time>2019-01-10T08:03:13Z</time>
      </trkpt>
      <trkpt lat="43.52311" lon="3.50038">
        <ele>52.7</ele>
        <time>2019-01-10T08:03:15Z</time>
      </trkpt>
      <trkpt lat="43.52307" lon="3.50038">
        <ele>53</ele>
        <time>2019-01-10T08:03:18Z</time>
      </trkpt>
      <trkpt lat="43.52304" lon="3.50038">
        <ele>53.1</ele>
        <time>2019-01-10T08:03:20Z</time>
      </trkpt>
      <trkpt lat="43.52301" lon="3.50038">
        <ele>53.3</ele>
        <time>2019-01-10T08:03:23Z</time>
      </trkpt>
      <trkpt lat="43.52297" lon="3.50038">
        <ele>53.5</ele>
        <time>2019-01-10T08:03:26Z</time>
      </trkpt>
      <trkpt lat="43.52293" lon="3.50036">
        <ele>53.7</ele>
        <time>2019-01-10T08:03:29Z</time>
      </trkpt>
      <trkpt lat="43.5229" lon="3.50035">
        <ele>53.9</ele>
        <time>2019-01-10T08:03:32Z</time>
      </trkpt>
      <trkpt lat="43.52287" lon="3.50035">
        <ele>54.2</ele>
        <time>2019-01-10T08:03:35Z</time>
      </trkpt>
      <trkpt lat="43.52283" lon="3.50034">
        <ele>54.6</ele>
        <time>2019-01-10T08:03:38Z</time>
      </trkpt>
      <trkpt lat="43.5228" lon="3.50033">
        <ele>54.9</ele>
        <time>2019-01-10T08:03:40Z</time>
      </trkpt>
      <trkpt lat="43.52277" lon="3.50031">
        <ele>55.1</ele>
        <time>2019-01-10T08:03:43Z</time>
      </trkpt>
      <trkpt lat="43.52274" lon="3.50031">
        <ele>55.4</ele>
        <time>2019-01-10T08:03:46Z</time>
      </trkpt>
      <trkpt lat="43.5227" lon="3.50031">
        <ele>55.6</ele>
        <time>2019-01-10T08:03:49Z</time>
      </trkpt>
      <trkpt lat="43.52267" lon="3.5003">
        <ele>55.8</ele>
        <time>2019-01-10T08:03:52Z</time>
      </trkpt>
      <trkpt lat="43.52263" lon="3.5003">
        <ele>56</ele>
        <time>2019-01-10T08:03:55Z</time>
      </trkpt>
      <trkpt lat="43.5226" lon="3.5003">
        <ele>56.3</ele>
        <time>2019-01-10T08:03:57Z</time>
      </trkpt>
      <trkpt lat="43.52256" lon="3.50028">
        <ele>56.6</ele>
        <time>2019-01-10T08:04:00Z</time>
      </trkpt>
      <trkpt lat="43.52253" lon="3.50028">
        <ele>56.8</ele>
        <time>2019-01-10T08:04:02Z</time>
      </trkpt>
      <trkpt lat="43.5225" lon="3.50027">
        <ele>57</ele>
        <time>2019-01-10T08:04:04Z</time>
      </trkpt>
      <trkpt lat="43.52247" lon="3.50026">
        <ele>57.2</ele>
        <time>2019-01-10T08:04:06Z</time>
      </trkpt>
      <trkpt lat="43.52244" lon="3.50026">
        <ele>57.4</ele>
        <time>2019-01-10T08:04:08Z</time>
      </trkpt>
      <trkpt lat="43.52241" lon="3.50026">
        <ele>57.7</ele>
        <time>2019-01-10T08:04:10Z</time>
      </trkpt>
      <trkpt lat="43.52238" lon="3.50026">
        <ele>57.9</ele>
        <time>2019-01-10T08:04:12Z</time>
      </trkpt>
      <trkpt lat="43.52235" lon="3.50026">
        <ele>58.1</ele>
        <time>2019-01-10T08:04:15Z</time>
      </trkpt>
      <trkpt lat="43.52231" lon="3.50026">
        <ele>58.2</ele>
        <time>2019-01-10T08:04:17Z</time>
      </trkpt>
      <trkpt lat="43.52228" lon="3.50029">
        <ele>58.5</ele>
        <time>2019-01-10T08:04:20Z</time>
      </trkpt>
      <trkpt lat="43.52224" lon="3.5003">
        <ele>58.7</ele>
        <time>2019-01-10T08:04:23Z</time>
      </trkpt>
      <trkpt lat="43.52221" lon="3.50031">
        <ele>58.9</ele>
        <time>2019-01-10T08:04:25Z</time>
      </trkpt>
      <trkpt lat="43.52218" lon="3.50032">
        <ele>59</ele>
        <time>2019-01-10T08:04:27Z</time>
      </trkpt>
      <trkpt lat="43.52216" lon="3.50033">
        <ele>59.1</ele>
        <time>2019-01-10T08:04:29Z</time>
      </trkpt>
      <trkpt lat="43.52213" lon="3.50034">
        <ele>59.3</ele>
        <time>2019-01-10T08:04:31Z</time>
      </trkpt>
      <trkpt lat="43.52209" lon="3.50034">
        <ele>59.6</ele>
        <time>2019-01-10T08:04:34Z</time>
      </trkpt>
      <trkpt lat="43.52205" lon="3.50035">
        <ele>59.8</ele>
        <time>2019-01-10T08:04:36Z</time>
      </trkpt>
      <trkpt lat="43.52203" lon="3.50036">
        <ele>60</ele>
        <time>2019-01-10T08:04:38Z</time>
      </trkpt>
      <trkpt lat="43.522" lon="3.50037">
        <ele>60.1</ele>
        <time>2019-01-10T08:04:40Z</time>
      </trkpt>
      <trkpt lat="43.52196" lon="3.50039">
        <ele>60.4</ele>
        <time>2019-01-10T08:04:44Z</time>
      </trkpt>
      <trkpt lat="43.52193" lon="3.5004">
        <ele>60.5</ele>
        <time>2019-01-10T08:04:46Z</time>
      </trkpt>
      <trkpt lat="43.52189" lon="3.50041">
        <ele>60.7</ele>
        <time>2019-01-10T08:04:49Z</time>
      </trkpt>
      <trkpt lat="43.52185" lon="3.50042">
        <ele>61</ele>
        <time>2019-01-10T08:04:52Z</time>
      </trkpt>
      <trkpt lat="43.52182" lon="3.50043">
        <ele>61.2</ele>
        <time>2019-01-10T08:04:55Z</time>
      </trkpt>
      <trkpt lat="43.52178" lon="3.50044">
        <ele>61.4</ele>
        <time>2019-01-10T08:04:58Z</time>
      </trkpt>
      <trkpt lat="43.52174" lon="3.50045">
        <ele>61.7</ele>
        <time>2019-01-10T08:05:01Z</time>
      </trkpt>
      <trkpt lat="43.52172" lon="3.50047">
        <ele>61.9</ele>
        <time>2019-01-10T08:05:03Z</time>
      </trkpt>
      <trkpt lat="43.52169" lon="3.50049">
        <ele>62</ele>
        <time>2019-01-10T08:05:06Z</time>
      </trkpt>
      <trkpt lat="43.52164" lon="3.50051">
        <ele>62.2</ele>
        <time>2019-01-10T08:05:09Z</time>
      </trkpt>
      <trkpt lat="43.52162" lon="3.50052">
        <ele>62.4</ele>
        <time>2019-01-10T08:05:11Z</time>
      </trkpt>
      <trkpt lat="43.52159" lon="3.50053">
        <ele>62.6</ele>
        <time>2019-01-10T08:05:13Z</time>
      </trkpt>
      <trkpt lat="43.52156" lon="3.50053">
        <ele>62.8</ele>
        <time>2019-01-10T08:05:15Z</time>
      </trkpt>
      <trkpt lat="43.52153" lon="3.50054">
        <ele>63</ele>
        <time>2019-01-10T08:05:17Z</time>
      </trkpt>
      <trkpt lat="43.52149" lon="3.50054">
        <ele>63.2</ele>
        <time>2019-01-10T08:05:20Z</time>
      </trkpt>
      <trkpt lat="43.52146" lon="3.50055">
        <ele>63.3</ele>
        <time>2019-01-10T08:05:22Z</time>
      </trkpt>
      <trkpt lat="43.52144" lon="3.50056">
        <ele>63.4</ele>
        <time>2019-01-10T08:05:24Z</time>
      </trkpt>
      <trkpt lat="43.52141" lon="3.50056">
        <ele>63.5</ele>
        <time>2019-01-10T08:05:26Z</time>
      </trkpt>
      <trkpt lat="43.52138" lon="3.50056">
        <ele>63.6</ele>
        <time>2019-01-10T08:05:28Z</time>
      </trkpt>
      <trkpt lat="43.52134" lon="3.50056">
        <ele>63.6</ele>
        <time>2019-01-10T08:05:31Z</time>
      </trkpt>
      <trkpt lat="43.52131" lon="3.50057">
        <ele>63.6</ele>
        <time>2019-01-10T08:05:33Z</time>
      </trkpt>
      <trkpt lat="43.52128" lon="3.50058">
        <ele>63.7</ele>
        <time>2019-01-10T08:05:35Z</time>
      </trkpt>
      <trkpt lat="43.52125" lon="3.50058">
        <ele>63.8</ele>
        <time>2019-01-10T08:05:37Z</time>
      </trkpt>
      <trkpt lat="43.52121" lon="3.5006">
        <ele>64</ele>
        <time>2019-01-10T08:05:40Z</time>
      </trkpt>
      <trkpt lat="43.52117" lon="3.5006">
        <ele>64.3</ele>
        <time>2019-01-10T08:05:43Z</time>
      </trkpt>
      <trkpt lat="43.52114" lon="3.50061">
        <ele>64.6</ele>
        <time>2019-01-10T08:05:45Z</time>
      </trkpt>
      <trkpt lat="43.52111" lon="3.50062">
        <ele>64.8</ele>
        <time>2019-01-10T08:05:47Z</time>
      </trkpt>
      <trkpt lat="43.52108" lon="3.50062">
        <ele>65.1</ele>
        <time>2019-01-10T08:05:50Z</time>
      </trkpt>
      <trkpt lat="43.52104" lon="3.50062">
        <ele>65.3</ele>
        <time>2019-01-10T08:05:53Z</time>
      </trkpt>
      <trkpt lat="43.52101" lon="3.50062">
        <ele>65.4</ele>
        <time>2019-01-10T08:05:56Z</time>
      </trkpt>
      <trkpt lat="43.52098" lon="3.50062">
        <ele>65.5</ele>
        <time>2019-01-10T08:05:58Z</time>
      </trkpt>
      <trkpt lat="43.52094" lon="3.50063">
        <ele>65.8</ele>
        <time>2019-01-10T08:06:01Z</time>
      </trkpt>
      <trkpt lat="43.52091" lon="3.50064">
        <ele>66.1</ele>
        <time>2019-01-10T08:06:04Z</time>
      </trkpt>
      <trkpt lat="43.52087" lon="3.50065">
        <ele>66.4</ele>
        <time>2019-01-10T08:06:07Z</time>
      </trkpt>
      <trkpt lat="43.52083" lon="3.50065">
        <ele>66.8</ele>
        <time>2019-01-10T08:06:10Z</time>
      </trkpt>
      <trkpt lat="43.5208" lon="3.50066">
        <ele>67.1</ele>
        <time>2019-01-10T08:06:13Z</time>
      </trkpt>
      <trkpt lat="43.52077" lon="3.50066">
        <ele>67.4</ele>
        <time>2019-01-10T08:06:16Z</time>
      </trkpt>
      <trkpt lat="43.52074" lon="3.50066">
        <ele>67.7</ele>
        <time>2019-01-10T08:06:18Z</time>
      </trkpt>
      <trkpt lat="43.5207" lon="3.50066">
        <ele>68</ele>
        <time>2019-01-10T08:06:21Z</time>
      </trkpt>
      <trkpt lat="43.52066" lon="3.50067">
        <ele>68.2</ele>
        <time>2019-01-10T08:06:24Z</time>
      </trkpt>
      <trkpt lat="43.52064" lon="3.50068">
        <ele>68.3</ele>
        <time>2019-01-10T08:06:26Z</time>
      </trkpt>
      <trkpt lat="43.5206" lon="3.50068">
        <ele>68.6</ele>
        <time>2019-01-10T08:06:29Z</time>
      </trkpt>
      <trkpt lat="43.52057" lon="3.50069">
        <ele>68.9</ele>
        <time>2019-01-10T08:06:31Z</time>
      </trkpt>
      <trkpt lat="43.52053" lon="3.50069">
        <ele>69.4</ele>
        <time>2019-01-10T08:06:34Z</time>
      </trkpt>
      <trkpt lat="43.5205" lon="3.50069">
        <ele>69.8</ele>
        <time>2019-01-10T08:06:36Z</time>
      </trkpt>
      <trkpt lat="43.52047" lon="3.5007">
        <ele>70.1</ele>
        <time>2019-01-10T08:06:38Z</time>
      </trkpt>
      <trkpt lat="43.52045" lon="3.50071">
        <ele>70.5</ele>
        <time>2019-01-10T08:06:40Z</time>
      </trkpt>
      <trkpt lat="43.52041" lon="3.50071">
        <ele>70.8</ele>
        <time>2019-01-10T08:06:43Z</time>
      </trkpt>
      <trkpt lat="43.52038" lon="3.50072">
        <ele>71.1</ele>
        <time>2019-01-10T08:06:45Z</time>
      </trkpt>
      <trkpt lat="43.52034" lon="3.50073">
        <ele>71.5</ele>
        <time>2019-01-10T08:06:47Z</time>
      </trkpt>
      <trkpt lat="43.5203" lon="3.50073">
        <ele>72.1</ele>
        <time>2019-01-10T08:06:50Z</time>
      </trkpt>
      <trkpt lat="43.52028" lon="3.50073">
        <ele>72.5</ele>
        <time>2019-01-10T08:06:52Z</time>
      </trkpt>
      <trkpt lat="43.52025" lon="3.50073">
        <ele>72.8</ele>
        <time>2019-01-10T08:06:54Z</time>
      </trkpt>
      <trkpt lat="43.52021" lon="3.50074">
        <ele>73.2</ele>
        <time>2019-01-10T08:06:57Z</time>
      </trkpt>
      <trkpt lat="43.52018" lon="3.50075">
        <ele>73.5</ele>
        <time>2019-01-10T08:06:59Z</time>
      </trkpt>
      <trkpt lat="43.52016" lon="3.50077">
        <ele>73.8</ele>
        <time>2019-01-10T08:07:01Z</time>
      </trkpt>
      <trkpt lat="43.52012" lon="3.50079">
        <ele>74.3</ele>
        <time>2019-01-10T08:07:04Z</time>
      </trkpt>
      <trkpt lat="43.52009" lon="3.5008">
        <ele>74.6</ele>
        <time>2019-01-10T08:07:06Z</time>
      </trkpt>
      <trkpt lat="43.52006" lon="3.50081">
        <ele>75</ele>
        <time>2019-01-10T08:07:08Z</time>
      </trkpt>
      <trkpt lat="43.52003" lon="3.50082">
        <ele>75.4</ele>
        <time>2019-01-10T08:07:11Z</time>
      </trkpt>
      <trkpt lat="43.51999" lon="3.50083">
        <ele>75.9</ele>
        <time>2019-01-10T08:07:14Z</time>
      </trkpt>
      <trkpt lat="43.51995" lon="3.50085">
        <ele>76.4</ele>
        <time>2019-01-10T08:07:17Z</time>
      </trkpt>
      <trkpt lat="43.51992" lon="3.50086">
        <ele>76.8</ele>
        <time>2019-01-10T08:07:19Z</time>
      </trkpt>
      <trkpt lat="43.51989" lon="3.50088">
        <ele>77.1</ele>
        <time>2019-01-10T08:07:21Z</time>
      </trkpt>
      <trkpt lat="43.51987" lon="3.50089">
        <ele>77.4</ele>
        <time>2019-01-10T08:07:23Z</time>
      </trkpt>
      <trkpt lat="43.51983" lon="3.50091">
        <ele>77.8</ele>
        <time>2019-01-10T08:07:26Z</time>
      </trkpt>
      <trkpt lat="43.51979" lon="3.5009">
        <ele>78.1</ele>
        <time>2019-01-10T08:07:29Z</time>
      </trkpt>
      <trkpt lat="43.51976" lon="3.5009">
        <ele>78.3</ele>
        <time>2019-01-10T08:07:31Z</time>
      </trkpt>
      <trkpt lat="43.51973" lon="3.5009">
        <ele>78.4</ele>
        <time>2019-01-10T08:07:33Z</time>
      </trkpt>
      <trkpt lat="43.5197" lon="3.50089">
        <ele>78.6</ele>
        <time>2019-01-10T08:07:35Z</time>
      </trkpt>
      <trkpt lat="43.51967" lon="3.50089">
        <ele>78.9</ele>
        <time>2019-01-10T08:07:37Z</time>
      </trkpt>
      <trkpt lat="43.51964" lon="3.50089">
        <ele>79.1</ele>
        <time>2019-01-10T08:07:40Z</time>
      </trkpt>
      <trkpt lat="43.5196" lon="3.50089">
        <ele>79.4</ele>
        <time>2019-01-10T08:07:43Z</time>
      </trkpt>
      <trkpt lat="43.51956" lon="3.50088">
        <ele>79.5</ele>
        <time>2019-01-10T08:07:45Z</time>
      </trkpt>
      <trkpt lat="43.51953" lon="3.50087">
        <ele>79.6</ele>
        <time>2019-01-10T08:07:47Z</time>
      </trkpt>
      <trkpt lat="43.51949" lon="3.50087">
        <ele>79.8</ele>
        <time>2019-01-10T08:07:50Z</time>
      </trkpt>
      <trkpt lat="43.51946" lon="3.50087">
        <ele>80</ele>
        <time>2019-01-10T08:07:53Z</time>
      </trkpt>
      <trkpt lat="43.51942" lon="3.50089">
        <ele>80.3</ele>
        <time>2019-01-10T08:07:56Z</time>
      </trkpt>
      <trkpt lat="43.51938" lon="3.5009">
        <ele>80.6</ele>
        <time>2019-01-10T08:07:59Z</time>
      </trkpt>
      <trkpt lat="43.51936" lon="3.50092">
        <ele>80.9</ele>
        <time>2019-01-10T08:08:03Z</time>
      </trkpt>
      <trkpt lat="43.51933" lon="3.50094">
        <ele>81.2</ele>
        <time>2019-01-10T08:08:06Z</time>
      </trkpt>
      <trkpt lat="43.51929" lon="3.50096">
        <ele>81.5</ele>
        <time>2019-01-10T08:08:09Z</time>
      </trkpt>
      <trkpt lat="43.51926" lon="3.50097">
        <ele>81.6</ele>
        <time>2019-01-10T08:08:12Z</time>
      </trkpt>
      <trkpt lat="43.51923" lon="3.50099">
        <ele>81.7</ele>
        <time>2019-01-10T08:08:15Z</time>
      </trkpt>
      <trkpt lat="43.5192" lon="3.50101">
        <ele>81.6</ele>
        <time>2019-01-10T08:08:17Z</time>
      </trkpt>
      <trkpt lat="43.51918" lon="3.50103">
        <ele>81.6</ele>
        <time>2019-01-10T08:08:20Z</time>
      </trkpt>
      <trkpt lat="43.51916" lon="3.50105">
        <ele>81.6</ele>
        <time>2019-01-10T08:08:22Z</time>
      </trkpt>
      <trkpt lat="43.51913" lon="3.50107">
        <ele>81.8</ele>
        <time>2019-01-10T08:08:24Z</time>
      </trkpt>
      <trkpt lat="43.5191" lon="3.50111">
        <ele>82</ele>
        <time>2019-01-10T08:08:26Z</time>
      </trkpt>
      <trkpt lat="43.51907" lon="3.50113">
        <ele>82</ele>
        <time>2019-01-10T08:08:28Z</time>
      </trkpt>
      <trkpt lat="43.51904" lon="3.50115">
        <ele>81.9</ele>
        <time>2019-01-10T08:08:30Z</time>
      </trkpt>
      <trkpt lat="43.51901" lon="3.50117">
        <ele>81.7</ele>
        <time>2019-01-10T08:08:33Z</time>
      </trkpt>
      <trkpt lat="43.51898" lon="3.50117">
        <ele>81.5</ele>
        <time>2019-01-10T08:08:36Z</time>
      </trkpt>
      <trkpt lat="43.51897" lon="3.50113">
        <ele>81.4</ele>
        <time>2019-01-10T08:08:39Z</time>
      </trkpt>
      <trkpt lat="43.51895" lon="3.50109">
        <ele>81.2</ele>
        <time>2019-01-10T08:08:42Z</time>
      </trkpt>
      <trkpt lat="43.51893" lon="3.50105">
        <ele>81.5</ele>
        <time>2019-01-10T08:08:45Z</time>
      </trkpt>
      <trkpt lat="43.51891" lon="3.50101">
        <ele>82</ele>
        <time>2019-01-10T08:08:47Z</time>
      </trkpt>
      <trkpt lat="43.5189" lon="3.50098">
        <ele>82.4</ele>
        <time>2019-01-10T08:08:49Z</time>
      </trkpt>
      <trkpt lat="43.51888" lon="3.50095">
        <ele>82.7</ele>
        <time>2019-01-10T08:08:51Z</time>
      </trkpt>
      <trkpt lat="43.51886" lon="3.50092">
        <ele>83.1</ele>
        <time>2019-01-10T08:08:53Z</time>
      </trkpt>
      <trkpt lat="43.51884" lon="3.50089">
        <ele>83.5</ele>
        <time>2019-01-10T08:08:56Z</time>
      </trkpt>
      <trkpt lat="43.51882" lon="3.50084">
        <ele>84</ele>
        <time>2019-01-10T08:08:59Z</time>
      </trkpt>
      <trkpt lat="43.5188" lon="3.50081">
        <ele>84.4</ele>
        <time>2019-01-10T08:09:02Z</time>
      </trkpt>
      <trkpt lat="43.51877" lon="3.50078">
        <ele>84.9</ele>
        <time>2019-01-10T08:09:04Z</time>
      </trkpt>
      <trkpt lat="43.51875" lon="3.50075">
        <ele>85.3</ele>
        <time>2019-01-10T08:09:06Z</time>
      </trkpt>
      <trkpt lat="43.51873" lon="3.50071">
        <ele>85.9</ele>
        <time>2019-01-10T08:09:09Z</time>
      </trkpt>
      <trkpt lat="43.51871" lon="3.50067">
        <ele>86.5</ele>
        <time>2019-01-10T08:09:12Z</time>
      </trkpt>
      <trkpt lat="43.51869" lon="3.50062">
        <ele>87</ele>
        <time>2019-01-10T08:09:15Z</time>
      </trkpt>
      <trkpt lat="43.51866" lon="3.50059">
        <ele>87.5</ele>
        <time>2019-01-10T08:09:18Z</time>
      </trkpt>
      <trkpt lat="43.51863" lon="3.50057">
        <ele>87.8</ele>
        <time>2019-01-10T08:09:21Z</time>
      </trkpt>
      <trkpt lat="43.51861" lon="3.50053">
        <ele>88.3</ele>
        <time>2019-01-10T08:09:24Z</time>
      </trkpt>
      <trkpt lat="43.51859" lon="3.50048">
        <ele>88.7</ele>
        <time>2019-01-10T08:09:27Z</time>
      </trkpt>
      <trkpt lat="43.51857" lon="3.50044">
        <ele>89.2</ele>
        <time>2019-01-10T08:09:30Z</time>
      </trkpt>
      <trkpt lat="43.51854" lon="3.50042">
        <ele>89.5</ele>
        <time>2019-01-10T08:09:33Z</time>
      </trkpt>
      <trkpt lat="43.51852" lon="3.50039">
        <ele>89.8</ele>
        <time>2019-01-10T08:09:36Z</time>
      </trkpt>
      <trkpt lat="43.51848" lon="3.50036">
        <ele>90.3</ele>
        <time>2019-01-10T08:09:39Z</time>
      </trkpt>
      <trkpt lat="43.51846" lon="3.50034">
        <ele>90.6</ele>
        <time>2019-01-10T08:09:41Z</time>
      </trkpt>
      <trkpt lat="43.51843" lon="3.50031">
        <ele>91.1</ele>
        <time>2019-01-10T08:09:44Z</time>
      </trkpt>
      <trkpt lat="43.5184" lon="3.50028">
        <ele>91.6</ele>
        <time>2019-01-10T08:09:47Z</time>
      </trkpt>
      <trkpt lat="43.51837" lon="3.50025">
        <ele>92.2</ele>
        <time>2019-01-10T08:09:50Z</time>
      </trkpt>
      <trkpt lat="43.51835" lon="3.50021">
        <ele>92.6</ele>
        <time>2019-01-10T08:09:53Z</time>
      </trkpt>
      <trkpt lat="43.51832" lon="3.50017">
        <ele>93</ele>
        <time>2019-01-10T08:09:56Z</time>
      </trkpt>
      <trkpt lat="43.5183" lon="3.50013">
        <ele>93.3</ele>
        <time>2019-01-10T08:09:59Z</time>
      </trkpt>
      <trkpt lat="43.51829" lon="3.5001">
        <ele>93.6</ele>
        <time>2019-01-10T08:10:02Z</time>
      </trkpt>
      <trkpt lat="43.51828" lon="3.50005">
        <ele>94.6</ele>
        <time>2019-01-10T08:10:05Z</time>
      </trkpt>
      <trkpt lat="43.51828" lon="3.50001">
        <ele>94.6</ele>
        <time>2019-01-10T08:10:07Z</time>
      </trkpt>
      <trkpt lat="43.51829" lon="3.49996">
        <ele>94.5</ele>
        <time>2019-01-10T08:10:11Z</time>
      </trkpt>
      <trkpt lat="43.5183" lon="3.49992">
        <ele>94.3</ele>
        <time>2019-01-10T08:10:14Z</time>
      </trkpt>
      <trkpt lat="43.51831" lon="3.49989">
        <ele>94</ele>
        <time>2019-01-10T08:10:17Z</time>
      </trkpt>
      <trkpt lat="43.51832" lon="3.49984">
        <ele>93.8</ele>
        <time>2019-01-10T08:10:20Z</time>
      </trkpt>
      <trkpt lat="43.51833" lon="3.4998">
        <ele>93.6</ele>
        <time>2019-01-10T08:10:24Z</time>
      </trkpt>
      <trkpt lat="43.51835" lon="3.49977">
        <ele>93.5</ele>
        <time>2019-01-10T08:10:28Z</time>
      </trkpt>
      <trkpt lat="43.51836" lon="3.49972">
        <ele>93.1</ele>
        <time>2019-01-10T08:10:32Z</time>
      </trkpt>
      <trkpt lat="43.51838" lon="3.49968">
        <ele>92.6</ele>
        <time>2019-01-10T08:10:35Z</time>
      </trkpt>
      <trkpt lat="43.5184" lon="3.49965">
        <ele>92.3</ele>
        <time>2019-01-10T08:10:38Z</time>
      </trkpt>
      <trkpt lat="43.51841" lon="3.49961">
        <ele>91.9</ele>
        <time>2019-01-10T08:10:41Z</time>
      </trkpt>
      <trkpt lat="43.51842" lon="3.49956">
        <ele>91.4</ele>
        <time>2019-01-10T08:10:43Z</time>
      </trkpt>
      <trkpt lat="43.51843" lon="3.4995">
        <ele>92.5</ele>
        <time>2019-01-10T08:10:45Z</time>
      </trkpt>
      <trkpt lat="43.51841" lon="3.49945">
        <ele>93</ele>
        <time>2019-01-10T08:10:47Z</time>
      </trkpt>
      <trkpt lat="43.51839" lon="3.49942">
        <ele>93.5</ele>
        <time>2019-01-10T08:10:50Z</time>
      </trkpt>
      <trkpt lat="43.51836" lon="3.4994">
        <ele>94</ele>
        <time>2019-01-10T08:10:53Z</time>
      </trkpt>
      <trkpt lat="43.51832" lon="3.49941">
        <ele>94.4</ele>
        <time>2019-01-10T08:10:57Z</time>
      </trkpt>
      <trkpt lat="43.51829" lon="3.49942">
        <ele>94.8</ele>
        <time>2019-01-10T08:11:01Z</time>
      </trkpt>
      <trkpt lat="43.51826" lon="3.49941">
        <ele>95.3</ele>
        <time>2019-01-10T08:11:05Z</time>
      </trkpt>
      <trkpt lat="43.51823" lon="3.4994">
        <ele>95.7</ele>
        <time>2019-01-10T08:11:10Z</time>
      </trkpt>
      <trkpt lat="43.5182" lon="3.49939">
        <ele>96.2</ele>
        <time>2019-01-10T08:11:14Z</time>
      </trkpt>
      <trkpt lat="43.51817" lon="3.4994">
        <ele>96.6</ele>
        <time>2019-01-10T08:11:16Z</time>
      </trkpt>
      <trkpt lat="43.51813" lon="3.49939">
        <ele>97.2</ele>
        <time>2019-01-10T08:11:19Z</time>
      </trkpt>
      <trkpt lat="43.5181" lon="3.49938">
        <ele>97.6</ele>
        <time>2019-01-10T08:11:22Z</time>
      </trkpt>
      <trkpt lat="43.51808" lon="3.49936">
        <ele>98</ele>
        <time>2019-01-10T08:11:25Z</time>
      </trkpt>
      <trkpt lat="43.51806" lon="3.49933">
        <ele>98.3</ele>
        <time>2019-01-10T08:11:29Z</time>
      </trkpt>
      <trkpt lat="43.51803" lon="3.49932">
        <ele>98.7</ele>
        <time>2019-01-10T08:11:33Z</time>
      </trkpt>
      <trkpt lat="43.51799" lon="3.49931">
        <ele>99.3</ele>
        <time>2019-01-10T08:11:36Z</time>
      </trkpt>
      <trkpt lat="43.51796" lon="3.49929">
        <ele>99.8</ele>
        <time>2019-01-10T08:11:40Z</time>
      </trkpt>
      <trkpt lat="43.51793" lon="3.4993">
        <ele>100.3</ele>
        <time>2019-01-10T08:11:44Z</time>
      </trkpt>
      <trkpt lat="43.5179" lon="3.49932">
        <ele>100.8</ele>
        <time>2019-01-10T08:11:47Z</time>
      </trkpt>
      <trkpt lat="43.51787" lon="3.49932">
        <ele>101.3</ele>
        <time>2019-01-10T08:11:50Z</time>
      </trkpt>
      <trkpt lat="43.51783" lon="3.49932">
        <ele>101.9</ele>
        <time>2019-01-10T08:11:54Z</time>
      </trkpt>
      <trkpt lat="43.5178" lon="3.49932">
        <ele>102.3</ele>
        <time>2019-01-10T08:11:56Z</time>
      </trkpt>
      <trkpt lat="43.51777" lon="3.49931">
        <ele>102.7</ele>
        <time>2019-01-10T08:11:59Z</time>
      </trkpt>
      <trkpt lat="43.51775" lon="3.49929">
        <ele>103</ele>
        <time>2019-01-10T08:12:01Z</time>
      </trkpt>
      <trkpt lat="43.51772" lon="3.49927">
        <ele>103.4</ele>
        <time>2019-01-10T08:12:03Z</time>
      </trkpt>
      <trkpt lat="43.51769" lon="3.49925">
        <ele>103.8</ele>
        <time>2019-01-10T08:12:06Z</time>
      </trkpt>
      <trkpt lat="43.51766" lon="3.49923">
        <ele>104.2</ele>
        <time>2019-01-10T08:12:09Z</time>
      </trkpt>
      <trkpt lat="43.51762" lon="3.49923">
        <ele>104.6</ele>
        <time>2019-01-10T08:12:12Z</time>
      </trkpt>
      <trkpt lat="43.51759" lon="3.49922">
        <ele>104.7</ele>
        <time>2019-01-10T08:12:14Z</time>
      </trkpt>
      <trkpt lat="43.51756" lon="3.49921">
        <ele>104.9</ele>
        <time>2019-01-10T08:12:16Z</time>
      </trkpt>
      <trkpt lat="43.51753" lon="3.4992">
        <ele>105</ele>
        <time>2019-01-10T08:12:19Z</time>
      </trkpt>
      <trkpt lat="43.51749" lon="3.49919">
        <ele>105.2</ele>
        <time>2019-01-10T08:12:22Z</time>
      </trkpt>
      <trkpt lat="43.51747" lon="3.49917">
        <ele>105.4</ele>
        <time>2019-01-10T08:12:25Z</time>
      </trkpt>
      <trkpt lat="43.51743" lon="3.49915">
        <ele>105.6</ele>
        <time>2019-01-10T08:12:28Z</time>
      </trkpt>
      <trkpt lat="43.51741" lon="3.49913">
        <ele>105.7</ele>
        <time>2019-01-10T08:12:30Z</time>
      </trkpt>
      <trkpt lat="43.51738" lon="3.49911">
        <ele>105.8</ele>
        <time>2019-01-10T08:12:32Z</time>
      </trkpt>
      <trkpt lat="43.51736" lon="3.49909">
        <ele>105.9</ele>
        <time>2019-01-10T08:12:34Z</time>
      </trkpt>
      <trkpt lat="43.51733" lon="3.49906">
        <ele>106</ele>
        <time>2019-01-10T08:12:37Z</time>
      </trkpt>
      <trkpt lat="43.51731" lon="3.49905">
        <ele>106</ele>
        <time>2019-01-10T08:12:39Z</time>
      </trkpt>
      <trkpt lat="43.51727" lon="3.49902">
        <ele>106.2</ele>
        <time>2019-01-10T08:12:41Z</time>
      </trkpt>
      <trkpt lat="43.51725" lon="3.499">
        <ele>106.2</ele>
        <time>2019-01-10T08:12:43Z</time>
      </trkpt>
      <trkpt lat="43.51722" lon="3.49897">
        <ele>106.3</ele>
        <time>2019-01-10T08:12:45Z</time>
      </trkpt>
      <trkpt lat="43.5172" lon="3.49895">
        <ele>106.3</ele>
        <time>2019-01-10T08:12:47Z</time>
      </trkpt>
      <trkpt lat="43.51718" lon="3.49892">
        <ele>106.4</ele>
        <time>2019-01-10T08:12:49Z</time>
      </trkpt>
      <trkpt lat="43.51716" lon="3.49889">
        <ele>106.4</ele>
        <time>2019-01-10T08:12:51Z</time>
      </trkpt>
      <trkpt lat="43.51714" lon="3.49887">
        <ele>106.4</ele>
        <time>2019-01-10T08:12:53Z</time>
      </trkpt>
      <trkpt lat="43.51711" lon="3.49885">
        <ele>106.4</ele>
        <time>2019-01-10T08:12:55Z</time>
      </trkpt>
      <trkpt lat="43.51708" lon="3.49883">
        <ele>106.4</ele>
        <time>2019-01-10T08:12:57Z</time>
      </trkpt>
      <trkpt lat="43.51706" lon="3.49882">
        <ele>106.5</ele>
        <time>2019-01-10T08:12:59Z</time>
      </trkpt>
      <trkpt lat="43.51702" lon="3.49879">
        <ele>106.5</ele>
        <time>2019-01-10T08:13:02Z</time>
      </trkpt>
      <trkpt lat="43.517" lon="3.49876">
        <ele>106.4</ele>
        <time>2019-01-10T08:13:05Z</time>
      </trkpt>
      <trkpt lat="43.517" lon="3.49871">
        <ele>106.6</ele>
        <time>2019-01-10T08:13:08Z</time>
      </trkpt>
      <trkpt lat="43.517" lon="3.49867">
        <ele>106.7</ele>
        <time>2019-01-10T08:13:10Z</time>
      </trkpt>
      <trkpt lat="43.517" lon="3.49862">
        <ele>106.7</ele>
        <time>2019-01-10T08:13:12Z</time>
      </trkpt>
      <trkpt lat="43.51699" lon="3.49857">
        <ele>106.7</ele>
        <time>2019-01-10T08:13:15Z</time>
      </trkpt>
      <trkpt lat="43.51698" lon="3.49853">
        <ele>106.8</ele>
        <time>2019-01-10T08:13:18Z</time>
      </trkpt>
      <trkpt lat="43.51698" lon="3.49849">
        <ele>106.9</ele>
        <time>2019-01-10T08:13:20Z</time>
      </trkpt>
      <trkpt lat="43.51698" lon="3.49845">
        <ele>106.9</ele>
        <time>2019-01-10T08:13:22Z</time>
      </trkpt>
      <trkpt lat="43.51699" lon="3.4984">
        <ele>106.9</ele>
        <time>2019-01-10T08:13:25Z</time>
      </trkpt>
      <trkpt lat="43.51698" lon="3.49835">
        <ele>107</ele>
        <time>2019-01-10T08:13:28Z</time>
      </trkpt>
      <trkpt lat="43.51699" lon="3.49831">
        <ele>107</ele>
        <time>2019-01-10T08:13:30Z</time>
      </trkpt>
      <trkpt lat="43.51699" lon="3.49827">
        <ele>107</ele>
        <time>2019-01-10T08:13:32Z</time>
      </trkpt>
      <trkpt lat="43.517" lon="3.49823">
        <ele>107.1</ele>
        <time>2019-01-10T08:13:34Z</time>
      </trkpt>
      <trkpt lat="43.517" lon="3.49818">
        <ele>107.2</ele>
        <time>2019-01-10T08:13:37Z</time>
      </trkpt>
      <trkpt lat="43.517" lon="3.49813">
        <ele>107.3</ele>
        <time>2019-01-10T08:13:40Z</time>
      </trkpt>
      <trkpt lat="43.51701" lon="3.49808">
        <ele>107.4</ele>
        <time>2019-01-10T08:13:43Z</time>
      </trkpt>
      <trkpt lat="43.51701" lon="3.49803">
        <ele>107.5</ele>
        <time>2019-01-10T08:13:46Z</time>
      </trkpt>
      <trkpt lat="43.51701" lon="3.49799">
        <ele>107.7</ele>
        <time>2019-01-10T08:13:48Z</time>
      </trkpt>
      <trkpt lat="43.51702" lon="3.49795">
        <ele>107.8</ele>
        <time>2019-01-10T08:13:50Z</time>
      </trkpt>
      <trkpt lat="43.51702" lon="3.49791">
        <ele>107.8</ele>
        <time>2019-01-10T08:13:52Z</time>
      </trkpt>
      <trkpt lat="43.51702" lon="3.49785">
        <ele>107.9</ele>
        <time>2019-01-10T08:13:55Z</time>
      </trkpt>
      <trkpt lat="43.51702" lon="3.49781">
        <ele>108.1</ele>
        <time>2019-01-10T08:13:57Z</time>
      </trkpt>
      <trkpt lat="43.51702" lon="3.49777">
        <ele>108.2</ele>
        <time>2019-01-10T08:13:59Z</time>
      </trkpt>
      <trkpt lat="43.51702" lon="3.49771">
        <ele>108.3</ele>
        <time>2019-01-10T08:14:02Z</time>
      </trkpt>
      <trkpt lat="43.51703" lon="3.49767">
        <ele>108.4</ele>
        <time>2019-01-10T08:14:04Z</time>
      </trkpt>
      <trkpt lat="43.51704" lon="3.49762">
        <ele>108.4</ele>
        <time>2019-01-10T08:14:06Z</time>
      </trkpt>
      <trkpt lat="43.51705" lon="3.49758">
        <ele>108.6</ele>
        <time>2019-01-10T08:14:09Z</time>
      </trkpt>
      <trkpt lat="43.51707" lon="3.49753">
        <ele>108.7</ele>
        <time>2019-01-10T08:14:12Z</time>
      </trkpt>
      <trkpt lat="43.51707" lon="3.49749">
        <ele>108.8</ele>
        <time>2019-01-10T08:14:15Z</time>
      </trkpt>
      <trkpt lat="43.5171" lon="3.49746">
        <ele>109</ele>
        <time>2019-01-10T08:14:18Z</time>
      </trkpt>
      <trkpt lat="43.51713" lon="3.49742">
        <ele>109.3</ele>
        <time>2019-01-10T08:14:21Z</time>
      </trkpt>
      <trkpt lat="43.51714" lon="3.49737">
        <ele>109.5</ele>
        <time>2019-01-10T08:14:24Z</time>
      </trkpt>
      <trkpt lat="43.51715" lon="3.49732">
        <ele>109.7</ele>
        <time>2019-01-10T08:14:27Z</time>
      </trkpt>
      <trkpt lat="43.51716" lon="3.49727">
        <ele>109.8</ele>
        <time>2019-01-10T08:14:30Z</time>
      </trkpt>
      <trkpt lat="43.51717" lon="3.49722">
        <ele>110</ele>
        <time>2019-01-10T08:14:33Z</time>
      </trkpt>
      <trkpt lat="43.51718" lon="3.49717">
        <ele>110.2</ele>
        <time>2019-01-10T08:14:36Z</time>
      </trkpt>
      <trkpt lat="43.51719" lon="3.49713">
        <ele>110.3</ele>
        <time>2019-01-10T08:14:38Z</time>
      </trkpt>
      <trkpt lat="43.51721" lon="3.49708">
        <ele>110.4</ele>
        <time>2019-01-10T08:14:41Z</time>
      </trkpt>
      <trkpt lat="43.51722" lon="3.49703">
        <ele>110.5</ele>
        <time>2019-01-10T08:14:44Z</time>
      </trkpt>
      <trkpt lat="43.51723" lon="3.497">
        <ele>110.6</ele>
        <time>2019-01-10T08:14:46Z</time>
      </trkpt>
      <trkpt lat="43.51722" lon="3.49695">
        <ele>110.6</ele>
        <time>2019-01-10T08:14:49Z</time>
      </trkpt>
      <trkpt lat="43.51723" lon="3.4969">
        <ele>110.7</ele>
        <time>2019-01-10T08:14:52Z</time>
      </trkpt>
      <trkpt lat="43.51725" lon="3.49685">
        <ele>110.8</ele>
        <time>2019-01-10T08:14:55Z</time>
      </trkpt>
      <trkpt lat="43.51725" lon="3.49681">
        <ele>110.8</ele>
        <time>2019-01-10T08:14:58Z</time>
      </trkpt>
      <trkpt lat="43.51725" lon="3.49676">
        <ele>110.9</ele>
        <time>2019-01-10T08:15:01Z</time>
      </trkpt>
      <trkpt lat="43.51726" lon="3.49671">
        <ele>111</ele>
        <time>2019-01-10T08:15:04Z</time>
      </trkpt>
      <trkpt lat="43.51727" lon="3.49666">
        <ele>111</ele>
        <time>2019-01-10T08:15:06Z</time>
      </trkpt>
      <trkpt lat="43.51728" lon="3.49662">
        <ele>111</ele>
        <time>2019-01-10T08:15:08Z</time>
      </trkpt>
      <trkpt lat="43.51729" lon="3.49656">
        <ele>111</ele>
        <time>2019-01-10T08:15:10Z</time>
      </trkpt>
      <trkpt lat="43.5173" lon="3.49651">
        <ele>111</ele>
        <time>2019-01-10T08:15:12Z</time>
      </trkpt>
      <trkpt lat="43.51729" lon="3.49646">
        <ele>111</ele>
        <time>2019-01-10T08:15:14Z</time>
      </trkpt>
      <trkpt lat="43.51727" lon="3.49642">
        <ele>111.1</ele>
        <time>2019-01-10T08:15:16Z</time>
      </trkpt>
      <trkpt lat="43.51726" lon="3.49637">
        <ele>111.2</ele>
        <time>2019-01-10T08:15:18Z</time>
      </trkpt>
      <trkpt lat="43.51724" lon="3.49634">
        <ele>111.2</ele>
        <time>2019-01-10T08:15:20Z</time>
      </trkpt>
      <trkpt lat="43.51723" lon="3.49628">
        <ele>111.2</ele>
        <time>2019-01-10T08:15:22Z</time>
      </trkpt>
      <trkpt lat="43.51723" lon="3.49624">
        <ele>111.2</ele>
        <time>2019-01-10T08:15:24Z</time>
      </trkpt>
      <trkpt lat="43.51723" lon="3.49619">
        <ele>111.2</ele>
        <time>2019-01-10T08:15:26Z</time>
      </trkpt>
      <trkpt lat="43.51723" lon="3.49614">
        <ele>111.1</ele>
        <time>2019-01-10T08:15:29Z</time>
      </trkpt>
      <trkpt lat="43.51722" lon="3.4961">
        <ele>111.1</ele>
        <time>2019-01-10T08:15:31Z</time>
      </trkpt>
      <trkpt lat="43.51721" lon="3.49605">
        <ele>111</ele>
        <time>2019-01-10T08:15:34Z</time>
      </trkpt>
      <trkpt lat="43.51719" lon="3.49602">
        <ele>110.9</ele>
        <time>2019-01-10T08:15:36Z</time>
      </trkpt>
      <trkpt lat="43.51718" lon="3.49598">
        <ele>110.7</ele>
        <time>2019-01-10T08:15:38Z</time>
      </trkpt>
      <trkpt lat="43.51718" lon="3.49592">
        <ele>110.6</ele>
        <time>2019-01-10T08:15:41Z</time>
      </trkpt>
      <trkpt lat="43.51719" lon="3.49588">
        <ele>110.5</ele>
        <time>2019-01-10T08:15:43Z</time>
      </trkpt>
      <trkpt lat="43.51718" lon="3.49584">
        <ele>110.3</ele>
        <time>2019-01-10T08:15:45Z</time>
      </trkpt>
      <trkpt lat="43.51717" lon="3.49579">
        <ele>110.1</ele>
        <time>2019-01-10T08:15:47Z</time>
      </trkpt>
      <trkpt lat="43.51715" lon="3.49575">
        <ele>109.9</ele>
        <time>2019-01-10T08:15:49Z</time>
      </trkpt>
      <trkpt lat="43.51713" lon="3.49571">
        <ele>109.8</ele>
        <time>2019-01-10T08:15:51Z</time>
      </trkpt>
      <trkpt lat="43.51712" lon="3.49568">
        <ele>109.7</ele>
        <time>2019-01-10T08:15:53Z</time>
      </trkpt>
      <trkpt lat="43.5171" lon="3.49563">
        <ele>109.5</ele>
        <time>2019-01-10T08:15:56Z</time>
      </trkpt>
      <trkpt lat="43.51708" lon="3.4956">
        <ele>109.4</ele>
        <time>2019-01-10T08:15:58Z</time>
      </trkpt>
      <trkpt lat="43.51706" lon="3.49556">
        <ele>109.3</ele>
        <time>2019-01-10T08:16:00Z</time>
      </trkpt>
      <trkpt lat="43.51704" lon="3.49552">
        <ele>109.2</ele>
        <time>2019-01-10T08:16:02Z</time>
      </trkpt>
      <trkpt lat="43.51702" lon="3.49549">
        <ele>109</ele>
        <time>2019-01-10T08:16:04Z</time>
      </trkpt>
      <trkpt lat="43.51699" lon="3.49546">
        <ele>108.9</ele>
        <time>2019-01-10T08:16:06Z</time>
      </trkpt>
      <trkpt lat="43.51697" lon="3.49542">
        <ele>108.7</ele>
        <time>2019-01-10T08:16:08Z</time>
      </trkpt>
      <trkpt lat="43.51695" lon="3.49538">
        <ele>108.6</ele>
        <time>2019-01-10T08:16:10Z</time>
      </trkpt>
      <trkpt lat="43.51693" lon="3.49534">
        <ele>108.4</ele>
        <time>2019-01-10T08:16:12Z</time>
      </trkpt>
      <trkpt lat="43.51691" lon="3.49531">
        <ele>108.3</ele>
        <time>2019-01-10T08:16:14Z</time>
      </trkpt>
      <trkpt lat="43.51689" lon="3.49527">
        <ele>108.2</ele>
        <time>2019-01-10T08:16:16Z</time>
      </trkpt>
      <trkpt lat="43.51687" lon="3.49524">
        <ele>108.2</ele>
        <time>2019-01-10T08:16:18Z</time>
      </trkpt>
      <trkpt lat="43.51686" lon="3.4952">
        <ele>108.1</ele>
        <time>2019-01-10T08:16:20Z</time>
      </trkpt>
      <trkpt lat="43.51685" lon="3.49516">
        <ele>108.1</ele>
        <time>2019-01-10T08:16:23Z</time>
      </trkpt>
      <trkpt lat="43.51684" lon="3.4951">
        <ele>108</ele>
        <time>2019-01-10T08:16:26Z</time>
      </trkpt>
      <trkpt lat="43.51683" lon="3.49506">
        <ele>108</ele>
        <time>2019-01-10T08:16:28Z</time>
      </trkpt>
      <trkpt lat="43.51683" lon="3.49502">
        <ele>108</ele>
        <time>2019-01-10T08:16:30Z</time>
      </trkpt>
      <trkpt lat="43.51681" lon="3.49497">
        <ele>107.9</ele>
        <time>2019-01-10T08:16:33Z</time>
      </trkpt>
      <trkpt lat="43.51682" lon="3.49492">
        <ele>107.9</ele>
        <time>2019-01-10T08:16:36Z</time>
      </trkpt>
      <trkpt lat="43.51681" lon="3.49487">
        <ele>107.8</ele>
        <time>2019-01-10T08:16:39Z</time>
      </trkpt>
      <trkpt lat="43.5168" lon="3.49483">
        <ele>107.8</ele>
        <time>2019-01-10T08:16:41Z</time>
      </trkpt>
      <trkpt lat="43.51679" lon="3.49479">
        <ele>107.8</ele>
        <time>2019-01-10T08:16:43Z</time>
      </trkpt>
      <trkpt lat="43.51676" lon="3.49474">
        <ele>107.8</ele>
        <time>2019-01-10T08:16:45Z</time>
      </trkpt>
      <trkpt lat="43.51674" lon="3.4947">
        <ele>107.8</ele>
        <time>2019-01-10T08:16:47Z</time>
      </trkpt>
      <trkpt lat="43.51673" lon="3.49466">
        <ele>107.7</ele>
        <time>2019-01-10T08:16:49Z</time>
      </trkpt>
      <trkpt lat="43.51671" lon="3.49463">
        <ele>107.7</ele>
        <time>2019-01-10T08:16:51Z</time>
      </trkpt>
      <trkpt lat="43.5167" lon="3.49459">
        <ele>107.6</ele>
        <time>2019-01-10T08:16:53Z</time>
      </trkpt>
      <trkpt lat="43.51668" lon="3.49455">
        <ele>107.6</ele>
        <time>2019-01-10T08:16:55Z</time>
      </trkpt>
      <trkpt lat="43.51666" lon="3.49452">
        <ele>107.6</ele>
        <time>2019-01-10T08:16:57Z</time>
      </trkpt>
      <trkpt lat="43.51665" lon="3.49447">
        <ele>107.6</ele>
        <time>2019-01-10T08:17:00Z</time>
      </trkpt>
      <trkpt lat="43.51663" lon="3.49443">
        <ele>107.5</ele>
        <time>2019-01-10T08:17:02Z</time>
      </trkpt>
      <trkpt lat="43.51662" lon="3.49439">
        <ele>107.5</ele>
        <time>2019-01-10T08:17:04Z</time>
      </trkpt>
      <trkpt lat="43.51661" lon="3.49435">
        <ele>107.4</ele>
        <time>2019-01-10T08:17:06Z</time>
      </trkpt>
      <trkpt lat="43.51659" lon="3.49431">
        <ele>107.4</ele>
        <time>2019-01-10T08:17:08Z</time>
      </trkpt>
      <trkpt lat="43.51658" lon="3.49425">
        <ele>107.3</ele>
        <time>2019-01-10T08:17:11Z</time>
      </trkpt>
      <trkpt lat="43.51658" lon="3.49421">
        <ele>107.2</ele>
        <time>2019-01-10T08:17:13Z</time>
      </trkpt>
      <trkpt lat="43.51657" lon="3.49417">
        <ele>107.2</ele>
        <time>2019-01-10T08:17:15Z</time>
      </trkpt>
      <trkpt lat="43.51657" lon="3.49414">
        <ele>107.1</ele>
        <time>2019-01-10T08:17:17Z</time>
      </trkpt>
      <trkpt lat="43.51655" lon="3.4941">
        <ele>107</ele>
        <time>2019-01-10T08:17:19Z</time>
      </trkpt>
      <trkpt lat="43.51655" lon="3.49405">
        <ele>106.9</ele>
        <time>2019-01-10T08:17:21Z</time>
      </trkpt>
      <trkpt lat="43.51656" lon="3.49401">
        <ele>106.9</ele>
        <time>2019-01-10T08:17:23Z</time>
      </trkpt>
      <trkpt lat="43.51656" lon="3.49395">
        <ele>106.8</ele>
        <time>2019-01-10T08:17:26Z</time>
      </trkpt>
      <trkpt lat="43.51657" lon="3.4939">
        <ele>106.7</ele>
        <time>2019-01-10T08:17:29Z</time>
      </trkpt>
      <trkpt lat="43.51657" lon="3.49385">
        <ele>106.6</ele>
        <time>2019-01-10T08:17:32Z</time>
      </trkpt>
      <trkpt lat="43.51657" lon="3.49381">
        <ele>106.5</ele>
        <time>2019-01-10T08:17:34Z</time>
      </trkpt>
      <trkpt lat="43.51658" lon="3.49376">
        <ele>106.3</ele>
        <time>2019-01-10T08:17:36Z</time>
      </trkpt>
      <trkpt lat="43.51658" lon="3.49373">
        <ele>106.3</ele>
        <time>2019-01-10T08:17:38Z</time>
      </trkpt>
      <trkpt lat="43.51658" lon="3.49368">
        <ele>106.2</ele>
        <time>2019-01-10T08:17:40Z</time>
      </trkpt>
      <trkpt lat="43.51658" lon="3.49364">
        <ele>106.1</ele>
        <time>2019-01-10T08:17:42Z</time>
      </trkpt>
      <trkpt lat="43.51656" lon="3.49359">
        <ele>105.9</ele>
        <time>2019-01-10T08:17:44Z</time>
      </trkpt>
      <trkpt lat="43.51655" lon="3.49355">
        <ele>105.8</ele>
        <time>2019-01-10T08:17:46Z</time>
      </trkpt>
      <trkpt lat="43.51655" lon="3.49351">
        <ele>105.7</ele>
        <time>2019-01-10T08:17:48Z</time>
      </trkpt>
      <trkpt lat="43.51655" lon="3.49347">
        <ele>105.6</ele>
        <time>2019-01-10T08:17:50Z</time>
      </trkpt>
      <trkpt lat="43.51653" lon="3.49342">
        <ele>105.5</ele>
        <time>2019-01-10T08:17:52Z</time>
      </trkpt>
      <trkpt lat="43.51652" lon="3.49338">
        <ele>105.4</ele>
        <time>2019-01-10T08:17:54Z</time>
      </trkpt>
      <trkpt lat="43.51652" lon="3.49335">
        <ele>105.2</ele>
        <time>2019-01-10T08:17:56Z</time>
      </trkpt>
      <trkpt lat="43.51651" lon="3.49331">
        <ele>105.1</ele>
        <time>2019-01-10T08:17:58Z</time>
      </trkpt>
      <trkpt lat="43.5165" lon="3.49327">
        <ele>105</ele>
        <time>2019-01-10T08:18:00Z</time>
      </trkpt>
      <trkpt lat="43.5165" lon="3.49322">
        <ele>104.9</ele>
        <time>2019-01-10T08:18:02Z</time>
      </trkpt>
      <trkpt lat="43.51649" lon="3.49318">
        <ele>104.8</ele>
        <time>2019-01-10T08:18:04Z</time>
      </trkpt>
      <trkpt lat="43.51648" lon="3.49314">
        <ele>104.7</ele>
        <time>2019-01-10T08:18:06Z</time>
      </trkpt>
      <trkpt lat="43.51649" lon="3.4931">
        <ele>104.5</ele>
        <time>2019-01-10T08:18:09Z</time>
      </trkpt>
      <trkpt lat="43.51651" lon="3.49305">
        <ele>104.4</ele>
        <time>2019-01-10T08:18:12Z</time>
      </trkpt>
      <trkpt lat="43.51653" lon="3.49302">
        <ele>104.2</ele>
        <time>2019-01-10T08:18:14Z</time>
      </trkpt>
      <trkpt lat="43.51653" lon="3.49298">
        <ele>104.1</ele>
        <time>2019-01-10T08:18:16Z</time>
      </trkpt>
      <trkpt lat="43.51653" lon="3.49293">
        <ele>103.9</ele>
        <time>2019-01-10T08:18:18Z</time>
      </trkpt>
      <trkpt lat="43.51654" lon="3.49288">
        <ele>103.8</ele>
        <time>2019-01-10T08:18:20Z</time>
      </trkpt>
      <trkpt lat="43.51654" lon="3.49283">
        <ele>103.6</ele>
        <time>2019-01-10T08:18:22Z</time>
      </trkpt>
      <trkpt lat="43.51654" lon="3.49278">
        <ele>103.4</ele>
        <time>2019-01-10T08:18:24Z</time>
      </trkpt>
      <trkpt lat="43.51655" lon="3.49273">
        <ele>103.2</ele>
        <time>2019-01-10T08:18:26Z</time>
      </trkpt>
      <trkpt lat="43.51655" lon="3.49268">
        <ele>103</ele>
        <time>2019-01-10T08:18:28Z</time>
      </trkpt>
      <trkpt lat="43.51655" lon="3.49264">
        <ele>102.8</ele>
        <time>2019-01-10T08:18:30Z</time>
      </trkpt>
      <trkpt lat="43.51657" lon="3.4926">
        <ele>102.8</ele>
        <time>2019-01-10T08:18:33Z</time>
      </trkpt>
      <trkpt lat="43.51658" lon="3.49256">
        <ele>102.8</ele>
        <time>2019-01-10T08:18:35Z</time>
      </trkpt>
      <trkpt lat="43.51659" lon="3.49252">
        <ele>102.8</ele>
        <time>2019-01-10T08:18:37Z</time>
      </trkpt>
      <trkpt lat="43.51659" lon="3.49247">
        <ele>102.8</ele>
        <time>2019-01-10T08:18:39Z</time>
      </trkpt>
      <trkpt lat="43.51662" lon="3.49243">
        <ele>102.8</ele>
        <time>2019-01-10T08:18:41Z</time>
      </trkpt>
      <trkpt lat="43.51663" lon="3.49239">
        <ele>102.7</ele>
        <time>2019-01-10T08:18:43Z</time>
      </trkpt>
      <trkpt lat="43.51662" lon="3.49234">
        <ele>102.6</ele>
        <time>2019-01-10T08:18:46Z</time>
      </trkpt>
      <trkpt lat="43.51662" lon="3.49229">
        <ele>102.4</ele>
        <time>2019-01-10T08:18:49Z</time>
      </trkpt>
      <trkpt lat="43.51663" lon="3.49224">
        <ele>102.3</ele>
        <time>2019-01-10T08:18:52Z</time>
      </trkpt>
      <trkpt lat="43.51664" lon="3.4922">
        <ele>102.1</ele>
        <time>2019-01-10T08:18:55Z</time>
      </trkpt>
      <trkpt lat="43.51663" lon="3.49215">
        <ele>102</ele>
        <time>2019-01-10T08:18:57Z</time>
      </trkpt>
      <trkpt lat="43.51663" lon="3.4921">
        <ele>101.9</ele>
        <time>2019-01-10T08:18:59Z</time>
      </trkpt>
      <trkpt lat="43.51664" lon="3.49204">
        <ele>101.7</ele>
        <time>2019-01-10T08:19:01Z</time>
      </trkpt>
      <trkpt lat="43.51664" lon="3.492">
        <ele>101.6</ele>
        <time>2019-01-10T08:19:03Z</time>
      </trkpt>
      <trkpt lat="43.51665" lon="3.49195">
        <ele>101.4</ele>
        <time>2019-01-10T08:19:06Z</time>
      </trkpt>
      <trkpt lat="43.51666" lon="3.49192">
        <ele>101.3</ele>
        <time>2019-01-10T08:19:08Z</time>
      </trkpt>
      <trkpt lat="43.51668" lon="3.49188">
        <ele>101.2</ele>
        <time>2019-01-10T08:19:10Z</time>
      </trkpt>
      <trkpt lat="43.51667" lon="3.49184">
        <ele>101.1</ele>
        <time>2019-01-10T08:19:13Z</time>
      </trkpt>
      <trkpt lat="43.51667" lon="3.49179">
        <ele>101</ele>
        <time>2019-01-10T08:19:16Z</time>
      </trkpt>
      <trkpt lat="43.51668" lon="3.49173">
        <ele>100.9</ele>
        <time>2019-01-10T08:19:19Z</time>
      </trkpt>
      <trkpt lat="43.51667" lon="3.49169">
        <ele>100.8</ele>
        <time>2019-01-10T08:19:21Z</time>
      </trkpt>
      <trkpt lat="43.51668" lon="3.49164">
        <ele>100.6</ele>
        <time>2019-01-10T08:19:23Z</time>
      </trkpt>
      <trkpt lat="43.51668" lon="3.49158">
        <ele>100.5</ele>
        <time>2019-01-10T08:19:25Z</time>
      </trkpt>
      <trkpt lat="43.51667" lon="3.49154">
        <ele>100.4</ele>
        <time>2019-01-10T08:19:27Z</time>
      </trkpt>
      <trkpt lat="43.51667" lon="3.49149">
        <ele>100.3</ele>
        <time>2019-01-10T08:19:29Z</time>
      </trkpt>
      <trkpt lat="43.51666" lon="3.49145">
        <ele>100.2</ele>
        <time>2019-01-10T08:19:31Z</time>
      </trkpt>
      <trkpt lat="43.51666" lon="3.4914">
        <ele>100.1</ele>
        <time>2019-01-10T08:19:34Z</time>
      </trkpt>
      <trkpt lat="43.51665" lon="3.49136">
        <ele>100</ele>
        <time>2019-01-10T08:19:36Z</time>
      </trkpt>
      <trkpt lat="43.51665" lon="3.49132">
        <ele>99.9</ele>
        <time>2019-01-10T08:19:38Z</time>
      </trkpt>
      <trkpt lat="43.51665" lon="3.49127">
        <ele>99.8</ele>
        <time>2019-01-10T08:19:41Z</time>
      </trkpt>
      <trkpt lat="43.51665" lon="3.49122">
        <ele>99.7</ele>
        <time>2019-01-10T08:19:43Z</time>
      </trkpt>
      <trkpt lat="43.51664" lon="3.49118">
        <ele>99.6</ele>
        <time>2019-01-10T08:19:45Z</time>
      </trkpt>
      <trkpt lat="43.51662" lon="3.49112">
        <ele>99.4</ele>
        <time>2019-01-10T08:19:48Z</time>
      </trkpt>
      <trkpt lat="43.51662" lon="3.49108">
        <ele>99.2</ele>
        <time>2019-01-10T08:19:51Z</time>
      </trkpt>
      <trkpt lat="43.51663" lon="3.49103">
        <ele>99.1</ele>
        <time>2019-01-10T08:19:54Z</time>
      </trkpt>
      <trkpt lat="43.51665" lon="3.491">
        <ele>99</ele>
        <time>2019-01-10T08:19:57Z</time>
      </trkpt>
      <trkpt lat="43.51666" lon="3.49096">
        <ele>98.7</ele>
        <time>2019-01-10T08:20:00Z</time>
      </trkpt>
      <trkpt lat="43.51666" lon="3.49091">
        <ele>98.5</ele>
        <time>2019-01-10T08:20:03Z</time>
      </trkpt>
      <trkpt lat="43.51667" lon="3.49086">
        <ele>98.2</ele>
        <time>2019-01-10T08:20:06Z</time>
      </trkpt>
      <trkpt lat="43.5167" lon="3.49082">
        <ele>98</ele>
        <time>2019-01-10T08:20:09Z</time>
      </trkpt>
      <trkpt lat="43.5167" lon="3.49078">
        <ele>97.9</ele>
        <time>2019-01-10T08:20:12Z</time>
      </trkpt>
      <trkpt lat="43.5167" lon="3.49074">
        <ele>97.6</ele>
        <time>2019-01-10T08:20:14Z</time>
      </trkpt>
      <trkpt lat="43.51671" lon="3.49069">
        <ele>97.3</ele>
        <time>2019-01-10T08:20:17Z</time>
      </trkpt>
      <trkpt lat="43.51671" lon="3.49064">
        <ele>97</ele>
        <time>2019-01-10T08:20:19Z</time>
      </trkpt>
      <trkpt lat="43.51671" lon="3.49059">
        <ele>96.6</ele>
        <time>2019-01-10T08:20:22Z</time>
      </trkpt>
      <trkpt lat="43.51672" lon="3.49056">
        <ele>96.4</ele>
        <time>2019-01-10T08:20:24Z</time>
      </trkpt>
      <trkpt lat="43.51673" lon="3.49052">
        <ele>96.1</ele>
        <time>2019-01-10T08:20:26Z</time>
      </trkpt>
      <trkpt lat="43.51674" lon="3.49047">
        <ele>95.7</ele>
        <time>2019-01-10T08:20:28Z</time>
      </trkpt>
      <trkpt lat="43.51674" lon="3.49043">
        <ele>95.3</ele>
        <time>2019-01-10T08:20:30Z</time>
      </trkpt>
      <trkpt lat="43.51674" lon="3.49038">
        <ele>95</ele>
        <time>2019-01-10T08:20:32Z</time>
      </trkpt>
      <trkpt lat="43.51675" lon="3.49034">
        <ele>94.7</ele>
        <time>2019-01-10T08:20:34Z</time>
      </trkpt>
      <trkpt lat="43.51677" lon="3.4903">
        <ele>94.4</ele>
        <time>2019-01-10T08:20:37Z</time>
      </trkpt>
      <trkpt lat="43.51678" lon="3.49025">
        <ele>94.1</ele>
        <time>2019-01-10T08:20:40Z</time>
      </trkpt>
      <trkpt lat="43.51678" lon="3.49021">
        <ele>93.9</ele>
        <time>2019-01-10T08:20:42Z</time>
      </trkpt>
      <trkpt lat="43.51678" lon="3.49017">
        <ele>93.6</ele>
        <time>2019-01-10T08:20:44Z</time>
      </trkpt>
      <trkpt lat="43.51677" lon="3.49013">
        <ele>93.4</ele>
        <time>2019-01-10T08:20:46Z</time>
      </trkpt>
      <trkpt lat="43.51677" lon="3.49008">
        <ele>93.1</ele>
        <time>2019-01-10T08:20:48Z</time>
      </trkpt>
      <trkpt lat="43.51677" lon="3.49004">
        <ele>92.9</ele>
        <time>2019-01-10T08:20:50Z</time>
      </trkpt>
      <trkpt lat="43.51676" lon="3.49001">
        <ele>92.7</ele>
        <time>2019-01-10T08:20:52Z</time>
      </trkpt>
      <trkpt lat="43.51675" lon="3.48996">
        <ele>92.5</ele>
        <time>2019-01-10T08:20:54Z</time>
      </trkpt>
      <trkpt lat="43.51674" lon="3.48992">
        <ele>92.3</ele>
        <time>2019-01-10T08:20:56Z</time>
      </trkpt>
      <trkpt lat="43.51674" lon="3.48987">
        <ele>92.1</ele>
        <time>2019-01-10T08:20:58Z</time>
      </trkpt>
      <trkpt lat="43.51676" lon="3.48982">
        <ele>91.9</ele>
        <time>2019-01-10T08:21:00Z</time>
      </trkpt>
      <trkpt lat="43.51676" lon="3.48979">
        <ele>91.8</ele>
        <time>2019-01-10T08:21:02Z</time>
      </trkpt>
      <trkpt lat="43.51674" lon="3.48974">
        <ele>91.6</ele>
        <time>2019-01-10T08:21:04Z</time>
      </trkpt>
      <trkpt lat="43.51674" lon="3.4897">
        <ele>91.5</ele>
        <time>2019-01-10T08:21:06Z</time>
      </trkpt>
      <trkpt lat="43.51674" lon="3.48966">
        <ele>91.4</ele>
        <time>2019-01-10T08:21:08Z</time>
      </trkpt>
      <trkpt lat="43.51674" lon="3.48961">
        <ele>91.3</ele>
        <time>2019-01-10T08:21:11Z</time>
      </trkpt>
      <trkpt lat="43.51672" lon="3.48957">
        <ele>91.3</ele>
        <time>2019-01-10T08:21:13Z</time>
      </trkpt>
      <trkpt lat="43.5167" lon="3.48954">
        <ele>91.3</ele>
        <time>2019-01-10T08:21:16Z</time>
      </trkpt>
      <trkpt lat="43.51668" lon="3.48951">
        <ele>91.3</ele>
        <time>2019-01-10T08:21:19Z</time>
      </trkpt>
      <trkpt lat="43.51667" lon="3.48948">
        <ele>91.2</ele>
        <time>2019-01-10T08:21:21Z</time>
      </trkpt>
      <trkpt lat="43.51666" lon="3.48944">
        <ele>91.1</ele>
        <time>2019-01-10T08:21:23Z</time>
      </trkpt>
      <trkpt lat="43.51666" lon="3.4894">
        <ele>91.1</ele>
        <time>2019-01-10T08:21:25Z</time>
      </trkpt>
      <trkpt lat="43.51665" lon="3.48935">
        <ele>91.1</ele>
        <time>2019-01-10T08:21:27Z</time>
      </trkpt>
      <trkpt lat="43.51665" lon="3.4893">
        <ele>91</ele>
        <time>2019-01-10T08:21:29Z</time>
      </trkpt>
      <trkpt lat="43.51665" lon="3.48926">
        <ele>91</ele>
        <time>2019-01-10T08:21:31Z</time>
      </trkpt>
      <trkpt lat="43.51664" lon="3.48922">
        <ele>91</ele>
        <time>2019-01-10T08:21:33Z</time>
      </trkpt>
      <trkpt lat="43.51664" lon="3.48918">
        <ele>91</ele>
        <time>2019-01-10T08:21:35Z</time>
      </trkpt>
      <trkpt lat="43.51664" lon="3.48914">
        <ele>91</ele>
        <time>2019-01-10T08:21:37Z</time>
      </trkpt>
      <trkpt lat="43.51665" lon="3.4891">
        <ele>91</ele>
        <time>2019-01-10T08:21:39Z</time>
      </trkpt>
      <trkpt lat="43.51666" lon="3.48905">
        <ele>91.1</ele>
        <time>2019-01-10T08:21:42Z</time>
      </trkpt>
      <trkpt lat="43.51667" lon="3.489">
        <ele>91.1</ele>
        <time>2019-01-10T08:21:44Z</time>
      </trkpt>
      <trkpt lat="43.51668" lon="3.48896">
        <ele>91.1</ele>
        <time>2019-01-10T08:21:46Z</time>
      </trkpt>
      <trkpt lat="43.51668" lon="3.48892">
        <ele>91.1</ele>
        <time>2019-01-10T08:21:48Z</time>
      </trkpt>
      <trkpt lat="43.51668" lon="3.48887">
        <ele>91.2</ele>
        <time>2019-01-10T08:21:50Z</time>
      </trkpt>
      <trkpt lat="43.51667" lon="3.48882">
        <ele>91.3</ele>
        <time>2019-01-10T08:21:52Z</time>
      </trkpt>
      <trkpt lat="43.51667" lon="3.48877">
        <ele>91.4</ele>
        <time>2019-01-10T08:21:54Z</time>
      </trkpt>
      <trkpt lat="43.51667" lon="3.48872">
        <ele>91.5</ele>
        <time>2019-01-10T08:21:56Z</time>
      </trkpt>
      <trkpt lat="43.51667" lon="3.48867">
        <ele>91.6</ele>
        <time>2019-01-10T08:21:58Z</time>
      </trkpt>
      <trkpt lat="43.51668" lon="3.48863">
        <ele>91.7</ele>
        <time>2019-01-10T08:22:00Z</time>
      </trkpt>
      <trkpt lat="43.51669" lon="3.48859">
        <ele>91.7</ele>
        <time>2019-01-10T08:22:03Z</time>
      </trkpt>
      <trkpt lat="43.51671" lon="3.48855">
        <ele>91.8</ele>
        <time>2019-01-10T08:22:06Z</time>
      </trkpt>
      <trkpt lat="43.51674" lon="3.48851">
        <ele>91.8</ele>
        <time>2019-01-10T08:22:08Z</time>
      </trkpt>
      <trkpt lat="43.51676" lon="3.48849">
        <ele>91.7</ele>
        <time>2019-01-10T08:22:10Z</time>
      </trkpt>
      <trkpt lat="43.51678" lon="3.48846">
        <ele>91.7</ele>
        <time>2019-01-10T08:22:12Z</time>
      </trkpt>
      <trkpt lat="43.5168" lon="3.48842">
        <ele>91.6</ele>
        <time>2019-01-10T08:22:15Z</time>
      </trkpt>
      <trkpt lat="43.51683" lon="3.4884">
        <ele>91.5</ele>
        <time>2019-01-10T08:22:17Z</time>
      </trkpt>
      <trkpt lat="43.51685" lon="3.48837">
        <ele>91.5</ele>
        <time>2019-01-10T08:22:19Z</time>
      </trkpt>
      <trkpt lat="43.51687" lon="3.48832">
        <ele>91.3</ele>
        <time>2019-01-10T08:22:22Z</time>
      </trkpt>
      <trkpt lat="43.51689" lon="3.48828">
        <ele>91.1</ele>
        <time>2019-01-10T08:22:24Z</time>
      </trkpt>
      <trkpt lat="43.5169" lon="3.48824">
        <ele>90.9</ele>
        <time>2019-01-10T08:22:26Z</time>
      </trkpt>
      <trkpt lat="43.51691" lon="3.4882">
        <ele>90.6</ele>
        <time>2019-01-10T08:22:28Z</time>
      </trkpt>
      <trkpt lat="43.51693" lon="3.48816">
        <ele>90.3</ele>
        <time>2019-01-10T08:22:30Z</time>
      </trkpt>
      <trkpt lat="43.51693" lon="3.48812">
        <ele>90</ele>
        <time>2019-01-10T08:22:32Z</time>
      </trkpt>
      <trkpt lat="43.51694" lon="3.48806">
        <ele>89.9</ele>
        <time>2019-01-10T08:22:34Z</time>
      </trkpt>
      <trkpt lat="43.51694" lon="3.48801">
        <ele>89.6</ele>
        <time>2019-01-10T08:22:36Z</time>
      </trkpt>
      <trkpt lat="43.51691" lon="3.48796">
        <ele>89.5</ele>
        <time>2019-01-10T08:22:38Z</time>
      </trkpt>
      <trkpt lat="43.51689" lon="3.48792">
        <ele>89.6</ele>
        <time>2019-01-10T08:22:40Z</time>
      </trkpt>
      <trkpt lat="43.51686" lon="3.48789">
        <ele>89.7</ele>
        <time>2019-01-10T08:22:42Z</time>
      </trkpt>
      <trkpt lat="43.51683" lon="3.48783">
        <ele>89.9</ele>
        <time>2019-01-10T08:22:44Z</time>
      </trkpt>
      <trkpt lat="43.51682" lon="3.48779">
        <ele>90</ele>
        <time>2019-01-10T08:22:46Z</time>
      </trkpt>
      <trkpt lat="43.51684" lon="3.48776">
        <ele>90.1</ele>
        <time>2019-01-10T08:22:48Z</time>
      </trkpt>
      <trkpt lat="43.51686" lon="3.48772">
        <ele>90.3</ele>
        <time>2019-01-10T08:22:51Z</time>
      </trkpt>
      <trkpt lat="43.51687" lon="3.48769">
        <ele>90.4</ele>
        <time>2019-01-10T08:22:53Z</time>
      </trkpt>
      <trkpt lat="43.51688" lon="3.48764">
        <ele>90.4</ele>
        <time>2019-01-10T08:22:55Z</time>
      </trkpt>
      <trkpt lat="43.51687" lon="3.4876">
        <ele>90.4</ele>
        <time>2019-01-10T08:22:57Z</time>
      </trkpt>
      <trkpt lat="43.51686" lon="3.48756">
        <ele>90.4</ele>
        <time>2019-01-10T08:22:59Z</time>
      </trkpt>
      <trkpt lat="43.51686" lon="3.48752">
        <ele>90.3</ele>
        <time>2019-01-10T08:23:01Z</time>
      </trkpt>
      <trkpt lat="43.51685" lon="3.48749">
        <ele>90.2</ele>
        <time>2019-01-10T08:23:03Z</time>
      </trkpt>
      <trkpt lat="43.51685" lon="3.48743">
        <ele>90.2</ele>
        <time>2019-01-10T08:23:06Z</time>
      </trkpt>
      <trkpt lat="43.51686" lon="3.48739">
        <ele>90.2</ele>
        <time>2019-01-10T08:23:08Z</time>
      </trkpt>
      <trkpt lat="43.51688" lon="3.48735">
        <ele>90.2</ele>
        <time>2019-01-10T08:23:10Z</time>
      </trkpt>
      <trkpt lat="43.51689" lon="3.48731">
        <ele>89.9</ele>
        <time>2019-01-10T08:23:12Z</time>
      </trkpt>
      <trkpt lat="43.5169" lon="3.48726">
        <ele>89.3</ele>
        <time>2019-01-10T08:23:15Z</time>
      </trkpt>
      <trkpt lat="43.51692" lon="3.48722">
        <ele>88.6</ele>
        <time>2019-01-10T08:23:17Z</time>
      </trkpt>
      <trkpt lat="43.51694" lon="3.48718">
        <ele>88.3</ele>
        <time>2019-01-10T08:23:19Z</time>
      </trkpt>
      <trkpt lat="43.51696" lon="3.48714">
        <ele>87.8</ele>
        <time>2019-01-10T08:23:22Z</time>
      </trkpt>
      <trkpt lat="43.51699" lon="3.48711">
        <ele>87.3</ele>
        <time>2019-01-10T08:23:24Z</time>
      </trkpt>
      <trkpt lat="43.517" lon="3.48707">
        <ele>87</ele>
        <time>2019-01-10T08:23:28Z</time>
      </trkpt>
      <trkpt lat="43.51702" lon="3.48705">
        <ele>86.6</ele>
        <time>2019-01-10T08:23:30Z</time>
      </trkpt>
      <trkpt lat="43.51704" lon="3.48701">
        <ele>86.2</ele>
        <time>2019-01-10T08:23:33Z</time>
      </trkpt>
      <trkpt lat="43.51705" lon="3.48698">
        <ele>85.7</ele>
        <time>2019-01-10T08:23:36Z</time>
      </trkpt>
      <trkpt lat="43.51707" lon="3.48695">
        <ele>85.3</ele>
        <time>2019-01-10T08:23:38Z</time>
      </trkpt>
      <trkpt lat="43.51709" lon="3.48691">
        <ele>84.7</ele>
        <time>2019-01-10T08:23:41Z</time>
      </trkpt>
      <trkpt lat="43.51713" lon="3.4869">
        <ele>84.2</ele>
        <time>2019-01-10T08:23:45Z</time>
      </trkpt>
      <trkpt lat="43.51716" lon="3.48687">
        <ele>83.6</ele>
        <time>2019-01-10T08:23:48Z</time>
      </trkpt>
      <trkpt lat="43.51718" lon="3.48684">
        <ele>83.1</ele>
        <time>2019-01-10T08:23:51Z</time>
      </trkpt>
      <trkpt lat="43.51722" lon="3.48681">
        <ele>82.5</ele>
        <time>2019-01-10T08:23:55Z</time>
      </trkpt>
      <trkpt lat="43.51724" lon="3.48679">
        <ele>82</ele>
        <time>2019-01-10T08:23:57Z</time>
      </trkpt>
      <trkpt lat="43.51727" lon="3.48676">
        <ele>81.4</ele>
        <time>2019-01-10T08:23:59Z</time>
      </trkpt>
      <trkpt lat="43.5173" lon="3.48675">
        <ele>81</ele>
        <time>2019-01-10T08:24:01Z</time>
      </trkpt>
      <trkpt lat="43.51733" lon="3.48672">
        <ele>80.3</ele>
        <time>2019-01-10T08:24:03Z</time>
      </trkpt>
      <trkpt lat="43.51735" lon="3.48668">
        <ele>79.7</ele>
        <time>2019-01-10T08:24:05Z</time>
      </trkpt>
      <trkpt lat="43.51738" lon="3.48665">
        <ele>79.1</ele>
        <time>2019-01-10T08:24:07Z</time>
      </trkpt>
      <trkpt lat="43.51741" lon="3.48662">
        <ele>78.4</ele>
        <time>2019-01-10T08:24:10Z</time>
      </trkpt>
      <trkpt lat="43.51742" lon="3.48658">
        <ele>77.9</ele>
        <time>2019-01-10T08:24:12Z</time>
      </trkpt>
      <trkpt lat="43.51742" lon="3.48653">
        <ele>77.3</ele>
        <time>2019-01-10T08:24:15Z</time>
      </trkpt>
      <trkpt lat="43.51743" lon="3.48649">
        <ele>76.7</ele>
        <time>2019-01-10T08:24:17Z</time>
      </trkpt>
      <trkpt lat="43.51745" lon="3.48644">
        <ele>76.1</ele>
        <time>2019-01-10T08:24:20Z</time>
      </trkpt>
      <trkpt lat="43.51746" lon="3.4864">
        <ele>75.7</ele>
        <time>2019-01-10T08:24:22Z</time>
      </trkpt>
      <trkpt lat="43.51747" lon="3.48635">
        <ele>75.4</ele>
        <time>2019-01-10T08:24:24Z</time>
      </trkpt>
      <trkpt lat="43.51748" lon="3.48631">
        <ele>75.1</ele>
        <time>2019-01-10T08:24:26Z</time>
      </trkpt>
      <trkpt lat="43.5175" lon="3.48626">
        <ele>74.7</ele>
        <time>2019-01-10T08:24:28Z</time>
      </trkpt>
      <trkpt lat="43.51752" lon="3.48621">
        <ele>74.4</ele>
        <time>2019-01-10T08:24:30Z</time>
      </trkpt>
      <trkpt lat="43.51753" lon="3.48616">
        <ele>74.1</ele>
        <time>2019-01-10T08:24:32Z</time>
      </trkpt>
      <trkpt lat="43.51754" lon="3.4861">
        <ele>73.8</ele>
        <time>2019-01-10T08:24:34Z</time>
      </trkpt>
      <trkpt lat="43.51755" lon="3.48606">
        <ele>73.6</ele>
        <time>2019-01-10T08:24:36Z</time>
      </trkpt>
      <trkpt lat="43.51757" lon="3.48603">
        <ele>73.5</ele>
        <time>2019-01-10T08:24:38Z</time>
      </trkpt>
      <trkpt lat="43.51759" lon="3.48598">
        <ele>73.4</ele>
        <time>2019-01-10T08:24:41Z</time>
      </trkpt>
      <trkpt lat="43.5176" lon="3.48595">
        <ele>73.4</ele>
        <time>2019-01-10T08:24:44Z</time>
      </trkpt>
      <trkpt lat="43.51763" lon="3.48591">
        <ele>73.4</ele>
        <time>2019-01-10T08:24:46Z</time>
      </trkpt>
      <trkpt lat="43.51766" lon="3.48587">
        <ele>72.8</ele>
        <time>2019-01-10T08:24:48Z</time>
      </trkpt>
      <trkpt lat="43.51767" lon="3.48585">
        <ele>72.6</ele>
        <time>2019-01-10T08:24:50Z</time>
      </trkpt>
      <trkpt lat="43.51769" lon="3.48581">
        <ele>72.3</ele>
        <time>2019-01-10T08:24:52Z</time>
      </trkpt>
      <trkpt lat="43.5177" lon="3.48577">
        <ele>72</ele>
        <time>2019-01-10T08:24:54Z</time>
      </trkpt>
      <trkpt lat="43.51772" lon="3.48573">
        <ele>71.6</ele>
        <time>2019-01-10T08:24:56Z</time>
      </trkpt>
      <trkpt lat="43.51774" lon="3.4857">
        <ele>71.2</ele>
        <time>2019-01-10T08:24:58Z</time>
      </trkpt>
      <trkpt lat="43.51776" lon="3.48566">
        <ele>70.7</ele>
        <time>2019-01-10T08:25:00Z</time>
      </trkpt>
      <trkpt lat="43.51777" lon="3.48562">
        <ele>70.3</ele>
        <time>2019-01-10T08:25:02Z</time>
      </trkpt>
      <trkpt lat="43.51779" lon="3.48557">
        <ele>69.7</ele>
        <time>2019-01-10T08:25:05Z</time>
      </trkpt>
      <trkpt lat="43.5178" lon="3.48553">
        <ele>69.3</ele>
        <time>2019-01-10T08:25:07Z</time>
      </trkpt>
      <trkpt lat="43.5178" lon="3.48548">
        <ele>68.9</ele>
        <time>2019-01-10T08:25:09Z</time>
      </trkpt>
      <trkpt lat="43.5178" lon="3.48544">
        <ele>68.6</ele>
        <time>2019-01-10T08:25:11Z</time>
      </trkpt>
      <trkpt lat="43.51781" lon="3.48539">
        <ele>68.4</ele>
        <time>2019-01-10T08:25:13Z</time>
      </trkpt>
      <trkpt lat="43.51782" lon="3.48534">
        <ele>68.3</ele>
        <time>2019-01-10T08:25:15Z</time>
      </trkpt>
      <trkpt lat="43.51783" lon="3.4853">
        <ele>68.4</ele>
        <time>2019-01-10T08:25:17Z</time>
      </trkpt>
      <trkpt lat="43.51784" lon="3.48524">
        <ele>68.5</ele>
        <time>2019-01-10T08:25:20Z</time>
      </trkpt>
      <trkpt lat="43.51786" lon="3.4852">
        <ele>68.5</ele>
        <time>2019-01-10T08:25:23Z</time>
      </trkpt>
      <trkpt lat="43.51788" lon="3.48516">
        <ele>68.6</ele>
        <time>2019-01-10T08:25:26Z</time>
      </trkpt>
      <trkpt lat="43.51789" lon="3.4851">
        <ele>68.5</ele>
        <time>2019-01-10T08:25:29Z</time>
      </trkpt>
      <trkpt lat="43.5179" lon="3.48507">
        <ele>68.3</ele>
        <time>2019-01-10T08:25:31Z</time>
      </trkpt>
      <trkpt lat="43.51792" lon="3.48502">
        <ele>68.2</ele>
        <time>2019-01-10T08:25:34Z</time>
      </trkpt>
      <trkpt lat="43.51794" lon="3.48498">
        <ele>68.2</ele>
        <time>2019-01-10T08:25:36Z</time>
      </trkpt>
      <trkpt lat="43.51796" lon="3.48495">
        <ele>68</ele>
        <time>2019-01-10T08:25:38Z</time>
      </trkpt>
      <trkpt lat="43.51796" lon="3.48491">
        <ele>67.7</ele>
        <time>2019-01-10T08:25:40Z</time>
      </trkpt>
      <trkpt lat="43.51795" lon="3.48487">
        <ele>67.5</ele>
        <time>2019-01-10T08:25:42Z</time>
      </trkpt>
      <trkpt lat="43.51798" lon="3.48486">
        <ele>67.5</ele>
        <time>2019-01-10T08:25:46Z</time>
      </trkpt>
      <trkpt lat="43.51801" lon="3.48484">
        <ele>67.2</ele>
        <time>2019-01-10T08:25:51Z</time>
      </trkpt>
      <trkpt lat="43.51803" lon="3.4848">
        <ele>66.7</ele>
        <time>2019-01-10T08:25:53Z</time>
      </trkpt>
      <trkpt lat="43.51805" lon="3.48477">
        <ele>65.6</ele>
        <time>2019-01-10T08:25:54Z</time>
      </trkpt>
      <trkpt lat="43.51809" lon="3.48473">
        <ele>65</ele>
        <time>2019-01-10T08:25:56Z</time>
      </trkpt>
      <trkpt lat="43.51811" lon="3.48469">
        <ele>64.9</ele>
        <time>2019-01-10T08:25:58Z</time>
      </trkpt>
      <trkpt lat="43.5181" lon="3.48465">
        <ele>64.7</ele>
        <time>2019-01-10T08:26:00Z</time>
      </trkpt>
      <trkpt lat="43.51812" lon="3.48461">
        <ele>64.8</ele>
        <time>2019-01-10T08:26:02Z</time>
      </trkpt>
      <trkpt lat="43.51813" lon="3.48457">
        <ele>65.1</ele>
        <time>2019-01-10T08:26:04Z</time>
      </trkpt>
      <trkpt lat="43.51813" lon="3.48451">
        <ele>65.4</ele>
        <time>2019-01-10T08:26:06Z</time>
      </trkpt>
      <trkpt lat="43.51811" lon="3.48448">
        <ele>65.6</ele>
        <time>2019-01-10T08:26:07Z</time>
      </trkpt>
      <trkpt lat="43.51809" lon="3.48445">
        <ele>66.4</ele>
        <time>2019-01-10T08:26:09Z</time>
      </trkpt>
      <trkpt lat="43.51807" lon="3.48441">
        <ele>67</ele>
        <time>2019-01-10T08:26:11Z</time>
      </trkpt>
      <trkpt lat="43.51806" lon="3.48436">
        <ele>67.3</ele>
        <time>2019-01-10T08:26:14Z</time>
      </trkpt>
      <trkpt lat="43.51805" lon="3.48431">
        <ele>67.4</ele>
        <time>2019-01-10T08:26:16Z</time>
      </trkpt>
      <trkpt lat="43.51801" lon="3.48426">
        <ele>67.5</ele>
        <time>2019-01-10T08:26:18Z</time>
      </trkpt>
      <trkpt lat="43.51797" lon="3.48423">
        <ele>67.8</ele>
        <time>2019-01-10T08:26:20Z</time>
      </trkpt>
      <trkpt lat="43.51794" lon="3.48418">
        <ele>68.4</ele>
        <time>2019-01-10T08:26:22Z</time>
      </trkpt>
      <trkpt lat="43.51792" lon="3.48413">
        <ele>69</ele>
        <time>2019-01-10T08:26:24Z</time>
      </trkpt>
      <trkpt lat="43.51792" lon="3.48409">
        <ele>69.1</ele>
        <time>2019-01-10T08:26:26Z</time>
      </trkpt>
      <trkpt lat="43.51791" lon="3.48406">
        <ele>69.3</ele>
        <time>2019-01-10T08:26:28Z</time>
      </trkpt>
      <trkpt lat="43.51791" lon="3.48401">
        <ele>69.5</ele>
        <time>2019-01-10T08:26:30Z</time>
      </trkpt>
      <trkpt lat="43.51791" lon="3.48397">
        <ele>69.8</ele>
        <time>2019-01-10T08:26:32Z</time>
      </trkpt>
      <trkpt lat="43.5179" lon="3.48393">
        <ele>70</ele>
        <time>2019-01-10T08:26:34Z</time>
      </trkpt>
      <trkpt lat="43.51789" lon="3.4839">
        <ele>70.4</ele>
        <time>2019-01-10T08:26:36Z</time>
      </trkpt>
      <trkpt lat="43.51787" lon="3.48386">
        <ele>70.5</ele>
        <time>2019-01-10T08:26:40Z</time>
      </trkpt>
      <trkpt lat="43.51785" lon="3.48383">
        <ele>70.3</ele>
        <time>2019-01-10T08:26:43Z</time>
      </trkpt>
      <trkpt lat="43.51783" lon="3.48378">
        <ele>69.9</ele>
        <time>2019-01-10T08:26:46Z</time>
      </trkpt>
      <trkpt lat="43.51782" lon="3.48372">
        <ele>70.3</ele>
        <time>2019-01-10T08:26:49Z</time>
      </trkpt>
      <trkpt lat="43.51778" lon="3.4837">
        <ele>70.8</ele>
        <time>2019-01-10T08:26:51Z</time>
      </trkpt>
      <trkpt lat="43.51775" lon="3.48368">
        <ele>71.3</ele>
        <time>2019-01-10T08:26:53Z</time>
      </trkpt>
      <trkpt lat="43.51772" lon="3.48366">
        <ele>71.4</ele>
        <time>2019-01-10T08:26:55Z</time>
      </trkpt>
      <trkpt lat="43.51772" lon="3.48362">
        <ele>71.2</ele>
        <time>2019-01-10T08:26:58Z</time>
      </trkpt>
      <trkpt lat="43.51771" lon="3.48357">
        <ele>70.7</ele>
        <time>2019-01-10T08:27:01Z</time>
      </trkpt>
      <trkpt lat="43.51769" lon="3.48353">
        <ele>70.1</ele>
        <time>2019-01-10T08:27:03Z</time>
      </trkpt>
      <trkpt lat="43.51767" lon="3.4835">
        <ele>69.5</ele>
        <time>2019-01-10T08:27:05Z</time>
      </trkpt>
      <trkpt lat="43.51764" lon="3.48345">
        <ele>68.6</ele>
        <time>2019-01-10T08:27:08Z</time>
      </trkpt>
      <trkpt lat="43.51762" lon="3.48341">
        <ele>68.5</ele>
        <time>2019-01-10T08:27:10Z</time>
      </trkpt>
      <trkpt lat="43.51761" lon="3.48336">
        <ele>68.9</ele>
        <time>2019-01-10T08:27:12Z</time>
      </trkpt>
      <trkpt lat="43.51759" lon="3.48333">
        <ele>69.4</ele>
        <time>2019-01-10T08:27:14Z</time>
      </trkpt>
      <trkpt lat="43.51757" lon="3.48328">
        <ele>69.9</ele>
        <time>2019-01-10T08:27:17Z</time>
      </trkpt>
      <trkpt lat="43.51755" lon="3.48324">
        <ele>70.4</ele>
        <time>2019-01-10T08:27:19Z</time>
      </trkpt>
      <trkpt lat="43.51754" lon="3.48321">
        <ele>70.7</ele>
        <time>2019-01-10T08:27:21Z</time>
      </trkpt>
      <trkpt lat="43.51754" lon="3.48317">
        <ele>70.4</ele>
        <time>2019-01-10T08:27:23Z</time>
      </trkpt>
      <trkpt lat="43.51756" lon="3.48313">
        <ele>70.1</ele>
        <time>2019-01-10T08:27:25Z</time>
      </trkpt>
      <trkpt lat="43.51755" lon="3.48308">
        <ele>69.4</ele>
        <time>2019-01-10T08:27:28Z</time>
      </trkpt>
      <trkpt lat="43.51752" lon="3.48305">
        <ele>68.9</ele>
        <time>2019-01-10T08:27:30Z</time>
      </trkpt>
      <trkpt lat="43.51749" lon="3.48302">
        <ele>68.4</ele>
        <time>2019-01-10T08:27:32Z</time>
      </trkpt>
      <trkpt lat="43.5175" lon="3.48297">
        <ele>68</ele>
        <time>2019-01-10T08:27:35Z</time>
      </trkpt>
      <trkpt lat="43.51748" lon="3.48294">
        <ele>67.6</ele>
        <time>2019-01-10T08:27:37Z</time>
      </trkpt>
      <trkpt lat="43.51751" lon="3.4829">
        <ele>67.1</ele>
        <time>2019-01-10T08:27:40Z</time>
      </trkpt>
      <trkpt lat="43.51753" lon="3.48288">
        <ele>66.5</ele>
        <time>2019-01-10T08:27:43Z</time>
      </trkpt>
      <trkpt lat="43.51756" lon="3.48287">
        <ele>66</ele>
        <time>2019-01-10T08:27:46Z</time>
      </trkpt>
      <trkpt lat="43.51758" lon="3.48283">
        <ele>65.7</ele>
        <time>2019-01-10T08:27:48Z</time>
      </trkpt>
      <trkpt lat="43.51759" lon="3.48278">
        <ele>65.3</ele>
        <time>2019-01-10T08:27:51Z</time>
      </trkpt>
      <trkpt lat="43.51761" lon="3.48275">
        <ele>65</ele>
        <time>2019-01-10T08:27:54Z</time>
      </trkpt>
      <trkpt lat="43.51762" lon="3.48269">
        <ele>64.3</ele>
        <time>2019-01-10T08:27:58Z</time>
      </trkpt>
      <trkpt lat="43.51764" lon="3.48264">
        <ele>63.7</ele>
        <time>2019-01-10T08:28:00Z</time>
      </trkpt>
      <trkpt lat="43.51765" lon="3.4826">
        <ele>63.3</ele>
        <time>2019-01-10T08:28:02Z</time>
      </trkpt>
      <trkpt lat="43.51766" lon="3.48256">
        <ele>62.9</ele>
        <time>2019-01-10T08:28:05Z</time>
      </trkpt>
      <trkpt lat="43.51767" lon="3.48251">
        <ele>62.3</ele>
        <time>2019-01-10T08:28:07Z</time>
      </trkpt>
      <trkpt lat="43.51769" lon="3.48247">
        <ele>62</ele>
        <time>2019-01-10T08:28:09Z</time>
      </trkpt>
      <trkpt lat="43.5177" lon="3.48242">
        <ele>61.9</ele>
        <time>2019-01-10T08:28:12Z</time>
      </trkpt>
      <trkpt lat="43.51769" lon="3.48239">
        <ele>61.7</ele>
        <time>2019-01-10T08:28:15Z</time>
      </trkpt>
      <trkpt lat="43.5177" lon="3.48235">
        <ele>61.5</ele>
        <time>2019-01-10T08:28:19Z</time>
      </trkpt>
      <trkpt lat="43.51771" lon="3.4823">
        <ele>61.2</ele>
        <time>2019-01-10T08:28:23Z</time>
      </trkpt>
      <trkpt lat="43.51772" lon="3.48225">
        <ele>60.8</ele>
        <time>2019-01-10T08:28:26Z</time>
      </trkpt>
      <trkpt lat="43.51772" lon="3.4822">
        <ele>60.4</ele>
        <time>2019-01-10T08:28:29Z</time>
      </trkpt>
      <trkpt lat="43.51772" lon="3.48215">
        <ele>59.7</ele>
        <time>2019-01-10T08:28:32Z</time>
      </trkpt>
      <trkpt lat="43.51771" lon="3.48211">
        <ele>59.1</ele>
        <time>2019-01-10T08:28:34Z</time>
      </trkpt>
      <trkpt lat="43.51769" lon="3.48207">
        <ele>58.8</ele>
        <time>2019-01-10T08:28:36Z</time>
      </trkpt>
      <trkpt lat="43.51769" lon="3.48201">
        <ele>58.5</ele>
        <time>2019-01-10T08:28:38Z</time>
      </trkpt>
      <trkpt lat="43.51771" lon="3.48197">
        <ele>58.4</ele>
        <time>2019-01-10T08:28:40Z</time>
      </trkpt>
      <trkpt lat="43.51774" lon="3.48194">
        <ele>58</ele>
        <time>2019-01-10T08:28:43Z</time>
      </trkpt>
      <trkpt lat="43.51776" lon="3.48193">
        <ele>57.9</ele>
        <time>2019-01-10T08:28:45Z</time>
      </trkpt>
      <trkpt lat="43.51779" lon="3.48191">
        <ele>58</ele>
        <time>2019-01-10T08:28:48Z</time>
      </trkpt>
      <trkpt lat="43.51781" lon="3.48189">
        <ele>58.1</ele>
        <time>2019-01-10T08:28:51Z</time>
      </trkpt>
      <trkpt lat="43.51784" lon="3.48188">
        <ele>58.2</ele>
        <time>2019-01-10T08:28:55Z</time>
      </trkpt>
      <trkpt lat="43.51786" lon="3.48185">
        <ele>58.1</ele>
        <time>2019-01-10T08:28:58Z</time>
      </trkpt>
      <trkpt lat="43.51789" lon="3.48181">
        <ele>57.9</ele>
        <time>2019-01-10T08:29:01Z</time>
      </trkpt>
      <trkpt lat="43.51791" lon="3.48178">
        <ele>57.8</ele>
        <time>2019-01-10T08:29:04Z</time>
      </trkpt>
      <trkpt lat="43.51793" lon="3.48175">
        <ele>57.6</ele>
        <time>2019-01-10T08:29:06Z</time>
      </trkpt>
      <trkpt lat="43.51795" lon="3.48173">
        <ele>57.2</ele>
        <time>2019-01-10T08:29:09Z</time>
      </trkpt>
      <trkpt lat="43.51799" lon="3.4817">
        <ele>56.7</ele>
        <time>2019-01-10T08:29:12Z</time>
      </trkpt>
      <trkpt lat="43.51803" lon="3.48167">
        <ele>56.2</ele>
        <time>2019-01-10T08:29:14Z</time>
      </trkpt>
      <trkpt lat="43.51806" lon="3.48166">
        <ele>56.1</ele>
        <time>2019-01-10T08:29:16Z</time>
      </trkpt>
      <trkpt lat="43.5181" lon="3.48163">
        <ele>55.7</ele>
        <time>2019-01-10T08:29:18Z</time>
      </trkpt>
      <trkpt lat="43.51814" lon="3.4816">
        <ele>55.1</ele>
        <time>2019-01-10T08:29:20Z</time>
      </trkpt>
      <trkpt lat="43.51818" lon="3.48157">
        <ele>54.6</ele>
        <time>2019-01-10T08:29:22Z</time>
      </trkpt>
      <trkpt lat="43.51823" lon="3.48154">
        <ele>54</ele>
        <time>2019-01-10T08:29:24Z</time>
      </trkpt>
      <trkpt lat="43.51828" lon="3.4815">
        <ele>53.4</ele>
        <time>2019-01-10T08:29:26Z</time>
      </trkpt>
      <trkpt lat="43.51832" lon="3.48148">
        <ele>52.8</ele>
        <time>2019-01-10T08:29:28Z</time>
      </trkpt>
      <trkpt lat="43.51836" lon="3.48145">
        <ele>52.6</ele>
        <time>2019-01-10T08:29:30Z</time>
      </trkpt>
      <trkpt lat="43.51838" lon="3.48141">
        <ele>52.5</ele>
        <time>2019-01-10T08:29:33Z</time>
      </trkpt>
      <trkpt lat="43.5184" lon="3.48138">
        <ele>52.2</ele>
        <time>2019-01-10T08:29:36Z</time>
      </trkpt>
      <trkpt lat="43.51842" lon="3.48133">
        <ele>51.8</ele>
        <time>2019-01-10T08:29:39Z</time>
      </trkpt>
      <trkpt lat="43.51845" lon="3.48129">
        <ele>51.4</ele>
        <time>2019-01-10T08:29:42Z</time>
      </trkpt>
      <trkpt lat="43.51849" lon="3.48127">
        <ele>51</ele>
        <time>2019-01-10T08:29:44Z</time>
      </trkpt>
      <trkpt lat="43.51852" lon="3.48125">
        <ele>50.6</ele>
        <time>2019-01-10T08:29:46Z</time>
      </trkpt>
      <trkpt lat="43.51855" lon="3.48123">
        <ele>50.4</ele>
        <time>2019-01-10T08:29:48Z</time>
      </trkpt>
      <trkpt lat="43.51858" lon="3.48119">
        <ele>50</ele>
        <time>2019-01-10T08:29:51Z</time>
      </trkpt>
      <trkpt lat="43.5186" lon="3.48115">
        <ele>49.7</ele>
        <time>2019-01-10T08:29:54Z</time>
      </trkpt>
      <trkpt lat="43.51862" lon="3.48111">
        <ele>49.3</ele>
        <time>2019-01-10T08:29:57Z</time>
      </trkpt>
      <trkpt lat="43.51864" lon="3.48107">
        <ele>48.8</ele>
        <time>2019-01-10T08:29:59Z</time>
      </trkpt>
      <trkpt lat="43.51866" lon="3.48103">
        <ele>48.1</ele>
        <time>2019-01-10T08:30:01Z</time>
      </trkpt>
      <trkpt lat="43.51867" lon="3.481">
        <ele>47.7</ele>
        <time>2019-01-10T08:30:03Z</time>
      </trkpt>
      <trkpt lat="43.51869" lon="3.48097">
        <ele>47.3</ele>
        <time>2019-01-10T08:30:05Z</time>
      </trkpt>
      <trkpt lat="43.51871" lon="3.48095">
        <ele>46.9</ele>
        <time>2019-01-10T08:30:07Z</time>
      </trkpt>
      <trkpt lat="43.51875" lon="3.48092">
        <ele>46.4</ele>
        <time>2019-01-10T08:30:10Z</time>
      </trkpt>
      <trkpt lat="43.51878" lon="3.48092">
        <ele>46</ele>
        <time>2019-01-10T08:30:13Z</time>
      </trkpt>
      <trkpt lat="43.5188" lon="3.48091">
        <ele>45.6</ele>
        <time>2019-01-10T08:30:16Z</time>
      </trkpt>
      <trkpt lat="43.51882" lon="3.48087">
        <ele>45.1</ele>
        <time>2019-01-10T08:30:18Z</time>
      </trkpt>
      <trkpt lat="43.51884" lon="3.48083">
        <ele>44.4</ele>
        <time>2019-01-10T08:30:20Z</time>
      </trkpt>
      <trkpt lat="43.51885" lon="3.48078">
        <ele>43.8</ele>
        <time>2019-01-10T08:30:23Z</time>
      </trkpt>
      <trkpt lat="43.51886" lon="3.48075">
        <ele>43.3</ele>
        <time>2019-01-10T08:30:25Z</time>
      </trkpt>
      <trkpt lat="43.51887" lon="3.48071">
        <ele>42.7</ele>
        <time>2019-01-10T08:30:27Z</time>
      </trkpt>
      <trkpt lat="43.51889" lon="3.48068">
        <ele>42.2</ele>
        <time>2019-01-10T08:30:29Z</time>
      </trkpt>
      <trkpt lat="43.51892" lon="3.48064">
        <ele>41.5</ele>
        <time>2019-01-10T08:30:32Z</time>
      </trkpt>
      <trkpt lat="43.51894" lon="3.4806">
        <ele>40.9</ele>
        <time>2019-01-10T08:30:34Z</time>
      </trkpt>
      <trkpt lat="43.51896" lon="3.48057">
        <ele>40.3</ele>
        <time>2019-01-10T08:30:36Z</time>
      </trkpt>
      <trkpt lat="43.51899" lon="3.48054">
        <ele>39.8</ele>
        <time>2019-01-10T08:30:38Z</time>
      </trkpt>
      <trkpt lat="43.51901" lon="3.48052">
        <ele>39.4</ele>
        <time>2019-01-10T08:30:40Z</time>
      </trkpt>
      <trkpt lat="43.51903" lon="3.48049">
        <ele>38.6</ele>
        <time>2019-01-10T08:30:43Z</time>
      </trkpt>
      <trkpt lat="43.51905" lon="3.48046">
        <ele>38</ele>
        <time>2019-01-10T08:30:45Z</time>
      </trkpt>
      <trkpt lat="43.51908" lon="3.48042">
        <ele>37.2</ele>
        <time>2019-01-10T08:30:48Z</time>
      </trkpt>
      <trkpt lat="43.5191" lon="3.48039">
        <ele>36.8</ele>
        <time>2019-01-10T08:30:51Z</time>
      </trkpt>
      <trkpt lat="43.51913" lon="3.48037">
        <ele>36.3</ele>
        <time>2019-01-10T08:30:53Z</time>
      </trkpt>
      <trkpt lat="43.51917" lon="3.48034">
        <ele>35.3</ele>
        <time>2019-01-10T08:30:55Z</time>
      </trkpt>
      <trkpt lat="43.51921" lon="3.48031">
        <ele>34.5</ele>
        <time>2019-01-10T08:30:57Z</time>
      </trkpt>
      <trkpt lat="43.51924" lon="3.48029">
        <ele>34</ele>
        <time>2019-01-10T08:30:59Z</time>
      </trkpt>
      <trkpt lat="43.51927" lon="3.48027">
        <ele>33.5</ele>
        <time>2019-01-10T08:31:01Z</time>
      </trkpt>
      <trkpt lat="43.51931" lon="3.48024">
        <ele>32.8</ele>
        <time>2019-01-10T08:31:03Z</time>
      </trkpt>
      <trkpt lat="43.51935" lon="3.48022">
        <ele>32.1</ele>
        <time>2019-01-10T08:31:05Z</time>
      </trkpt>
      <trkpt lat="43.51938" lon="3.48021">
        <ele>31.6</ele>
        <time>2019-01-10T08:31:07Z</time>
      </trkpt>
      <trkpt lat="43.51934" lon="3.48017">
        <ele>30.8</ele>
        <time>2019-01-10T08:31:32Z</time>
      </trkpt>
      <trkpt lat="43.51932" lon="3.48018">
        <ele>30.3</ele>
        <time>2019-01-10T08:31:34Z</time>
      </trkpt>
      <trkpt lat="43.51929" lon="3.4802">
        <ele>29.8</ele>
        <time>2019-01-10T08:31:37Z</time>
      </trkpt>
      <trkpt lat="43.51927" lon="3.48016">
        <ele>29.2</ele>
        <time>2019-01-10T08:31:41Z</time>
      </trkpt>
      <trkpt lat="43.51926" lon="3.48012">
        <ele>29.2</ele>
        <time>2019-01-10T08:31:47Z</time>
      </trkpt>
      <trkpt lat="43.51926" lon="3.48008">
        <ele>28.7</ele>
        <time>2019-01-10T08:31:51Z</time>
      </trkpt>
      <trkpt lat="43.51924" lon="3.48005">
        <ele>28.7</ele>
        <time>2019-01-10T08:31:55Z</time>
      </trkpt>
      <trkpt lat="43.51921" lon="3.48003">
        <ele>28.7</ele>
        <time>2019-01-10T08:31:57Z</time>
      </trkpt>
      <trkpt lat="43.51919" lon="3.48">
        <ele>28.8</ele>
        <time>2019-01-10T08:32:01Z</time>
      </trkpt>
      <trkpt lat="43.51922" lon="3.47998">
        <ele>28.3</ele>
        <time>2019-01-10T08:32:13Z</time>
      </trkpt>
      <trkpt lat="43.51923" lon="3.47994">
        <ele>27.8</ele>
        <time>2019-01-10T08:32:16Z</time>
      </trkpt>
      <trkpt lat="43.51923" lon="3.4799">
        <ele>27.3</ele>
        <time>2019-01-10T08:32:20Z</time>
      </trkpt>
      <trkpt lat="43.51924" lon="3.47986">
        <ele>26.3</ele>
        <time>2019-01-10T08:32:30Z</time>
      </trkpt>
      <trkpt lat="43.51928" lon="3.47983">
        <ele>25.5</ele>
        <time>2019-01-10T08:32:33Z</time>
      </trkpt>
      <trkpt lat="43.51931" lon="3.47982">
        <ele>25.2</ele>
        <time>2019-01-10T08:32:35Z</time>
      </trkpt>
      <trkpt lat="43.51933" lon="3.47981">
        <ele>25.2</ele>
        <time>2019-01-10T08:32:37Z</time>
      </trkpt>
      <trkpt lat="43.51936" lon="3.47979">
        <ele>24.9</ele>
        <time>2019-01-10T08:32:39Z</time>
      </trkpt>
      <trkpt lat="43.51939" lon="3.47978">
        <ele>24.2</ele>
        <time>2019-01-10T08:32:42Z</time>
      </trkpt>
      <trkpt lat="43.51942" lon="3.47976">
        <ele>24</ele>
        <time>2019-01-10T08:32:45Z</time>
      </trkpt>
      <trkpt lat="43.51944" lon="3.4798">
        <ele>24.2</ele>
        <time>2019-01-10T08:32:57Z</time>
      </trkpt>
      <trkpt lat="43.51947" lon="3.47983">
        <ele>24</ele>
        <time>2019-01-10T08:33:00Z</time>
      </trkpt>
      <trkpt lat="43.51949" lon="3.47985">
        <ele>24.2</ele>
        <time>2019-01-10T08:33:02Z</time>
      </trkpt>
      <trkpt lat="43.51952" lon="3.47983">
        <ele>24.2</ele>
        <time>2019-01-10T08:33:04Z</time>
      </trkpt>
      <trkpt lat="43.51956" lon="3.47982">
        <ele>23.5</ele>
        <time>2019-01-10T08:33:06Z</time>
      </trkpt>
      <trkpt lat="43.5196" lon="3.47984">
        <ele>23.8</ele>
        <time>2019-01-10T08:33:08Z</time>
      </trkpt>
      <trkpt lat="43.51963" lon="3.47986">
        <ele>23.6</ele>
        <time>2019-01-10T08:33:12Z</time>
      </trkpt>
      <trkpt lat="43.51966" lon="3.47986">
        <ele>23.4</ele>
        <time>2019-01-10T08:33:15Z</time>
      </trkpt>
      <trkpt lat="43.51969" lon="3.47986">
        <ele>23.2</ele>
        <time>2019-01-10T08:33:18Z</time>
      </trkpt>
      <trkpt lat="43.51972" lon="3.47991">
        <ele>23.3</ele>
        <time>2019-01-10T08:33:21Z</time>
      </trkpt>
      <trkpt lat="43.51975" lon="3.47994">
        <ele>23.3</ele>
        <time>2019-01-10T08:33:23Z</time>
      </trkpt>
      <trkpt lat="43.51977" lon="3.47997">
        <ele>23.3</ele>
        <time>2019-01-10T08:33:34Z</time>
      </trkpt>
      <trkpt lat="43.51979" lon="3.48">
        <ele>23.3</ele>
        <time>2019-01-10T08:33:36Z</time>
      </trkpt>
      <trkpt lat="43.51981" lon="3.48003">
        <ele>23.3</ele>
        <time>2019-01-10T08:33:38Z</time>
      </trkpt>
      <trkpt lat="43.51983" lon="3.48006">
        <ele>23.3</ele>
        <time>2019-01-10T08:33:41Z</time>
      </trkpt>
      <trkpt lat="43.51986" lon="3.4801">
        <ele>23.4</ele>
        <time>2019-01-10T08:33:44Z</time>
      </trkpt>
      <trkpt lat="43.5199" lon="3.48011">
        <ele>23.1</ele>
        <time>2019-01-10T08:33:46Z</time>
      </trkpt>
      <trkpt lat="43.51993" lon="3.48013">
        <ele>22.9</ele>
        <time>2019-01-10T08:33:48Z</time>
      </trkpt>
      <trkpt lat="43.51996" lon="3.48017">
        <ele>23</ele>
        <time>2019-01-10T08:33:51Z</time>
      </trkpt>
      <trkpt lat="43.51996" lon="3.48021">
        <ele>23.1</ele>
        <time>2019-01-10T08:33:53Z</time>
      </trkpt>
      <trkpt lat="43.51996" lon="3.48025">
        <ele>23.1</ele>
        <time>2019-01-10T08:33:55Z</time>
      </trkpt>
      <trkpt lat="43.51997" lon="3.4803">
        <ele>23.2</ele>
        <time>2019-01-10T08:33:57Z</time>
      </trkpt>
      <trkpt lat="43.51998" lon="3.48034">
        <ele>23.2</ele>
        <time>2019-01-10T08:33:59Z</time>
      </trkpt>
      <trkpt lat="43.51997" lon="3.4804">
        <ele>23.4</ele>
        <time>2019-01-10T08:34:01Z</time>
      </trkpt>
      <trkpt lat="43.51996" lon="3.48043">
        <ele>23.5</ele>
        <time>2019-01-10T08:34:03Z</time>
      </trkpt>
      <trkpt lat="43.51994" lon="3.48046">
        <ele>23.6</ele>
        <time>2019-01-10T08:34:05Z</time>
      </trkpt>
      <trkpt lat="43.51992" lon="3.4805">
        <ele>23.9</ele>
        <time>2019-01-10T08:34:08Z</time>
      </trkpt>
      <trkpt lat="43.51991" lon="3.48054">
        <ele>24</ele>
        <time>2019-01-10T08:34:10Z</time>
      </trkpt>
      <trkpt lat="43.5199" lon="3.48057">
        <ele>24.2</ele>
        <time>2019-01-10T08:34:12Z</time>
      </trkpt>
      <trkpt lat="43.51989" lon="3.48062">
        <ele>24.6</ele>
        <time>2019-01-10T08:34:14Z</time>
      </trkpt>
      <trkpt lat="43.51989" lon="3.48067">
        <ele>24.7</ele>
        <time>2019-01-10T08:34:16Z</time>
      </trkpt>
      <trkpt lat="43.51989" lon="3.48071">
        <ele>24.9</ele>
        <time>2019-01-10T08:34:18Z</time>
      </trkpt>
      <trkpt lat="43.51989" lon="3.48075">
        <ele>25</ele>
        <time>2019-01-10T08:34:20Z</time>
      </trkpt>
      <trkpt lat="43.5199" lon="3.4808">
        <ele>24.8</ele>
        <time>2019-01-10T08:34:22Z</time>
      </trkpt>
      <trkpt lat="43.51989" lon="3.48083">
        <ele>25.2</ele>
        <time>2019-01-10T08:34:24Z</time>
      </trkpt>
      <trkpt lat="43.51989" lon="3.48087">
        <ele>25.3</ele>
        <time>2019-01-10T08:34:27Z</time>
      </trkpt>
      <trkpt lat="43.51988" lon="3.48092">
        <ele>25.3</ele>
        <time>2019-01-10T08:34:30Z</time>
      </trkpt>
      <trkpt lat="43.51987" lon="3.48097">
        <ele>25.3</ele>
        <time>2019-01-10T08:34:33Z</time>
      </trkpt>
      <trkpt lat="43.51986" lon="3.48102">
        <ele>25.7</ele>
        <time>2019-01-10T08:34:36Z</time>
      </trkpt>
      <trkpt lat="43.51985" lon="3.48107">
        <ele>25.8</ele>
        <time>2019-01-10T08:34:39Z</time>
      </trkpt>
      <trkpt lat="43.51984" lon="3.48111">
        <ele>25.8</ele>
        <time>2019-01-10T08:34:41Z</time>
      </trkpt>
      <trkpt lat="43.51982" lon="3.48115">
        <ele>26.2</ele>
        <time>2019-01-10T08:34:43Z</time>
      </trkpt>
      <trkpt lat="43.51981" lon="3.48119">
        <ele>26.2</ele>
        <time>2019-01-10T08:34:45Z</time>
      </trkpt>
      <trkpt lat="43.5198" lon="3.48122">
        <ele>26.7</ele>
        <time>2019-01-10T08:34:47Z</time>
      </trkpt>
      <trkpt lat="43.51977" lon="3.48126">
        <ele>27.2</ele>
        <time>2019-01-10T08:34:50Z</time>
      </trkpt>
      <trkpt lat="43.51974" lon="3.48129">
        <ele>27.2</ele>
        <time>2019-01-10T08:34:52Z</time>
      </trkpt>
      <trkpt lat="43.51973" lon="3.48133">
        <ele>27.7</ele>
        <time>2019-01-10T08:34:55Z</time>
      </trkpt>
      <trkpt lat="43.51971" lon="3.48137">
        <ele>27.8</ele>
        <time>2019-01-10T08:34:57Z</time>
      </trkpt>
      <trkpt lat="43.5197" lon="3.48141">
        <ele>28.3</ele>
        <time>2019-01-10T08:35:00Z</time>
      </trkpt>
      <trkpt lat="43.51968" lon="3.48146">
        <ele>28.3</ele>
        <time>2019-01-10T08:35:03Z</time>
      </trkpt>
      <trkpt lat="43.51966" lon="3.48149">
        <ele>28.9</ele>
        <time>2019-01-10T08:35:05Z</time>
      </trkpt>
      <trkpt lat="43.51965" lon="3.48153">
        <ele>28.9</ele>
        <time>2019-01-10T08:35:07Z</time>
      </trkpt>
      <trkpt lat="43.51962" lon="3.48157">
        <ele>29.4</ele>
        <time>2019-01-10T08:35:10Z</time>
      </trkpt>
      <trkpt lat="43.5196" lon="3.4816">
        <ele>30</ele>
        <time>2019-01-10T08:35:13Z</time>
      </trkpt>
      <trkpt lat="43.51958" lon="3.48163">
        <ele>30.4</ele>
        <time>2019-01-10T08:35:16Z</time>
      </trkpt>
      <trkpt lat="43.51955" lon="3.48165">
        <ele>30.9</ele>
        <time>2019-01-10T08:35:19Z</time>
      </trkpt>
      <trkpt lat="43.51952" lon="3.48169">
        <ele>31.3</ele>
        <time>2019-01-10T08:35:22Z</time>
      </trkpt>
      <trkpt lat="43.5195" lon="3.48171">
        <ele>31.3</ele>
        <time>2019-01-10T08:35:24Z</time>
      </trkpt>
      <trkpt lat="43.51948" lon="3.48174">
        <ele>31.7</ele>
        <time>2019-01-10T08:35:26Z</time>
      </trkpt>
      <trkpt lat="43.51946" lon="3.48177">
        <ele>31.7</ele>
        <time>2019-01-10T08:35:28Z</time>
      </trkpt>
      <trkpt lat="43.51944" lon="3.4818">
        <ele>32.2</ele>
        <time>2019-01-10T08:35:30Z</time>
      </trkpt>
      <trkpt lat="43.51942" lon="3.48184">
        <ele>32.6</ele>
        <time>2019-01-10T08:35:33Z</time>
      </trkpt>
      <trkpt lat="43.51941" lon="3.48187">
        <ele>32.5</ele>
        <time>2019-01-10T08:35:35Z</time>
      </trkpt>
      <trkpt lat="43.5194" lon="3.48191">
        <ele>32.4</ele>
        <time>2019-01-10T08:35:37Z</time>
      </trkpt>
      <trkpt lat="43.51939" lon="3.48196">
        <ele>32.8</ele>
        <time>2019-01-10T08:35:40Z</time>
      </trkpt>
      <trkpt lat="43.51939" lon="3.482">
        <ele>32.7</ele>
        <time>2019-01-10T08:35:42Z</time>
      </trkpt>
      <trkpt lat="43.5194" lon="3.48205">
        <ele>32.2</ele>
        <time>2019-01-10T08:35:45Z</time>
      </trkpt>
      <trkpt lat="43.5194" lon="3.4821">
        <ele>32.1</ele>
        <time>2019-01-10T08:35:47Z</time>
      </trkpt>
      <trkpt lat="43.51939" lon="3.48214">
        <ele>32.5</ele>
        <time>2019-01-10T08:35:50Z</time>
      </trkpt>
      <trkpt lat="43.51938" lon="3.48219">
        <ele>32.5</ele>
        <time>2019-01-10T08:35:53Z</time>
      </trkpt>
      <trkpt lat="43.51936" lon="3.48223">
        <ele>32.9</ele>
        <time>2019-01-10T08:35:55Z</time>
      </trkpt>
      <trkpt lat="43.51933" lon="3.48226">
        <ele>33.3</ele>
        <time>2019-01-10T08:35:58Z</time>
      </trkpt>
      <trkpt lat="43.5193" lon="3.48226">
        <ele>33.7</ele>
        <time>2019-01-10T08:36:01Z</time>
      </trkpt>
      <trkpt lat="43.51927" lon="3.48228">
        <ele>34.1</ele>
        <time>2019-01-10T08:36:05Z</time>
      </trkpt>
      <trkpt lat="43.51924" lon="3.48229">
        <ele>34.5</ele>
        <time>2019-01-10T08:36:07Z</time>
      </trkpt>
      <trkpt lat="43.51921" lon="3.4823">
        <ele>34.9</ele>
        <time>2019-01-10T08:36:10Z</time>
      </trkpt>
      <trkpt lat="43.51918" lon="3.48233">
        <ele>35.4</ele>
        <time>2019-01-10T08:36:14Z</time>
      </trkpt>
      <trkpt lat="43.51916" lon="3.48238">
        <ele>35.4</ele>
        <time>2019-01-10T08:36:17Z</time>
      </trkpt>
      <trkpt lat="43.51916" lon="3.48243">
        <ele>35.3</ele>
        <time>2019-01-10T08:36:20Z</time>
      </trkpt>
      <trkpt lat="43.51917" lon="3.48248">
        <ele>35.3</ele>
        <time>2019-01-10T08:36:22Z</time>
      </trkpt>
      <trkpt lat="43.51917" lon="3.48252">
        <ele>35.4</ele>
        <time>2019-01-10T08:36:25Z</time>
      </trkpt>
      <trkpt lat="43.51919" lon="3.48256">
        <ele>34.9</ele>
        <time>2019-01-10T08:36:28Z</time>
      </trkpt>
      <trkpt lat="43.51919" lon="3.48261">
        <ele>34.9</ele>
        <time>2019-01-10T08:36:30Z</time>
      </trkpt>
      <trkpt lat="43.51919" lon="3.48266">
        <ele>34.9</ele>
        <time>2019-01-10T08:36:33Z</time>
      </trkpt>
      <trkpt lat="43.5192" lon="3.4827">
        <ele>34.9</ele>
        <time>2019-01-10T08:36:36Z</time>
      </trkpt>
      <trkpt lat="43.5192" lon="3.48274">
        <ele>34.9</ele>
        <time>2019-01-10T08:36:38Z</time>
      </trkpt>
      <trkpt lat="43.51921" lon="3.48277">
        <ele>34.5</ele>
        <time>2019-01-10T08:36:40Z</time>
      </trkpt>
      <trkpt lat="43.51922" lon="3.48282">
        <ele>34.5</ele>
        <time>2019-01-10T08:36:43Z</time>
      </trkpt>
      <trkpt lat="43.51924" lon="3.48287">
        <ele>34.5</ele>
        <time>2019-01-10T08:36:46Z</time>
      </trkpt>
      <trkpt lat="43.51924" lon="3.4829">
        <ele>34</ele>
        <time>2019-01-10T08:36:48Z</time>
      </trkpt>
      <trkpt lat="43.51925" lon="3.48295">
        <ele>34.1</ele>
        <time>2019-01-10T08:36:51Z</time>
      </trkpt>
      <trkpt lat="43.51925" lon="3.483">
        <ele>34.1</ele>
        <time>2019-01-10T08:36:54Z</time>
      </trkpt>
      <trkpt lat="43.51927" lon="3.48304">
        <ele>34.1</ele>
        <time>2019-01-10T08:36:57Z</time>
      </trkpt>
      <trkpt lat="43.51929" lon="3.48306">
        <ele>33.8</ele>
        <time>2019-01-10T08:36:59Z</time>
      </trkpt>
      <trkpt lat="43.51932" lon="3.48309">
        <ele>33.4</ele>
        <time>2019-01-10T08:37:02Z</time>
      </trkpt>
      <trkpt lat="43.51936" lon="3.4831">
        <ele>33.2</ele>
        <time>2019-01-10T08:37:05Z</time>
      </trkpt>
      <trkpt lat="43.51939" lon="3.48311">
        <ele>32.8</ele>
        <time>2019-01-10T08:37:10Z</time>
      </trkpt>
      <trkpt lat="43.51942" lon="3.48313">
        <ele>32.4</ele>
        <time>2019-01-10T08:37:13Z</time>
      </trkpt>
      <trkpt lat="43.51943" lon="3.48316">
        <ele>32.2</ele>
        <time>2019-01-10T08:37:16Z</time>
      </trkpt>
      <trkpt lat="43.51946" lon="3.48318">
        <ele>32.3</ele>
        <time>2019-01-10T08:37:18Z</time>
      </trkpt>
      <trkpt lat="43.51948" lon="3.4832">
        <ele>32</ele>
        <time>2019-01-10T08:37:20Z</time>
      </trkpt>
      <trkpt lat="43.51952" lon="3.48322">
        <ele>31.8</ele>
        <time>2019-01-10T08:37:23Z</time>
      </trkpt>
      <trkpt lat="43.51956" lon="3.48323">
        <ele>31.2</ele>
        <time>2019-01-10T08:37:26Z</time>
      </trkpt>
      <trkpt lat="43.51959" lon="3.48323">
        <ele>30.9</ele>
        <time>2019-01-10T08:37:28Z</time>
      </trkpt>
      <trkpt lat="43.51962" lon="3.48323">
        <ele>30.6</ele>
        <time>2019-01-10T08:37:30Z</time>
      </trkpt>
      <trkpt lat="43.51966" lon="3.48323">
        <ele>30.2</ele>
        <time>2019-01-10T08:37:32Z</time>
      </trkpt>
      <trkpt lat="43.51969" lon="3.48323">
        <ele>29.8</ele>
        <time>2019-01-10T08:37:34Z</time>
      </trkpt>
      <trkpt lat="43.51972" lon="3.48323">
        <ele>29.5</ele>
        <time>2019-01-10T08:37:36Z</time>
      </trkpt>
      <trkpt lat="43.51975" lon="3.48323">
        <ele>29.1</ele>
        <time>2019-01-10T08:37:38Z</time>
      </trkpt>
      <trkpt lat="43.51978" lon="3.48323">
        <ele>28.7</ele>
        <time>2019-01-10T08:37:40Z</time>
      </trkpt>
      <trkpt lat="43.51981" lon="3.48323">
        <ele>28.4</ele>
        <time>2019-01-10T08:37:42Z</time>
      </trkpt>
      <trkpt lat="43.51983" lon="3.48324">
        <ele>28.1</ele>
        <time>2019-01-10T08:37:44Z</time>
      </trkpt>
      <trkpt lat="43.51987" lon="3.48325">
        <ele>27.8</ele>
        <time>2019-01-10T08:37:46Z</time>
      </trkpt>
      <trkpt lat="43.5199" lon="3.48326">
        <ele>27.5</ele>
        <time>2019-01-10T08:37:49Z</time>
      </trkpt>
      <trkpt lat="43.51994" lon="3.48327">
        <ele>27.4</ele>
        <time>2019-01-10T08:37:52Z</time>
      </trkpt>
      <trkpt lat="43.51997" lon="3.48328">
        <ele>27.1</ele>
        <time>2019-01-10T08:37:54Z</time>
      </trkpt>
      <trkpt lat="43.52" lon="3.48329">
        <ele>26.8</ele>
        <time>2019-01-10T08:37:56Z</time>
      </trkpt>
      <trkpt lat="43.52003" lon="3.48331">
        <ele>26.6</ele>
        <time>2019-01-10T08:38:00Z</time>
      </trkpt>
      <trkpt lat="43.52003" lon="3.48334">
        <ele>26.8</ele>
        <time>2019-01-10T08:38:02Z</time>
      </trkpt>
      <trkpt lat="43.52004" lon="3.48339">
        <ele>27</ele>
        <time>2019-01-10T08:38:04Z</time>
      </trkpt>
      <trkpt lat="43.52003" lon="3.48344">
        <ele>27.2</ele>
        <time>2019-01-10T08:38:06Z</time>
      </trkpt>
      <trkpt lat="43.52002" lon="3.48348">
        <ele>27.6</ele>
        <time>2019-01-10T08:38:08Z</time>
      </trkpt>
      <trkpt lat="43.52001" lon="3.48352">
        <ele>27.8</ele>
        <time>2019-01-10T08:38:10Z</time>
      </trkpt>
      <trkpt lat="43.52001" lon="3.48356">
        <ele>28</ele>
        <time>2019-01-10T08:38:12Z</time>
      </trkpt>
      <trkpt lat="43.52002" lon="3.48361">
        <ele>28.1</ele>
        <time>2019-01-10T08:38:15Z</time>
      </trkpt>
      <trkpt lat="43.52002" lon="3.48366">
        <ele>28.3</ele>
        <time>2019-01-10T08:38:17Z</time>
      </trkpt>
      <trkpt lat="43.52003" lon="3.4837">
        <ele>28.5</ele>
        <time>2019-01-10T08:38:19Z</time>
      </trkpt>
      <trkpt lat="43.52004" lon="3.48374">
        <ele>28.5</ele>
        <time>2019-01-10T08:38:21Z</time>
      </trkpt>
      <trkpt lat="43.52005" lon="3.48378">
        <ele>28.7</ele>
        <time>2019-01-10T08:38:23Z</time>
      </trkpt>
      <trkpt lat="43.52006" lon="3.48382">
        <ele>28.6</ele>
        <time>2019-01-10T08:38:25Z</time>
      </trkpt>
      <trkpt lat="43.52007" lon="3.48386">
        <ele>28.9</ele>
        <time>2019-01-10T08:38:27Z</time>
      </trkpt>
      <trkpt lat="43.52006" lon="3.48392">
        <ele>29.4</ele>
        <time>2019-01-10T08:38:29Z</time>
      </trkpt>
      <trkpt lat="43.52007" lon="3.48397">
        <ele>29.6</ele>
        <time>2019-01-10T08:38:32Z</time>
      </trkpt>
      <trkpt lat="43.52007" lon="3.48402">
        <ele>29.8</ele>
        <time>2019-01-10T08:38:35Z</time>
      </trkpt>
      <trkpt lat="43.52007" lon="3.48406">
        <ele>30.1</ele>
        <time>2019-01-10T08:38:37Z</time>
      </trkpt>
      <trkpt lat="43.52007" lon="3.48411">
        <ele>30.3</ele>
        <time>2019-01-10T08:38:39Z</time>
      </trkpt>
      <trkpt lat="43.52008" lon="3.48415">
        <ele>30.3</ele>
        <time>2019-01-10T08:38:41Z</time>
      </trkpt>
      <trkpt lat="43.52009" lon="3.48419">
        <ele>30.6</ele>
        <time>2019-01-10T08:38:43Z</time>
      </trkpt>
      <trkpt lat="43.5201" lon="3.48423">
        <ele>30.9</ele>
        <time>2019-01-10T08:38:45Z</time>
      </trkpt>
      <trkpt lat="43.52011" lon="3.48427">
        <ele>31.2</ele>
        <time>2019-01-10T08:38:47Z</time>
      </trkpt>
      <trkpt lat="43.52012" lon="3.48432">
        <ele>31.3</ele>
        <time>2019-01-10T08:38:50Z</time>
      </trkpt>
      <trkpt lat="43.52011" lon="3.48436">
        <ele>31.8</ele>
        <time>2019-01-10T08:38:53Z</time>
      </trkpt>
      <trkpt lat="43.5201" lon="3.48441">
        <ele>32.1</ele>
        <time>2019-01-10T08:38:55Z</time>
      </trkpt>
      <trkpt lat="43.5201" lon="3.48444">
        <ele>32.3</ele>
        <time>2019-01-10T08:38:57Z</time>
      </trkpt>
      <trkpt lat="43.52011" lon="3.48449">
        <ele>32.6</ele>
        <time>2019-01-10T08:38:59Z</time>
      </trkpt>
      <trkpt lat="43.52013" lon="3.48452">
        <ele>32.7</ele>
        <time>2019-01-10T08:39:02Z</time>
      </trkpt>
      <trkpt lat="43.52016" lon="3.48455">
        <ele>32.6</ele>
        <time>2019-01-10T08:39:05Z</time>
      </trkpt>
      <trkpt lat="43.52017" lon="3.48459">
        <ele>32.9</ele>
        <time>2019-01-10T08:39:07Z</time>
      </trkpt>
      <trkpt lat="43.52017" lon="3.48463">
        <ele>33.2</ele>
        <time>2019-01-10T08:39:09Z</time>
      </trkpt>
      <trkpt lat="43.52016" lon="3.48467">
        <ele>33.5</ele>
        <time>2019-01-10T08:39:11Z</time>
      </trkpt>
      <trkpt lat="43.52016" lon="3.48471">
        <ele>33.8</ele>
        <time>2019-01-10T08:39:13Z</time>
      </trkpt>
      <trkpt lat="43.52017" lon="3.48475">
        <ele>34.1</ele>
        <time>2019-01-10T08:39:15Z</time>
      </trkpt>
      <trkpt lat="43.5202" lon="3.48477">
        <ele>34.3</ele>
        <time>2019-01-10T08:39:18Z</time>
      </trkpt>
      <trkpt lat="43.52023" lon="3.48479">
        <ele>34.1</ele>
        <time>2019-01-10T08:39:21Z</time>
      </trkpt>
      <trkpt lat="43.52026" lon="3.48479">
        <ele>34</ele>
        <time>2019-01-10T08:39:23Z</time>
      </trkpt>
      <trkpt lat="43.52029" lon="3.48479">
        <ele>33.8</ele>
        <time>2019-01-10T08:39:25Z</time>
      </trkpt>
      <trkpt lat="43.52032" lon="3.48478">
        <ele>33.7</ele>
        <time>2019-01-10T08:39:28Z</time>
      </trkpt>
      <trkpt lat="43.52035" lon="3.48478">
        <ele>33.5</ele>
        <time>2019-01-10T08:39:31Z</time>
      </trkpt>
      <trkpt lat="43.52038" lon="3.48479">
        <ele>33.4</ele>
        <time>2019-01-10T08:39:34Z</time>
      </trkpt>
      <trkpt lat="43.52041" lon="3.48479">
        <ele>33.2</ele>
        <time>2019-01-10T08:39:36Z</time>
      </trkpt>
      <trkpt lat="43.52045" lon="3.4848">
        <ele>33.1</ele>
        <time>2019-01-10T08:39:38Z</time>
      </trkpt>
      <trkpt lat="43.52048" lon="3.48479">
        <ele>32.9</ele>
        <time>2019-01-10T08:39:40Z</time>
      </trkpt>
      <trkpt lat="43.52051" lon="3.48479">
        <ele>32.8</ele>
        <time>2019-01-10T08:39:42Z</time>
      </trkpt>
      <trkpt lat="43.52054" lon="3.4848">
        <ele>32.5</ele>
        <time>2019-01-10T08:39:44Z</time>
      </trkpt>
      <trkpt lat="43.52056" lon="3.48482">
        <ele>32.7</ele>
        <time>2019-01-10T08:39:46Z</time>
      </trkpt>
      <trkpt lat="43.52059" lon="3.48485">
        <ele>32.4</ele>
        <time>2019-01-10T08:39:48Z</time>
      </trkpt>
      <trkpt lat="43.52061" lon="3.48488">
        <ele>32.6</ele>
        <time>2019-01-10T08:39:50Z</time>
      </trkpt>
      <trkpt lat="43.52064" lon="3.48492">
        <ele>32.9</ele>
        <time>2019-01-10T08:39:53Z</time>
      </trkpt>
      <trkpt lat="43.52066" lon="3.48495">
        <ele>33</ele>
        <time>2019-01-10T08:39:56Z</time>
      </trkpt>
      <trkpt lat="43.52069" lon="3.48497">
        <ele>32.8</ele>
        <time>2019-01-10T08:39:58Z</time>
      </trkpt>
      <trkpt lat="43.52072" lon="3.48497">
        <ele>32.6</ele>
        <time>2019-01-10T08:40:00Z</time>
      </trkpt>
      <trkpt lat="43.52076" lon="3.48496">
        <ele>32.4</ele>
        <time>2019-01-10T08:40:03Z</time>
      </trkpt>
      <trkpt lat="43.52078" lon="3.48493">
        <ele>31.8</ele>
        <time>2019-01-10T08:40:06Z</time>
      </trkpt>
      <trkpt lat="43.52078" lon="3.48488">
        <ele>31.5</ele>
        <time>2019-01-10T08:40:09Z</time>
      </trkpt>
      <trkpt lat="43.52078" lon="3.48483">
        <ele>31.2</ele>
        <time>2019-01-10T08:40:12Z</time>
      </trkpt>
      <trkpt lat="43.5208" lon="3.48481">
        <ele>30.6</ele>
        <time>2019-01-10T08:40:14Z</time>
      </trkpt>
      <trkpt lat="43.52083" lon="3.48478">
        <ele>30.4</ele>
        <time>2019-01-10T08:40:17Z</time>
      </trkpt>
      <trkpt lat="43.52086" lon="3.48475">
        <ele>29.8</ele>
        <time>2019-01-10T08:40:21Z</time>
      </trkpt>
      <trkpt lat="43.52089" lon="3.48475">
        <ele>29.6</ele>
        <time>2019-01-10T08:40:24Z</time>
      </trkpt>
      <trkpt lat="43.52093" lon="3.48473">
        <ele>29.4</ele>
        <time>2019-01-10T08:40:27Z</time>
      </trkpt>
      <trkpt lat="43.52095" lon="3.48471">
        <ele>28.8</ele>
        <time>2019-01-10T08:40:30Z</time>
      </trkpt>
      <trkpt lat="43.52099" lon="3.48469">
        <ele>28.5</ele>
        <time>2019-01-10T08:40:33Z</time>
      </trkpt>
      <trkpt lat="43.52102" lon="3.48468">
        <ele>28</ele>
        <time>2019-01-10T08:40:37Z</time>
      </trkpt>
      <trkpt lat="43.52105" lon="3.48469">
        <ele>28</ele>
        <time>2019-01-10T08:40:40Z</time>
      </trkpt>
      <trkpt lat="43.52108" lon="3.48473">
        <ele>28.3</ele>
        <time>2019-01-10T08:40:44Z</time>
      </trkpt>
      <trkpt lat="43.5211" lon="3.48475">
        <ele>28</ele>
        <time>2019-01-10T08:40:48Z</time>
      </trkpt>
      <trkpt lat="43.52113" lon="3.48476">
        <ele>27.7</ele>
        <time>2019-01-10T08:40:51Z</time>
      </trkpt>
      <trkpt lat="43.52117" lon="3.48477">
        <ele>27.4</ele>
        <time>2019-01-10T08:40:54Z</time>
      </trkpt>
      <trkpt lat="43.52121" lon="3.48476">
        <ele>26.9</ele>
        <time>2019-01-10T08:40:56Z</time>
      </trkpt>
      <trkpt lat="43.52124" lon="3.48477">
        <ele>26.7</ele>
        <time>2019-01-10T08:40:58Z</time>
      </trkpt>
      <trkpt lat="43.52127" lon="3.48477">
        <ele>26.4</ele>
        <time>2019-01-10T08:41:00Z</time>
      </trkpt>
      <trkpt lat="43.52131" lon="3.48478">
        <ele>26.4</ele>
        <time>2019-01-10T08:41:02Z</time>
      </trkpt>
      <trkpt lat="43.52135" lon="3.48479">
        <ele>26.2</ele>
        <time>2019-01-10T08:41:04Z</time>
      </trkpt>
      <trkpt lat="43.52139" lon="3.48481">
        <ele>26</ele>
        <time>2019-01-10T08:41:06Z</time>
      </trkpt>
      <trkpt lat="43.52142" lon="3.48482">
        <ele>26</ele>
        <time>2019-01-10T08:41:08Z</time>
      </trkpt>
      <trkpt lat="43.52145" lon="3.48484">
        <ele>25.6</ele>
        <time>2019-01-10T08:41:10Z</time>
      </trkpt>
      <trkpt lat="43.52148" lon="3.48488">
        <ele>25.5</ele>
        <time>2019-01-10T08:41:12Z</time>
      </trkpt>
      <trkpt lat="43.5215" lon="3.48492">
        <ele>25.6</ele>
        <time>2019-01-10T08:41:14Z</time>
      </trkpt>
      <trkpt lat="43.52154" lon="3.48494">
        <ele>25.4</ele>
        <time>2019-01-10T08:41:16Z</time>
      </trkpt>
      <trkpt lat="43.52157" lon="3.48496">
        <ele>25.2</ele>
        <time>2019-01-10T08:41:18Z</time>
      </trkpt>
      <trkpt lat="43.52159" lon="3.48499">
        <ele>25.1</ele>
        <time>2019-01-10T08:41:20Z</time>
      </trkpt>
      <trkpt lat="43.52161" lon="3.48503">
        <ele>24.9</ele>
        <time>2019-01-10T08:41:22Z</time>
      </trkpt>
      <trkpt lat="43.52163" lon="3.48506">
        <ele>24.9</ele>
        <time>2019-01-10T08:41:24Z</time>
      </trkpt>
      <trkpt lat="43.52165" lon="3.4851">
        <ele>24.6</ele>
        <time>2019-01-10T08:41:26Z</time>
      </trkpt>
      <trkpt lat="43.52166" lon="3.48515">
        <ele>24.6</ele>
        <time>2019-01-10T08:41:28Z</time>
      </trkpt>
      <trkpt lat="43.52168" lon="3.48519">
        <ele>24.3</ele>
        <time>2019-01-10T08:41:30Z</time>
      </trkpt>
      <trkpt lat="43.5217" lon="3.48522">
        <ele>24.2</ele>
        <time>2019-01-10T08:41:32Z</time>
      </trkpt>
      <trkpt lat="43.52172" lon="3.48524">
        <ele>23.9</ele>
        <time>2019-01-10T08:41:34Z</time>
      </trkpt>
      <trkpt lat="43.52175" lon="3.48528">
        <ele>23.7</ele>
        <time>2019-01-10T08:41:36Z</time>
      </trkpt>
      <trkpt lat="43.52177" lon="3.48533">
        <ele>23.5</ele>
        <time>2019-01-10T08:41:38Z</time>
      </trkpt>
      <trkpt lat="43.52179" lon="3.48536">
        <ele>23.2</ele>
        <time>2019-01-10T08:41:41Z</time>
      </trkpt>
      <trkpt lat="43.52182" lon="3.48539">
        <ele>23.1</ele>
        <time>2019-01-10T08:41:43Z</time>
      </trkpt>
      <trkpt lat="43.52184" lon="3.48543">
        <ele>22.8</ele>
        <time>2019-01-10T08:41:45Z</time>
      </trkpt>
      <trkpt lat="43.52186" lon="3.48546">
        <ele>22.6</ele>
        <time>2019-01-10T08:41:47Z</time>
      </trkpt>
      <trkpt lat="43.52187" lon="3.4855">
        <ele>22.5</ele>
        <time>2019-01-10T08:41:49Z</time>
      </trkpt>
      <trkpt lat="43.52189" lon="3.48554">
        <ele>22.4</ele>
        <time>2019-01-10T08:41:51Z</time>
      </trkpt>
      <trkpt lat="43.5219" lon="3.48557">
        <ele>22.2</ele>
        <time>2019-01-10T08:41:53Z</time>
      </trkpt>
      <trkpt lat="43.52192" lon="3.48562">
        <ele>21.9</ele>
        <time>2019-01-10T08:41:56Z</time>
      </trkpt>
      <trkpt lat="43.52193" lon="3.48567">
        <ele>21.8</ele>
        <time>2019-01-10T08:41:58Z</time>
      </trkpt>
      <trkpt lat="43.52195" lon="3.4857">
        <ele>21.7</ele>
        <time>2019-01-10T08:42:00Z</time>
      </trkpt>
      <trkpt lat="43.52196" lon="3.48575">
        <ele>21.6</ele>
        <time>2019-01-10T08:42:03Z</time>
      </trkpt>
      <trkpt lat="43.52199" lon="3.48578">
        <ele>21.5</ele>
        <time>2019-01-10T08:42:06Z</time>
      </trkpt>
      <trkpt lat="43.522" lon="3.48583">
        <ele>21.5</ele>
        <time>2019-01-10T08:42:09Z</time>
      </trkpt>
      <trkpt lat="43.52201" lon="3.48588">
        <ele>21.5</ele>
        <time>2019-01-10T08:42:12Z</time>
      </trkpt>
      <trkpt lat="43.52202" lon="3.48592">
        <ele>21.6</ele>
        <time>2019-01-10T08:42:14Z</time>
      </trkpt>
      <trkpt lat="43.52202" lon="3.48596">
        <ele>21.7</ele>
        <time>2019-01-10T08:42:17Z</time>
      </trkpt>
      <trkpt lat="43.52203" lon="3.486">
        <ele>21.8</ele>
        <time>2019-01-10T08:42:20Z</time>
      </trkpt>
      <trkpt lat="43.52204" lon="3.48604">
        <ele>21.9</ele>
        <time>2019-01-10T08:42:23Z</time>
      </trkpt>
      <trkpt lat="43.52207" lon="3.48609">
        <ele>22</ele>
        <time>2019-01-10T08:42:26Z</time>
      </trkpt>
      <trkpt lat="43.52208" lon="3.48613">
        <ele>22.1</ele>
        <time>2019-01-10T08:42:29Z</time>
      </trkpt>
      <trkpt lat="43.5221" lon="3.48618">
        <ele>22.2</ele>
        <time>2019-01-10T08:42:31Z</time>
      </trkpt>
      <trkpt lat="43.5221" lon="3.48622">
        <ele>22.2</ele>
        <time>2019-01-10T08:42:33Z</time>
      </trkpt>
      <trkpt lat="43.52211" lon="3.48626">
        <ele>22.2</ele>
        <time>2019-01-10T08:42:35Z</time>
      </trkpt>
      <trkpt lat="43.52212" lon="3.48631">
        <ele>22.2</ele>
        <time>2019-01-10T08:42:37Z</time>
      </trkpt>
      <trkpt lat="43.52213" lon="3.48636">
        <ele>22.2</ele>
        <time>2019-01-10T08:42:40Z</time>
      </trkpt>
      <trkpt lat="43.52214" lon="3.4864">
        <ele>22.1</ele>
        <time>2019-01-10T08:42:42Z</time>
      </trkpt>
      <trkpt lat="43.52216" lon="3.48645">
        <ele>22.1</ele>
        <time>2019-01-10T08:42:45Z</time>
      </trkpt>
      <trkpt lat="43.52217" lon="3.48649">
        <ele>22</ele>
        <time>2019-01-10T08:42:47Z</time>
      </trkpt>
      <trkpt lat="43.52218" lon="3.48653">
        <ele>22</ele>
        <time>2019-01-10T08:42:49Z</time>
      </trkpt>
      <trkpt lat="43.52218" lon="3.48657">
        <ele>22</ele>
        <time>2019-01-10T08:42:51Z</time>
      </trkpt>
      <trkpt lat="43.52218" lon="3.48661">
        <ele>22</ele>
        <time>2019-01-10T08:42:53Z</time>
      </trkpt>
      <trkpt lat="43.52218" lon="3.48665">
        <ele>22.1</ele>
        <time>2019-01-10T08:42:55Z</time>
      </trkpt>
      <trkpt lat="43.52218" lon="3.4867">
        <ele>22.3</ele>
        <time>2019-01-10T08:42:57Z</time>
      </trkpt>
      <trkpt lat="43.52219" lon="3.48674">
        <ele>22.5</ele>
        <time>2019-01-10T08:42:59Z</time>
      </trkpt>
      <trkpt lat="43.52221" lon="3.48678">
        <ele>22.6</ele>
        <time>2019-01-10T08:43:02Z</time>
      </trkpt>
      <trkpt lat="43.52222" lon="3.48681">
        <ele>22.9</ele>
        <time>2019-01-10T08:43:04Z</time>
      </trkpt>
      <trkpt lat="43.52223" lon="3.48685">
        <ele>23.1</ele>
        <time>2019-01-10T08:43:06Z</time>
      </trkpt>
      <trkpt lat="43.52225" lon="3.4869">
        <ele>23.5</ele>
        <time>2019-01-10T08:43:08Z</time>
      </trkpt>
      <trkpt lat="43.52227" lon="3.48695">
        <ele>23.8</ele>
        <time>2019-01-10T08:43:10Z</time>
      </trkpt>
      <trkpt lat="43.52228" lon="3.487">
        <ele>24.2</ele>
        <time>2019-01-10T08:43:12Z</time>
      </trkpt>
      <trkpt lat="43.52229" lon="3.48704">
        <ele>24.6</ele>
        <time>2019-01-10T08:43:15Z</time>
      </trkpt>
      <trkpt lat="43.52231" lon="3.48708">
        <ele>24.9</ele>
        <time>2019-01-10T08:43:18Z</time>
      </trkpt>
      <trkpt lat="43.5223" lon="3.48704">
        <ele>24.9</ele>
        <time>2019-01-10T08:43:22Z</time>
      </trkpt>
      <trkpt lat="43.52232" lon="3.48708">
        <ele>24.9</ele>
        <time>2019-01-10T08:43:29Z</time>
      </trkpt>
      <trkpt lat="43.52234" lon="3.48713">
        <ele>25.3</ele>
        <time>2019-01-10T08:43:31Z</time>
      </trkpt>
      <trkpt lat="43.52236" lon="3.48717">
        <ele>25.6</ele>
        <time>2019-01-10T08:43:33Z</time>
      </trkpt>
      <trkpt lat="43.52238" lon="3.48722">
        <ele>26.4</ele>
        <time>2019-01-10T08:43:35Z</time>
      </trkpt>
      <trkpt lat="43.52238" lon="3.48727">
        <ele>26.8</ele>
        <time>2019-01-10T08:43:37Z</time>
      </trkpt>
      <trkpt lat="43.5224" lon="3.48732">
        <ele>27.2</ele>
        <time>2019-01-10T08:43:40Z</time>
      </trkpt>
      <trkpt lat="43.5224" lon="3.48736">
        <ele>27.6</ele>
        <time>2019-01-10T08:43:42Z</time>
      </trkpt>
      <trkpt lat="43.5224" lon="3.48741">
        <ele>28.1</ele>
        <time>2019-01-10T08:43:45Z</time>
      </trkpt>
      <trkpt lat="43.52242" lon="3.48746">
        <ele>28.6</ele>
        <time>2019-01-10T08:43:48Z</time>
      </trkpt>
      <trkpt lat="43.52244" lon="3.48749">
        <ele>29</ele>
        <time>2019-01-10T08:43:50Z</time>
      </trkpt>
      <trkpt lat="43.52246" lon="3.48753">
        <ele>29.5</ele>
        <time>2019-01-10T08:43:52Z</time>
      </trkpt>
      <trkpt lat="43.52247" lon="3.48756">
        <ele>29.9</ele>
        <time>2019-01-10T08:43:54Z</time>
      </trkpt>
      <trkpt lat="43.52251" lon="3.48759">
        <ele>29.8</ele>
        <time>2019-01-10T08:43:57Z</time>
      </trkpt>
      <trkpt lat="43.52254" lon="3.48762">
        <ele>30.1</ele>
        <time>2019-01-10T08:43:59Z</time>
      </trkpt>
      <trkpt lat="43.52257" lon="3.48766">
        <ele>30.3</ele>
        <time>2019-01-10T08:44:02Z</time>
      </trkpt>
      <trkpt lat="43.52259" lon="3.48769">
        <ele>30.4</ele>
        <time>2019-01-10T08:44:04Z</time>
      </trkpt>
      <trkpt lat="43.52261" lon="3.48772">
        <ele>30.3</ele>
        <time>2019-01-10T08:44:06Z</time>
      </trkpt>
      <trkpt lat="43.52263" lon="3.48774">
        <ele>30.6</ele>
        <time>2019-01-10T08:44:08Z</time>
      </trkpt>
      <trkpt lat="43.52266" lon="3.48776">
        <ele>30.4</ele>
        <time>2019-01-10T08:44:10Z</time>
      </trkpt>
      <trkpt lat="43.52269" lon="3.4878">
        <ele>30.6</ele>
        <time>2019-01-10T08:44:13Z</time>
      </trkpt>
      <trkpt lat="43.52271" lon="3.48782">
        <ele>30.8</ele>
        <time>2019-01-10T08:44:15Z</time>
      </trkpt>
      <trkpt lat="43.52275" lon="3.48784">
        <ele>30.6</ele>
        <time>2019-01-10T08:44:18Z</time>
      </trkpt>
      <trkpt lat="43.52277" lon="3.48786">
        <ele>30.8</ele>
        <time>2019-01-10T08:44:20Z</time>
      </trkpt>
      <trkpt lat="43.5228" lon="3.48789">
        <ele>30.6</ele>
        <time>2019-01-10T08:44:22Z</time>
      </trkpt>
      <trkpt lat="43.52282" lon="3.48792">
        <ele>30.7</ele>
        <time>2019-01-10T08:44:24Z</time>
      </trkpt>
      <trkpt lat="43.52284" lon="3.48794">
        <ele>30.7</ele>
        <time>2019-01-10T08:44:26Z</time>
      </trkpt>
      <trkpt lat="43.52287" lon="3.48796">
        <ele>30.8</ele>
        <time>2019-01-10T08:44:28Z</time>
      </trkpt>
      <trkpt lat="43.5229" lon="3.48799">
        <ele>30.7</ele>
        <time>2019-01-10T08:44:30Z</time>
      </trkpt>
      <trkpt lat="43.52292" lon="3.48801">
        <ele>30.8</ele>
        <time>2019-01-10T08:44:32Z</time>
      </trkpt>
      <trkpt lat="43.52294" lon="3.48805">
        <ele>31.1</ele>
        <time>2019-01-10T08:44:35Z</time>
      </trkpt>
      <trkpt lat="43.52297" lon="3.48806">
        <ele>31</ele>
        <time>2019-01-10T08:44:38Z</time>
      </trkpt>
      <trkpt lat="43.52297" lon="3.4881">
        <ele>31.2</ele>
        <time>2019-01-10T08:44:42Z</time>
      </trkpt>
      <trkpt lat="43.52293" lon="3.48811">
        <ele>31.3</ele>
        <time>2019-01-10T08:44:45Z</time>
      </trkpt>
      <trkpt lat="43.5229" lon="3.48811">
        <ele>31.5</ele>
        <time>2019-01-10T08:44:47Z</time>
      </trkpt>
      <trkpt lat="43.52286" lon="3.48811">
        <ele>31.6</ele>
        <time>2019-01-10T08:44:50Z</time>
      </trkpt>
      <trkpt lat="43.52283" lon="3.4881">
        <ele>31.8</ele>
        <time>2019-01-10T08:44:53Z</time>
      </trkpt>
      <trkpt lat="43.52286" lon="3.48811">
        <ele>31.6</ele>
        <time>2019-01-10T08:44:58Z</time>
      </trkpt>
      <trkpt lat="43.52289" lon="3.4881">
        <ele>31.4</ele>
        <time>2019-01-10T08:45:00Z</time>
      </trkpt>
      <trkpt lat="43.52291" lon="3.48809">
        <ele>31.4</ele>
        <time>2019-01-10T08:45:02Z</time>
      </trkpt>
      <trkpt lat="43.52295" lon="3.48809">
        <ele>31.2</ele>
        <time>2019-01-10T08:45:05Z</time>
      </trkpt>
      <trkpt lat="43.52298" lon="3.4881">
        <ele>31.1</ele>
        <time>2019-01-10T08:45:07Z</time>
      </trkpt>
      <trkpt lat="43.52301" lon="3.48811">
        <ele>31</ele>
        <time>2019-01-10T08:45:09Z</time>
      </trkpt>
      <trkpt lat="43.52304" lon="3.48814">
        <ele>31.1</ele>
        <time>2019-01-10T08:45:12Z</time>
      </trkpt>
      <trkpt lat="43.52307" lon="3.48816">
        <ele>31.1</ele>
        <time>2019-01-10T08:45:14Z</time>
      </trkpt>
      <trkpt lat="43.5231" lon="3.48818">
        <ele>31.3</ele>
        <time>2019-01-10T08:45:16Z</time>
      </trkpt>
      <trkpt lat="43.52313" lon="3.48819">
        <ele>31.2</ele>
        <time>2019-01-10T08:45:18Z</time>
      </trkpt>
      <trkpt lat="43.52316" lon="3.4882">
        <ele>31.2</ele>
        <time>2019-01-10T08:45:20Z</time>
      </trkpt>
      <trkpt lat="43.52319" lon="3.48821">
        <ele>31.5</ele>
        <time>2019-01-10T08:45:22Z</time>
      </trkpt>
      <trkpt lat="43.52323" lon="3.48822">
        <ele>31.5</ele>
        <time>2019-01-10T08:45:25Z</time>
      </trkpt>
      <trkpt lat="43.52327" lon="3.48824">
        <ele>31.5</ele>
        <time>2019-01-10T08:45:28Z</time>
      </trkpt>
      <trkpt lat="43.52329" lon="3.48825">
        <ele>31.8</ele>
        <time>2019-01-10T08:45:30Z</time>
      </trkpt>
      <trkpt lat="43.52333" lon="3.48826">
        <ele>31.8</ele>
        <time>2019-01-10T08:45:32Z</time>
      </trkpt>
      <trkpt lat="43.52336" lon="3.48827">
        <ele>31.8</ele>
        <time>2019-01-10T08:45:34Z</time>
      </trkpt>
      <trkpt lat="43.52339" lon="3.48827">
        <ele>31.8</ele>
        <time>2019-01-10T08:45:36Z</time>
      </trkpt>
      <trkpt lat="43.52341" lon="3.48828">
        <ele>31.8</ele>
        <time>2019-01-10T08:45:38Z</time>
      </trkpt>
      <trkpt lat="43.52345" lon="3.48829">
        <ele>32.2</ele>
        <time>2019-01-10T08:45:41Z</time>
      </trkpt>
      <trkpt lat="43.52349" lon="3.48829">
        <ele>32.2</ele>
        <time>2019-01-10T08:45:44Z</time>
      </trkpt>
      <trkpt lat="43.52353" lon="3.48829">
        <ele>32.2</ele>
        <time>2019-01-10T08:45:47Z</time>
      </trkpt>
      <trkpt lat="43.52356" lon="3.4883">
        <ele>32.1</ele>
        <time>2019-01-10T08:45:50Z</time>
      </trkpt>
      <trkpt lat="43.52359" lon="3.48829">
        <ele>32.1</ele>
        <time>2019-01-10T08:45:53Z</time>
      </trkpt>
      <trkpt lat="43.52362" lon="3.48832">
        <ele>32.5</ele>
        <time>2019-01-10T08:45:56Z</time>
      </trkpt>
      <trkpt lat="43.52364" lon="3.48835">
        <ele>32.9</ele>
        <time>2019-01-10T08:45:59Z</time>
      </trkpt>
      <trkpt lat="43.52364" lon="3.48831">
        <ele>33.3</ele>
        <time>2019-01-10T08:46:03Z</time>
      </trkpt>
      <trkpt lat="43.52363" lon="3.48827">
        <ele>33.6</ele>
        <time>2019-01-10T08:46:06Z</time>
      </trkpt>
      <trkpt lat="43.5236" lon="3.4883">
        <ele>34</ele>
        <time>2019-01-10T08:46:09Z</time>
      </trkpt>
      <trkpt lat="43.5236" lon="3.48834">
        <ele>34.3</ele>
        <time>2019-01-10T08:46:11Z</time>
      </trkpt>
      <trkpt lat="43.52359" lon="3.48838">
        <ele>34.6</ele>
        <time>2019-01-10T08:46:13Z</time>
      </trkpt>
      <trkpt lat="43.52359" lon="3.48843">
        <ele>34.9</ele>
        <time>2019-01-10T08:46:16Z</time>
      </trkpt>
      <trkpt lat="43.52358" lon="3.48848">
        <ele>35.1</ele>
        <time>2019-01-10T08:46:19Z</time>
      </trkpt>
      <trkpt lat="43.52357" lon="3.48852">
        <ele>35.3</ele>
        <time>2019-01-10T08:46:22Z</time>
      </trkpt>
      <trkpt lat="43.52357" lon="3.48856">
        <ele>35.4</ele>
        <time>2019-01-10T08:46:24Z</time>
      </trkpt>
      <trkpt lat="43.52356" lon="3.4886">
        <ele>35.7</ele>
        <time>2019-01-10T08:46:27Z</time>
      </trkpt>
      <trkpt lat="43.52356" lon="3.48865">
        <ele>36</ele>
        <time>2019-01-10T08:46:30Z</time>
      </trkpt>
      <trkpt lat="43.52356" lon="3.4887">
        <ele>36.3</ele>
        <time>2019-01-10T08:46:32Z</time>
      </trkpt>
      <trkpt lat="43.52355" lon="3.48874">
        <ele>36.6</ele>
        <time>2019-01-10T08:46:34Z</time>
      </trkpt>
      <trkpt lat="43.52355" lon="3.48879">
        <ele>36.9</ele>
        <time>2019-01-10T08:46:37Z</time>
      </trkpt>
      <trkpt lat="43.52355" lon="3.48883">
        <ele>37.1</ele>
        <time>2019-01-10T08:46:39Z</time>
      </trkpt>
      <trkpt lat="43.52354" lon="3.48887">
        <ele>37.5</ele>
        <time>2019-01-10T08:46:41Z</time>
      </trkpt>
      <trkpt lat="43.52353" lon="3.48892">
        <ele>37.8</ele>
        <time>2019-01-10T08:46:43Z</time>
      </trkpt>
      <trkpt lat="43.52352" lon="3.48896">
        <ele>38.1</ele>
        <time>2019-01-10T08:46:45Z</time>
      </trkpt>
      <trkpt lat="43.52351" lon="3.489">
        <ele>38.3</ele>
        <time>2019-01-10T08:46:47Z</time>
      </trkpt>
      <trkpt lat="43.5235" lon="3.48904">
        <ele>38.4</ele>
        <time>2019-01-10T08:46:49Z</time>
      </trkpt>
      <trkpt lat="43.52349" lon="3.48908">
        <ele>38.7</ele>
        <time>2019-01-10T08:46:51Z</time>
      </trkpt>
      <trkpt lat="43.52348" lon="3.48913">
        <ele>39</ele>
        <time>2019-01-10T08:46:53Z</time>
      </trkpt>
      <trkpt lat="43.52347" lon="3.48917">
        <ele>39.2</ele>
        <time>2019-01-10T08:46:55Z</time>
      </trkpt>
      <trkpt lat="43.52347" lon="3.48921">
        <ele>39.5</ele>
        <time>2019-01-10T08:46:57Z</time>
      </trkpt>
      <trkpt lat="43.52346" lon="3.48925">
        <ele>39.8</ele>
        <time>2019-01-10T08:46:59Z</time>
      </trkpt>
      <trkpt lat="43.52345" lon="3.4893">
        <ele>40.2</ele>
        <time>2019-01-10T08:47:02Z</time>
      </trkpt>
      <trkpt lat="43.52345" lon="3.48936">
        <ele>40.6</ele>
        <time>2019-01-10T08:47:05Z</time>
      </trkpt>
      <trkpt lat="43.52345" lon="3.48941">
        <ele>40.8</ele>
        <time>2019-01-10T08:47:07Z</time>
      </trkpt>
      <trkpt lat="43.52345" lon="3.48945">
        <ele>41.1</ele>
        <time>2019-01-10T08:47:09Z</time>
      </trkpt>
      <trkpt lat="43.52344" lon="3.4895">
        <ele>41.4</ele>
        <time>2019-01-10T08:47:12Z</time>
      </trkpt>
      <trkpt lat="43.52343" lon="3.48955">
        <ele>41.8</ele>
        <time>2019-01-10T08:47:15Z</time>
      </trkpt>
      <trkpt lat="43.52342" lon="3.48959">
        <ele>42</ele>
        <time>2019-01-10T08:47:17Z</time>
      </trkpt>
      <trkpt lat="43.52341" lon="3.48963">
        <ele>42.2</ele>
        <time>2019-01-10T08:47:19Z</time>
      </trkpt>
      <trkpt lat="43.52341" lon="3.48967">
        <ele>42.3</ele>
        <time>2019-01-10T08:47:22Z</time>
      </trkpt>
      <trkpt lat="43.52339" lon="3.48972">
        <ele>42.5</ele>
        <time>2019-01-10T08:47:25Z</time>
      </trkpt>
      <trkpt lat="43.52339" lon="3.48978">
        <ele>42.8</ele>
        <time>2019-01-10T08:47:28Z</time>
      </trkpt>
      <trkpt lat="43.52339" lon="3.48981">
        <ele>43</ele>
        <time>2019-01-10T08:47:30Z</time>
      </trkpt>
      <trkpt lat="43.52338" lon="3.48986">
        <ele>43.2</ele>
        <time>2019-01-10T08:47:32Z</time>
      </trkpt>
      <trkpt lat="43.52337" lon="3.48991">
        <ele>43.5</ele>
        <time>2019-01-10T08:47:35Z</time>
      </trkpt>
      <trkpt lat="43.52337" lon="3.48996">
        <ele>43.8</ele>
        <time>2019-01-10T08:47:38Z</time>
      </trkpt>
      <trkpt lat="43.52336" lon="3.49">
        <ele>44</ele>
        <time>2019-01-10T08:47:41Z</time>
      </trkpt>
      <trkpt lat="43.52336" lon="3.49004">
        <ele>44.2</ele>
        <time>2019-01-10T08:47:43Z</time>
      </trkpt>
      <trkpt lat="43.52335" lon="3.49009">
        <ele>44.4</ele>
        <time>2019-01-10T08:47:45Z</time>
      </trkpt>
      <trkpt lat="43.52334" lon="3.49012">
        <ele>44.6</ele>
        <time>2019-01-10T08:47:47Z</time>
      </trkpt>
      <trkpt lat="43.52333" lon="3.49018">
        <ele>44.7</ele>
        <time>2019-01-10T08:47:50Z</time>
      </trkpt>
      <trkpt lat="43.52331" lon="3.49021">
        <ele>44.9</ele>
        <time>2019-01-10T08:47:52Z</time>
      </trkpt>
      <trkpt lat="43.5233" lon="3.49026">
        <ele>45.1</ele>
        <time>2019-01-10T08:47:55Z</time>
      </trkpt>
      <trkpt lat="43.52329" lon="3.49031">
        <ele>45.3</ele>
        <time>2019-01-10T08:47:58Z</time>
      </trkpt>
      <trkpt lat="43.52329" lon="3.49035">
        <ele>45.5</ele>
        <time>2019-01-10T08:48:00Z</time>
      </trkpt>
      <trkpt lat="43.52329" lon="3.49039">
        <ele>45.7</ele>
        <time>2019-01-10T08:48:02Z</time>
      </trkpt>
      <trkpt lat="43.52328" lon="3.49043">
        <ele>45.9</ele>
        <time>2019-01-10T08:48:04Z</time>
      </trkpt>
      <trkpt lat="43.52328" lon="3.49046">
        <ele>46.1</ele>
        <time>2019-01-10T08:48:06Z</time>
      </trkpt>
      <trkpt lat="43.52327" lon="3.49051">
        <ele>46.4</ele>
        <time>2019-01-10T08:48:09Z</time>
      </trkpt>
      <trkpt lat="43.52326" lon="3.49055">
        <ele>46.6</ele>
        <time>2019-01-10T08:48:11Z</time>
      </trkpt>
      <trkpt lat="43.52326" lon="3.49059">
        <ele>46.8</ele>
        <time>2019-01-10T08:48:13Z</time>
      </trkpt>
      <trkpt lat="43.52325" lon="3.49064">
        <ele>47</ele>
        <time>2019-01-10T08:48:16Z</time>
      </trkpt>
      <trkpt lat="43.52325" lon="3.49069">
        <ele>47.2</ele>
        <time>2019-01-10T08:48:19Z</time>
      </trkpt>
      <trkpt lat="43.52324" lon="3.49073">
        <ele>47.4</ele>
        <time>2019-01-10T08:48:22Z</time>
      </trkpt>
      <trkpt lat="43.52324" lon="3.49077">
        <ele>47.7</ele>
        <time>2019-01-10T08:48:25Z</time>
      </trkpt>
      <trkpt lat="43.52323" lon="3.49081">
        <ele>48</ele>
        <time>2019-01-10T08:48:27Z</time>
      </trkpt>
      <trkpt lat="43.52322" lon="3.49086">
        <ele>48.3</ele>
        <time>2019-01-10T08:48:29Z</time>
      </trkpt>
      <trkpt lat="43.5232" lon="3.49089">
        <ele>48.6</ele>
        <time>2019-01-10T08:48:32Z</time>
      </trkpt>
      <trkpt lat="43.52319" lon="3.49092">
        <ele>48.8</ele>
        <time>2019-01-10T08:48:35Z</time>
      </trkpt>
      <trkpt lat="43.52319" lon="3.49097">
        <ele>49.2</ele>
        <time>2019-01-10T08:48:38Z</time>
      </trkpt>
      <trkpt lat="43.52319" lon="3.49103">
        <ele>49.5</ele>
        <time>2019-01-10T08:48:41Z</time>
      </trkpt>
      <trkpt lat="43.52318" lon="3.49107">
        <ele>49.8</ele>
        <time>2019-01-10T08:48:43Z</time>
      </trkpt>
      <trkpt lat="43.52317" lon="3.49112">
        <ele>50.1</ele>
        <time>2019-01-10T08:48:45Z</time>
      </trkpt>
      <trkpt lat="43.52317" lon="3.49116">
        <ele>50.3</ele>
        <time>2019-01-10T08:48:47Z</time>
      </trkpt>
      <trkpt lat="43.52316" lon="3.4912">
        <ele>50.5</ele>
        <time>2019-01-10T08:48:49Z</time>
      </trkpt>
      <trkpt lat="43.52315" lon="3.49126">
        <ele>50.7</ele>
        <time>2019-01-10T08:48:52Z</time>
      </trkpt>
      <trkpt lat="43.52315" lon="3.4913">
        <ele>50.8</ele>
        <time>2019-01-10T08:48:54Z</time>
      </trkpt>
      <trkpt lat="43.52314" lon="3.49135">
        <ele>51.1</ele>
        <time>2019-01-10T08:48:57Z</time>
      </trkpt>
      <trkpt lat="43.52313" lon="3.4914">
        <ele>51.3</ele>
        <time>2019-01-10T08:49:00Z</time>
      </trkpt>
      <trkpt lat="43.52313" lon="3.49145">
        <ele>51.5</ele>
        <time>2019-01-10T08:49:02Z</time>
      </trkpt>
      <trkpt lat="43.52312" lon="3.49149">
        <ele>51.7</ele>
        <time>2019-01-10T08:49:04Z</time>
      </trkpt>
      <trkpt lat="43.52312" lon="3.49153">
        <ele>51.8</ele>
        <time>2019-01-10T08:49:06Z</time>
      </trkpt>
      <trkpt lat="43.5231" lon="3.49157">
        <ele>52</ele>
        <time>2019-01-10T08:49:08Z</time>
      </trkpt>
      <trkpt lat="43.52309" lon="3.4916">
        <ele>52.2</ele>
        <time>2019-01-10T08:49:10Z</time>
      </trkpt>
      <trkpt lat="43.52309" lon="3.49164">
        <ele>52.3</ele>
        <time>2019-01-10T08:49:12Z</time>
      </trkpt>
      <trkpt lat="43.52308" lon="3.49169">
        <ele>52.5</ele>
        <time>2019-01-10T08:49:14Z</time>
      </trkpt>
      <trkpt lat="43.52307" lon="3.49174">
        <ele>52.6</ele>
        <time>2019-01-10T08:49:16Z</time>
      </trkpt>
      <trkpt lat="43.52306" lon="3.49178">
        <ele>52.7</ele>
        <time>2019-01-10T08:49:18Z</time>
      </trkpt>
      <trkpt lat="43.52305" lon="3.49183">
        <ele>52.9</ele>
        <time>2019-01-10T08:49:20Z</time>
      </trkpt>
      <trkpt lat="43.52304" lon="3.49187">
        <ele>53</ele>
        <time>2019-01-10T08:49:22Z</time>
      </trkpt>
      <trkpt lat="43.52304" lon="3.49191">
        <ele>53.2</ele>
        <time>2019-01-10T08:49:24Z</time>
      </trkpt>
      <trkpt lat="43.52303" lon="3.49195">
        <ele>53.3</ele>
        <time>2019-01-10T08:49:26Z</time>
      </trkpt>
      <trkpt lat="43.52303" lon="3.49199">
        <ele>53.5</ele>
        <time>2019-01-10T08:49:28Z</time>
      </trkpt>
      <trkpt lat="43.52303" lon="3.49203">
        <ele>53.6</ele>
        <time>2019-01-10T08:49:30Z</time>
      </trkpt>
      <trkpt lat="43.52303" lon="3.49207">
        <ele>53.7</ele>
        <time>2019-01-10T08:49:32Z</time>
      </trkpt>
      <trkpt lat="43.52302" lon="3.49212">
        <ele>53.9</ele>
        <time>2019-01-10T08:49:35Z</time>
      </trkpt>
      <trkpt lat="43.52301" lon="3.49216">
        <ele>54.1</ele>
        <time>2019-01-10T08:49:38Z</time>
      </trkpt>
      <trkpt lat="43.52299" lon="3.4922">
        <ele>54.2</ele>
        <time>2019-01-10T08:49:40Z</time>
      </trkpt>
      <trkpt lat="43.52298" lon="3.49224">
        <ele>54.3</ele>
        <time>2019-01-10T08:49:42Z</time>
      </trkpt>
      <trkpt lat="43.52297" lon="3.49227">
        <ele>54.3</ele>
        <time>2019-01-10T08:49:44Z</time>
      </trkpt>
      <trkpt lat="43.52297" lon="3.49231">
        <ele>54.4</ele>
        <time>2019-01-10T08:49:46Z</time>
      </trkpt>
      <trkpt lat="43.52296" lon="3.49237">
        <ele>54.6</ele>
        <time>2019-01-10T08:49:49Z</time>
      </trkpt>
      <trkpt lat="43.52295" lon="3.49242">
        <ele>54.8</ele>
        <time>2019-01-10T08:49:52Z</time>
      </trkpt>
      <trkpt lat="43.52295" lon="3.49245">
        <ele>54.8</ele>
        <time>2019-01-10T08:49:54Z</time>
      </trkpt>
      <trkpt lat="43.52295" lon="3.4925">
        <ele>54.9</ele>
        <time>2019-01-10T08:49:56Z</time>
      </trkpt>
      <trkpt lat="43.52295" lon="3.49254">
        <ele>55</ele>
        <time>2019-01-10T08:49:58Z</time>
      </trkpt>
      <trkpt lat="43.52294" lon="3.49258">
        <ele>55.1</ele>
        <time>2019-01-10T08:50:00Z</time>
      </trkpt>
      <trkpt lat="43.52294" lon="3.49262">
        <ele>55.1</ele>
        <time>2019-01-10T08:50:02Z</time>
      </trkpt>
      <trkpt lat="43.52293" lon="3.49266">
        <ele>55.1</ele>
        <time>2019-01-10T08:50:04Z</time>
      </trkpt>
      <trkpt lat="43.52292" lon="3.49271">
        <ele>55.2</ele>
        <time>2019-01-10T08:50:07Z</time>
      </trkpt>
      <trkpt lat="43.52292" lon="3.49277">
        <ele>55.2</ele>
        <time>2019-01-10T08:50:10Z</time>
      </trkpt>
      <trkpt lat="43.5229" lon="3.4928">
        <ele>55.2</ele>
        <time>2019-01-10T08:50:12Z</time>
      </trkpt>
      <trkpt lat="43.52289" lon="3.49284">
        <ele>55.2</ele>
        <time>2019-01-10T08:50:14Z</time>
      </trkpt>
      <trkpt lat="43.52289" lon="3.49289">
        <ele>55.1</ele>
        <time>2019-01-10T08:50:17Z</time>
      </trkpt>
      <trkpt lat="43.52289" lon="3.49295">
        <ele>55.1</ele>
        <time>2019-01-10T08:50:20Z</time>
      </trkpt>
      <trkpt lat="43.52289" lon="3.49299">
        <ele>55.1</ele>
        <time>2019-01-10T08:50:22Z</time>
      </trkpt>
      <trkpt lat="43.52288" lon="3.49303">
        <ele>55.1</ele>
        <time>2019-01-10T08:50:24Z</time>
      </trkpt>
      <trkpt lat="43.52287" lon="3.49306">
        <ele>55</ele>
        <time>2019-01-10T08:50:26Z</time>
      </trkpt>
      <trkpt lat="43.52286" lon="3.49311">
        <ele>55</ele>
        <time>2019-01-10T08:50:28Z</time>
      </trkpt>
      <trkpt lat="43.52285" lon="3.49315">
        <ele>54.9</ele>
        <time>2019-01-10T08:50:31Z</time>
      </trkpt>
      <trkpt lat="43.52284" lon="3.4932">
        <ele>54.9</ele>
        <time>2019-01-10T08:50:34Z</time>
      </trkpt>
      <trkpt lat="43.52283" lon="3.49325">
        <ele>54.9</ele>
        <time>2019-01-10T08:50:37Z</time>
      </trkpt>
      <trkpt lat="43.52282" lon="3.49331">
        <ele>54.9</ele>
        <time>2019-01-10T08:50:40Z</time>
      </trkpt>
      <trkpt lat="43.52282" lon="3.49335">
        <ele>54.9</ele>
        <time>2019-01-10T08:50:42Z</time>
      </trkpt>
      <trkpt lat="43.52285" lon="3.49338">
        <ele>54.5</ele>
        <time>2019-01-10T08:50:45Z</time>
      </trkpt>
      <trkpt lat="43.52288" lon="3.49337">
        <ele>54.4</ele>
        <time>2019-01-10T08:50:47Z</time>
      </trkpt>
      <trkpt lat="43.52291" lon="3.49336">
        <ele>54.2</ele>
        <time>2019-01-10T08:50:49Z</time>
      </trkpt>
      <trkpt lat="43.52294" lon="3.49333">
        <ele>54.1</ele>
        <time>2019-01-10T08:50:51Z</time>
      </trkpt>
      <trkpt lat="43.52296" lon="3.49329">
        <ele>54.1</ele>
        <time>2019-01-10T08:50:53Z</time>
      </trkpt>
      <trkpt lat="43.52298" lon="3.49325">
        <ele>54</ele>
        <time>2019-01-10T08:50:55Z</time>
      </trkpt>
      <trkpt lat="43.523" lon="3.49322">
        <ele>54</ele>
        <time>2019-01-10T08:50:57Z</time>
      </trkpt>
      <trkpt lat="43.52303" lon="3.4932">
        <ele>54</ele>
        <time>2019-01-10T08:51:00Z</time>
      </trkpt>
      <trkpt lat="43.52306" lon="3.49317">
        <ele>54</ele>
        <time>2019-01-10T08:51:03Z</time>
      </trkpt>
      <trkpt lat="43.52309" lon="3.49315">
        <ele>53.9</ele>
        <time>2019-01-10T08:51:05Z</time>
      </trkpt>
      <trkpt lat="43.52311" lon="3.49312">
        <ele>53.8</ele>
        <time>2019-01-10T08:51:08Z</time>
      </trkpt>
      <trkpt lat="43.52314" lon="3.49309">
        <ele>53.8</ele>
        <time>2019-01-10T08:51:11Z</time>
      </trkpt>
      <trkpt lat="43.52317" lon="3.49307">
        <ele>53.7</ele>
        <time>2019-01-10T08:51:14Z</time>
      </trkpt>
      <trkpt lat="43.52319" lon="3.49305">
        <ele>53.7</ele>
        <time>2019-01-10T08:51:17Z</time>
      </trkpt>
      <trkpt lat="43.52321" lon="3.49303">
        <ele>53.6</ele>
        <time>2019-01-10T08:51:20Z</time>
      </trkpt>
      <trkpt lat="43.52324" lon="3.493">
        <ele>53.5</ele>
        <time>2019-01-10T08:51:23Z</time>
      </trkpt>
      <trkpt lat="43.52327" lon="3.49297">
        <ele>53.5</ele>
        <time>2019-01-10T08:51:26Z</time>
      </trkpt>
      <trkpt lat="43.5233" lon="3.49294">
        <ele>53.4</ele>
        <time>2019-01-10T08:51:29Z</time>
      </trkpt>
      <trkpt lat="43.52333" lon="3.49291">
        <ele>53.3</ele>
        <time>2019-01-10T08:51:32Z</time>
      </trkpt>
      <trkpt lat="43.52336" lon="3.49288">
        <ele>53.3</ele>
        <time>2019-01-10T08:51:35Z</time>
      </trkpt>
      <trkpt lat="43.52339" lon="3.49285">
        <ele>53.3</ele>
        <time>2019-01-10T08:51:38Z</time>
      </trkpt>
      <trkpt lat="43.52341" lon="3.49281">
        <ele>53.3</ele>
        <time>2019-01-10T08:51:40Z</time>
      </trkpt>
      <trkpt lat="43.52343" lon="3.49278">
        <ele>53.2</ele>
        <time>2019-01-10T08:51:42Z</time>
      </trkpt>
      <trkpt lat="43.52345" lon="3.49276">
        <ele>53.2</ele>
        <time>2019-01-10T08:51:44Z</time>
      </trkpt>
      <trkpt lat="43.52347" lon="3.49273">
        <ele>53.2</ele>
        <time>2019-01-10T08:51:46Z</time>
      </trkpt>
      <trkpt lat="43.5235" lon="3.4927">
        <ele>53.1</ele>
        <time>2019-01-10T08:51:49Z</time>
      </trkpt>
      <trkpt lat="43.52353" lon="3.49269">
        <ele>53</ele>
        <time>2019-01-10T08:51:56Z</time>
      </trkpt>
      <trkpt lat="43.52355" lon="3.49266">
        <ele>52.9</ele>
        <time>2019-01-10T08:51:58Z</time>
      </trkpt>
      <trkpt lat="43.52357" lon="3.49262">
        <ele>52.8</ele>
        <time>2019-01-10T08:52:00Z</time>
      </trkpt>
      <trkpt lat="43.52359" lon="3.49259">
        <ele>52.8</ele>
        <time>2019-01-10T08:52:02Z</time>
      </trkpt>
      <trkpt lat="43.5236" lon="3.49255">
        <ele>52.7</ele>
        <time>2019-01-10T08:52:04Z</time>
      </trkpt>
      <trkpt lat="43.52361" lon="3.49251">
        <ele>52.6</ele>
        <time>2019-01-10T08:52:06Z</time>
      </trkpt>
      <trkpt lat="43.52362" lon="3.49245">
        <ele>52.6</ele>
        <time>2019-01-10T08:52:08Z</time>
      </trkpt>
      <trkpt lat="43.52363" lon="3.49238">
        <ele>52.6</ele>
        <time>2019-01-10T08:52:10Z</time>
      </trkpt>
      <trkpt lat="43.52362" lon="3.49232">
        <ele>52.8</ele>
        <time>2019-01-10T08:52:12Z</time>
      </trkpt>
      <trkpt lat="43.52361" lon="3.49227">
        <ele>52.9</ele>
        <time>2019-01-10T08:52:14Z</time>
      </trkpt>
      <trkpt lat="43.5236" lon="3.49223">
        <ele>53</ele>
        <time>2019-01-10T08:52:16Z</time>
      </trkpt>
      <trkpt lat="43.52359" lon="3.49219">
        <ele>53.1</ele>
        <time>2019-01-10T08:52:18Z</time>
      </trkpt>
      <trkpt lat="43.52359" lon="3.49215">
        <ele>53.2</ele>
        <time>2019-01-10T08:52:20Z</time>
      </trkpt>
      <trkpt lat="43.52358" lon="3.49211">
        <ele>53.4</ele>
        <time>2019-01-10T08:52:22Z</time>
      </trkpt>
      <trkpt lat="43.52358" lon="3.49207">
        <ele>53.4</ele>
        <time>2019-01-10T08:52:24Z</time>
      </trkpt>
      <trkpt lat="43.52358" lon="3.49203">
        <ele>53.5</ele>
        <time>2019-01-10T08:52:26Z</time>
      </trkpt>
      <trkpt lat="43.52358" lon="3.49198">
        <ele>53.6</ele>
        <time>2019-01-10T08:52:28Z</time>
      </trkpt>
      <trkpt lat="43.52359" lon="3.49194">
        <ele>53.6</ele>
        <time>2019-01-10T08:52:30Z</time>
      </trkpt>
      <trkpt lat="43.52359" lon="3.4919">
        <ele>53.6</ele>
        <time>2019-01-10T08:52:32Z</time>
      </trkpt>
      <trkpt lat="43.5236" lon="3.49185">
        <ele>53.6</ele>
        <time>2019-01-10T08:52:34Z</time>
      </trkpt>
      <trkpt lat="43.52361" lon="3.4918">
        <ele>53.6</ele>
        <time>2019-01-10T08:52:36Z</time>
      </trkpt>
      <trkpt lat="43.52362" lon="3.49176">
        <ele>53.7</ele>
        <time>2019-01-10T08:52:38Z</time>
      </trkpt>
      <trkpt lat="43.52363" lon="3.49171">
        <ele>53.7</ele>
        <time>2019-01-10T08:52:40Z</time>
      </trkpt>
      <trkpt lat="43.52362" lon="3.49166">
        <ele>53.6</ele>
        <time>2019-01-10T08:52:42Z</time>
      </trkpt>
      <trkpt lat="43.5236" lon="3.49161">
        <ele>53.5</ele>
        <time>2019-01-10T08:52:45Z</time>
      </trkpt>
      <trkpt lat="43.52357" lon="3.49159">
        <ele>53.2</ele>
        <time>2019-01-10T08:52:47Z</time>
      </trkpt>
      <trkpt lat="43.52353" lon="3.49157">
        <ele>52.8</ele>
        <time>2019-01-10T08:52:49Z</time>
      </trkpt>
      <trkpt lat="43.52349" lon="3.49155">
        <ele>52.6</ele>
        <time>2019-01-10T08:52:51Z</time>
      </trkpt>
      <trkpt lat="43.52351" lon="3.4915">
        <ele>52.4</ele>
        <time>2019-01-10T08:52:55Z</time>
      </trkpt>
      <trkpt lat="43.52352" lon="3.49147">
        <ele>52.4</ele>
        <time>2019-01-10T08:52:58Z</time>
      </trkpt>
      <trkpt lat="43.52354" lon="3.49144">
        <ele>52.4</ele>
        <time>2019-01-10T08:53:01Z</time>
      </trkpt>
      <trkpt lat="43.52355" lon="3.49139">
        <ele>52.1</ele>
        <time>2019-01-10T08:53:04Z</time>
      </trkpt>
      <trkpt lat="43.52355" lon="3.49134">
        <ele>51.9</ele>
        <time>2019-01-10T08:53:07Z</time>
      </trkpt>
      <trkpt lat="43.52354" lon="3.4913">
        <ele>51.7</ele>
        <time>2019-01-10T08:53:10Z</time>
      </trkpt>
      <trkpt lat="43.52353" lon="3.49126">
        <ele>51.2</ele>
        <time>2019-01-10T08:53:12Z</time>
      </trkpt>
      <trkpt lat="43.52352" lon="3.49121">
        <ele>51</ele>
        <time>2019-01-10T08:53:14Z</time>
      </trkpt>
      <trkpt lat="43.5235" lon="3.49118">
        <ele>50.6</ele>
        <time>2019-01-10T08:53:16Z</time>
      </trkpt>
      <trkpt lat="43.52348" lon="3.49115">
        <ele>50.3</ele>
        <time>2019-01-10T08:53:18Z</time>
      </trkpt>
      <trkpt lat="43.52349" lon="3.4911">
        <ele>50</ele>
        <time>2019-01-10T08:53:21Z</time>
      </trkpt>
      <trkpt lat="43.52349" lon="3.49105">
        <ele>49.7</ele>
        <time>2019-01-10T08:53:24Z</time>
      </trkpt>
      <trkpt lat="43.52349" lon="3.49101">
        <ele>49.4</ele>
        <time>2019-01-10T08:53:26Z</time>
      </trkpt>
      <trkpt lat="43.5235" lon="3.49096">
        <ele>49.1</ele>
        <time>2019-01-10T08:53:28Z</time>
      </trkpt>
      <trkpt lat="43.52352" lon="3.49092">
        <ele>48.9</ele>
        <time>2019-01-10T08:53:30Z</time>
      </trkpt>
      <trkpt lat="43.52352" lon="3.49088">
        <ele>48.7</ele>
        <time>2019-01-10T08:53:32Z</time>
      </trkpt>
      <trkpt lat="43.52354" lon="3.49085">
        <ele>48.6</ele>
        <time>2019-01-10T08:53:34Z</time>
      </trkpt>
      <trkpt lat="43.52356" lon="3.49081">
        <ele>48.3</ele>
        <time>2019-01-10T08:53:36Z</time>
      </trkpt>
      <trkpt lat="43.52359" lon="3.49078">
        <ele>48.5</ele>
        <time>2019-01-10T08:53:38Z</time>
      </trkpt>
      <trkpt lat="43.5236" lon="3.49074">
        <ele>48.5</ele>
        <time>2019-01-10T08:53:40Z</time>
      </trkpt>
      <trkpt lat="43.5236" lon="3.49068">
        <ele>48</ele>
        <time>2019-01-10T08:53:43Z</time>
      </trkpt>
      <trkpt lat="43.5236" lon="3.49064">
        <ele>47.8</ele>
        <time>2019-01-10T08:53:47Z</time>
      </trkpt>
      <trkpt lat="43.5236" lon="3.49059">
        <ele>47.5</ele>
        <time>2019-01-10T08:53:50Z</time>
      </trkpt>
      <trkpt lat="43.52358" lon="3.49054">
        <ele>47</ele>
        <time>2019-01-10T08:53:53Z</time>
      </trkpt>
      <trkpt lat="43.52358" lon="3.49049">
        <ele>46.7</ele>
        <time>2019-01-10T08:53:56Z</time>
      </trkpt>
      <trkpt lat="43.52361" lon="3.49045">
        <ele>46.8</ele>
        <time>2019-01-10T08:53:59Z</time>
      </trkpt>
      <trkpt lat="43.52363" lon="3.49043">
        <ele>46.8</ele>
        <time>2019-01-10T08:54:16Z</time>
      </trkpt>
      <trkpt lat="43.52363" lon="3.49048">
        <ele>47</ele>
        <time>2019-01-10T08:54:25Z</time>
      </trkpt>
      <trkpt lat="43.52365" lon="3.49051">
        <ele>47.2</ele>
        <time>2019-01-10T08:54:30Z</time>
      </trkpt>
      <trkpt lat="43.52367" lon="3.49054">
        <ele>47.8</ele>
        <time>2019-01-10T08:54:36Z</time>
      </trkpt>
      <trkpt lat="43.52369" lon="3.49058">
        <ele>48.1</ele>
        <time>2019-01-10T08:54:39Z</time>
      </trkpt>
      <trkpt lat="43.5237" lon="3.49062">
        <ele>48.7</ele>
        <time>2019-01-10T08:54:42Z</time>
      </trkpt>
      <trkpt lat="43.5237" lon="3.49066">
        <ele>48.9</ele>
        <time>2019-01-10T08:54:45Z</time>
      </trkpt>
      <trkpt lat="43.52372" lon="3.49071">
        <ele>49.5</ele>
        <time>2019-01-10T08:54:48Z</time>
      </trkpt>
      <trkpt lat="43.52374" lon="3.49075">
        <ele>49.7</ele>
        <time>2019-01-10T08:54:50Z</time>
      </trkpt>
      <trkpt lat="43.52376" lon="3.49079">
        <ele>50.3</ele>
        <time>2019-01-10T08:54:53Z</time>
      </trkpt>
      <trkpt lat="43.52376" lon="3.49083">
        <ele>50.5</ele>
        <time>2019-01-10T08:54:56Z</time>
      </trkpt>
      <trkpt lat="43.52376" lon="3.49088">
        <ele>50.8</ele>
        <time>2019-01-10T08:54:59Z</time>
      </trkpt>
      <trkpt lat="43.52379" lon="3.4909">
        <ele>51.1</ele>
        <time>2019-01-10T08:55:04Z</time>
      </trkpt>
      <trkpt lat="43.52376" lon="3.49086">
        <ele>50.5</ele>
        <time>2019-01-10T08:55:21Z</time>
      </trkpt>
      <trkpt lat="43.52374" lon="3.49084">
        <ele>50.2</ele>
        <time>2019-01-10T08:55:23Z</time>
      </trkpt>
      <trkpt lat="43.52371" lon="3.49083">
        <ele>49.9</ele>
        <time>2019-01-10T08:55:25Z</time>
      </trkpt>
      <trkpt lat="43.52367" lon="3.49085">
        <ele>49.6</ele>
        <time>2019-01-10T08:55:27Z</time>
      </trkpt>
      <trkpt lat="43.52363" lon="3.49085">
        <ele>49.3</ele>
        <time>2019-01-10T08:55:29Z</time>
      </trkpt>
      <trkpt lat="43.52361" lon="3.49085">
        <ele>49</ele>
        <time>2019-01-10T08:55:31Z</time>
      </trkpt>
      <trkpt lat="43.52357" lon="3.49087">
        <ele>48.8</ele>
        <time>2019-01-10T08:55:33Z</time>
      </trkpt>
      <trkpt lat="43.52353" lon="3.49089">
        <ele>48.6</ele>
        <time>2019-01-10T08:55:35Z</time>
      </trkpt>
      <trkpt lat="43.52351" lon="3.49092">
        <ele>48.9</ele>
        <time>2019-01-10T08:55:37Z</time>
      </trkpt>
      <trkpt lat="43.5235" lon="3.49096">
        <ele>49.1</ele>
        <time>2019-01-10T08:55:41Z</time>
      </trkpt>
      <trkpt lat="43.52348" lon="3.49099">
        <ele>49.4</ele>
        <time>2019-01-10T08:55:44Z</time>
      </trkpt>
      <trkpt lat="43.5235" lon="3.49102">
        <ele>49.4</ele>
        <time>2019-01-10T08:55:48Z</time>
      </trkpt>
      <trkpt lat="43.52352" lon="3.49107">
        <ele>49.8</ele>
        <time>2019-01-10T08:55:51Z</time>
      </trkpt>
      <trkpt lat="43.52353" lon="3.4911">
        <ele>50.1</ele>
        <time>2019-01-10T08:55:53Z</time>
      </trkpt>
      <trkpt lat="43.52353" lon="3.49116">
        <ele>50.4</ele>
        <time>2019-01-10T08:55:56Z</time>
      </trkpt>
      <trkpt lat="43.52353" lon="3.4912">
        <ele>50.7</ele>
        <time>2019-01-10T08:55:59Z</time>
      </trkpt>
      <trkpt lat="43.52354" lon="3.49124">
        <ele>51.2</ele>
        <time>2019-01-10T08:56:02Z</time>
      </trkpt>
      <trkpt lat="43.52353" lon="3.49129">
        <ele>51.2</ele>
        <time>2019-01-10T08:56:05Z</time>
      </trkpt>
      <trkpt lat="43.52352" lon="3.49133">
        <ele>51.5</ele>
        <time>2019-01-10T08:56:07Z</time>
      </trkpt>
      <trkpt lat="43.52352" lon="3.49138">
        <ele>51.9</ele>
        <time>2019-01-10T08:56:10Z</time>
      </trkpt>
      <trkpt lat="43.52353" lon="3.49142">
        <ele>52.2</ele>
        <time>2019-01-10T08:56:12Z</time>
      </trkpt>
      <trkpt lat="43.52355" lon="3.49146">
        <ele>52.3</ele>
        <time>2019-01-10T08:56:14Z</time>
      </trkpt>
      <trkpt lat="43.52356" lon="3.49149">
        <ele>52.6</ele>
        <time>2019-01-10T08:56:16Z</time>
      </trkpt>
      <trkpt lat="43.52358" lon="3.49152">
        <ele>53</ele>
        <time>2019-01-10T08:56:18Z</time>
      </trkpt>
      <trkpt lat="43.52361" lon="3.49154">
        <ele>53.2</ele>
        <time>2019-01-10T08:56:20Z</time>
      </trkpt>
      <trkpt lat="43.52363" lon="3.49155">
        <ele>53.5</ele>
        <time>2019-01-10T08:56:22Z</time>
      </trkpt>
      <trkpt lat="43.52367" lon="3.49157">
        <ele>53.7</ele>
        <time>2019-01-10T08:56:24Z</time>
      </trkpt>
      <trkpt lat="43.52369" lon="3.49156">
        <ele>53.9</ele>
        <time>2019-01-10T08:56:26Z</time>
      </trkpt>
      <trkpt lat="43.52373" lon="3.49154">
        <ele>53.9</ele>
        <time>2019-01-10T08:56:29Z</time>
      </trkpt>
      <trkpt lat="43.52376" lon="3.49151">
        <ele>54</ele>
        <time>2019-01-10T08:56:32Z</time>
      </trkpt>
      <trkpt lat="43.52379" lon="3.49147">
        <ele>54.1</ele>
        <time>2019-01-10T08:56:35Z</time>
      </trkpt>
      <trkpt lat="43.52381" lon="3.49143">
        <ele>54</ele>
        <time>2019-01-10T08:56:37Z</time>
      </trkpt>
      <trkpt lat="43.52383" lon="3.49141">
        <ele>54.1</ele>
        <time>2019-01-10T08:56:39Z</time>
      </trkpt>
      <trkpt lat="43.52385" lon="3.49137">
        <ele>54.1</ele>
        <time>2019-01-10T08:56:41Z</time>
      </trkpt>
      <trkpt lat="43.52387" lon="3.49133">
        <ele>53.9</ele>
        <time>2019-01-10T08:56:44Z</time>
      </trkpt>
      <trkpt lat="43.52387" lon="3.49129">
        <ele>53.8</ele>
        <time>2019-01-10T08:56:47Z</time>
      </trkpt>
      <trkpt lat="43.52388" lon="3.49125">
        <ele>54</ele>
        <time>2019-01-10T08:56:49Z</time>
      </trkpt>
      <trkpt lat="43.52391" lon="3.4912">
        <ele>53.7</ele>
        <time>2019-01-10T08:56:52Z</time>
      </trkpt>
      <trkpt lat="43.52392" lon="3.49116">
        <ele>53.7</ele>
        <time>2019-01-10T08:56:54Z</time>
      </trkpt>
      <trkpt lat="43.52394" lon="3.49111">
        <ele>53.7</ele>
        <time>2019-01-10T08:56:57Z</time>
      </trkpt>
      <trkpt lat="43.52397" lon="3.49108">
        <ele>53.7</ele>
        <time>2019-01-10T08:57:00Z</time>
      </trkpt>
      <trkpt lat="43.524" lon="3.49105">
        <ele>53.7</ele>
        <time>2019-01-10T08:57:03Z</time>
      </trkpt>
      <trkpt lat="43.52402" lon="3.49101">
        <ele>53.7</ele>
        <time>2019-01-10T08:57:05Z</time>
      </trkpt>
      <trkpt lat="43.52404" lon="3.49098">
        <ele>53.7</ele>
        <time>2019-01-10T08:57:07Z</time>
      </trkpt>
      <trkpt lat="43.52407" lon="3.49095">
        <ele>53.6</ele>
        <time>2019-01-10T08:57:11Z</time>
      </trkpt>
      <trkpt lat="43.52409" lon="3.49091">
        <ele>53.6</ele>
        <time>2019-01-10T08:57:13Z</time>
      </trkpt>
      <trkpt lat="43.5241" lon="3.49088">
        <ele>53.5</ele>
        <time>2019-01-10T08:57:15Z</time>
      </trkpt>
      <trkpt lat="43.52412" lon="3.49083">
        <ele>53.2</ele>
        <time>2019-01-10T08:57:18Z</time>
      </trkpt>
      <trkpt lat="43.52414" lon="3.4908">
        <ele>53</ele>
        <time>2019-01-10T08:57:20Z</time>
      </trkpt>
      <trkpt lat="43.52416" lon="3.49076">
        <ele>52.8</ele>
        <time>2019-01-10T08:57:22Z</time>
      </trkpt>
      <trkpt lat="43.52418" lon="3.49074">
        <ele>52.8</ele>
        <time>2019-01-10T08:57:24Z</time>
      </trkpt>
      <trkpt lat="43.52422" lon="3.49071">
        <ele>52.7</ele>
        <time>2019-01-10T08:57:27Z</time>
      </trkpt>
      <trkpt lat="43.52424" lon="3.49068">
        <ele>52.5</ele>
        <time>2019-01-10T08:57:29Z</time>
      </trkpt>
      <trkpt lat="43.52426" lon="3.49065">
        <ele>52.3</ele>
        <time>2019-01-10T08:57:32Z</time>
      </trkpt>
      <trkpt lat="43.52429" lon="3.49062">
        <ele>52.4</ele>
        <time>2019-01-10T08:57:34Z</time>
      </trkpt>
      <trkpt lat="43.52431" lon="3.49058">
        <ele>52.1</ele>
        <time>2019-01-10T08:57:36Z</time>
      </trkpt>
      <trkpt lat="43.52434" lon="3.49055">
        <ele>51.8</ele>
        <time>2019-01-10T08:57:39Z</time>
      </trkpt>
      <trkpt lat="43.52436" lon="3.4905">
        <ele>51.5</ele>
        <time>2019-01-10T08:57:42Z</time>
      </trkpt>
      <trkpt lat="43.52437" lon="3.49046">
        <ele>51.1</ele>
        <time>2019-01-10T08:57:45Z</time>
      </trkpt>
      <trkpt lat="43.5244" lon="3.49043">
        <ele>50.6</ele>
        <time>2019-01-10T08:57:48Z</time>
      </trkpt>
      <trkpt lat="43.52443" lon="3.4904">
        <ele>50.6</ele>
        <time>2019-01-10T08:57:50Z</time>
      </trkpt>
      <trkpt lat="43.52445" lon="3.49037">
        <ele>49.9</ele>
        <time>2019-01-10T08:57:52Z</time>
      </trkpt>
      <trkpt lat="43.52448" lon="3.49034">
        <ele>49.1</ele>
        <time>2019-01-10T08:57:54Z</time>
      </trkpt>
      <trkpt lat="43.5245" lon="3.49032">
        <ele>48.7</ele>
        <time>2019-01-10T08:57:56Z</time>
      </trkpt>
      <trkpt lat="43.52453" lon="3.49031">
        <ele>48.3</ele>
        <time>2019-01-10T08:57:58Z</time>
      </trkpt>
      <trkpt lat="43.52456" lon="3.49031">
        <ele>47.7</ele>
        <time>2019-01-10T08:58:00Z</time>
      </trkpt>
      <trkpt lat="43.52459" lon="3.49032">
        <ele>47.1</ele>
        <time>2019-01-10T08:58:02Z</time>
      </trkpt>
      <trkpt lat="43.52462" lon="3.49034">
        <ele>46.4</ele>
        <time>2019-01-10T08:58:04Z</time>
      </trkpt>
      <trkpt lat="43.52466" lon="3.49036">
        <ele>45.6</ele>
        <time>2019-01-10T08:58:07Z</time>
      </trkpt>
      <trkpt lat="43.5247" lon="3.49038">
        <ele>44.7</ele>
        <time>2019-01-10T08:58:10Z</time>
      </trkpt>
      <trkpt lat="43.52472" lon="3.49039">
        <ele>44.2</ele>
        <time>2019-01-10T08:58:12Z</time>
      </trkpt>
      <trkpt lat="43.52475" lon="3.49039">
        <ele>43.3</ele>
        <time>2019-01-10T08:58:14Z</time>
      </trkpt>
      <trkpt lat="43.52478" lon="3.49038">
        <ele>42.1</ele>
        <time>2019-01-10T08:58:16Z</time>
      </trkpt>
      <trkpt lat="43.52481" lon="3.49037">
        <ele>41.3</ele>
        <time>2019-01-10T08:58:18Z</time>
      </trkpt>
      <trkpt lat="43.52484" lon="3.49035">
        <ele>41.3</ele>
        <time>2019-01-10T08:58:20Z</time>
      </trkpt>
      <trkpt lat="43.52486" lon="3.49032">
        <ele>40.4</ele>
        <time>2019-01-10T08:58:23Z</time>
      </trkpt>
      <trkpt lat="43.52482" lon="3.49035">
        <ele>41.3</ele>
        <time>2019-01-10T08:58:28Z</time>
      </trkpt>
      <trkpt lat="43.5248" lon="3.49038">
        <ele>42.1</ele>
        <time>2019-01-10T08:58:30Z</time>
      </trkpt>
      <trkpt lat="43.52478" lon="3.49042">
        <ele>43.3</ele>
        <time>2019-01-10T08:58:32Z</time>
      </trkpt>
      <trkpt lat="43.52476" lon="3.49045">
        <ele>43.7</ele>
        <time>2019-01-10T08:58:34Z</time>
      </trkpt>
      <trkpt lat="43.52476" lon="3.49049">
        <ele>44.2</ele>
        <time>2019-01-10T08:58:37Z</time>
      </trkpt>
      <trkpt lat="43.52477" lon="3.49052">
        <ele>44.6</ele>
        <time>2019-01-10T08:58:40Z</time>
      </trkpt>
      <trkpt lat="43.5248" lon="3.49057">
        <ele>44.2</ele>
        <time>2019-01-10T08:58:43Z</time>
      </trkpt>
      <trkpt lat="43.52483" lon="3.4906">
        <ele>43.4</ele>
        <time>2019-01-10T08:58:45Z</time>
      </trkpt>
      <trkpt lat="43.52486" lon="3.49062">
        <ele>43.1</ele>
        <time>2019-01-10T08:58:47Z</time>
      </trkpt>
      <trkpt lat="43.52489" lon="3.49064">
        <ele>42.5</ele>
        <time>2019-01-10T08:58:49Z</time>
      </trkpt>
      <trkpt lat="43.52492" lon="3.49066">
        <ele>42.4</ele>
        <time>2019-01-10T08:58:51Z</time>
      </trkpt>
      <trkpt lat="43.52495" lon="3.49068">
        <ele>41.9</ele>
        <time>2019-01-10T08:58:53Z</time>
      </trkpt>
      <trkpt lat="43.52498" lon="3.49069">
        <ele>41.4</ele>
        <time>2019-01-10T08:58:55Z</time>
      </trkpt>
      <trkpt lat="43.52501" lon="3.49071">
        <ele>41.4</ele>
        <time>2019-01-10T08:58:58Z</time>
      </trkpt>
      <trkpt lat="43.52504" lon="3.49075">
        <ele>41.4</ele>
        <time>2019-01-10T08:59:01Z</time>
      </trkpt>
      <trkpt lat="43.52503" lon="3.4908">
        <ele>41.7</ele>
        <time>2019-01-10T08:59:04Z</time>
      </trkpt>
      <trkpt lat="43.52502" lon="3.49086">
        <ele>42.4</ele>
        <time>2019-01-10T08:59:08Z</time>
      </trkpt>
      <trkpt lat="43.525" lon="3.49089">
        <ele>42.7</ele>
        <time>2019-01-10T08:59:10Z</time>
      </trkpt>
      <trkpt lat="43.52501" lon="3.49093">
        <ele>43.1</ele>
        <time>2019-01-10T08:59:15Z</time>
      </trkpt>
      <trkpt lat="43.52499" lon="3.49096">
        <ele>43.8</ele>
        <time>2019-01-10T08:59:18Z</time>
      </trkpt>
      <trkpt lat="43.52497" lon="3.49099">
        <ele>44.1</ele>
        <time>2019-01-10T08:59:20Z</time>
      </trkpt>
      <trkpt lat="43.52496" lon="3.49104">
        <ele>44.7</ele>
        <time>2019-01-10T08:59:22Z</time>
      </trkpt>
      <trkpt lat="43.52493" lon="3.49107">
        <ele>45.1</ele>
        <time>2019-01-10T08:59:24Z</time>
      </trkpt>
      <trkpt lat="43.52491" lon="3.49109">
        <ele>45.4</ele>
        <time>2019-01-10T08:59:26Z</time>
      </trkpt>
      <trkpt lat="43.52489" lon="3.49113">
        <ele>46</ele>
        <time>2019-01-10T08:59:29Z</time>
      </trkpt>
      <trkpt lat="43.52491" lon="3.49118">
        <ele>45.8</ele>
        <time>2019-01-10T08:59:31Z</time>
      </trkpt>
      <trkpt lat="43.52493" lon="3.49122">
        <ele>46</ele>
        <time>2019-01-10T08:59:32Z</time>
      </trkpt>
      <trkpt lat="43.52495" lon="3.49125">
        <ele>45.8</ele>
        <time>2019-01-10T08:59:33Z</time>
      </trkpt>
      <trkpt lat="43.52498" lon="3.49128">
        <ele>45.4</ele>
        <time>2019-01-10T08:59:34Z</time>
      </trkpt>
      <trkpt lat="43.52501" lon="3.4913">
        <ele>45.2</ele>
        <time>2019-01-10T08:59:35Z</time>
      </trkpt>
      <trkpt lat="43.52505" lon="3.49132">
        <ele>44.8</ele>
        <time>2019-01-10T08:59:37Z</time>
      </trkpt>
      <trkpt lat="43.52508" lon="3.49133">
        <ele>44.4</ele>
        <time>2019-01-10T08:59:39Z</time>
      </trkpt>
      <trkpt lat="43.52512" lon="3.49134">
        <ele>44.2</ele>
        <time>2019-01-10T08:59:42Z</time>
      </trkpt>
      <trkpt lat="43.52515" lon="3.49134">
        <ele>43.9</ele>
        <time>2019-01-10T08:59:45Z</time>
      </trkpt>
      <trkpt lat="43.52518" lon="3.49134">
        <ele>43.6</ele>
        <time>2019-01-10T08:59:50Z</time>
      </trkpt>
      <trkpt lat="43.52522" lon="3.49131">
        <ele>43</ele>
        <time>2019-01-10T08:59:53Z</time>
      </trkpt>
      <trkpt lat="43.52525" lon="3.4913">
        <ele>42.7</ele>
        <time>2019-01-10T08:59:55Z</time>
      </trkpt>
      <trkpt lat="43.52528" lon="3.49129">
        <ele>42.3</ele>
        <time>2019-01-10T08:59:57Z</time>
      </trkpt>
      <trkpt lat="43.52531" lon="3.49128">
        <ele>41.9</ele>
        <time>2019-01-10T08:59:59Z</time>
      </trkpt>
      <trkpt lat="43.52534" lon="3.49128">
        <ele>41.7</ele>
        <time>2019-01-10T09:00:02Z</time>
      </trkpt>
      <trkpt lat="43.52537" lon="3.49127">
        <ele>41.4</ele>
        <time>2019-01-10T09:00:05Z</time>
      </trkpt>
      <trkpt lat="43.52541" lon="3.49127">
        <ele>41.1</ele>
        <time>2019-01-10T09:00:08Z</time>
      </trkpt>
      <trkpt lat="43.52544" lon="3.49128">
        <ele>40.8</ele>
        <time>2019-01-10T09:00:11Z</time>
      </trkpt>
      <trkpt lat="43.52548" lon="3.49129">
        <ele>40.6</ele>
        <time>2019-01-10T09:00:14Z</time>
      </trkpt>
      <trkpt lat="43.52551" lon="3.4913">
        <ele>40.3</ele>
        <time>2019-01-10T09:00:17Z</time>
      </trkpt>
      <trkpt lat="43.52555" lon="3.49131">
        <ele>40</ele>
        <time>2019-01-10T09:00:20Z</time>
      </trkpt>
      <trkpt lat="43.52557" lon="3.49132">
        <ele>39.7</ele>
        <time>2019-01-10T09:00:22Z</time>
      </trkpt>
      <trkpt lat="43.52561" lon="3.49134">
        <ele>39.5</ele>
        <time>2019-01-10T09:00:25Z</time>
      </trkpt>
      <trkpt lat="43.52564" lon="3.49135">
        <ele>39.3</ele>
        <time>2019-01-10T09:00:27Z</time>
      </trkpt>
      <trkpt lat="43.52567" lon="3.49136">
        <ele>39</ele>
        <time>2019-01-10T09:00:29Z</time>
      </trkpt>
      <trkpt lat="43.5257" lon="3.49137">
        <ele>38.8</ele>
        <time>2019-01-10T09:00:31Z</time>
      </trkpt>
      <trkpt lat="43.52573" lon="3.49138">
        <ele>38.6</ele>
        <time>2019-01-10T09:00:33Z</time>
      </trkpt>
      <trkpt lat="43.52576" lon="3.49139">
        <ele>38.5</ele>
        <time>2019-01-10T09:00:35Z</time>
      </trkpt>
      <trkpt lat="43.52579" lon="3.49138">
        <ele>38.2</ele>
        <time>2019-01-10T09:00:38Z</time>
      </trkpt>
      <trkpt lat="43.52582" lon="3.49136">
        <ele>38</ele>
        <time>2019-01-10T09:00:41Z</time>
      </trkpt>
      <trkpt lat="43.52586" lon="3.49134">
        <ele>37.9</ele>
        <time>2019-01-10T09:00:44Z</time>
      </trkpt>
      <trkpt lat="43.52589" lon="3.49134">
        <ele>37.8</ele>
        <time>2019-01-10T09:00:46Z</time>
      </trkpt>
      <trkpt lat="43.52592" lon="3.49134">
        <ele>37.6</ele>
        <time>2019-01-10T09:00:48Z</time>
      </trkpt>
      <trkpt lat="43.52596" lon="3.49135">
        <ele>37.5</ele>
        <time>2019-01-10T09:00:50Z</time>
      </trkpt>
      <trkpt lat="43.52599" lon="3.49134">
        <ele>37.3</ele>
        <time>2019-01-10T09:00:52Z</time>
      </trkpt>
      <trkpt lat="43.52602" lon="3.49133">
        <ele>37.3</ele>
        <time>2019-01-10T09:00:54Z</time>
      </trkpt>
      <trkpt lat="43.52605" lon="3.49132">
        <ele>37.2</ele>
        <time>2019-01-10T09:00:56Z</time>
      </trkpt>
      <trkpt lat="43.52609" lon="3.49133">
        <ele>37.1</ele>
        <time>2019-01-10T09:00:58Z</time>
      </trkpt>
      <trkpt lat="43.52611" lon="3.49135">
        <ele>37</ele>
        <time>2019-01-10T09:01:00Z</time>
      </trkpt>
      <trkpt lat="43.52611" lon="3.49141">
        <ele>37</ele>
        <time>2019-01-10T09:01:03Z</time>
      </trkpt>
      <trkpt lat="43.52609" lon="3.49146">
        <ele>37.1</ele>
        <time>2019-01-10T09:01:06Z</time>
      </trkpt>
      <trkpt lat="43.52608" lon="3.4915">
        <ele>37.2</ele>
        <time>2019-01-10T09:01:08Z</time>
      </trkpt>
      <trkpt lat="43.52606" lon="3.49153">
        <ele>37.2</ele>
        <time>2019-01-10T09:01:10Z</time>
      </trkpt>
      <trkpt lat="43.52605" lon="3.49157">
        <ele>37.4</ele>
        <time>2019-01-10T09:01:12Z</time>
      </trkpt>
      <trkpt lat="43.52603" lon="3.49162">
        <ele>37.4</ele>
        <time>2019-01-10T09:01:14Z</time>
      </trkpt>
      <trkpt lat="43.52602" lon="3.49166">
        <ele>37.6</ele>
        <time>2019-01-10T09:01:16Z</time>
      </trkpt>
      <trkpt lat="43.52602" lon="3.4917">
        <ele>37.7</ele>
        <time>2019-01-10T09:01:18Z</time>
      </trkpt>
      <trkpt lat="43.526" lon="3.49174">
        <ele>37.7</ele>
        <time>2019-01-10T09:01:20Z</time>
      </trkpt>
      <trkpt lat="43.52599" lon="3.49178">
        <ele>37.9</ele>
        <time>2019-01-10T09:01:23Z</time>
      </trkpt>
      <trkpt lat="43.52596" lon="3.49182">
        <ele>38</ele>
        <time>2019-01-10T09:01:26Z</time>
      </trkpt>
      <trkpt lat="43.52595" lon="3.49186">
        <ele>38.2</ele>
        <time>2019-01-10T09:01:28Z</time>
      </trkpt>
      <trkpt lat="43.52594" lon="3.49189">
        <ele>38.2</ele>
        <time>2019-01-10T09:01:30Z</time>
      </trkpt>
      <trkpt lat="43.52592" lon="3.49194">
        <ele>38.5</ele>
        <time>2019-01-10T09:01:33Z</time>
      </trkpt>
      <trkpt lat="43.52591" lon="3.49199">
        <ele>38.5</ele>
        <time>2019-01-10T09:01:35Z</time>
      </trkpt>
      <trkpt lat="43.52589" lon="3.49203">
        <ele>38.7</ele>
        <time>2019-01-10T09:01:37Z</time>
      </trkpt>
      <trkpt lat="43.52587" lon="3.49207">
        <ele>38.7</ele>
        <time>2019-01-10T09:01:40Z</time>
      </trkpt>
      <trkpt lat="43.52585" lon="3.4921">
        <ele>38.9</ele>
        <time>2019-01-10T09:01:42Z</time>
      </trkpt>
      <trkpt lat="43.52584" lon="3.49214">
        <ele>39</ele>
        <time>2019-01-10T09:01:44Z</time>
      </trkpt>
      <trkpt lat="43.52582" lon="3.49217">
        <ele>39</ele>
        <time>2019-01-10T09:01:46Z</time>
      </trkpt>
      <trkpt lat="43.5258" lon="3.49222">
        <ele>39.1</ele>
        <time>2019-01-10T09:01:49Z</time>
      </trkpt>
      <trkpt lat="43.52578" lon="3.49226">
        <ele>39.1</ele>
        <time>2019-01-10T09:01:52Z</time>
      </trkpt>
      <trkpt lat="43.52576" lon="3.4923">
        <ele>39.2</ele>
        <time>2019-01-10T09:01:54Z</time>
      </trkpt>
      <trkpt lat="43.52575" lon="3.49235">
        <ele>39.1</ele>
        <time>2019-01-10T09:01:56Z</time>
      </trkpt>
      <trkpt lat="43.52572" lon="3.49239">
        <ele>39.2</ele>
        <time>2019-01-10T09:01:58Z</time>
      </trkpt>
      <trkpt lat="43.5257" lon="3.49242">
        <ele>39.3</ele>
        <time>2019-01-10T09:02:00Z</time>
      </trkpt>
      <trkpt lat="43.52568" lon="3.49246">
        <ele>39.4</ele>
        <time>2019-01-10T09:02:02Z</time>
      </trkpt>
      <trkpt lat="43.52566" lon="3.4925">
        <ele>39.3</ele>
        <time>2019-01-10T09:02:04Z</time>
      </trkpt>
      <trkpt lat="43.52564" lon="3.49253">
        <ele>39.5</ele>
        <time>2019-01-10T09:02:06Z</time>
      </trkpt>
      <trkpt lat="43.52562" lon="3.49257">
        <ele>39.4</ele>
        <time>2019-01-10T09:02:08Z</time>
      </trkpt>
      <trkpt lat="43.5256" lon="3.4926">
        <ele>39.5</ele>
        <time>2019-01-10T09:02:11Z</time>
      </trkpt>
      <trkpt lat="43.52558" lon="3.49263">
        <ele>39.6</ele>
        <time>2019-01-10T09:02:14Z</time>
      </trkpt>
      <trkpt lat="43.52556" lon="3.49266">
        <ele>39.6</ele>
        <time>2019-01-10T09:02:16Z</time>
      </trkpt>
      <trkpt lat="43.52554" lon="3.4927">
        <ele>39.7</ele>
        <time>2019-01-10T09:02:19Z</time>
      </trkpt>
      <trkpt lat="43.52552" lon="3.49274">
        <ele>39.8</ele>
        <time>2019-01-10T09:02:21Z</time>
      </trkpt>
      <trkpt lat="43.5255" lon="3.49277">
        <ele>39.8</ele>
        <time>2019-01-10T09:02:23Z</time>
      </trkpt>
      <trkpt lat="43.52548" lon="3.4928">
        <ele>39.9</ele>
        <time>2019-01-10T09:02:25Z</time>
      </trkpt>
      <trkpt lat="43.52546" lon="3.49283">
        <ele>40</ele>
        <time>2019-01-10T09:02:27Z</time>
      </trkpt>
      <trkpt lat="43.52544" lon="3.49287">
        <ele>40</ele>
        <time>2019-01-10T09:02:29Z</time>
      </trkpt>
      <trkpt lat="43.52542" lon="3.49291">
        <ele>40</ele>
        <time>2019-01-10T09:02:31Z</time>
      </trkpt>
      <trkpt lat="43.52541" lon="3.49294">
        <ele>40</ele>
        <time>2019-01-10T09:02:33Z</time>
      </trkpt>
      <trkpt lat="43.52539" lon="3.49298">
        <ele>40.1</ele>
        <time>2019-01-10T09:02:36Z</time>
      </trkpt>
      <trkpt lat="43.52537" lon="3.49302">
        <ele>40.1</ele>
        <time>2019-01-10T09:02:38Z</time>
      </trkpt>
      <trkpt lat="43.52535" lon="3.49305">
        <ele>40.1</ele>
        <time>2019-01-10T09:02:40Z</time>
      </trkpt>
      <trkpt lat="43.52533" lon="3.49308">
        <ele>40.2</ele>
        <time>2019-01-10T09:02:42Z</time>
      </trkpt>
      <trkpt lat="43.52531" lon="3.49311">
        <ele>40.3</ele>
        <time>2019-01-10T09:02:44Z</time>
      </trkpt>
      <trkpt lat="43.52529" lon="3.49314">
        <ele>40.4</ele>
        <time>2019-01-10T09:02:46Z</time>
      </trkpt>
      <trkpt lat="43.52527" lon="3.49318">
        <ele>40.4</ele>
        <time>2019-01-10T09:02:48Z</time>
      </trkpt>
      <trkpt lat="43.52526" lon="3.49321">
        <ele>40.5</ele>
        <time>2019-01-10T09:02:50Z</time>
      </trkpt>
      <trkpt lat="43.52523" lon="3.49324">
        <ele>40.6</ele>
        <time>2019-01-10T09:02:52Z</time>
      </trkpt>
      <trkpt lat="43.52521" lon="3.49328">
        <ele>40.7</ele>
        <time>2019-01-10T09:02:54Z</time>
      </trkpt>
      <trkpt lat="43.52519" lon="3.49331">
        <ele>40.8</ele>
        <time>2019-01-10T09:02:56Z</time>
      </trkpt>
      <trkpt lat="43.52516" lon="3.49335">
        <ele>40.8</ele>
        <time>2019-01-10T09:02:59Z</time>
      </trkpt>
      <trkpt lat="43.52514" lon="3.49339">
        <ele>40.9</ele>
        <time>2019-01-10T09:03:01Z</time>
      </trkpt>
      <trkpt lat="43.52513" lon="3.49342">
        <ele>41</ele>
        <time>2019-01-10T09:03:03Z</time>
      </trkpt>
      <trkpt lat="43.5251" lon="3.49345">
        <ele>41.1</ele>
        <time>2019-01-10T09:03:06Z</time>
      </trkpt>
      <trkpt lat="43.52508" lon="3.49348">
        <ele>41.1</ele>
        <time>2019-01-10T09:03:09Z</time>
      </trkpt>
      <trkpt lat="43.52506" lon="3.49352">
        <ele>41.3</ele>
        <time>2019-01-10T09:03:12Z</time>
      </trkpt>
      <trkpt lat="43.52505" lon="3.49357">
        <ele>41.4</ele>
        <time>2019-01-10T09:03:15Z</time>
      </trkpt>
      <trkpt lat="43.52505" lon="3.49361">
        <ele>41.5</ele>
        <time>2019-01-10T09:03:18Z</time>
      </trkpt>
      <trkpt lat="43.52508" lon="3.49365">
        <ele>41.6</ele>
        <time>2019-01-10T09:03:21Z</time>
      </trkpt>
      <trkpt lat="43.52511" lon="3.49367">
        <ele>41.7</ele>
        <time>2019-01-10T09:03:23Z</time>
      </trkpt>
      <trkpt lat="43.52513" lon="3.49369">
        <ele>41.7</ele>
        <time>2019-01-10T09:03:25Z</time>
      </trkpt>
      <trkpt lat="43.52516" lon="3.49372">
        <ele>41.8</ele>
        <time>2019-01-10T09:03:27Z</time>
      </trkpt>
      <trkpt lat="43.52518" lon="3.49375">
        <ele>41.9</ele>
        <time>2019-01-10T09:03:29Z</time>
      </trkpt>
      <trkpt lat="43.52521" lon="3.49378">
        <ele>42</ele>
        <time>2019-01-10T09:03:32Z</time>
      </trkpt>
      <trkpt lat="43.52523" lon="3.4938">
        <ele>42.1</ele>
        <time>2019-01-10T09:03:34Z</time>
      </trkpt>
      <trkpt lat="43.52527" lon="3.49383">
        <ele>42.2</ele>
        <time>2019-01-10T09:03:37Z</time>
      </trkpt>
      <trkpt lat="43.52529" lon="3.49386">
        <ele>42.2</ele>
        <time>2019-01-10T09:03:39Z</time>
      </trkpt>
      <trkpt lat="43.52531" lon="3.4939">
        <ele>42.3</ele>
        <time>2019-01-10T09:03:42Z</time>
      </trkpt>
      <trkpt lat="43.52532" lon="3.49395">
        <ele>42.4</ele>
        <time>2019-01-10T09:03:45Z</time>
      </trkpt>
      <trkpt lat="43.52532" lon="3.49399">
        <ele>42.5</ele>
        <time>2019-01-10T09:03:48Z</time>
      </trkpt>
      <trkpt lat="43.52532" lon="3.49403">
        <ele>42.5</ele>
        <time>2019-01-10T09:03:50Z</time>
      </trkpt>
      <trkpt lat="43.52529" lon="3.49406">
        <ele>42.6</ele>
        <time>2019-01-10T09:03:52Z</time>
      </trkpt>
      <trkpt lat="43.52527" lon="3.49407">
        <ele>42.6</ele>
        <time>2019-01-10T09:03:54Z</time>
      </trkpt>
      <trkpt lat="43.52524" lon="3.4941">
        <ele>42.7</ele>
        <time>2019-01-10T09:03:56Z</time>
      </trkpt>
      <trkpt lat="43.52522" lon="3.49415">
        <ele>42.7</ele>
        <time>2019-01-10T09:03:59Z</time>
      </trkpt>
      <trkpt lat="43.52521" lon="3.49419">
        <ele>42.8</ele>
        <time>2019-01-10T09:04:01Z</time>
      </trkpt>
      <trkpt lat="43.52519" lon="3.49424">
        <ele>42.9</ele>
        <time>2019-01-10T09:04:03Z</time>
      </trkpt>
      <trkpt lat="43.52518" lon="3.49428">
        <ele>43</ele>
        <time>2019-01-10T09:04:05Z</time>
      </trkpt>
      <trkpt lat="43.52516" lon="3.49432">
        <ele>43.1</ele>
        <time>2019-01-10T09:04:07Z</time>
      </trkpt>
      <trkpt lat="43.52515" lon="3.49436">
        <ele>43.2</ele>
        <time>2019-01-10T09:04:09Z</time>
      </trkpt>
      <trkpt lat="43.52514" lon="3.49441">
        <ele>43.4</ele>
        <time>2019-01-10T09:04:11Z</time>
      </trkpt>
      <trkpt lat="43.52512" lon="3.49446">
        <ele>43.5</ele>
        <time>2019-01-10T09:04:13Z</time>
      </trkpt>
      <trkpt lat="43.5251" lon="3.49449">
        <ele>43.6</ele>
        <time>2019-01-10T09:04:15Z</time>
      </trkpt>
      <trkpt lat="43.52507" lon="3.49454">
        <ele>43.7</ele>
        <time>2019-01-10T09:04:18Z</time>
      </trkpt>
      <trkpt lat="43.52504" lon="3.49457">
        <ele>43.9</ele>
        <time>2019-01-10T09:04:20Z</time>
      </trkpt>
      <trkpt lat="43.52502" lon="3.49462">
        <ele>44.1</ele>
        <time>2019-01-10T09:04:23Z</time>
      </trkpt>
      <trkpt lat="43.52501" lon="3.49467">
        <ele>44.3</ele>
        <time>2019-01-10T09:04:26Z</time>
      </trkpt>
      <trkpt lat="43.525" lon="3.49471">
        <ele>44.6</ele>
        <time>2019-01-10T09:04:28Z</time>
      </trkpt>
      <trkpt lat="43.52499" lon="3.49476">
        <ele>44.9</ele>
        <time>2019-01-10T09:04:30Z</time>
      </trkpt>
      <trkpt lat="43.52498" lon="3.4948">
        <ele>45.1</ele>
        <time>2019-01-10T09:04:33Z</time>
      </trkpt>
      <trkpt lat="43.52497" lon="3.49485">
        <ele>45.2</ele>
        <time>2019-01-10T09:04:35Z</time>
      </trkpt>
      <trkpt lat="43.52496" lon="3.49489">
        <ele>45.4</ele>
        <time>2019-01-10T09:04:38Z</time>
      </trkpt>
      <trkpt lat="43.52495" lon="3.49494">
        <ele>45.6</ele>
        <time>2019-01-10T09:04:41Z</time>
      </trkpt>
      <trkpt lat="43.52493" lon="3.49497">
        <ele>45.8</ele>
        <time>2019-01-10T09:04:43Z</time>
      </trkpt>
      <trkpt lat="43.52492" lon="3.49501">
        <ele>45.9</ele>
        <time>2019-01-10T09:04:45Z</time>
      </trkpt>
      <trkpt lat="43.52491" lon="3.49505">
        <ele>46.2</ele>
        <time>2019-01-10T09:04:47Z</time>
      </trkpt>
      <trkpt lat="43.52491" lon="3.49509">
        <ele>46.4</ele>
        <time>2019-01-10T09:04:49Z</time>
      </trkpt>
      <trkpt lat="43.5249" lon="3.49513">
        <ele>46.4</ele>
        <time>2019-01-10T09:04:51Z</time>
      </trkpt>
      <trkpt lat="43.5249" lon="3.49517">
        <ele>46.5</ele>
        <time>2019-01-10T09:04:53Z</time>
      </trkpt>
      <trkpt lat="43.52489" lon="3.49522">
        <ele>46.6</ele>
        <time>2019-01-10T09:04:55Z</time>
      </trkpt>
      <trkpt lat="43.52489" lon="3.49527">
        <ele>46.7</ele>
        <time>2019-01-10T09:04:58Z</time>
      </trkpt>
      <trkpt lat="43.52489" lon="3.49531">
        <ele>46.8</ele>
        <time>2019-01-10T09:05:01Z</time>
      </trkpt>
      <trkpt lat="43.52489" lon="3.49536">
        <ele>46.9</ele>
        <time>2019-01-10T09:05:04Z</time>
      </trkpt>
      <trkpt lat="43.52489" lon="3.49542">
        <ele>47</ele>
        <time>2019-01-10T09:05:07Z</time>
      </trkpt>
      <trkpt lat="43.52488" lon="3.49545">
        <ele>47</ele>
        <time>2019-01-10T09:05:09Z</time>
      </trkpt>
      <trkpt lat="43.52488" lon="3.49551">
        <ele>47.1</ele>
        <time>2019-01-10T09:05:12Z</time>
      </trkpt>
      <trkpt lat="43.52487" lon="3.49556">
        <ele>47.2</ele>
        <time>2019-01-10T09:05:15Z</time>
      </trkpt>
      <trkpt lat="43.52486" lon="3.4956">
        <ele>47.2</ele>
        <time>2019-01-10T09:05:17Z</time>
      </trkpt>
      <trkpt lat="43.52486" lon="3.49565">
        <ele>47.2</ele>
        <time>2019-01-10T09:05:19Z</time>
      </trkpt>
      <trkpt lat="43.52486" lon="3.49569">
        <ele>47.3</ele>
        <time>2019-01-10T09:05:21Z</time>
      </trkpt>
      <trkpt lat="43.52485" lon="3.49573">
        <ele>47.3</ele>
        <time>2019-01-10T09:05:23Z</time>
      </trkpt>
      <trkpt lat="43.52484" lon="3.49577">
        <ele>47.3</ele>
        <time>2019-01-10T09:05:25Z</time>
      </trkpt>
      <trkpt lat="43.52483" lon="3.49581">
        <ele>47.3</ele>
        <time>2019-01-10T09:05:27Z</time>
      </trkpt>
      <trkpt lat="43.52482" lon="3.49584">
        <ele>47.4</ele>
        <time>2019-01-10T09:05:29Z</time>
      </trkpt>
      <trkpt lat="43.5248" lon="3.49589">
        <ele>47.4</ele>
        <time>2019-01-10T09:05:31Z</time>
      </trkpt>
      <trkpt lat="43.5248" lon="3.49593">
        <ele>47.4</ele>
        <time>2019-01-10T09:05:33Z</time>
      </trkpt>
      <trkpt lat="43.52479" lon="3.49596">
        <ele>47.4</ele>
        <time>2019-01-10T09:05:35Z</time>
      </trkpt>
      <trkpt lat="43.52478" lon="3.49601">
        <ele>47.5</ele>
        <time>2019-01-10T09:05:37Z</time>
      </trkpt>
      <trkpt lat="43.52477" lon="3.49606">
        <ele>47.5</ele>
        <time>2019-01-10T09:05:39Z</time>
      </trkpt>
      <trkpt lat="43.52477" lon="3.4961">
        <ele>47.6</ele>
        <time>2019-01-10T09:05:41Z</time>
      </trkpt>
      <trkpt lat="43.52476" lon="3.49614">
        <ele>47.6</ele>
        <time>2019-01-10T09:05:43Z</time>
      </trkpt>
      <trkpt lat="43.52475" lon="3.49618">
        <ele>47.7</ele>
        <time>2019-01-10T09:05:46Z</time>
      </trkpt>
      <trkpt lat="43.52473" lon="3.49624">
        <ele>47.7</ele>
        <time>2019-01-10T09:05:49Z</time>
      </trkpt>
      <trkpt lat="43.52472" lon="3.49628">
        <ele>47.8</ele>
        <time>2019-01-10T09:05:52Z</time>
      </trkpt>
      <trkpt lat="43.52471" lon="3.49632">
        <ele>47.8</ele>
        <time>2019-01-10T09:05:54Z</time>
      </trkpt>
      <trkpt lat="43.5247" lon="3.49637">
        <ele>47.9</ele>
        <time>2019-01-10T09:05:56Z</time>
      </trkpt>
      <trkpt lat="43.5247" lon="3.4964">
        <ele>48</ele>
        <time>2019-01-10T09:05:58Z</time>
      </trkpt>
      <trkpt lat="43.52469" lon="3.49644">
        <ele>48.1</ele>
        <time>2019-01-10T09:06:00Z</time>
      </trkpt>
      <trkpt lat="43.52468" lon="3.49648">
        <ele>48.2</ele>
        <time>2019-01-10T09:06:02Z</time>
      </trkpt>
      <trkpt lat="43.52467" lon="3.49652">
        <ele>48.3</ele>
        <time>2019-01-10T09:06:04Z</time>
      </trkpt>
      <trkpt lat="43.52466" lon="3.49656">
        <ele>48.3</ele>
        <time>2019-01-10T09:06:06Z</time>
      </trkpt>
      <trkpt lat="43.52465" lon="3.49661">
        <ele>48.4</ele>
        <time>2019-01-10T09:06:09Z</time>
      </trkpt>
      <trkpt lat="43.52464" lon="3.49666">
        <ele>48.5</ele>
        <time>2019-01-10T09:06:12Z</time>
      </trkpt>
      <trkpt lat="43.52462" lon="3.49671">
        <ele>48.7</ele>
        <time>2019-01-10T09:06:15Z</time>
      </trkpt>
      <trkpt lat="43.52462" lon="3.49676">
        <ele>48.8</ele>
        <time>2019-01-10T09:06:18Z</time>
      </trkpt>
      <trkpt lat="43.52462" lon="3.4968">
        <ele>48.9</ele>
        <time>2019-01-10T09:06:20Z</time>
      </trkpt>
      <trkpt lat="43.52461" lon="3.49685">
        <ele>49</ele>
        <time>2019-01-10T09:06:22Z</time>
      </trkpt>
      <trkpt lat="43.52462" lon="3.4969">
        <ele>49.1</ele>
        <time>2019-01-10T09:06:24Z</time>
      </trkpt>
      <trkpt lat="43.52464" lon="3.49694">
        <ele>49.2</ele>
        <time>2019-01-10T09:06:26Z</time>
      </trkpt>
      <trkpt lat="43.52464" lon="3.49698">
        <ele>49.3</ele>
        <time>2019-01-10T09:06:28Z</time>
      </trkpt>
      <trkpt lat="43.52465" lon="3.49704">
        <ele>49.4</ele>
        <time>2019-01-10T09:06:31Z</time>
      </trkpt>
      <trkpt lat="43.52467" lon="3.49706">
        <ele>49.5</ele>
        <time>2019-01-10T09:06:34Z</time>
      </trkpt>
      <trkpt lat="43.5247" lon="3.49705">
        <ele>49.5</ele>
        <time>2019-01-10T09:06:36Z</time>
      </trkpt>
      <trkpt lat="43.52472" lon="3.49702">
        <ele>49.4</ele>
        <time>2019-01-10T09:06:38Z</time>
      </trkpt>
      <trkpt lat="43.52474" lon="3.49699">
        <ele>49.4</ele>
        <time>2019-01-10T09:06:40Z</time>
      </trkpt>
      <trkpt lat="43.52476" lon="3.49695">
        <ele>49.4</ele>
        <time>2019-01-10T09:06:43Z</time>
      </trkpt>
      <trkpt lat="43.52479" lon="3.49692">
        <ele>49.3</ele>
        <time>2019-01-10T09:06:46Z</time>
      </trkpt>
      <trkpt lat="43.52481" lon="3.49689">
        <ele>49.3</ele>
        <time>2019-01-10T09:06:48Z</time>
      </trkpt>
      <trkpt lat="43.52484" lon="3.49687">
        <ele>49.3</ele>
        <time>2019-01-10T09:06:50Z</time>
      </trkpt>
      <trkpt lat="43.52486" lon="3.49684">
        <ele>49.3</ele>
        <time>2019-01-10T09:06:52Z</time>
      </trkpt>
      <trkpt lat="43.52489" lon="3.49682">
        <ele>49.2</ele>
        <time>2019-01-10T09:06:54Z</time>
      </trkpt>
      <trkpt lat="43.52491" lon="3.49679">
        <ele>49.2</ele>
        <time>2019-01-10T09:06:56Z</time>
      </trkpt>
      <trkpt lat="43.52493" lon="3.49676">
        <ele>49.2</ele>
        <time>2019-01-10T09:06:58Z</time>
      </trkpt>
      <trkpt lat="43.52495" lon="3.49673">
        <ele>49.2</ele>
        <time>2019-01-10T09:07:00Z</time>
      </trkpt>
      <trkpt lat="43.52498" lon="3.49669">
        <ele>49.2</ele>
        <time>2019-01-10T09:07:03Z</time>
      </trkpt>
      <trkpt lat="43.525" lon="3.49666">
        <ele>49.2</ele>
        <time>2019-01-10T09:07:05Z</time>
      </trkpt>
      <trkpt lat="43.52502" lon="3.49662">
        <ele>49.2</ele>
        <time>2019-01-10T09:07:07Z</time>
      </trkpt>
      <trkpt lat="43.52504" lon="3.49659">
        <ele>49.2</ele>
        <time>2019-01-10T09:07:09Z</time>
      </trkpt>
      <trkpt lat="43.52506" lon="3.49656">
        <ele>49.2</ele>
        <time>2019-01-10T09:07:11Z</time>
      </trkpt>
      <trkpt lat="43.52509" lon="3.49652">
        <ele>49.2</ele>
        <time>2019-01-10T09:07:14Z</time>
      </trkpt>
      <trkpt lat="43.52511" lon="3.49647">
        <ele>49.2</ele>
        <time>2019-01-10T09:07:17Z</time>
      </trkpt>
      <trkpt lat="43.52514" lon="3.49643">
        <ele>49.2</ele>
        <time>2019-01-10T09:07:20Z</time>
      </trkpt>
      <trkpt lat="43.52516" lon="3.4964">
        <ele>49.3</ele>
        <time>2019-01-10T09:07:22Z</time>
      </trkpt>
      <trkpt lat="43.52518" lon="3.49638">
        <ele>49.2</ele>
        <time>2019-01-10T09:07:24Z</time>
      </trkpt>
      <trkpt lat="43.52521" lon="3.49634">
        <ele>49.3</ele>
        <time>2019-01-10T09:07:27Z</time>
      </trkpt>
      <trkpt lat="43.52523" lon="3.49631">
        <ele>49.3</ele>
        <time>2019-01-10T09:07:29Z</time>
      </trkpt>
      <trkpt lat="43.52524" lon="3.49628">
        <ele>49.3</ele>
        <time>2019-01-10T09:07:31Z</time>
      </trkpt>
      <trkpt lat="43.52526" lon="3.49625">
        <ele>49.4</ele>
        <time>2019-01-10T09:07:34Z</time>
      </trkpt>
      <trkpt lat="43.52529" lon="3.49621">
        <ele>49.4</ele>
        <time>2019-01-10T09:07:37Z</time>
      </trkpt>
      <trkpt lat="43.52531" lon="3.49618">
        <ele>49.4</ele>
        <time>2019-01-10T09:07:39Z</time>
      </trkpt>
      <trkpt lat="43.52534" lon="3.49614">
        <ele>49.4</ele>
        <time>2019-01-10T09:07:42Z</time>
      </trkpt>
      <trkpt lat="43.52536" lon="3.49611">
        <ele>49.5</ele>
        <time>2019-01-10T09:07:44Z</time>
      </trkpt>
      <trkpt lat="43.52539" lon="3.49607">
        <ele>49.6</ele>
        <time>2019-01-10T09:07:47Z</time>
      </trkpt>
      <trkpt lat="43.52541" lon="3.49604">
        <ele>49.6</ele>
        <time>2019-01-10T09:07:49Z</time>
      </trkpt>
      <trkpt lat="43.52543" lon="3.49601">
        <ele>49.6</ele>
        <time>2019-01-10T09:07:51Z</time>
      </trkpt>
      <trkpt lat="43.52545" lon="3.49598">
        <ele>49.6</ele>
        <time>2019-01-10T09:07:54Z</time>
      </trkpt>
      <trkpt lat="43.52547" lon="3.49595">
        <ele>49.6</ele>
        <time>2019-01-10T09:07:57Z</time>
      </trkpt>
      <trkpt lat="43.52549" lon="3.49591">
        <ele>49.6</ele>
        <time>2019-01-10T09:08:00Z</time>
      </trkpt>
      <trkpt lat="43.52551" lon="3.49587">
        <ele>49.6</ele>
        <time>2019-01-10T09:08:03Z</time>
      </trkpt>
      <trkpt lat="43.52553" lon="3.49584">
        <ele>49.5</ele>
        <time>2019-01-10T09:08:05Z</time>
      </trkpt>
      <trkpt lat="43.52554" lon="3.49581">
        <ele>49.6</ele>
        <time>2019-01-10T09:08:07Z</time>
      </trkpt>
      <trkpt lat="43.52557" lon="3.49578">
        <ele>49.5</ele>
        <time>2019-01-10T09:08:09Z</time>
      </trkpt>
      <trkpt lat="43.52559" lon="3.49575">
        <ele>49.5</ele>
        <time>2019-01-10T09:08:11Z</time>
      </trkpt>
      <trkpt lat="43.52561" lon="3.49572">
        <ele>49.5</ele>
        <time>2019-01-10T09:08:13Z</time>
      </trkpt>
      <trkpt lat="43.52564" lon="3.49567">
        <ele>49.5</ele>
        <time>2019-01-10T09:08:15Z</time>
      </trkpt>
      <trkpt lat="43.52567" lon="3.49564">
        <ele>49.5</ele>
        <time>2019-01-10T09:08:17Z</time>
      </trkpt>
      <trkpt lat="43.52569" lon="3.49561">
        <ele>49.4</ele>
        <time>2019-01-10T09:08:19Z</time>
      </trkpt>
      <trkpt lat="43.52571" lon="3.49559">
        <ele>49.4</ele>
        <time>2019-01-10T09:08:21Z</time>
      </trkpt>
      <trkpt lat="43.52573" lon="3.49556">
        <ele>49.3</ele>
        <time>2019-01-10T09:08:23Z</time>
      </trkpt>
      <trkpt lat="43.52575" lon="3.49553">
        <ele>49.3</ele>
        <time>2019-01-10T09:08:25Z</time>
      </trkpt>
      <trkpt lat="43.52577" lon="3.49549">
        <ele>49.2</ele>
        <time>2019-01-10T09:08:27Z</time>
      </trkpt>
      <trkpt lat="43.5258" lon="3.49546">
        <ele>49.2</ele>
        <time>2019-01-10T09:08:29Z</time>
      </trkpt>
      <trkpt lat="43.52582" lon="3.49543">
        <ele>49.1</ele>
        <time>2019-01-10T09:08:31Z</time>
      </trkpt>
      <trkpt lat="43.52585" lon="3.49541">
        <ele>49</ele>
        <time>2019-01-10T09:08:34Z</time>
      </trkpt>
      <trkpt lat="43.52588" lon="3.49542">
        <ele>49.1</ele>
        <time>2019-01-10T09:08:36Z</time>
      </trkpt>
      <trkpt lat="43.52591" lon="3.49545">
        <ele>49.1</ele>
        <time>2019-01-10T09:08:38Z</time>
      </trkpt>
      <trkpt lat="43.52595" lon="3.49548">
        <ele>49</ele>
      </trkpt>
      <trkpt lat="43.526" lon="3.49551">
        <ele>49</ele>
      </trkpt>
      <trkpt lat="43.52605" lon="3.49555">
        <ele>49</ele>
      </trkpt>
      <trkpt lat="43.5261" lon="3.49559">
        <ele>49</ele>
      </trkpt>
      <trkpt lat="43.52617" lon="3.49568">
        <ele>49</ele>
      </trkpt>
      <trkpt lat="43.52648" lon="3.4961">
        <ele>48</ele>
      </trkpt>
      <trkpt lat="43.52652" lon="3.49617">
        <ele>47</ele>
      </trkpt>
      <trkpt lat="43.52651" lon="3.49623">
        <ele>47</ele>
      </trkpt>
      <trkpt lat="43.52657" lon="3.49632">
        <ele>46</ele>
      </trkpt>
      <trkpt lat="43.52665" lon="3.49637">
        <ele>46</ele>
      </trkpt>
      <trkpt lat="43.5267" lon="3.49643">
        <ele>43</ele>
      </trkpt>
      <trkpt lat="43.52677" lon="3.49649">
        <ele>43</ele>
      </trkpt>
      <trkpt lat="43.52741" lon="3.49708">
        <ele>37</ele>
      </trkpt>
      <trkpt lat="43.5272" lon="3.49759">
        <ele>37</ele>
      </trkpt>
      <trkpt lat="43.52725" lon="3.49764">
        <ele>36</ele>
      </trkpt>
      <trkpt lat="43.52718" lon="3.49765">
        <ele>37</ele>
      </trkpt>
      <trkpt lat="43.52706" lon="3.49793">
        <ele>37</ele>
      </trkpt>
      <trkpt lat="43.52704" lon="3.498">
        <ele>37</ele>
      </trkpt>
      <trkpt lat="43.52707" lon="3.49805">
        <ele>37.3</ele>
      </trkpt>
      <trkpt lat="43.52766" lon="3.49871">
        <ele>35</ele>
      </trkpt>
      <trkpt lat="43.52766" lon="3.4988">
        <ele>35.5</ele>
        <time>2019-01-10T09:12:47Z</time>
      </trkpt>
      <trkpt lat="43.52768" lon="3.49884">
        <ele>35.4</ele>
        <time>2019-01-10T09:12:49Z</time>
      </trkpt>
      <trkpt lat="43.5277" lon="3.49887">
        <ele>35.4</ele>
        <time>2019-01-10T09:12:51Z</time>
      </trkpt>
      <trkpt lat="43.52772" lon="3.4989">
        <ele>35.3</ele>
        <time>2019-01-10T09:12:53Z</time>
      </trkpt>
      <trkpt lat="43.52774" lon="3.49891">
        <ele>35.2</ele>
        <time>2019-01-10T09:12:55Z</time>
      </trkpt>
      <trkpt lat="43.52778" lon="3.49892">
        <ele>35.2</ele>
        <time>2019-01-10T09:12:57Z</time>
      </trkpt>
      <trkpt lat="43.52781" lon="3.49893">
        <ele>35.1</ele>
        <time>2019-01-10T09:12:59Z</time>
      </trkpt>
      <trkpt lat="43.52784" lon="3.49894">
        <ele>35.1</ele>
        <time>2019-01-10T09:13:01Z</time>
      </trkpt>
      <trkpt lat="43.52787" lon="3.49897">
        <ele>35</ele>
        <time>2019-01-10T09:13:04Z</time>
      </trkpt>
      <trkpt lat="43.5279" lon="3.49899">
        <ele>35</ele>
        <time>2019-01-10T09:13:06Z</time>
      </trkpt>
      <trkpt lat="43.52792" lon="3.49902">
        <ele>34.9</ele>
        <time>2019-01-10T09:13:08Z</time>
      </trkpt>
      <trkpt lat="43.52795" lon="3.49906">
        <ele>34.9</ele>
        <time>2019-01-10T09:13:11Z</time>
      </trkpt>
      <trkpt lat="43.52798" lon="3.49909">
        <ele>34.8</ele>
        <time>2019-01-10T09:13:14Z</time>
      </trkpt>
      <trkpt lat="43.528" lon="3.49913">
        <ele>34.7</ele>
        <time>2019-01-10T09:13:17Z</time>
      </trkpt>
      <trkpt lat="43.52803" lon="3.49915">
        <ele>34.7</ele>
        <time>2019-01-10T09:13:19Z</time>
      </trkpt>
      <trkpt lat="43.52805" lon="3.49918">
        <ele>34.6</ele>
        <time>2019-01-10T09:13:21Z</time>
      </trkpt>
      <trkpt lat="43.52807" lon="3.49921">
        <ele>34.6</ele>
        <time>2019-01-10T09:13:23Z</time>
      </trkpt>
      <trkpt lat="43.5281" lon="3.49924">
        <ele>34.6</ele>
        <time>2019-01-10T09:13:25Z</time>
      </trkpt>
      <trkpt lat="43.52812" lon="3.49926">
        <ele>34.6</ele>
        <time>2019-01-10T09:13:27Z</time>
      </trkpt>
      <trkpt lat="43.52814" lon="3.4993">
        <ele>34.6</ele>
        <time>2019-01-10T09:13:29Z</time>
      </trkpt>
      <trkpt lat="43.52815" lon="3.49934">
        <ele>34.7</ele>
        <time>2019-01-10T09:13:31Z</time>
      </trkpt>
      <trkpt lat="43.52815" lon="3.49937">
        <ele>34.7</ele>
        <time>2019-01-10T09:13:33Z</time>
      </trkpt>
      <trkpt lat="43.52815" lon="3.49942">
        <ele>34.7</ele>
        <time>2019-01-10T09:13:36Z</time>
      </trkpt>
      <trkpt lat="43.52814" lon="3.49947">
        <ele>34.8</ele>
        <time>2019-01-10T09:13:39Z</time>
      </trkpt>
      <trkpt lat="43.52813" lon="3.4995">
        <ele>34.9</ele>
        <time>2019-01-10T09:13:41Z</time>
      </trkpt>
      <trkpt lat="43.52813" lon="3.49955">
        <ele>35</ele>
        <time>2019-01-10T09:13:43Z</time>
      </trkpt>
      <trkpt lat="43.52813" lon="3.49958">
        <ele>35.1</ele>
        <time>2019-01-10T09:13:47Z</time>
      </trkpt>
      <trkpt lat="43.52813" lon="3.49963">
        <ele>35.2</ele>
        <time>2019-01-10T09:13:53Z</time>
      </trkpt>
      <trkpt lat="43.52813" lon="3.49967">
        <ele>35.3</ele>
        <time>2019-01-10T09:13:55Z</time>
      </trkpt>
      <trkpt lat="43.52813" lon="3.49971">
        <ele>35.5</ele>
        <time>2019-01-10T09:13:57Z</time>
      </trkpt>
      <trkpt lat="43.52813" lon="3.49976">
        <ele>35.7</ele>
        <time>2019-01-10T09:13:59Z</time>
      </trkpt>
      <trkpt lat="43.52813" lon="3.4998">
        <ele>35.8</ele>
        <time>2019-01-10T09:14:01Z</time>
      </trkpt>
      <trkpt lat="43.52812" lon="3.49984">
        <ele>36</ele>
        <time>2019-01-10T09:14:03Z</time>
      </trkpt>
      <trkpt lat="43.52812" lon="3.49987">
        <ele>36.1</ele>
        <time>2019-01-10T09:14:05Z</time>
      </trkpt>
      <trkpt lat="43.52811" lon="3.49993">
        <ele>36.3</ele>
        <time>2019-01-10T09:14:08Z</time>
      </trkpt>
      <trkpt lat="43.5281" lon="3.49998">
        <ele>36.5</ele>
        <time>2019-01-10T09:14:10Z</time>
      </trkpt>
      <trkpt lat="43.52809" lon="3.50002">
        <ele>36.6</ele>
        <time>2019-01-10T09:14:12Z</time>
      </trkpt>
      <trkpt lat="43.52808" lon="3.50007">
        <ele>36.8</ele>
        <time>2019-01-10T09:14:14Z</time>
      </trkpt>
      <trkpt lat="43.52808" lon="3.50011">
        <ele>37</ele>
        <time>2019-01-10T09:14:16Z</time>
      </trkpt>
      <trkpt lat="43.52807" lon="3.50016">
        <ele>37.3</ele>
        <time>2019-01-10T09:14:18Z</time>
      </trkpt>
      <trkpt lat="43.52806" lon="3.5002">
        <ele>37.5</ele>
        <time>2019-01-10T09:14:20Z</time>
      </trkpt>
      <trkpt lat="43.52806" lon="3.50024">
        <ele>37.7</ele>
        <time>2019-01-10T09:14:23Z</time>
      </trkpt>
      <trkpt lat="43.52806" lon="3.50028">
        <ele>38.4</ele>
        <time>2019-01-10T09:14:26Z</time>
      </trkpt>
      <trkpt lat="43.52806" lon="3.50033">
        <ele>38.4</ele>
        <time>2019-01-10T09:14:29Z</time>
      </trkpt>
      <trkpt lat="43.52809" lon="3.50036">
        <ele>38.4</ele>
        <time>2019-01-10T09:14:31Z</time>
      </trkpt>
      <trkpt lat="43.52812" lon="3.50038">
        <ele>38.5</ele>
        <time>2019-01-10T09:14:33Z</time>
      </trkpt>
      <trkpt lat="43.52815" lon="3.50039">
        <ele>38.5</ele>
        <time>2019-01-10T09:14:35Z</time>
      </trkpt>
      <trkpt lat="43.52819" lon="3.5004">
        <ele>38.5</ele>
        <time>2019-01-10T09:14:38Z</time>
      </trkpt>
      <trkpt lat="43.52821" lon="3.5004">
        <ele>38.6</ele>
        <time>2019-01-10T09:14:40Z</time>
      </trkpt>
      <trkpt lat="43.52824" lon="3.50041">
        <ele>38.7</ele>
        <time>2019-01-10T09:14:42Z</time>
      </trkpt>
      <trkpt lat="43.52827" lon="3.50042">
        <ele>38.8</ele>
        <time>2019-01-10T09:14:44Z</time>
      </trkpt>
      <trkpt lat="43.52831" lon="3.50044">
        <ele>38.9</ele>
        <time>2019-01-10T09:14:46Z</time>
      </trkpt>
      <trkpt lat="43.52835" lon="3.50046">
        <ele>39.2</ele>
        <time>2019-01-10T09:14:48Z</time>
      </trkpt>
      <trkpt lat="43.52838" lon="3.50048">
        <ele>39.3</ele>
        <time>2019-01-10T09:14:50Z</time>
      </trkpt>
      <trkpt lat="43.52841" lon="3.50049">
        <ele>39.5</ele>
        <time>2019-01-10T09:14:52Z</time>
      </trkpt>
      <trkpt lat="43.52844" lon="3.50051">
        <ele>39.6</ele>
        <time>2019-01-10T09:14:55Z</time>
      </trkpt>
      <trkpt lat="43.52848" lon="3.50053">
        <ele>39.8</ele>
        <time>2019-01-10T09:14:58Z</time>
      </trkpt>
      <trkpt lat="43.52851" lon="3.50054">
        <ele>40</ele>
        <time>2019-01-10T09:15:00Z</time>
      </trkpt>
      <trkpt lat="43.52854" lon="3.50056">
        <ele>40.2</ele>
        <time>2019-01-10T09:15:02Z</time>
      </trkpt>
      <trkpt lat="43.52857" lon="3.50057">
        <ele>40.4</ele>
        <time>2019-01-10T09:15:04Z</time>
      </trkpt>
      <trkpt lat="43.52861" lon="3.50058">
        <ele>40.6</ele>
        <time>2019-01-10T09:15:07Z</time>
      </trkpt>
      <trkpt lat="43.52863" lon="3.50061">
        <ele>40.8</ele>
        <time>2019-01-10T09:15:10Z</time>
      </trkpt>
      <trkpt lat="43.52866" lon="3.50063">
        <ele>40.9</ele>
        <time>2019-01-10T09:15:13Z</time>
      </trkpt>
      <trkpt lat="43.52869" lon="3.50065">
        <ele>40.9</ele>
        <time>2019-01-10T09:15:16Z</time>
      </trkpt>
      <trkpt lat="43.52872" lon="3.50067">
        <ele>40.9</ele>
        <time>2019-01-10T09:15:19Z</time>
      </trkpt>
      <trkpt lat="43.52875" lon="3.50067">
        <ele>40.8</ele>
        <time>2019-01-10T09:15:21Z</time>
      </trkpt>
      <trkpt lat="43.52879" lon="3.50067">
        <ele>40.8</ele>
        <time>2019-01-10T09:15:24Z</time>
      </trkpt>
      <trkpt lat="43.52882" lon="3.50066">
        <ele>40.8</ele>
        <time>2019-01-10T09:15:26Z</time>
      </trkpt>
      <trkpt lat="43.52885" lon="3.50066">
        <ele>40.7</ele>
        <time>2019-01-10T09:15:28Z</time>
      </trkpt>
      <trkpt lat="43.52888" lon="3.50066">
        <ele>40.7</ele>
        <time>2019-01-10T09:15:30Z</time>
      </trkpt>
      <trkpt lat="43.52891" lon="3.50066">
        <ele>40.7</ele>
        <time>2019-01-10T09:15:32Z</time>
      </trkpt>
      <trkpt lat="43.52895" lon="3.50065">
        <ele>40.6</ele>
        <time>2019-01-10T09:15:34Z</time>
      </trkpt>
      <trkpt lat="43.52898" lon="3.50065">
        <ele>40.6</ele>
        <time>2019-01-10T09:15:36Z</time>
      </trkpt>
      <trkpt lat="43.52901" lon="3.50064">
        <ele>40.6</ele>
        <time>2019-01-10T09:15:38Z</time>
      </trkpt>
      <trkpt lat="43.52905" lon="3.50063">
        <ele>40.6</ele>
        <time>2019-01-10T09:15:40Z</time>
      </trkpt>
      <trkpt lat="43.52907" lon="3.50062">
        <ele>40.5</ele>
        <time>2019-01-10T09:15:42Z</time>
      </trkpt>
      <trkpt lat="43.5291" lon="3.50061">
        <ele>40.5</ele>
        <time>2019-01-10T09:15:44Z</time>
      </trkpt>
      <trkpt lat="43.52913" lon="3.50059">
        <ele>40.5</ele>
        <time>2019-01-10T09:15:46Z</time>
      </trkpt>
      <trkpt lat="43.52917" lon="3.50058">
        <ele>40.5</ele>
        <time>2019-01-10T09:15:49Z</time>
      </trkpt>
      <trkpt lat="43.5292" lon="3.50058">
        <ele>40.4</ele>
        <time>2019-01-10T09:15:51Z</time>
      </trkpt>
      <trkpt lat="43.52923" lon="3.50058">
        <ele>40.4</ele>
        <time>2019-01-10T09:15:53Z</time>
      </trkpt>
      <trkpt lat="43.52926" lon="3.50057">
        <ele>40.4</ele>
        <time>2019-01-10T09:15:55Z</time>
      </trkpt>
      <trkpt lat="43.5293" lon="3.50057">
        <ele>40.3</ele>
        <time>2019-01-10T09:15:57Z</time>
      </trkpt>
      <trkpt lat="43.52932" lon="3.50056">
        <ele>40.3</ele>
        <time>2019-01-10T09:15:59Z</time>
      </trkpt>
      <trkpt lat="43.52936" lon="3.50055">
        <ele>40.3</ele>
        <time>2019-01-10T09:16:01Z</time>
      </trkpt>
      <trkpt lat="43.5294" lon="3.50054">
        <ele>40.2</ele>
        <time>2019-01-10T09:16:04Z</time>
      </trkpt>
      <trkpt lat="43.52943" lon="3.50053">
        <ele>40.2</ele>
        <time>2019-01-10T09:16:06Z</time>
      </trkpt>
      <trkpt lat="43.52946" lon="3.50052">
        <ele>40.1</ele>
        <time>2019-01-10T09:16:08Z</time>
      </trkpt>
      <trkpt lat="43.52949" lon="3.50052">
        <ele>40.1</ele>
        <time>2019-01-10T09:16:10Z</time>
      </trkpt>
      <trkpt lat="43.52953" lon="3.50053">
        <ele>40</ele>
        <time>2019-01-10T09:16:12Z</time>
      </trkpt>
      <trkpt lat="43.52956" lon="3.50053">
        <ele>39.9</ele>
        <time>2019-01-10T09:16:14Z</time>
      </trkpt>
      <trkpt lat="43.52959" lon="3.50053">
        <ele>39.9</ele>
        <time>2019-01-10T09:16:16Z</time>
      </trkpt>
      <trkpt lat="43.52963" lon="3.50053">
        <ele>39.8</ele>
        <time>2019-01-10T09:16:18Z</time>
      </trkpt>
      <trkpt lat="43.52966" lon="3.50054">
        <ele>39.7</ele>
        <time>2019-01-10T09:16:20Z</time>
      </trkpt>
      <trkpt lat="43.5297" lon="3.50056">
        <ele>39.7</ele>
        <time>2019-01-10T09:16:22Z</time>
      </trkpt>
      <trkpt lat="43.52972" lon="3.50056">
        <ele>39.6</ele>
        <time>2019-01-10T09:16:24Z</time>
      </trkpt>
      <trkpt lat="43.52975" lon="3.50057">
        <ele>39.5</ele>
        <time>2019-01-10T09:16:26Z</time>
      </trkpt>
      <trkpt lat="43.52978" lon="3.50061">
        <ele>39.5</ele>
        <time>2019-01-10T09:16:29Z</time>
      </trkpt>
      <trkpt lat="43.52979" lon="3.50064">
        <ele>39.6</ele>
        <time>2019-01-10T09:16:31Z</time>
      </trkpt>
      <trkpt lat="43.52979" lon="3.50068">
        <ele>39.6</ele>
        <time>2019-01-10T09:16:33Z</time>
      </trkpt>
      <trkpt lat="43.52979" lon="3.50073">
        <ele>39.6</ele>
        <time>2019-01-10T09:16:36Z</time>
      </trkpt>
      <trkpt lat="43.5298" lon="3.50079">
        <ele>39.7</ele>
        <time>2019-01-10T09:16:39Z</time>
      </trkpt>
      <trkpt lat="43.52979" lon="3.50083">
        <ele>39.8</ele>
        <time>2019-01-10T09:16:42Z</time>
      </trkpt>
      <trkpt lat="43.52979" lon="3.50088">
        <ele>39.8</ele>
        <time>2019-01-10T09:16:45Z</time>
      </trkpt>
      <trkpt lat="43.5298" lon="3.50093">
        <ele>39.8</ele>
        <time>2019-01-10T09:16:48Z</time>
      </trkpt>
      <trkpt lat="43.52981" lon="3.50098">
        <ele>39.8</ele>
        <time>2019-01-10T09:16:51Z</time>
      </trkpt>
      <trkpt lat="43.52981" lon="3.50103">
        <ele>39.8</ele>
        <time>2019-01-10T09:16:54Z</time>
      </trkpt>
      <trkpt lat="43.52981" lon="3.50108">
        <ele>39.8</ele>
        <time>2019-01-10T09:16:56Z</time>
      </trkpt>
      <trkpt lat="43.52981" lon="3.50113">
        <ele>39.8</ele>
        <time>2019-01-10T09:16:58Z</time>
      </trkpt>
      <trkpt lat="43.52982" lon="3.50118">
        <ele>39.7</ele>
        <time>2019-01-10T09:17:00Z</time>
      </trkpt>
      <trkpt lat="43.52983" lon="3.50122">
        <ele>39.6</ele>
        <time>2019-01-10T09:17:02Z</time>
      </trkpt>
      <trkpt lat="43.52983" lon="3.50126">
        <ele>39.6</ele>
        <time>2019-01-10T09:17:04Z</time>
      </trkpt>
      <trkpt lat="43.52983" lon="3.5013">
        <ele>39.5</ele>
        <time>2019-01-10T09:17:06Z</time>
      </trkpt>
      <trkpt lat="43.52983" lon="3.50134">
        <ele>39.5</ele>
        <time>2019-01-10T09:17:08Z</time>
      </trkpt>
      <trkpt lat="43.52985" lon="3.50139">
        <ele>39.5</ele>
        <time>2019-01-10T09:17:11Z</time>
      </trkpt>
      <trkpt lat="43.52988" lon="3.50141">
        <ele>39.4</ele>
        <time>2019-01-10T09:17:13Z</time>
      </trkpt>
      <trkpt lat="43.52992" lon="3.50142">
        <ele>39.3</ele>
        <time>2019-01-10T09:17:15Z</time>
      </trkpt>
      <trkpt lat="43.52995" lon="3.50142">
        <ele>39.2</ele>
        <time>2019-01-10T09:17:17Z</time>
      </trkpt>
      <trkpt lat="43.52999" lon="3.50142">
        <ele>39.2</ele>
        <time>2019-01-10T09:17:19Z</time>
      </trkpt>
      <trkpt lat="43.53001" lon="3.50141">
        <ele>39.2</ele>
        <time>2019-01-10T09:17:21Z</time>
      </trkpt>
      <trkpt lat="43.53005" lon="3.50141">
        <ele>39.1</ele>
        <time>2019-01-10T09:17:23Z</time>
      </trkpt>
      <trkpt lat="43.53008" lon="3.50143">
        <ele>39.1</ele>
        <time>2019-01-10T09:17:25Z</time>
      </trkpt>
      <trkpt lat="43.53011" lon="3.50145">
        <ele>39</ele>
        <time>2019-01-10T09:17:27Z</time>
      </trkpt>
      <trkpt lat="43.53013" lon="3.50149">
        <ele>39</ele>
        <time>2019-01-10T09:17:29Z</time>
      </trkpt>
      <trkpt lat="43.53015" lon="3.50152">
        <ele>39</ele>
        <time>2019-01-10T09:17:31Z</time>
      </trkpt>
      <trkpt lat="43.53016" lon="3.50156">
        <ele>39</ele>
        <time>2019-01-10T09:17:33Z</time>
      </trkpt>
      <trkpt lat="43.53017" lon="3.5016">
        <ele>39</ele>
        <time>2019-01-10T09:17:35Z</time>
      </trkpt>
      <trkpt lat="43.53019" lon="3.50164">
        <ele>39.1</ele>
        <time>2019-01-10T09:17:37Z</time>
      </trkpt>
      <trkpt lat="43.5302" lon="3.50169">
        <ele>39.1</ele>
        <time>2019-01-10T09:17:39Z</time>
      </trkpt>
      <trkpt lat="43.5302" lon="3.50173">
        <ele>39.1</ele>
        <time>2019-01-10T09:17:41Z</time>
      </trkpt>
      <trkpt lat="43.53022" lon="3.50178">
        <ele>39.2</ele>
        <time>2019-01-10T09:17:44Z</time>
      </trkpt>
      <trkpt lat="43.53023" lon="3.50182">
        <ele>39.3</ele>
        <time>2019-01-10T09:17:46Z</time>
      </trkpt>
      <trkpt lat="43.53025" lon="3.50186">
        <ele>39.3</ele>
        <time>2019-01-10T09:17:48Z</time>
      </trkpt>
      <trkpt lat="43.53026" lon="3.50191">
        <ele>39.4</ele>
        <time>2019-01-10T09:17:51Z</time>
      </trkpt>
      <trkpt lat="43.53027" lon="3.50195">
        <ele>39.5</ele>
        <time>2019-01-10T09:17:53Z</time>
      </trkpt>
      <trkpt lat="43.53028" lon="3.502">
        <ele>39.6</ele>
        <time>2019-01-10T09:17:55Z</time>
      </trkpt>
      <trkpt lat="43.53029" lon="3.50204">
        <ele>39.7</ele>
        <time>2019-01-10T09:17:57Z</time>
      </trkpt>
      <trkpt lat="43.53031" lon="3.50208">
        <ele>39.8</ele>
        <time>2019-01-10T09:17:59Z</time>
      </trkpt>
      <trkpt lat="43.53033" lon="3.50211">
        <ele>39.9</ele>
        <time>2019-01-10T09:18:01Z</time>
      </trkpt>
      <trkpt lat="43.53037" lon="3.50212">
        <ele>39.9</ele>
        <time>2019-01-10T09:18:03Z</time>
      </trkpt>
      <trkpt lat="43.5304" lon="3.5021">
        <ele>39.9</ele>
        <time>2019-01-10T09:18:05Z</time>
      </trkpt>
      <trkpt lat="43.53043" lon="3.50209">
        <ele>39.9</ele>
        <time>2019-01-10T09:18:07Z</time>
      </trkpt>
      <trkpt lat="43.53046" lon="3.50211">
        <ele>40</ele>
        <time>2019-01-10T09:18:10Z</time>
      </trkpt>
      <trkpt lat="43.53048" lon="3.50215">
        <ele>40.1</ele>
        <time>2019-01-10T09:18:13Z</time>
      </trkpt>
      <trkpt lat="43.5305" lon="3.50219">
        <ele>40.1</ele>
        <time>2019-01-10T09:18:16Z</time>
      </trkpt>
      <trkpt lat="43.53052" lon="3.50223">
        <ele>40.2</ele>
        <time>2019-01-10T09:18:19Z</time>
      </trkpt>
      <trkpt lat="43.53053" lon="3.50226">
        <ele>40.3</ele>
        <time>2019-01-10T09:18:21Z</time>
      </trkpt>
      <trkpt lat="43.53055" lon="3.50231">
        <ele>40.4</ele>
        <time>2019-01-10T09:18:24Z</time>
      </trkpt>
      <trkpt lat="43.53056" lon="3.50235">
        <ele>40.5</ele>
        <time>2019-01-10T09:18:26Z</time>
      </trkpt>
      <trkpt lat="43.53058" lon="3.50238">
        <ele>40.6</ele>
        <time>2019-01-10T09:18:28Z</time>
      </trkpt>
      <trkpt lat="43.53059" lon="3.50242">
        <ele>40.7</ele>
        <time>2019-01-10T09:18:30Z</time>
      </trkpt>
      <trkpt lat="43.5306" lon="3.50246">
        <ele>40.8</ele>
        <time>2019-01-10T09:18:32Z</time>
      </trkpt>
      <trkpt lat="43.53062" lon="3.50249">
        <ele>40.8</ele>
        <time>2019-01-10T09:18:34Z</time>
      </trkpt>
      <trkpt lat="43.53064" lon="3.50254">
        <ele>41</ele>
        <time>2019-01-10T09:18:37Z</time>
      </trkpt>
      <trkpt lat="43.53067" lon="3.50256">
        <ele>41</ele>
        <time>2019-01-10T09:18:39Z</time>
      </trkpt>
      <trkpt lat="43.53071" lon="3.50256">
        <ele>41</ele>
        <time>2019-01-10T09:18:41Z</time>
      </trkpt>
      <trkpt lat="43.53074" lon="3.50256">
        <ele>41</ele>
        <time>2019-01-10T09:18:43Z</time>
      </trkpt>
      <trkpt lat="43.53077" lon="3.50256">
        <ele>41</ele>
        <time>2019-01-10T09:18:45Z</time>
      </trkpt>
      <trkpt lat="43.5308" lon="3.50256">
        <ele>41</ele>
        <time>2019-01-10T09:18:48Z</time>
      </trkpt>
      <trkpt lat="43.53084" lon="3.50253">
        <ele>40.9</ele>
        <time>2019-01-10T09:18:51Z</time>
      </trkpt>
      <trkpt lat="43.53088" lon="3.50252">
        <ele>40.9</ele>
        <time>2019-01-10T09:18:54Z</time>
      </trkpt>
      <trkpt lat="43.53091" lon="3.50251">
        <ele>40.9</ele>
        <time>2019-01-10T09:18:56Z</time>
      </trkpt>
      <trkpt lat="43.53095" lon="3.50251">
        <ele>40.9</ele>
        <time>2019-01-10T09:18:59Z</time>
      </trkpt>
      <trkpt lat="43.53098" lon="3.5025">
        <ele>40.9</ele>
        <time>2019-01-10T09:19:01Z</time>
      </trkpt>
      <trkpt lat="43.53101" lon="3.5025">
        <ele>40.9</ele>
        <time>2019-01-10T09:19:03Z</time>
      </trkpt>
      <trkpt lat="43.53104" lon="3.50253">
        <ele>40.9</ele>
        <time>2019-01-10T09:19:06Z</time>
      </trkpt>
      <trkpt lat="43.53106" lon="3.50258">
        <ele>41</ele>
        <time>2019-01-10T09:19:09Z</time>
      </trkpt>
      <trkpt lat="43.53107" lon="3.50262">
        <ele>41.1</ele>
        <time>2019-01-10T09:19:12Z</time>
      </trkpt>
      <trkpt lat="43.53108" lon="3.50266">
        <ele>41.2</ele>
        <time>2019-01-10T09:19:14Z</time>
      </trkpt>
      <trkpt lat="43.53109" lon="3.5027">
        <ele>41.4</ele>
        <time>2019-01-10T09:19:17Z</time>
      </trkpt>
      <trkpt lat="43.53111" lon="3.50274">
        <ele>41.5</ele>
        <time>2019-01-10T09:19:20Z</time>
      </trkpt>
      <trkpt lat="43.53112" lon="3.50277">
        <ele>41.7</ele>
        <time>2019-01-10T09:19:23Z</time>
      </trkpt>
      <trkpt lat="43.53114" lon="3.50281">
        <ele>41.9</ele>
        <time>2019-01-10T09:19:26Z</time>
      </trkpt>
      <trkpt lat="43.53115" lon="3.50284">
        <ele>42.1</ele>
        <time>2019-01-10T09:19:28Z</time>
      </trkpt>
      <trkpt lat="43.53117" lon="3.50287">
        <ele>42.1</ele>
        <time>2019-01-10T09:19:30Z</time>
      </trkpt>
      <trkpt lat="43.53118" lon="3.50291">
        <ele>42.3</ele>
        <time>2019-01-10T09:19:32Z</time>
      </trkpt>
      <trkpt lat="43.53119" lon="3.50294">
        <ele>42.5</ele>
        <time>2019-01-10T09:19:34Z</time>
      </trkpt>
      <trkpt lat="43.5312" lon="3.50298">
        <ele>42.8</ele>
        <time>2019-01-10T09:19:36Z</time>
      </trkpt>
      <trkpt lat="43.53121" lon="3.50302">
        <ele>43</ele>
        <time>2019-01-10T09:19:38Z</time>
      </trkpt>
      <trkpt lat="43.53121" lon="3.50306">
        <ele>43.2</ele>
        <time>2019-01-10T09:19:40Z</time>
      </trkpt>
      <trkpt lat="43.53122" lon="3.5031">
        <ele>43.5</ele>
        <time>2019-01-10T09:19:42Z</time>
      </trkpt>
      <trkpt lat="43.53123" lon="3.50315">
        <ele>43.8</ele>
        <time>2019-01-10T09:19:44Z</time>
      </trkpt>
      <trkpt lat="43.53123" lon="3.50319">
        <ele>44.1</ele>
        <time>2019-01-10T09:19:46Z</time>
      </trkpt>
      <trkpt lat="43.53124" lon="3.50323">
        <ele>44.3</ele>
        <time>2019-01-10T09:19:48Z</time>
      </trkpt>
      <trkpt lat="43.53124" lon="3.50328">
        <ele>44.6</ele>
        <time>2019-01-10T09:19:51Z</time>
      </trkpt>
      <trkpt lat="43.53124" lon="3.50332">
        <ele>44.8</ele>
        <time>2019-01-10T09:19:53Z</time>
      </trkpt>
      <trkpt lat="43.53123" lon="3.50336">
        <ele>45.1</ele>
        <time>2019-01-10T09:19:55Z</time>
      </trkpt>
      <trkpt lat="43.53122" lon="3.5034">
        <ele>45.2</ele>
        <time>2019-01-10T09:19:57Z</time>
      </trkpt>
      <trkpt lat="43.53121" lon="3.50344">
        <ele>45.4</ele>
        <time>2019-01-10T09:19:59Z</time>
      </trkpt>
      <trkpt lat="43.53123" lon="3.50346">
        <ele>45.5</ele>
        <time>2019-01-10T09:20:06Z</time>
      </trkpt>
      <trkpt lat="43.53126" lon="3.50349">
        <ele>45.8</ele>
        <time>2019-01-10T09:20:11Z</time>
      </trkpt>
      <trkpt lat="43.53129" lon="3.50351">
        <ele>45.9</ele>
        <time>2019-01-10T09:20:13Z</time>
      </trkpt>
      <trkpt lat="43.53132" lon="3.50351">
        <ele>46</ele>
        <time>2019-01-10T09:20:15Z</time>
      </trkpt>
      <trkpt lat="43.53135" lon="3.5035">
        <ele>46.1</ele>
        <time>2019-01-10T09:20:17Z</time>
      </trkpt>
      <trkpt lat="43.53139" lon="3.50351">
        <ele>46.2</ele>
        <time>2019-01-10T09:20:20Z</time>
      </trkpt>
      <trkpt lat="43.53143" lon="3.50351">
        <ele>46.4</ele>
        <time>2019-01-10T09:20:23Z</time>
      </trkpt>
      <trkpt lat="43.53146" lon="3.50351">
        <ele>46.5</ele>
        <time>2019-01-10T09:20:26Z</time>
      </trkpt>
      <trkpt lat="43.53147" lon="3.50355">
        <ele>46.8</ele>
        <time>2019-01-10T09:20:30Z</time>
      </trkpt>
      <trkpt lat="43.53145" lon="3.50359">
        <ele>46.9</ele>
        <time>2019-01-10T09:20:33Z</time>
      </trkpt>
      <trkpt lat="43.53143" lon="3.50364">
        <ele>47</ele>
        <time>2019-01-10T09:20:36Z</time>
      </trkpt>
      <trkpt lat="43.53143" lon="3.50368">
        <ele>47.2</ele>
        <time>2019-01-10T09:20:39Z</time>
      </trkpt>
      <trkpt lat="43.53144" lon="3.50372">
        <ele>47.4</ele>
        <time>2019-01-10T09:20:43Z</time>
      </trkpt>
      <trkpt lat="43.53145" lon="3.50377">
        <ele>47.7</ele>
        <time>2019-01-10T09:20:46Z</time>
      </trkpt>
      <trkpt lat="43.53148" lon="3.50379">
        <ele>48</ele>
        <time>2019-01-10T09:20:48Z</time>
      </trkpt>
      <trkpt lat="43.53151" lon="3.50381">
        <ele>48.1</ele>
        <time>2019-01-10T09:20:50Z</time>
      </trkpt>
      <trkpt lat="43.53154" lon="3.50382">
        <ele>48.3</ele>
        <time>2019-01-10T09:20:52Z</time>
      </trkpt>
      <trkpt lat="43.53157" lon="3.50383">
        <ele>48.6</ele>
        <time>2019-01-10T09:20:54Z</time>
      </trkpt>
      <trkpt lat="43.5316" lon="3.50384">
        <ele>48.8</ele>
        <time>2019-01-10T09:20:56Z</time>
      </trkpt>
      <trkpt lat="43.53164" lon="3.50385">
        <ele>49</ele>
        <time>2019-01-10T09:20:59Z</time>
      </trkpt>
      <trkpt lat="43.53166" lon="3.50385">
        <ele>49.2</ele>
        <time>2019-01-10T09:21:01Z</time>
      </trkpt>
      <trkpt lat="43.5317" lon="3.50386">
        <ele>49.4</ele>
        <time>2019-01-10T09:21:04Z</time>
      </trkpt>
      <trkpt lat="43.53174" lon="3.50386">
        <ele>49.6</ele>
        <time>2019-01-10T09:21:07Z</time>
      </trkpt>
      <trkpt lat="43.53178" lon="3.50386">
        <ele>49.8</ele>
        <time>2019-01-10T09:21:10Z</time>
      </trkpt>
      <trkpt lat="43.53178" lon="3.5039">
        <ele>50.2</ele>
        <time>2019-01-10T09:21:14Z</time>
      </trkpt>
      <trkpt lat="43.53176" lon="3.50394">
        <ele>50.3</ele>
        <time>2019-01-10T09:21:16Z</time>
      </trkpt>
      <trkpt lat="43.53176" lon="3.50398">
        <ele>50.6</ele>
        <time>2019-01-10T09:21:18Z</time>
      </trkpt>
      <trkpt lat="43.53176" lon="3.50402">
        <ele>50.8</ele>
        <time>2019-01-10T09:21:20Z</time>
      </trkpt>
      <trkpt lat="43.53178" lon="3.50406">
        <ele>51.1</ele>
        <time>2019-01-10T09:21:23Z</time>
      </trkpt>
      <trkpt lat="43.53178" lon="3.50411">
        <ele>51.4</ele>
        <time>2019-01-10T09:21:26Z</time>
      </trkpt>
      <trkpt lat="43.53178" lon="3.50416">
        <ele>51.7</ele>
        <time>2019-01-10T09:21:28Z</time>
      </trkpt>
      <trkpt lat="43.53178" lon="3.50421">
        <ele>51.9</ele>
        <time>2019-01-10T09:21:30Z</time>
      </trkpt>
      <trkpt lat="43.53176" lon="3.50425">
        <ele>52.1</ele>
        <time>2019-01-10T09:21:33Z</time>
      </trkpt>
      <trkpt lat="43.53174" lon="3.5043">
        <ele>52.3</ele>
        <time>2019-01-10T09:21:36Z</time>
      </trkpt>
      <trkpt lat="43.53173" lon="3.50434">
        <ele>52.6</ele>
        <time>2019-01-10T09:21:39Z</time>
      </trkpt>
      <trkpt lat="43.53172" lon="3.50438">
        <ele>52.8</ele>
        <time>2019-01-10T09:21:42Z</time>
      </trkpt>
      <trkpt lat="43.53171" lon="3.50442">
        <ele>53</ele>
        <time>2019-01-10T09:21:45Z</time>
      </trkpt>
      <trkpt lat="43.5317" lon="3.50446">
        <ele>53.3</ele>
        <time>2019-01-10T09:21:49Z</time>
      </trkpt>
      <trkpt lat="43.5317" lon="3.50451">
        <ele>53.5</ele>
        <time>2019-01-10T09:21:52Z</time>
      </trkpt>
      <trkpt lat="43.53169" lon="3.50457">
        <ele>53.8</ele>
        <time>2019-01-10T09:21:55Z</time>
      </trkpt>
      <trkpt lat="43.53168" lon="3.50461">
        <ele>54</ele>
        <time>2019-01-10T09:21:57Z</time>
      </trkpt>
      <trkpt lat="43.53167" lon="3.50466">
        <ele>54.3</ele>
        <time>2019-01-10T09:22:00Z</time>
      </trkpt>
      <trkpt lat="43.53166" lon="3.50471">
        <ele>54.5</ele>
        <time>2019-01-10T09:22:03Z</time>
      </trkpt>
      <trkpt lat="43.53166" lon="3.50477">
        <ele>54.7</ele>
        <time>2019-01-10T09:22:06Z</time>
      </trkpt>
      <trkpt lat="43.53164" lon="3.5048">
        <ele>54.9</ele>
        <time>2019-01-10T09:22:08Z</time>
      </trkpt>
      <trkpt lat="43.53164" lon="3.50485">
        <ele>55</ele>
        <time>2019-01-10T09:22:10Z</time>
      </trkpt>
      <trkpt lat="43.53163" lon="3.50488">
        <ele>55.2</ele>
        <time>2019-01-10T09:22:12Z</time>
      </trkpt>
      <trkpt lat="43.53161" lon="3.50492">
        <ele>55.3</ele>
        <time>2019-01-10T09:22:14Z</time>
      </trkpt>
      <trkpt lat="43.5316" lon="3.50496">
        <ele>55.5</ele>
        <time>2019-01-10T09:22:16Z</time>
      </trkpt>
      <trkpt lat="43.53159" lon="3.50499">
        <ele>55.6</ele>
        <time>2019-01-10T09:22:18Z</time>
      </trkpt>
      <trkpt lat="43.53159" lon="3.50505">
        <ele>56</ele>
        <time>2019-01-10T09:22:21Z</time>
      </trkpt>
      <trkpt lat="43.53158" lon="3.50509">
        <ele>56.3</ele>
        <time>2019-01-10T09:22:23Z</time>
      </trkpt>
      <trkpt lat="43.53156" lon="3.50514">
        <ele>56.7</ele>
        <time>2019-01-10T09:22:26Z</time>
      </trkpt>
      <trkpt lat="43.53157" lon="3.50519">
        <ele>57</ele>
        <time>2019-01-10T09:22:29Z</time>
      </trkpt>
      <trkpt lat="43.5316" lon="3.50517">
        <ele>57.3</ele>
        <time>2019-01-10T09:22:31Z</time>
      </trkpt>
      <trkpt lat="43.53163" lon="3.50515">
        <ele>57.6</ele>
        <time>2019-01-10T09:22:33Z</time>
      </trkpt>
      <trkpt lat="43.53166" lon="3.50513">
        <ele>57.3</ele>
        <time>2019-01-10T09:22:35Z</time>
      </trkpt>
      <trkpt lat="43.53167" lon="3.50509">
        <ele>56.9</ele>
        <time>2019-01-10T09:22:38Z</time>
      </trkpt>
      <trkpt lat="43.53168" lon="3.50505">
        <ele>56.6</ele>
        <time>2019-01-10T09:22:41Z</time>
      </trkpt>
      <trkpt lat="43.53169" lon="3.505">
        <ele>56.3</ele>
        <time>2019-01-10T09:22:45Z</time>
      </trkpt>
      <trkpt lat="43.53171" lon="3.50497">
        <ele>56</ele>
        <time>2019-01-10T09:22:47Z</time>
      </trkpt>
      <trkpt lat="43.53173" lon="3.50492">
        <ele>55.6</ele>
        <time>2019-01-10T09:22:50Z</time>
      </trkpt>
      <trkpt lat="43.53174" lon="3.50488">
        <ele>55.4</ele>
        <time>2019-01-10T09:22:53Z</time>
      </trkpt>
      <trkpt lat="43.53175" lon="3.50483">
        <ele>55.2</ele>
        <time>2019-01-10T09:22:56Z</time>
      </trkpt>
      <trkpt lat="43.53176" lon="3.50479">
        <ele>55</ele>
        <time>2019-01-10T09:22:59Z</time>
      </trkpt>
      <trkpt lat="43.53178" lon="3.50474">
        <ele>54.7</ele>
        <time>2019-01-10T09:23:02Z</time>
      </trkpt>
      <trkpt lat="43.53179" lon="3.50469">
        <ele>54.5</ele>
        <time>2019-01-10T09:23:05Z</time>
      </trkpt>
      <trkpt lat="43.5318" lon="3.50464">
        <ele>54.3</ele>
        <time>2019-01-10T09:23:08Z</time>
      </trkpt>
      <trkpt lat="43.53181" lon="3.50459">
        <ele>54</ele>
        <time>2019-01-10T09:23:10Z</time>
      </trkpt>
      <trkpt lat="43.53181" lon="3.50455">
        <ele>53.7</ele>
        <time>2019-01-10T09:23:12Z</time>
      </trkpt>
      <trkpt lat="43.53182" lon="3.50451">
        <ele>53.5</ele>
        <time>2019-01-10T09:23:14Z</time>
      </trkpt>
      <trkpt lat="43.53183" lon="3.50446">
        <ele>53.2</ele>
        <time>2019-01-10T09:23:17Z</time>
      </trkpt>
      <trkpt lat="43.53184" lon="3.50442">
        <ele>52.9</ele>
        <time>2019-01-10T09:23:20Z</time>
      </trkpt>
      <trkpt lat="43.53184" lon="3.50436">
        <ele>52.6</ele>
        <time>2019-01-10T09:23:23Z</time>
      </trkpt>
      <trkpt lat="43.53185" lon="3.50433">
        <ele>52.3</ele>
        <time>2019-01-10T09:23:25Z</time>
      </trkpt>
      <trkpt lat="43.53186" lon="3.50429">
        <ele>52.1</ele>
        <time>2019-01-10T09:23:27Z</time>
      </trkpt>
      <trkpt lat="43.53187" lon="3.50423">
        <ele>51.8</ele>
        <time>2019-01-10T09:23:30Z</time>
      </trkpt>
      <trkpt lat="43.53188" lon="3.50419">
        <ele>51.6</ele>
        <time>2019-01-10T09:23:32Z</time>
      </trkpt>
      <trkpt lat="43.5319" lon="3.50414">
        <ele>51.4</ele>
        <time>2019-01-10T09:23:34Z</time>
      </trkpt>
      <trkpt lat="43.53191" lon="3.5041">
        <ele>51.2</ele>
        <time>2019-01-10T09:23:36Z</time>
      </trkpt>
      <trkpt lat="43.53194" lon="3.50405">
        <ele>50.8</ele>
        <time>2019-01-10T09:23:38Z</time>
      </trkpt>
      <trkpt lat="43.53196" lon="3.504">
        <ele>50.6</ele>
        <time>2019-01-10T09:23:40Z</time>
      </trkpt>
      <trkpt lat="43.53197" lon="3.50396">
        <ele>50.4</ele>
        <time>2019-01-10T09:23:42Z</time>
      </trkpt>
      <trkpt lat="43.53198" lon="3.50392">
        <ele>50.1</ele>
        <time>2019-01-10T09:23:44Z</time>
      </trkpt>
      <trkpt lat="43.53198" lon="3.50388">
        <ele>49.9</ele>
        <time>2019-01-10T09:23:47Z</time>
      </trkpt>
      <trkpt lat="43.53199" lon="3.50383">
        <ele>49.6</ele>
        <time>2019-01-10T09:23:49Z</time>
      </trkpt>
      <trkpt lat="43.532" lon="3.50379">
        <ele>49.4</ele>
        <time>2019-01-10T09:23:51Z</time>
      </trkpt>
      <trkpt lat="43.53201" lon="3.50374">
        <ele>49.2</ele>
        <time>2019-01-10T09:23:53Z</time>
      </trkpt>
      <trkpt lat="43.53201" lon="3.50371">
        <ele>49</ele>
        <time>2019-01-10T09:23:55Z</time>
      </trkpt>
      <trkpt lat="43.53202" lon="3.50365">
        <ele>48.7</ele>
        <time>2019-01-10T09:23:58Z</time>
      </trkpt>
      <trkpt lat="43.53203" lon="3.50361">
        <ele>48.5</ele>
        <time>2019-01-10T09:24:00Z</time>
      </trkpt>
      <trkpt lat="43.53204" lon="3.50356">
        <ele>48.2</ele>
        <time>2019-01-10T09:24:03Z</time>
      </trkpt>
      <trkpt lat="43.53205" lon="3.50351">
        <ele>48</ele>
        <time>2019-01-10T09:24:06Z</time>
      </trkpt>
      <trkpt lat="43.53206" lon="3.50347">
        <ele>47.7</ele>
        <time>2019-01-10T09:24:09Z</time>
      </trkpt>
      <trkpt lat="43.53207" lon="3.50343">
        <ele>47.5</ele>
        <time>2019-01-10T09:24:12Z</time>
      </trkpt>
      <trkpt lat="43.53209" lon="3.5034">
        <ele>47.3</ele>
        <time>2019-01-10T09:24:15Z</time>
      </trkpt>
      <trkpt lat="43.53211" lon="3.50337">
        <ele>47.1</ele>
        <time>2019-01-10T09:24:18Z</time>
      </trkpt>
      <trkpt lat="43.53213" lon="3.50332">
        <ele>46.8</ele>
        <time>2019-01-10T09:24:21Z</time>
      </trkpt>
      <trkpt lat="43.53215" lon="3.50327">
        <ele>46.4</ele>
        <time>2019-01-10T09:24:24Z</time>
      </trkpt>
      <trkpt lat="43.53217" lon="3.50323">
        <ele>46.1</ele>
        <time>2019-01-10T09:24:27Z</time>
      </trkpt>
      <trkpt lat="43.53219" lon="3.5032">
        <ele>45.9</ele>
        <time>2019-01-10T09:24:29Z</time>
      </trkpt>
      <trkpt lat="43.53222" lon="3.50317">
        <ele>45.7</ele>
        <time>2019-01-10T09:24:31Z</time>
      </trkpt>
      <trkpt lat="43.53224" lon="3.50313">
        <ele>45.4</ele>
        <time>2019-01-10T09:24:33Z</time>
      </trkpt>
      <trkpt lat="43.53226" lon="3.50309">
        <ele>45.3</ele>
        <time>2019-01-10T09:24:35Z</time>
      </trkpt>
      <trkpt lat="43.53228" lon="3.50305">
        <ele>45.1</ele>
        <time>2019-01-10T09:24:37Z</time>
      </trkpt>
      <trkpt lat="43.53231" lon="3.50303">
        <ele>44.9</ele>
        <time>2019-01-10T09:24:39Z</time>
      </trkpt>
      <trkpt lat="43.53233" lon="3.50301">
        <ele>44.8</ele>
        <time>2019-01-10T09:24:41Z</time>
      </trkpt>
      <trkpt lat="43.53236" lon="3.50298">
        <ele>44.6</ele>
        <time>2019-01-10T09:24:44Z</time>
      </trkpt>
      <trkpt lat="43.53238" lon="3.50295">
        <ele>44.5</ele>
        <time>2019-01-10T09:24:46Z</time>
      </trkpt>
      <trkpt lat="43.53241" lon="3.50292">
        <ele>44.3</ele>
        <time>2019-01-10T09:24:48Z</time>
      </trkpt>
      <trkpt lat="43.53243" lon="3.50289">
        <ele>44.2</ele>
        <time>2019-01-10T09:24:50Z</time>
      </trkpt>
      <trkpt lat="43.53245" lon="3.50285">
        <ele>44.1</ele>
        <time>2019-01-10T09:24:52Z</time>
      </trkpt>
      <trkpt lat="43.53248" lon="3.50281">
        <ele>43.9</ele>
        <time>2019-01-10T09:24:55Z</time>
      </trkpt>
      <trkpt lat="43.5325" lon="3.50276">
        <ele>43.8</ele>
        <time>2019-01-10T09:24:58Z</time>
      </trkpt>
      <trkpt lat="43.53252" lon="3.50274">
        <ele>43.7</ele>
        <time>2019-01-10T09:25:00Z</time>
      </trkpt>
      <trkpt lat="43.53254" lon="3.5027">
        <ele>43.6</ele>
        <time>2019-01-10T09:25:03Z</time>
      </trkpt>
      <trkpt lat="43.53257" lon="3.50266">
        <ele>43.5</ele>
        <time>2019-01-10T09:25:06Z</time>
      </trkpt>
      <trkpt lat="43.53259" lon="3.50264">
        <ele>43.4</ele>
        <time>2019-01-10T09:25:08Z</time>
      </trkpt>
      <trkpt lat="43.53262" lon="3.5026">
        <ele>43.3</ele>
        <time>2019-01-10T09:25:11Z</time>
      </trkpt>
      <trkpt lat="43.53264" lon="3.50257">
        <ele>43.2</ele>
        <time>2019-01-10T09:25:14Z</time>
      </trkpt>
      <trkpt lat="43.53266" lon="3.50255">
        <ele>43.2</ele>
        <time>2019-01-10T09:25:16Z</time>
      </trkpt>
      <trkpt lat="43.53268" lon="3.50252">
        <ele>43.1</ele>
        <time>2019-01-10T09:25:18Z</time>
      </trkpt>
      <trkpt lat="43.53271" lon="3.50248">
        <ele>43</ele>
        <time>2019-01-10T09:25:20Z</time>
      </trkpt>
      <trkpt lat="43.53273" lon="3.50245">
        <ele>42.9</ele>
        <time>2019-01-10T09:25:22Z</time>
      </trkpt>
      <trkpt lat="43.53275" lon="3.50241">
        <ele>42.8</ele>
        <time>2019-01-10T09:25:24Z</time>
      </trkpt>
      <trkpt lat="43.53277" lon="3.50237">
        <ele>42.8</ele>
        <time>2019-01-10T09:25:26Z</time>
      </trkpt>
      <trkpt lat="43.5328" lon="3.50233">
        <ele>42.7</ele>
        <time>2019-01-10T09:25:29Z</time>
      </trkpt>
      <trkpt lat="43.53282" lon="3.5023">
        <ele>42.6</ele>
        <time>2019-01-10T09:25:31Z</time>
      </trkpt>
      <trkpt lat="43.53284" lon="3.50227">
        <ele>42.6</ele>
        <time>2019-01-10T09:25:33Z</time>
      </trkpt>
      <trkpt lat="43.53287" lon="3.50223">
        <ele>42.5</ele>
        <time>2019-01-10T09:25:36Z</time>
      </trkpt>
      <trkpt lat="43.53291" lon="3.50221">
        <ele>42.4</ele>
        <time>2019-01-10T09:25:39Z</time>
      </trkpt>
      <trkpt lat="43.53293" lon="3.50218">
        <ele>42.4</ele>
        <time>2019-01-10T09:25:41Z</time>
      </trkpt>
      <trkpt lat="43.53296" lon="3.50215">
        <ele>42.3</ele>
        <time>2019-01-10T09:25:44Z</time>
      </trkpt>
      <trkpt lat="43.53298" lon="3.50213">
        <ele>42.2</ele>
        <time>2019-01-10T09:25:47Z</time>
      </trkpt>
      <trkpt lat="43.53301" lon="3.50211">
        <ele>42.2</ele>
        <time>2019-01-10T09:25:49Z</time>
      </trkpt>
      <trkpt lat="43.53303" lon="3.50207">
        <ele>42.1</ele>
        <time>2019-01-10T09:25:52Z</time>
      </trkpt>
      <trkpt lat="43.53301" lon="3.50204">
        <ele>42.1</ele>
        <time>2019-01-10T09:25:54Z</time>
      </trkpt>
      <trkpt lat="43.533" lon="3.502">
        <ele>42</ele>
        <time>2019-01-10T09:25:56Z</time>
      </trkpt>
      <trkpt lat="43.53298" lon="3.50195">
        <ele>41.9</ele>
        <time>2019-01-10T09:25:59Z</time>
      </trkpt>
      <trkpt lat="43.53297" lon="3.5019">
        <ele>41.8</ele>
        <time>2019-01-10T09:26:02Z</time>
      </trkpt>
      <trkpt lat="43.53296" lon="3.50185">
        <ele>41.6</ele>
        <time>2019-01-10T09:26:05Z</time>
      </trkpt>
      <trkpt lat="43.53294" lon="3.50181">
        <ele>41.6</ele>
        <time>2019-01-10T09:26:07Z</time>
      </trkpt>
      <trkpt lat="43.53292" lon="3.50178">
        <ele>41.4</ele>
        <time>2019-01-10T09:26:09Z</time>
      </trkpt>
      <trkpt lat="43.53291" lon="3.50174">
        <ele>41.3</ele>
        <time>2019-01-10T09:26:11Z</time>
      </trkpt>
      <trkpt lat="43.53289" lon="3.50172">
        <ele>41.2</ele>
        <time>2019-01-10T09:26:13Z</time>
      </trkpt>
      <trkpt lat="43.53286" lon="3.50169">
        <ele>41.2</ele>
        <time>2019-01-10T09:26:16Z</time>
      </trkpt>
      <trkpt lat="43.53284" lon="3.50164">
        <ele>41.1</ele>
        <time>2019-01-10T09:26:19Z</time>
      </trkpt>
      <trkpt lat="43.53283" lon="3.5016">
        <ele>41</ele>
        <time>2019-01-10T09:26:21Z</time>
      </trkpt>
      <trkpt lat="43.53281" lon="3.50156">
        <ele>40.9</ele>
        <time>2019-01-10T09:26:23Z</time>
      </trkpt>
      <trkpt lat="43.53279" lon="3.50152">
        <ele>40.8</ele>
        <time>2019-01-10T09:26:26Z</time>
      </trkpt>
      <trkpt lat="43.53278" lon="3.50148">
        <ele>40.7</ele>
        <time>2019-01-10T09:26:28Z</time>
      </trkpt>
      <trkpt lat="43.53276" lon="3.50145">
        <ele>40.5</ele>
        <time>2019-01-10T09:26:30Z</time>
      </trkpt>
      <trkpt lat="43.53273" lon="3.50142">
        <ele>40.5</ele>
        <time>2019-01-10T09:26:32Z</time>
      </trkpt>
      <trkpt lat="43.5327" lon="3.50139">
        <ele>40.3</ele>
        <time>2019-01-10T09:26:34Z</time>
      </trkpt>
      <trkpt lat="43.53268" lon="3.50136">
        <ele>40.2</ele>
        <time>2019-01-10T09:26:36Z</time>
      </trkpt>
      <trkpt lat="43.53267" lon="3.50132">
        <ele>40</ele>
        <time>2019-01-10T09:26:38Z</time>
      </trkpt>
      <trkpt lat="43.53265" lon="3.50128">
        <ele>39.9</ele>
        <time>2019-01-10T09:26:40Z</time>
      </trkpt>
      <trkpt lat="43.53264" lon="3.50125">
        <ele>39.8</ele>
        <time>2019-01-10T09:26:42Z</time>
      </trkpt>
      <trkpt lat="43.53262" lon="3.50122">
        <ele>39.7</ele>
        <time>2019-01-10T09:26:45Z</time>
      </trkpt>
      <trkpt lat="43.53258" lon="3.50122">
        <ele>39.6</ele>
        <time>2019-01-10T09:26:48Z</time>
      </trkpt>
      <trkpt lat="43.53255" lon="3.50124">
        <ele>39.6</ele>
        <time>2019-01-10T09:26:52Z</time>
      </trkpt>
      <trkpt lat="43.53254" lon="3.50128">
        <ele>39.7</ele>
        <time>2019-01-10T09:26:55Z</time>
      </trkpt>
      <trkpt lat="43.53252" lon="3.50131">
        <ele>39.8</ele>
        <time>2019-01-10T09:26:58Z</time>
      </trkpt>
      <trkpt lat="43.53249" lon="3.50132">
        <ele>39.7</ele>
        <time>2019-01-10T09:27:01Z</time>
      </trkpt>
      <trkpt lat="43.53245" lon="3.50132">
        <ele>39.7</ele>
        <time>2019-01-10T09:27:04Z</time>
      </trkpt>
      <trkpt lat="43.53243" lon="3.50132">
        <ele>39.6</ele>
        <time>2019-01-10T09:27:06Z</time>
      </trkpt>
      <trkpt lat="43.5324" lon="3.50132">
        <ele>39.6</ele>
        <time>2019-01-10T09:27:09Z</time>
      </trkpt>
      <trkpt lat="43.53237" lon="3.5013">
        <ele>39.5</ele>
        <time>2019-01-10T09:27:13Z</time>
      </trkpt>
      <trkpt lat="43.53235" lon="3.50126">
        <ele>39.4</ele>
        <time>2019-01-10T09:27:16Z</time>
      </trkpt>
      <trkpt lat="43.53235" lon="3.50122">
        <ele>39.3</ele>
        <time>2019-01-10T09:27:19Z</time>
      </trkpt>
      <trkpt lat="43.53233" lon="3.50118">
        <ele>39.2</ele>
        <time>2019-01-10T09:27:28Z</time>
      </trkpt>
      <trkpt lat="43.53233" lon="3.50113">
        <ele>39.1</ele>
        <time>2019-01-10T09:27:34Z</time>
      </trkpt>
      <trkpt lat="43.53233" lon="3.50108">
        <ele>39</ele>
        <time>2019-01-10T09:27:37Z</time>
      </trkpt>
      <trkpt lat="43.53232" lon="3.50103">
        <ele>38.9</ele>
        <time>2019-01-10T09:27:40Z</time>
      </trkpt>
      <trkpt lat="43.5323" lon="3.50099">
        <ele>38.8</ele>
        <time>2019-01-10T09:27:43Z</time>
      </trkpt>
      <trkpt lat="43.53228" lon="3.50094">
        <ele>38.7</ele>
        <time>2019-01-10T09:27:46Z</time>
      </trkpt>
      <trkpt lat="43.53226" lon="3.50091">
        <ele>38.7</ele>
        <time>2019-01-10T09:27:50Z</time>
      </trkpt>
      <trkpt lat="43.53225" lon="3.50087">
        <ele>38.6</ele>
        <time>2019-01-10T09:27:53Z</time>
      </trkpt>
      <trkpt lat="43.53223" lon="3.50083">
        <ele>38.6</ele>
        <time>2019-01-10T09:27:57Z</time>
      </trkpt>
      <trkpt lat="43.53221" lon="3.50081">
        <ele>38.5</ele>
        <time>2019-01-10T09:28:00Z</time>
      </trkpt>
      <trkpt lat="43.53218" lon="3.5008">
        <ele>38.5</ele>
        <time>2019-01-10T09:28:03Z</time>
      </trkpt>
      <trkpt lat="43.53221" lon="3.50078">
        <ele>38.5</ele>
        <time>2019-01-10T09:28:07Z</time>
      </trkpt>
      <trkpt lat="43.53223" lon="3.50075">
        <ele>38.5</ele>
        <time>2019-01-10T09:28:09Z</time>
      </trkpt>
      <trkpt lat="43.53225" lon="3.50072">
        <ele>38.5</ele>
        <time>2019-01-10T09:28:11Z</time>
      </trkpt>
      <trkpt lat="43.53228" lon="3.50068">
        <ele>38.5</ele>
        <time>2019-01-10T09:28:14Z</time>
      </trkpt>
      <trkpt lat="43.53231" lon="3.50066">
        <ele>38.5</ele>
        <time>2019-01-10T09:28:17Z</time>
      </trkpt>
      <trkpt lat="43.53234" lon="3.50067">
        <ele>38.6</ele>
        <time>2019-01-10T09:28:20Z</time>
      </trkpt>
      <trkpt lat="43.53238" lon="3.50068">
        <ele>38.6</ele>
        <time>2019-01-10T09:28:23Z</time>
      </trkpt>
      <trkpt lat="43.5324" lon="3.50071">
        <ele>38.7</ele>
        <time>2019-01-10T09:28:26Z</time>
      </trkpt>
      <trkpt lat="43.53243" lon="3.50075">
        <ele>38.7</ele>
        <time>2019-01-10T09:28:29Z</time>
      </trkpt>
      <trkpt lat="43.53245" lon="3.50079">
        <ele>38.7</ele>
        <time>2019-01-10T09:28:32Z</time>
      </trkpt>
      <trkpt lat="43.53246" lon="3.50082">
        <ele>38.8</ele>
        <time>2019-01-10T09:28:35Z</time>
      </trkpt>
      <trkpt lat="43.53246" lon="3.50087">
        <ele>38.8</ele>
        <time>2019-01-10T09:28:39Z</time>
      </trkpt>
      <trkpt lat="43.53244" lon="3.50092">
        <ele>38.9</ele>
        <time>2019-01-10T09:28:42Z</time>
      </trkpt>
      <trkpt lat="43.53244" lon="3.50097">
        <ele>38.9</ele>
        <time>2019-01-10T09:28:45Z</time>
      </trkpt>
      <trkpt lat="43.53241" lon="3.501">
        <ele>39</ele>
        <time>2019-01-10T09:28:48Z</time>
      </trkpt>
      <trkpt lat="43.53238" lon="3.50103">
        <ele>38.9</ele>
        <time>2019-01-10T09:28:51Z</time>
      </trkpt>
      <trkpt lat="43.53235" lon="3.50105">
        <ele>39</ele>
        <time>2019-01-10T09:28:54Z</time>
      </trkpt>
      <trkpt lat="43.53232" lon="3.50108">
        <ele>39</ele>
        <time>2019-01-10T09:28:57Z</time>
      </trkpt>
      <trkpt lat="43.5323" lon="3.5011">
        <ele>39</ele>
        <time>2019-01-10T09:29:00Z</time>
      </trkpt>
      <trkpt lat="43.53227" lon="3.50114">
        <ele>39</ele>
        <time>2019-01-10T09:29:03Z</time>
      </trkpt>
      <trkpt lat="43.53229" lon="3.50117">
        <ele>39.2</ele>
        <time>2019-01-10T09:29:07Z</time>
      </trkpt>
      <trkpt lat="43.5323" lon="3.50122">
        <ele>39.3</ele>
        <time>2019-01-10T09:29:11Z</time>
      </trkpt>
      <trkpt lat="43.53231" lon="3.50127">
        <ele>39.4</ele>
        <time>2019-01-10T09:29:15Z</time>
      </trkpt>
      <trkpt lat="43.53232" lon="3.50131">
        <ele>39.5</ele>
        <time>2019-01-10T09:29:18Z</time>
      </trkpt>
      <trkpt lat="43.53233" lon="3.50135">
        <ele>39.7</ele>
        <time>2019-01-10T09:29:20Z</time>
      </trkpt>
      <trkpt lat="43.53236" lon="3.50134">
        <ele>39.7</ele>
        <time>2019-01-10T09:29:23Z</time>
      </trkpt>
      <trkpt lat="43.53239" lon="3.50132">
        <ele>39.6</ele>
        <time>2019-01-10T09:29:26Z</time>
      </trkpt>
      <trkpt lat="43.53242" lon="3.50128">
        <ele>39.5</ele>
        <time>2019-01-10T09:29:29Z</time>
      </trkpt>
      <trkpt lat="43.53245" lon="3.50125">
        <ele>39.6</ele>
        <time>2019-01-10T09:29:31Z</time>
      </trkpt>
      <trkpt lat="43.53247" lon="3.50123">
        <ele>39.5</ele>
        <time>2019-01-10T09:29:33Z</time>
      </trkpt>
      <trkpt lat="43.53251" lon="3.5012">
        <ele>39.5</ele>
        <time>2019-01-10T09:29:36Z</time>
      </trkpt>
      <trkpt lat="43.53255" lon="3.50119">
        <ele>39.5</ele>
        <time>2019-01-10T09:29:39Z</time>
      </trkpt>
      <trkpt lat="43.53258" lon="3.50117">
        <ele>39.6</ele>
        <time>2019-01-10T09:29:42Z</time>
      </trkpt>
      <trkpt lat="43.53262" lon="3.50118">
        <ele>39.7</ele>
        <time>2019-01-10T09:29:45Z</time>
      </trkpt>
      <trkpt lat="43.53265" lon="3.50121">
        <ele>39.8</ele>
        <time>2019-01-10T09:29:47Z</time>
      </trkpt>
      <trkpt lat="43.53267" lon="3.50123">
        <ele>39.9</ele>
        <time>2019-01-10T09:29:49Z</time>
      </trkpt>
      <trkpt lat="43.5327" lon="3.50126">
        <ele>40</ele>
        <time>2019-01-10T09:29:51Z</time>
      </trkpt>
      <trkpt lat="43.53273" lon="3.50129">
        <ele>40.1</ele>
        <time>2019-01-10T09:29:55Z</time>
      </trkpt>
      <trkpt lat="43.53275" lon="3.50133">
        <ele>40.3</ele>
        <time>2019-01-10T09:29:58Z</time>
      </trkpt>
      <trkpt lat="43.53275" lon="3.50137">
        <ele>40.4</ele>
        <time>2019-01-10T09:30:01Z</time>
      </trkpt>
      <trkpt lat="43.53277" lon="3.50142">
        <ele>40.5</ele>
        <time>2019-01-10T09:30:04Z</time>
      </trkpt>
      <trkpt lat="43.53279" lon="3.50147">
        <ele>40.8</ele>
        <time>2019-01-10T09:30:07Z</time>
      </trkpt>
      <trkpt lat="43.5328" lon="3.50151">
        <ele>40.9</ele>
        <time>2019-01-10T09:30:10Z</time>
      </trkpt>
      <trkpt lat="43.53281" lon="3.50155">
        <ele>41</ele>
        <time>2019-01-10T09:30:13Z</time>
      </trkpt>
      <trkpt lat="43.53283" lon="3.50159">
        <ele>41</ele>
        <time>2019-01-10T09:30:16Z</time>
      </trkpt>
      <trkpt lat="43.53285" lon="3.50163">
        <ele>41.1</ele>
        <time>2019-01-10T09:30:19Z</time>
      </trkpt>
      <trkpt lat="43.53287" lon="3.50166">
        <ele>41.2</ele>
        <time>2019-01-10T09:30:22Z</time>
      </trkpt>
      <trkpt lat="43.53289" lon="3.50171">
        <ele>41.3</ele>
        <time>2019-01-10T09:30:25Z</time>
      </trkpt>
      <trkpt lat="43.5329" lon="3.50174">
        <ele>41.4</ele>
        <time>2019-01-10T09:30:27Z</time>
      </trkpt>
      <trkpt lat="43.53292" lon="3.50178">
        <ele>41.5</ele>
        <time>2019-01-10T09:30:29Z</time>
      </trkpt>
      <trkpt lat="43.53294" lon="3.50182">
        <ele>41.7</ele>
        <time>2019-01-10T09:30:32Z</time>
      </trkpt>
      <trkpt lat="43.53296" lon="3.50186">
        <ele>41.8</ele>
        <time>2019-01-10T09:30:35Z</time>
      </trkpt>
      <trkpt lat="43.53298" lon="3.50189">
        <ele>41.8</ele>
        <time>2019-01-10T09:30:37Z</time>
      </trkpt>
      <trkpt lat="43.53301" lon="3.50189">
        <ele>41.8</ele>
        <time>2019-01-10T09:30:39Z</time>
      </trkpt>
      <trkpt lat="43.53304" lon="3.50188">
        <ele>41.8</ele>
        <time>2019-01-10T09:30:41Z</time>
      </trkpt>
      <trkpt lat="43.53307" lon="3.50185">
        <ele>41.8</ele>
        <time>2019-01-10T09:30:44Z</time>
      </trkpt>
      <trkpt lat="43.53309" lon="3.50183">
        <ele>41.7</ele>
        <time>2019-01-10T09:30:47Z</time>
      </trkpt>
      <trkpt lat="43.53312" lon="3.50183">
        <ele>41.8</ele>
        <time>2019-01-10T09:30:50Z</time>
      </trkpt>
      <trkpt lat="43.53315" lon="3.50182">
        <ele>41.8</ele>
        <time>2019-01-10T09:30:52Z</time>
      </trkpt>
      <trkpt lat="43.53318" lon="3.50181">
        <ele>41.8</ele>
        <time>2019-01-10T09:30:54Z</time>
      </trkpt>
      <trkpt lat="43.53321" lon="3.5018">
        <ele>41.7</ele>
        <time>2019-01-10T09:30:57Z</time>
      </trkpt>
      <trkpt lat="43.53323" lon="3.50177">
        <ele>41.7</ele>
        <time>2019-01-10T09:30:59Z</time>
      </trkpt>
      <trkpt lat="43.53325" lon="3.50174">
        <ele>41.7</ele>
        <time>2019-01-10T09:31:01Z</time>
      </trkpt>
      <trkpt lat="43.53329" lon="3.50172">
        <ele>41.6</ele>
        <time>2019-01-10T09:31:04Z</time>
      </trkpt>
      <trkpt lat="43.53332" lon="3.50175">
        <ele>41.7</ele>
        <time>2019-01-10T09:31:07Z</time>
      </trkpt>
      <trkpt lat="43.53334" lon="3.50177">
        <ele>41.9</ele>
        <time>2019-01-10T09:31:09Z</time>
      </trkpt>
      <trkpt lat="43.53336" lon="3.5018">
        <ele>42</ele>
        <time>2019-01-10T09:31:11Z</time>
      </trkpt>
      <trkpt lat="43.53337" lon="3.50184">
        <ele>42.2</ele>
        <time>2019-01-10T09:31:14Z</time>
      </trkpt>
      <trkpt lat="43.53339" lon="3.50188">
        <ele>42.3</ele>
        <time>2019-01-10T09:31:17Z</time>
      </trkpt>
      <trkpt lat="43.53341" lon="3.50191">
        <ele>42.4</ele>
        <time>2019-01-10T09:31:22Z</time>
      </trkpt>
      <trkpt lat="43.53343" lon="3.50193">
        <ele>42.5</ele>
        <time>2019-01-10T09:31:25Z</time>
      </trkpt>
      <trkpt lat="43.53345" lon="3.50198">
        <ele>42.7</ele>
        <time>2019-01-10T09:31:28Z</time>
      </trkpt>
      <trkpt lat="43.53347" lon="3.50202">
        <ele>42.8</ele>
        <time>2019-01-10T09:31:30Z</time>
      </trkpt>
      <trkpt lat="43.53348" lon="3.50207">
        <ele>43</ele>
        <time>2019-01-10T09:31:33Z</time>
      </trkpt>
      <trkpt lat="43.5335" lon="3.5021">
        <ele>43.1</ele>
        <time>2019-01-10T09:31:35Z</time>
      </trkpt>
      <trkpt lat="43.53351" lon="3.50214">
        <ele>43.2</ele>
        <time>2019-01-10T09:31:37Z</time>
      </trkpt>
      <trkpt lat="43.53353" lon="3.50218">
        <ele>43.4</ele>
        <time>2019-01-10T09:31:39Z</time>
      </trkpt>
      <trkpt lat="43.53355" lon="3.50222">
        <ele>43.5</ele>
        <time>2019-01-10T09:31:41Z</time>
      </trkpt>
      <trkpt lat="43.53356" lon="3.50225">
        <ele>43.7</ele>
        <time>2019-01-10T09:31:43Z</time>
      </trkpt>
      <trkpt lat="43.53358" lon="3.50229">
        <ele>43.9</ele>
        <time>2019-01-10T09:31:46Z</time>
      </trkpt>
      <trkpt lat="43.5336" lon="3.50233">
        <ele>44</ele>
        <time>2019-01-10T09:31:48Z</time>
      </trkpt>
      <trkpt lat="43.53362" lon="3.50237">
        <ele>44.1</ele>
        <time>2019-01-10T09:31:51Z</time>
      </trkpt>
      <trkpt lat="43.53363" lon="3.50241">
        <ele>44.3</ele>
        <time>2019-01-10T09:31:54Z</time>
      </trkpt>
      <trkpt lat="43.53364" lon="3.50244">
        <ele>44.4</ele>
        <time>2019-01-10T09:31:58Z</time>
      </trkpt>
      <trkpt lat="43.53366" lon="3.50248">
        <ele>44.6</ele>
        <time>2019-01-10T09:32:01Z</time>
      </trkpt>
      <trkpt lat="43.53367" lon="3.50253">
        <ele>44.8</ele>
        <time>2019-01-10T09:32:04Z</time>
      </trkpt>
      <trkpt lat="43.53369" lon="3.50258">
        <ele>45</ele>
        <time>2019-01-10T09:32:07Z</time>
      </trkpt>
      <trkpt lat="43.5337" lon="3.50262">
        <ele>45.1</ele>
        <time>2019-01-10T09:32:09Z</time>
      </trkpt>
      <trkpt lat="43.5337" lon="3.50267">
        <ele>45.3</ele>
        <time>2019-01-10T09:32:11Z</time>
      </trkpt>
      <trkpt lat="43.53372" lon="3.50271">
        <ele>45.6</ele>
        <time>2019-01-10T09:32:14Z</time>
      </trkpt>
      <trkpt lat="43.53374" lon="3.50276">
        <ele>45.8</ele>
        <time>2019-01-10T09:32:17Z</time>
      </trkpt>
      <trkpt lat="43.53376" lon="3.5028">
        <ele>45.9</ele>
        <time>2019-01-10T09:32:19Z</time>
      </trkpt>
      <trkpt lat="43.53378" lon="3.50285">
        <ele>46.1</ele>
        <time>2019-01-10T09:32:21Z</time>
      </trkpt>
      <trkpt lat="43.5338" lon="3.50289">
        <ele>46.3</ele>
        <time>2019-01-10T09:32:23Z</time>
      </trkpt>
      <trkpt lat="43.53381" lon="3.50293">
        <ele>46.5</ele>
        <time>2019-01-10T09:32:25Z</time>
      </trkpt>
      <trkpt lat="43.53382" lon="3.50297">
        <ele>46.8</ele>
        <time>2019-01-10T09:32:27Z</time>
      </trkpt>
      <trkpt lat="43.53384" lon="3.503">
        <ele>46.9</ele>
        <time>2019-01-10T09:32:29Z</time>
      </trkpt>
      <trkpt lat="43.53385" lon="3.50304">
        <ele>47.1</ele>
        <time>2019-01-10T09:32:31Z</time>
      </trkpt>
      <trkpt lat="43.53387" lon="3.50308">
        <ele>47.2</ele>
        <time>2019-01-10T09:32:33Z</time>
      </trkpt>
      <trkpt lat="43.53389" lon="3.50311">
        <ele>47.2</ele>
        <time>2019-01-10T09:32:35Z</time>
      </trkpt>
      <trkpt lat="43.53393" lon="3.50313">
        <ele>47.1</ele>
        <time>2019-01-10T09:32:38Z</time>
      </trkpt>
      <trkpt lat="43.53396" lon="3.50312">
        <ele>47.1</ele>
        <time>2019-01-10T09:32:40Z</time>
      </trkpt>
      <trkpt lat="43.53398" lon="3.50311">
        <ele>47.1</ele>
        <time>2019-01-10T09:32:42Z</time>
      </trkpt>
      <trkpt lat="43.53402" lon="3.50308">
        <ele>47.1</ele>
        <time>2019-01-10T09:32:45Z</time>
      </trkpt>
      <trkpt lat="43.53405" lon="3.50307">
        <ele>47.1</ele>
        <time>2019-01-10T09:32:48Z</time>
      </trkpt>
      <trkpt lat="43.53409" lon="3.50306">
        <ele>47.1</ele>
        <time>2019-01-10T09:32:51Z</time>
      </trkpt>
      <trkpt lat="43.53412" lon="3.50304">
        <ele>47.1</ele>
        <time>2019-01-10T09:32:54Z</time>
      </trkpt>
      <trkpt lat="43.53415" lon="3.50302">
        <ele>47.1</ele>
        <time>2019-01-10T09:32:57Z</time>
      </trkpt>
      <trkpt lat="43.53417" lon="3.50299">
        <ele>47.1</ele>
        <time>2019-01-10T09:32:59Z</time>
      </trkpt>
      <trkpt lat="43.53418" lon="3.50295">
        <ele>47.1</ele>
        <time>2019-01-10T09:33:02Z</time>
      </trkpt>
      <trkpt lat="43.53417" lon="3.50291">
        <ele>47.1</ele>
        <time>2019-01-10T09:33:04Z</time>
      </trkpt>
      <trkpt lat="43.53416" lon="3.50287">
        <ele>47.1</ele>
        <time>2019-01-10T09:33:06Z</time>
      </trkpt>
      <trkpt lat="43.53415" lon="3.50282">
        <ele>46.5</ele>
        <time>2019-01-10T09:33:09Z</time>
      </trkpt>
      <trkpt lat="43.53414" lon="3.50278">
        <ele>46.3</ele>
        <time>2019-01-10T09:33:12Z</time>
      </trkpt>
      <trkpt lat="43.53413" lon="3.50273">
        <ele>46.1</ele>
        <time>2019-01-10T09:33:15Z</time>
      </trkpt>
      <trkpt lat="43.53412" lon="3.50268">
        <ele>45.9</ele>
        <time>2019-01-10T09:33:18Z</time>
      </trkpt>
      <trkpt lat="43.53412" lon="3.50264">
        <ele>45.6</ele>
        <time>2019-01-10T09:33:21Z</time>
      </trkpt>
      <trkpt lat="43.5341" lon="3.50259">
        <ele>45.5</ele>
        <time>2019-01-10T09:33:24Z</time>
      </trkpt>
      <trkpt lat="43.53409" lon="3.50255">
        <ele>45.4</ele>
        <time>2019-01-10T09:33:26Z</time>
      </trkpt>
      <trkpt lat="43.53408" lon="3.5025">
        <ele>45.2</ele>
        <time>2019-01-10T09:33:28Z</time>
      </trkpt>
      <trkpt lat="43.53408" lon="3.50245">
        <ele>45.1</ele>
        <time>2019-01-10T09:33:30Z</time>
      </trkpt>
      <trkpt lat="43.53406" lon="3.50241">
        <ele>44.9</ele>
        <time>2019-01-10T09:33:32Z</time>
      </trkpt>
      <trkpt lat="43.53404" lon="3.50236">
        <ele>44.8</ele>
        <time>2019-01-10T09:33:34Z</time>
      </trkpt>
      <trkpt lat="43.53402" lon="3.50232">
        <ele>44.6</ele>
        <time>2019-01-10T09:33:36Z</time>
      </trkpt>
      <trkpt lat="43.53401" lon="3.50228">
        <ele>44.5</ele>
        <time>2019-01-10T09:33:38Z</time>
      </trkpt>
      <trkpt lat="43.53399" lon="3.50225">
        <ele>44.4</ele>
        <time>2019-01-10T09:33:40Z</time>
      </trkpt>
      <trkpt lat="43.53398" lon="3.5022">
        <ele>44.2</ele>
        <time>2019-01-10T09:33:43Z</time>
      </trkpt>
      <trkpt lat="43.53395" lon="3.50216">
        <ele>44</ele>
        <time>2019-01-10T09:33:46Z</time>
      </trkpt>
      <trkpt lat="43.53394" lon="3.50213">
        <ele>43.9</ele>
        <time>2019-01-10T09:33:48Z</time>
      </trkpt>
      <trkpt lat="43.53392" lon="3.50209">
        <ele>43.7</ele>
        <time>2019-01-10T09:33:50Z</time>
      </trkpt>
      <trkpt lat="43.53389" lon="3.50207">
        <ele>43.7</ele>
        <time>2019-01-10T09:33:52Z</time>
      </trkpt>
      <trkpt lat="43.53386" lon="3.50207">
        <ele>43.7</ele>
        <time>2019-01-10T09:33:54Z</time>
      </trkpt>
      <trkpt lat="43.53382" lon="3.50208">
        <ele>43.7</ele>
        <time>2019-01-10T09:33:57Z</time>
      </trkpt>
      <trkpt lat="43.53379" lon="3.50209">
        <ele>43.7</ele>
        <time>2019-01-10T09:34:00Z</time>
      </trkpt>
    </trkseg>
  </trk>
</gpx>